GEFSSGP_prec_meanprecacc_006.txt.gz
Total_Precipitation_Accumulation
0.00 0.00 0.00 0.00 0.00 0.00 0.00 0.00 0.00 0.00 0.00 0.00 0.00 0.00 0.00 0.00 0.00 0.00 0.00 0.00 0.00 0.00 0.00 0.00 0.00 0.00 0.01 0.01 0.00 0.00 0.00 0.00 0.00 0.00 0.00 0.00 0.00 0.00 0.00 0.00 0.00 0.00 0.00 0.00 0.00 0.00 0.00 0.00 0.00
0.00 0.00 0.00 0.00 0.00 0.00 0.00 0.00 0.00 0.00 0.00 0.00 0.00 0.00 0.00 0.00 0.00 0.00 0.00 0.00 0.00 0.00 0.00 0.00 0.00 0.00 0.01 0.00 0.00 0.00 0.00 0.00 0.00 0.00 0.00 0.00 0.00 0.00 0.00 0.00 0.00 0.00 0.00 0.00 0.00 0.00 0.00 0.00 0.00
0.00 0.00 0.00 0.00 0.00 0.00 0.00 0.00 0.00 0.00 0.00 0.00 0.00 0.00 0.00 0.00 0.00 0.00 0.00 0.00 0.00 0.00 0.00 0.00 0.00 0.01 0.00 0.00 0.00 0.00 0.00 0.00 0.00 0.00 0.00 0.00 0.01 0.02 0.01 0.00 0.00 0.00 0.00 0.00 0.00 0.00 0.00 0.00 0.00
0.00 0.00 0.00 0.00 0.00 0.00 0.00 0.00 0.00 0.00 0.00 0.00 0.00 0.00 0.00 0.00 0.00 0.00 0.00 0.00 0.00 0.00 0.00 0.00 0.00 0.00 0.00 0.00 0.00 0.00 0.00 0.00 0.00 0.00 0.00 0.00 0.02 0.04 0.02 0.01 0.00 0.00 0.00 0.00 0.00 0.00 0.00 0.00 0.00
0.00 0.00 0.00 0.00 0.00 0.00 0.00 0.00 0.00 0.00 0.00 0.00 0.00 0.00 0.00 0.00 0.00 0.00 0.00 0.00 0.00 0.00 0.00 0.00 0.00 0.00 0.00 0.00 0.00 0.00 0.00 0.00 0.00 0.00 0.00 0.00 0.01 0.05 0.04 0.02 0.00 0.00 0.00 0.00 0.00 0.00 0.00 0.00 0.00
0.00 0.00 0.00 0.00 0.00 0.00 0.00 0.00 0.00 0.00 0.00 0.00 0.00 0.00 0.00 0.00 0.00 0.00 0.00 0.00 0.00 0.00 0.00 0.00 0.00 0.00 0.00 0.00 0.00 0.00 0.00 0.00 0.00 0.00 0.00 0.00 0.01 0.03 0.04 0.03 0.00 0.00 0.00 0.00 0.00 0.00 0.00 0.00 0.00
0.00 0.00 0.00 0.00 0.00 0.00 0.00 0.00 0.00 0.00 0.00 0.00 0.00 0.00 0.00 0.00 0.00 0.00 0.00 0.00 0.00 0.00 0.00 0.00 0.00 0.00 0.00 0.00 0.00 0.00 0.00 0.00 0.00 0.00 0.00 0.00 0.00 0.00 0.01 0.01 0.00 0.00 0.00 0.00 0.00 0.00 0.00 0.00 0.00
0.00 0.00 0.00 0.00 0.00 0.00 0.00 0.00 0.00 0.00 0.00 0.00 0.00 0.00 0.00 0.00 0.00 0.00 0.00 0.00 0.00 0.00 0.00 0.00 0.00 0.00 0.00 0.00 0.00 0.00 0.00 0.00 0.00 0.00 0.00 0.00 0.00 0.00 0.00 0.00 0.00 0.00 0.00 0.00 0.00 0.00 0.00 0.00 0.00
0.00 0.00 0.00 0.00 0.00 0.00 0.00 0.00 0.00 0.00 0.00 0.00 0.00 0.00 0.00 0.00 0.00 0.00 0.00 0.00 0.00 0.00 0.00 0.00 0.00 0.00 0.00 0.00 0.00 0.00 0.00 0.00 0.00 0.00 0.00 0.00 0.00 0.00 0.00 0.00 0.00 0.00 0.00 0.00 0.00 0.00 0.00 0.00 0.00
0.00 0.00 0.00 0.00 0.00 0.00 0.00 0.00 0.00 0.00 0.00 0.00 0.00 0.00 0.00 0.00 0.00 0.00 0.00 0.00 0.00 0.00 0.00 0.00 0.00 0.00 0.00 0.00 0.00 0.00 0.00 0.00 0.00 0.00 0.00 0.00 0.00 0.00 0.00 0.00 0.00 0.00 0.00 0.00 0.00 0.00 0.00 0.00 0.00
0.00 0.00 0.00 0.00 0.00 0.00 0.00 0.00 0.00 0.00 0.00 0.00 0.00 0.00 0.00 0.00 0.00 0.00 0.00 0.00 0.00 0.00 0.00 0.00 0.00 0.00 0.00 0.00 0.00 0.00 0.00 0.00 0.00 0.00 0.00 0.00 0.00 0.00 0.00 0.00 0.00 0.00 0.00 0.00 0.00 0.00 0.00 0.00 0.00
0.00 0.00 0.00 0.00 0.00 0.00 0.00 0.00 0.00 0.00 0.00 0.00 0.00 0.00 0.00 0.00 0.00 0.00 0.00 0.00 0.00 0.00 0.00 0.00 0.00 0.00 0.00 0.00 0.00 0.00 0.00 0.00 0.00 0.00 0.00 0.00 0.00 0.00 0.00 0.00 0.00 0.00 0.00 0.00 0.00 0.00 0.00 0.00 0.00
0.00 0.00 0.00 0.00 0.00 0.00 0.00 0.00 0.00 0.00 0.00 0.00 0.00 0.00 0.00 0.00 0.00 0.00 0.00 0.00 0.00 0.00 0.00 0.00 0.00 0.00 0.00 0.00 0.00 0.00 0.00 0.00 0.00 0.00 0.00 0.00 0.00 0.00 0.00 0.00 0.00 0.01 0.01 0.01 0.01 0.00 0.00 0.00 0.00
0.00 0.00 0.00 0.00 0.00 0.00 0.00 0.00 0.00 0.00 0.00 0.00 0.00 0.00 0.00 0.00 0.00 0.00 0.00 0.00 0.00 0.00 0.00 0.00 0.00 0.00 0.00 0.00 0.00 0.00 0.00 0.00 0.00 0.00 0.00 0.00 0.00 0.00 0.00 0.01 0.01 0.01 0.01 0.01 0.00 0.00 0.00 0.00 0.00
0.02 0.02 0.01 0.00 0.00 0.00 0.00 0.00 0.00 0.00 0.00 0.00 0.00 0.00 0.00 0.00 0.00 0.00 0.00 0.00 0.00 0.00 0.00 0.00 0.00 0.00 0.00 0.00 0.00 0.00 0.00 0.00 0.00 0.00 0.00 0.00 0.00 0.00 0.00 0.01 0.01 0.00 0.00 0.00 0.00 0.00 0.00 0.00 0.00
0.14 0.08 0.02 0.00 0.00 0.00 0.00 0.00 0.00 0.00 0.00 0.00 0.00 0.00 0.00 0.00 0.00 0.00 0.00 0.00 0.00 0.00 0.00 0.00 0.00 0.00 0.00 0.00 0.00 0.00 0.00 0.00 0.00 0.00 0.00 0.00 0.00 0.00 0.00 0.00 0.00 0.00 0.00 0.00 0.00 0.00 0.00 0.00 0.00
0.16 0.08 0.02 0.00 0.00 0.00 0.00 0.00 0.00 0.00 0.00 0.00 0.00 0.00 0.00 0.00 0.00 0.00 0.00 0.00 0.00 0.00 0.00 0.00 0.00 0.00 0.00 0.00 0.00 0.00 0.00 0.00 0.00 0.00 0.00 0.00 0.00 0.00 0.00 0.00 0.00 0.00 0.00 0.00 0.00 0.00 0.00 0.00 0.00
0.07 0.05 0.03 0.01 0.00 0.00 0.00 0.00 0.00 0.00 0.00 0.00 0.00 0.00 0.00 0.00 0.00 0.00 0.00 0.00 0.00 0.00 0.00 0.00 0.00 0.00 0.00 0.00 0.00 0.00 0.00 0.00 0.00 0.00 0.00 0.00 0.00 0.00 0.00 0.00 0.00 0.00 0.00 0.00 0.00 0.00 0.00 0.00 0.00
0.10 0.08 0.06 0.01 0.00 0.00 0.00 0.00 0.00 0.00 0.00 0.00 0.00 0.00 0.00 0.00 0.00 0.00 0.00 0.00 0.00 0.00 0.00 0.00 0.00 0.00 0.00 0.00 0.00 0.00 0.00 0.00 0.00 0.00 0.00 0.00 0.00 0.00 0.00 0.00 0.00 0.00 0.00 0.00 0.00 0.00 0.00 0.00 0.00
0.12 0.11 0.09 0.04 0.00 0.01 0.00 0.00 0.00 0.00 0.00 0.00 0.00 0.00 0.00 0.00 0.00 0.00 0.00 0.00 0.00 0.00 0.00 0.00 0.00 0.00 0.00 0.00 0.00 0.00 0.00 0.00 0.00 0.00 0.00 0.00 0.00 0.00 0.00 0.00 0.00 0.00 0.00 0.00 0.00 0.00 0.00 0.00 0.00
0.14 0.10 0.09 0.08 0.03 0.02 0.00 0.00 0.00 0.00 0.00 0.00 0.00 0.00 0.00 0.00 0.00 0.00 0.00 0.00 0.00 0.00 0.00 0.00 0.00 0.00 0.00 0.00 0.00 0.00 0.00 0.00 0.00 0.00 0.00 0.00 0.00 0.00 0.00 0.00 0.00 0.00 0.00 0.00 0.00 0.00 0.00 0.00 0.00
0.14 0.08 0.08 0.10 0.08 0.04 0.00 0.00 0.00 0.00 0.00 0.00 0.00 0.00 0.00 0.00 0.00 0.00 0.00 0.00 0.00 0.00 0.00 0.00 0.00 0.00 0.00 0.00 0.00 0.00 0.00 0.00 0.00 0.00 0.00 0.00 0.00 0.00 0.00 0.00 0.00 0.00 0.00 0.00 0.00 0.00 0.00 0.00 0.00
0.15 0.11 0.11 0.14 0.13 0.08 0.01 0.00 0.00 0.00 0.00 0.00 0.00 0.00 0.00 0.00 0.00 0.00 0.00 0.00 0.00 0.00 0.00 0.00 0.00 0.00 0.00 0.00 0.00 0.00 0.00 0.00 0.00 0.00 0.00 0.00 0.00 0.00 0.00 0.00 0.00 0.00 0.00 0.00 0.00 0.00 0.00 0.00 0.00
0.22 0.25 0.21 0.16 0.15 0.09 0.02 0.00 0.00 0.00 0.00 0.00 0.00 0.00 0.00 0.00 0.00 0.00 0.00 0.00 0.00 0.00 0.00 0.00 0.00 0.00 0.00 0.00 0.00 0.00 0.00 0.00 0.00 0.00 0.00 0.00 0.00 0.00 0.00 0.00 0.00 0.00 0.00 0.00 0.00 0.00 0.00 0.00 0.00
0.44 0.47 0.38 0.25 0.15 0.06 0.01 0.00 0.00 0.00 0.00 0.00 0.00 0.00 0.00 0.00 0.00 0.00 0.00 0.00 0.00 0.00 0.00 0.00 0.00 0.00 0.00 0.00 0.00 0.00 0.00 0.00 0.00 0.00 0.00 0.00 0.00 0.00 0.00 0.00 0.00 0.00 0.00 0.00 0.00 0.00 0.00 0.00 0.00
0.48 0.43 0.31 0.17 0.07 0.01 0.00 0.00 0.00 0.00 0.00 0.00 0.00 0.00 0.00 0.00 0.00 0.00 0.00 0.00 0.00 0.00 0.00 0.00 0.00 0.00 0.00 0.00 0.00 0.00 0.00 0.00 0.00 0.00 0.00 0.00 0.00 0.00 0.00 0.00 0.00 0.00 0.00 0.00 0.00 0.00 0.00 0.00 0.00
0.35 0.31 0.17 0.04 0.01 0.00 0.00 0.00 0.00 0.00 0.00 0.00 0.00 0.00 0.00 0.00 0.00 0.00 0.00 0.00 0.00 0.00 0.00 0.00 0.00 0.00 0.00 0.00 0.00 0.00 0.00 0.00 0.00 0.00 0.00 0.00 0.00 0.00 0.00 0.00 0.00 0.00 0.00 0.00 0.00 0.00 0.00 0.00 0.00
0.28 0.20 0.12 0.04 0.01 0.01 0.00 0.00 0.00 0.00 0.00 0.00 0.00 0.00 0.00 0.00 0.00 0.00 0.00 0.00 0.00 0.00 0.00 0.00 0.00 0.00 0.00 0.00 0.00 0.00 0.00 0.00 0.00 0.00 0.00 0.00 0.00 0.00 0.00 0.00 0.00 0.00 0.00 0.00 0.00 0.00 0.00 0.00 0.00
0.27 0.17 0.07 0.02 0.01 0.00 0.00 0.00 0.00 0.00 0.00 0.00 0.00 0.00 0.00 0.00 0.00 0.00 0.00 0.00 0.00 0.00 0.00 0.00 0.00 0.00 0.00 0.00 0.00 0.00 0.00 0.00 0.00 0.00 0.00 0.00 0.00 0.00 0.00 0.00 0.00 0.00 0.00 0.00 0.00 0.00 0.00 0.00 0.00
0.15 0.08 0.02 0.01 0.00 0.00 0.00 0.00 0.00 0.00 0.00 0.00 0.00 0.00 0.00 0.00 0.00 0.00 0.00 0.00 0.00 0.00 0.00 0.00 0.00 0.00 0.00 0.00 0.00 0.00 0.00 0.00 0.00 0.00 0.00 0.00 0.00 0.00 0.00 0.00 0.00 0.00 0.00 0.00 0.00 0.00 0.00 0.00 0.00

GEFSSGP_prec_meanprecacc_012.txt.gz
Total_Precipitation_Accumulation
0.00 0.00 0.00 0.00 0.00 0.00 0.00 0.00 0.00 0.00 0.00 0.00 0.00 0.00 0.00 0.00 0.00 0.00 0.00 0.00 0.00 0.00 0.00 0.00 0.00 0.01 0.01 0.01 0.01 0.00 0.00 0.00 0.00 0.00 0.00 0.00 0.00 0.00 0.00 0.00 0.00 0.00 0.00 0.00 0.00 0.00 0.00 0.00 0.00
0.00 0.00 0.00 0.00 0.00 0.00 0.00 0.00 0.00 0.00 0.00 0.00 0.00 0.00 0.00 0.00 0.00 0.00 0.00 0.00 0.00 0.00 0.00 0.00 0.00 0.00 0.01 0.01 0.00 0.00 0.00 0.00 0.00 0.00 0.00 0.00 0.00 0.00 0.00 0.00 0.00 0.00 0.00 0.00 0.00 0.00 0.00 0.00 0.00
0.00 0.00 0.00 0.00 0.00 0.00 0.00 0.00 0.00 0.00 0.00 0.00 0.00 0.00 0.00 0.00 0.00 0.00 0.00 0.00 0.00 0.00 0.00 0.00 0.00 0.01 0.01 0.00 0.00 0.00 0.00 0.00 0.00 0.00 0.00 0.01 0.02 0.02 0.01 0.00 0.00 0.00 0.00 0.00 0.00 0.00 0.00 0.00 0.00
0.00 0.00 0.00 0.00 0.00 0.00 0.00 0.00 0.00 0.00 0.00 0.00 0.00 0.00 0.00 0.00 0.00 0.00 0.00 0.00 0.00 0.00 0.00 0.00 0.00 0.00 0.00 0.00 0.00 0.00 0.00 0.00 0.00 0.00 0.00 0.00 0.02 0.05 0.04 0.01 0.00 0.00 0.00 0.00 0.00 0.00 0.00 0.00 0.00
0.00 0.00 0.00 0.00 0.00 0.00 0.00 0.00 0.00 0.00 0.00 0.00 0.00 0.00 0.00 0.00 0.00 0.00 0.00 0.00 0.00 0.00 0.00 0.00 0.00 0.00 0.00 0.00 0.00 0.00 0.00 0.00 0.00 0.00 0.00 0.00 0.02 0.05 0.06 0.02 0.00 0.00 0.00 0.00 0.00 0.00 0.00 0.00 0.00
0.00 0.00 0.00 0.00 0.00 0.00 0.00 0.00 0.00 0.00 0.00 0.00 0.00 0.00 0.00 0.00 0.00 0.00 0.00 0.00 0.00 0.00 0.00 0.00 0.00 0.00 0.00 0.00 0.00 0.00 0.00 0.00 0.00 0.00 0.00 0.00 0.01 0.03 0.05 0.03 0.00 0.00 0.00 0.00 0.00 0.00 0.00 0.00 0.00
0.00 0.00 0.00 0.00 0.00 0.00 0.00 0.00 0.00 0.00 0.00 0.00 0.00 0.00 0.00 0.00 0.00 0.00 0.00 0.00 0.00 0.00 0.00 0.00 0.00 0.00 0.00 0.00 0.00 0.00 0.00 0.00 0.00 0.00 0.00 0.00 0.00 0.00 0.01 0.01 0.00 0.00 0.00 0.00 0.00 0.00 0.00 0.00 0.00
0.00 0.00 0.00 0.00 0.00 0.00 0.00 0.00 0.00 0.00 0.00 0.00 0.00 0.00 0.00 0.00 0.00 0.00 0.00 0.00 0.00 0.00 0.00 0.00 0.00 0.00 0.00 0.00 0.00 0.00 0.00 0.00 0.00 0.00 0.00 0.00 0.00 0.00 0.00 0.00 0.00 0.00 0.00 0.00 0.00 0.00 0.00 0.00 0.00
0.00 0.00 0.00 0.00 0.00 0.00 0.00 0.00 0.00 0.00 0.00 0.00 0.00 0.00 0.00 0.00 0.00 0.00 0.00 0.00 0.00 0.00 0.00 0.00 0.00 0.00 0.00 0.00 0.00 0.00 0.00 0.00 0.00 0.00 0.00 0.00 0.00 0.00 0.00 0.00 0.00 0.00 0.00 0.00 0.00 0.00 0.00 0.00 0.00
0.00 0.00 0.00 0.00 0.00 0.00 0.00 0.00 0.00 0.00 0.00 0.00 0.00 0.00 0.00 0.00 0.00 0.00 0.00 0.00 0.00 0.00 0.00 0.00 0.00 0.00 0.00 0.00 0.00 0.00 0.00 0.00 0.00 0.00 0.00 0.00 0.00 0.00 0.00 0.00 0.00 0.00 0.00 0.00 0.00 0.00 0.00 0.00 0.00
0.00 0.00 0.00 0.00 0.00 0.00 0.00 0.00 0.00 0.00 0.00 0.00 0.00 0.00 0.00 0.00 0.00 0.00 0.00 0.00 0.00 0.00 0.00 0.00 0.00 0.00 0.00 0.00 0.00 0.00 0.00 0.00 0.00 0.00 0.00 0.00 0.00 0.00 0.00 0.00 0.00 0.00 0.00 0.00 0.00 0.00 0.00 0.00 0.00
0.00 0.00 0.00 0.00 0.00 0.00 0.00 0.00 0.00 0.00 0.00 0.00 0.00 0.00 0.00 0.00 0.00 0.00 0.00 0.00 0.00 0.00 0.00 0.00 0.00 0.00 0.00 0.00 0.00 0.00 0.00 0.00 0.00 0.00 0.00 0.00 0.00 0.00 0.00 0.00 0.00 0.00 0.00 0.00 0.00 0.00 0.00 0.00 0.00
0.01 0.00 0.00 0.00 0.00 0.00 0.00 0.00 0.00 0.00 0.00 0.00 0.00 0.00 0.00 0.00 0.00 0.00 0.00 0.00 0.00 0.00 0.00 0.00 0.00 0.00 0.00 0.00 0.00 0.00 0.00 0.00 0.00 0.00 0.00 0.00 0.00 0.00 0.00 0.00 0.00 0.01 0.01 0.01 0.01 0.00 0.00 0.00 0.00
0.01 0.01 0.00 0.00 0.00 0.00 0.00 0.00 0.00 0.00 0.00 0.00 0.00 0.00 0.00 0.00 0.00 0.00 0.00 0.00 0.00 0.00 0.00 0.00 0.00 0.00 0.00 0.00 0.00 0.00 0.00 0.00 0.00 0.00 0.00 0.00 0.00 0.00 0.00 0.01 0.01 0.01 0.01 0.01 0.00 0.00 0.00 0.00 0.00
0.02 0.02 0.01 0.00 0.00 0.00 0.00 0.00 0.00 0.00 0.00 0.00 0.00 0.00 0.00 0.00 0.00 0.00 0.00 0.00 0.00 0.00 0.00 0.00 0.00 0.00 0.00 0.00 0.00 0.00 0.00 0.00 0.00 0.00 0.00 0.00 0.00 0.00 0.00 0.01 0.01 0.00 0.00 0.00 0.00 0.00 0.00 0.00 0.00
0.15 0.09 0.03 0.00 0.00 0.00 0.00 0.00 0.00 0.00 0.00 0.00 0.00 0.00 0.00 0.00 0.00 0.00 0.00 0.00 0.00 0.00 0.00 0.00 0.00 0.00 0.00 0.00 0.00 0.00 0.00 0.00 0.00 0.00 0.00 0.00 0.00 0.00 0.00 0.00 0.00 0.00 0.00 0.00 0.00 0.00 0.00 0.00 0.00
0.17 0.09 0.03 0.01 0.00 0.00 0.01 0.00 0.00 0.00 0.00 0.00 0.00 0.00 0.00 0.00 0.00 0.00 0.00 0.00 0.00 0.00 0.00 0.00 0.00 0.00 0.00 0.00 0.00 0.00 0.00 0.00 0.00 0.00 0.00 0.00 0.00 0.00 0.00 0.00 0.00 0.00 0.00 0.00 0.00 0.00 0.00 0.00 0.00
0.08 0.06 0.04 0.01 0.00 0.01 0.01 0.00 0.00 0.00 0.00 0.00 0.00 0.00 0.00 0.00 0.00 0.00 0.00 0.00 0.00 0.00 0.00 0.00 0.00 0.00 0.00 0.00 0.00 0.00 0.00 0.00 0.00 0.00 0.00 0.00 0.00 0.00 0.00 0.00 0.00 0.00 0.00 0.00 0.00 0.00 0.00 0.00 0.00
0.10 0.09 0.06 0.01 0.00 0.02 0.01 0.00 0.00 0.00 0.00 0.00 0.00 0.00 0.00 0.00 0.00 0.00 0.00 0.00 0.00 0.00 0.00 0.00 0.00 0.00 0.00 0.00 0.00 0.00 0.00 0.00 0.00 0.00 0.00 0.00 0.00 0.00 0.00 0.00 0.00 0.00 0.00 0.00 0.00 0.00 0.00 0.00 0.00
0.12 0.11 0.10 0.04 0.01 0.03 0.02 0.01 0.00 0.00 0.00 0.00 0.00 0.00 0.00 0.00 0.00 0.00 0.00 0.00 0.00 0.00 0.00 0.00 0.00 0.00 0.00 0.00 0.00 0.00 0.00 0.00 0.00 0.00 0.00 0.00 0.00 0.00 0.00 0.00 0.00 0.00 0.00 0.00 0.00 0.00 0.00 0.00 0.00
0.14 0.10 0.10 0.09 0.06 0.06 0.05 0.02 0.00 0.00 0.00 0.00 0.00 0.00 0.00 0.00 0.00 0.00 0.00 0.00 0.00 0.00 0.00 0.00 0.00 0.00 0.00 0.00 0.00 0.00 0.00 0.00 0.00 0.00 0.00 0.00 0.00 0.00 0.00 0.00 0.00 0.00 0.00 0.00 0.00 0.00 0.00 0.00 0.00
0.14 0.08 0.08 0.12 0.13 0.11 0.07 0.04 0.00 0.00 0.00 0.00 0.00 0.00 0.00 0.00 0.00 0.00 0.00 0.00 0.00 0.00 0.00 0.00 0.00 0.00 0.00 0.00 0.00 0.00 0.00 0.00 0.00 0.00 0.00 0.00 0.00 0.00 0.00 0.00 0.00 0.00 0.00 0.00 0.00 0.00 0.00 0.00 0.00
0.15 0.11 0.12 0.17 0.21 0.19 0.11 0.06 0.01 0.00 0.00 0.00 0.00 0.00 0.00 0.00 0.00 0.00 0.00 0.00 0.00 0.00 0.00 0.00 0.00 0.00 0.00 0.00 0.00 0.00 0.00 0.00 0.00 0.00 0.00 0.00 0.00 0.00 0.00 0.00 0.00 0.00 0.00 0.00 0.00 0.00 0.00 0.00 0.00
0.23 0.27 0.26 0.25 0.32 0.31 0.16 0.09 0.03 0.00 0.00 0.00 0.00 0.00 0.00 0.00 0.00 0.00 0.00 0.00 0.00 0.00 0.00 0.00 0.00 0.00 0.00 0.00 0.00 0.00 0.00 0.00 0.00 0.00 0.00 0.00 0.00 0.00 0.00 0.00 0.00 0.00 0.00 0.00 0.00 0.00 0.00 0.00 0.00
0.48 0.58 0.57 0.44 0.41 0.31 0.13 0.11 0.04 0.00 0.00 0.00 0.00 0.00 0.00 0.00 0.00 0.00 0.00 0.00 0.00 0.00 0.00 0.00 0.00 0.00 0.00 0.00 0.00 0.00 0.00 0.00 0.00 0.00 0.00 0.00 0.00 0.00 0.00 0.00 0.00 0.00 0.00 0.00 0.00 0.00 0.00 0.00 0.00
0.52 0.56 0.54 0.38 0.24 0.14 0.10 0.11 0.04 0.00 0.00 0.00 0.00 0.00 0.00 0.00 0.00 0.00 0.00 0.00 0.00 0.00 0.00 0.00 0.00 0.00 0.00 0.00 0.00 0.00 0.00 0.00 0.00 0.00 0.00 0.00 0.00 0.00 0.00 0.00 0.00 0.00 0.00 0.00 0.00 0.00 0.00 0.00 0.00
0.42 0.43 0.37 0.34 0.20 0.13 0.10 0.08 0.03 0.01 0.00 0.00 0.00 0.00 0.00 0.00 0.00 0.00 0.00 0.00 0.00 0.00 0.00 0.00 0.00 0.00 0.00 0.00 0.00 0.00 0.00 0.00 0.00 0.00 0.00 0.00 0.00 0.00 0.00 0.00 0.00 0.00 0.00 0.00 0.00 0.00 0.00 0.00 0.00
0.37 0.33 0.38 0.44 0.37 0.24 0.12 0.06 0.02 0.00 0.00 0.00 0.00 0.00 0.00 0.00 0.00 0.00 0.00 0.00 0.00 0.00 0.00 0.00 0.00 0.00 0.00 0.00 0.00 0.00 0.00 0.00 0.00 0.00 0.00 0.00 0.00 0.00 0.00 0.00 0.00 0.00 0.00 0.00 0.00 0.00 0.00 0.00 0.00
0.38 0.37 0.39 0.34 0.27 0.29 0.17 0.05 0.01 0.00 0.00 0.00 0.00 0.00 0.00 0.00 0.00 0.00 0.00 0.00 0.00 0.00 0.00 0.00 0.00 0.00 0.00 0.00 0.00 0.00 0.00 0.00 0.00 0.00 0.00 0.00 0.00 0.00 0.00 0.00 0.00 0.00 0.00 0.00 0.00 0.00 0.00 0.00 0.00
0.29 0.28 0.31 0.33 0.25 0.22 0.17 0.05 0.00 0.00 0.00 0.00 0.00 0.00 0.00 0.00 0.00 0.00 0.00 0.00 0.00 0.00 0.00 0.00 0.00 0.00 0.00 0.00 0.00 0.00 0.00 0.00 0.00 0.00 0.00 0.00 0.00 0.00 0.00 0.00 0.00 0.00 0.00 0.00 0.00 0.00 0.00 0.00 0.00

GEFSSGP_prec_meanprecacc_018.txt.gz
Total_Precipitation_Accumulation
0.00 0.00 0.00 0.00 0.00 0.00 0.00 0.00 0.00 0.00 0.00 0.00 0.00 0.00 0.00 0.00 0.00 0.00 0.00 0.00 0.00 0.00 0.00 0.01 0.01 0.02 0.02 0.01 0.01 0.00 0.00 0.00 0.00 0.01 0.01 0.01 0.01 0.00 0.00 0.00 0.00 0.00 0.00 0.00 0.00 0.00 0.00 0.00 0.00
0.00 0.00 0.00 0.00 0.00 0.00 0.00 0.00 0.00 0.00 0.00 0.00 0.00 0.00 0.00 0.00 0.00 0.00 0.00 0.00 0.00 0.00 0.00 0.00 0.01 0.01 0.02 0.01 0.00 0.00 0.00 0.00 0.00 0.00 0.00 0.00 0.01 0.00 0.00 0.00 0.00 0.00 0.00 0.00 0.00 0.00 0.00 0.00 0.00
0.00 0.00 0.00 0.00 0.00 0.00 0.00 0.00 0.00 0.00 0.00 0.00 0.00 0.00 0.00 0.00 0.00 0.00 0.00 0.00 0.00 0.00 0.00 0.00 0.01 0.01 0.01 0.01 0.00 0.00 0.00 0.00 0.00 0.00 0.00 0.01 0.02 0.03 0.02 0.00 0.00 0.00 0.00 0.00 0.00 0.00 0.00 0.00 0.00
0.00 0.00 0.00 0.00 0.00 0.00 0.00 0.00 0.00 0.00 0.00 0.00 0.00 0.00 0.00 0.00 0.00 0.00 0.00 0.00 0.00 0.00 0.00 0.00 0.00 0.01 0.01 0.00 0.00 0.00 0.00 0.00 0.00 0.00 0.00 0.01 0.03 0.07 0.05 0.01 0.00 0.00 0.00 0.00 0.00 0.00 0.00 0.00 0.00
0.00 0.00 0.00 0.00 0.00 0.00 0.00 0.00 0.00 0.00 0.00 0.00 0.00 0.00 0.00 0.00 0.00 0.00 0.00 0.00 0.00 0.00 0.00 0.00 0.00 0.00 0.00 0.00 0.00 0.00 0.00 0.00 0.00 0.00 0.00 0.00 0.02 0.07 0.08 0.03 0.00 0.00 0.00 0.00 0.00 0.00 0.00 0.00 0.00
0.00 0.00 0.00 0.00 0.00 0.00 0.00 0.00 0.00 0.00 0.00 0.00 0.00 0.00 0.00 0.00 0.00 0.00 0.00 0.00 0.00 0.00 0.00 0.00 0.00 0.00 0.00 0.00 0.00 0.00 0.00 0.00 0.00 0.00 0.00 0.00 0.01 0.04 0.07 0.04 0.01 0.00 0.00 0.00 0.00 0.00 0.00 0.00 0.00
0.00 0.00 0.00 0.00 0.00 0.00 0.00 0.00 0.00 0.00 0.00 0.00 0.00 0.00 0.00 0.00 0.00 0.00 0.00 0.00 0.00 0.00 0.00 0.00 0.00 0.00 0.00 0.00 0.00 0.00 0.00 0.00 0.00 0.00 0.00 0.00 0.00 0.01 0.01 0.01 0.00 0.00 0.00 0.00 0.00 0.00 0.00 0.00 0.01
0.00 0.00 0.00 0.00 0.00 0.00 0.00 0.00 0.00 0.00 0.00 0.00 0.00 0.00 0.00 0.00 0.00 0.00 0.00 0.00 0.00 0.00 0.00 0.00 0.00 0.00 0.00 0.00 0.00 0.00 0.00 0.00 0.00 0.00 0.00 0.00 0.00 0.00 0.00 0.00 0.00 0.00 0.00 0.00 0.00 0.00 0.00 0.00 0.00
0.00 0.00 0.00 0.00 0.00 0.00 0.00 0.00 0.00 0.00 0.00 0.00 0.00 0.00 0.00 0.00 0.00 0.00 0.00 0.00 0.00 0.00 0.00 0.00 0.00 0.00 0.00 0.00 0.00 0.00 0.00 0.00 0.00 0.00 0.00 0.00 0.00 0.00 0.00 0.00 0.00 0.00 0.00 0.00 0.00 0.00 0.01 0.01 0.00
0.00 0.00 0.00 0.00 0.00 0.00 0.00 0.00 0.00 0.00 0.00 0.00 0.00 0.00 0.00 0.00 0.00 0.00 0.00 0.00 0.00 0.00 0.00 0.00 0.00 0.00 0.00 0.00 0.00 0.00 0.00 0.00 0.00 0.00 0.00 0.00 0.00 0.00 0.00 0.00 0.00 0.00 0.00 0.00 0.00 0.00 0.00 0.00 0.00
0.00 0.00 0.00 0.00 0.00 0.00 0.00 0.00 0.00 0.00 0.00 0.00 0.00 0.00 0.00 0.00 0.00 0.00 0.00 0.00 0.00 0.00 0.00 0.00 0.00 0.00 0.00 0.00 0.00 0.00 0.00 0.00 0.00 0.00 0.00 0.00 0.00 0.00 0.00 0.00 0.00 0.00 0.00 0.00 0.00 0.00 0.00 0.00 0.00
0.00 0.00 0.00 0.00 0.00 0.00 0.00 0.00 0.00 0.00 0.00 0.00 0.00 0.00 0.00 0.00 0.00 0.00 0.00 0.00 0.00 0.00 0.00 0.00 0.00 0.00 0.00 0.00 0.00 0.00 0.00 0.00 0.00 0.00 0.00 0.00 0.00 0.00 0.00 0.00 0.00 0.00 0.00 0.00 0.00 0.00 0.00 0.00 0.00
0.01 0.00 0.00 0.00 0.00 0.00 0.00 0.00 0.00 0.00 0.00 0.00 0.00 0.00 0.00 0.00 0.00 0.00 0.00 0.00 0.00 0.00 0.00 0.00 0.00 0.00 0.00 0.00 0.00 0.00 0.00 0.00 0.00 0.00 0.00 0.00 0.00 0.00 0.00 0.00 0.00 0.01 0.01 0.01 0.01 0.00 0.00 0.00 0.00
0.01 0.01 0.00 0.00 0.00 0.00 0.00 0.00 0.00 0.00 0.00 0.00 0.00 0.00 0.00 0.00 0.00 0.00 0.00 0.00 0.00 0.00 0.00 0.00 0.00 0.00 0.00 0.00 0.00 0.00 0.00 0.00 0.00 0.00 0.00 0.00 0.00 0.00 0.00 0.01 0.01 0.01 0.01 0.01 0.00 0.00 0.00 0.00 0.00
0.02 0.02 0.01 0.00 0.00 0.00 0.00 0.00 0.00 0.00 0.00 0.00 0.00 0.00 0.00 0.00 0.00 0.00 0.00 0.00 0.00 0.00 0.00 0.00 0.00 0.00 0.00 0.00 0.00 0.01 0.00 0.00 0.00 0.00 0.00 0.00 0.00 0.00 0.00 0.01 0.01 0.00 0.00 0.00 0.00 0.00 0.00 0.00 0.00
0.15 0.09 0.03 0.00 0.00 0.00 0.00 0.00 0.00 0.00 0.00 0.00 0.00 0.00 0.00 0.00 0.00 0.00 0.00 0.00 0.00 0.00 0.00 0.00 0.00 0.00 0.00 0.00 0.01 0.01 0.01 0.00 0.00 0.00 0.00 0.00 0.00 0.00 0.00 0.00 0.00 0.00 0.00 0.00 0.00 0.00 0.00 0.00 0.00
0.18 0.10 0.03 0.01 0.00 0.00 0.01 0.00 0.00 0.00 0.00 0.00 0.00 0.00 0.00 0.00 0.00 0.00 0.00 0.00 0.00 0.00 0.00 0.00 0.00 0.00 0.00 0.01 0.02 0.02 0.01 0.00 0.00 0.00 0.00 0.00 0.00 0.00 0.00 0.00 0.00 0.00 0.00 0.00 0.00 0.00 0.00 0.00 0.00
0.08 0.06 0.04 0.01 0.00 0.01 0.01 0.00 0.00 0.00 0.00 0.00 0.00 0.00 0.00 0.00 0.00 0.00 0.00 0.00 0.00 0.00 0.00 0.00 0.00 0.00 0.00 0.01 0.02 0.03 0.01 0.00 0.00 0.00 0.00 0.00 0.00 0.00 0.00 0.00 0.00 0.00 0.00 0.00 0.00 0.00 0.00 0.00 0.00
0.10 0.09 0.06 0.01 0.00 0.02 0.01 0.00 0.00 0.00 0.00 0.00 0.00 0.00 0.00 0.00 0.00 0.00 0.00 0.00 0.00 0.00 0.00 0.00 0.00 0.00 0.00 0.01 0.02 0.02 0.01 0.01 0.00 0.00 0.00 0.00 0.00 0.00 0.00 0.00 0.00 0.00 0.00 0.00 0.00 0.00 0.00 0.00 0.00
0.12 0.12 0.10 0.04 0.01 0.03 0.02 0.01 0.00 0.00 0.00 0.00 0.00 0.00 0.00 0.00 0.00 0.00 0.00 0.00 0.00 0.00 0.00 0.00 0.00 0.00 0.00 0.01 0.02 0.03 0.02 0.01 0.00 0.00 0.00 0.00 0.00 0.00 0.00 0.00 0.00 0.00 0.00 0.00 0.00 0.00 0.00 0.00 0.00
0.14 0.11 0.10 0.09 0.06 0.06 0.05 0.02 0.00 0.00 0.00 0.00 0.00 0.00 0.00 0.00 0.00 0.00 0.00 0.00 0.00 0.00 0.00 0.00 0.00 0.00 0.00 0.01 0.03 0.03 0.02 0.01 0.00 0.00 0.00 0.00 0.00 0.00 0.00 0.00 0.00 0.00 0.00 0.00 0.00 0.00 0.00 0.00 0.00
0.14 0.08 0.08 0.12 0.14 0.11 0.08 0.04 0.00 0.00 0.00 0.00 0.00 0.00 0.00 0.00 0.00 0.00 0.00 0.00 0.00 0.00 0.00 0.00 0.00 0.00 0.00 0.01 0.02 0.02 0.01 0.00 0.00 0.00 0.00 0.00 0.00 0.00 0.00 0.00 0.00 0.00 0.00 0.00 0.00 0.00 0.00 0.00 0.00
0.15 0.11 0.12 0.18 0.22 0.20 0.11 0.06 0.01 0.00 0.00 0.00 0.00 0.00 0.00 0.00 0.00 0.00 0.00 0.00 0.00 0.00 0.00 0.00 0.00 0.00 0.00 0.00 0.01 0.01 0.01 0.00 0.00 0.00 0.00 0.00 0.00 0.00 0.00 0.00 0.00 0.00 0.00 0.00 0.00 0.00 0.00 0.00 0.00
0.23 0.29 0.28 0.27 0.35 0.34 0.16 0.09 0.03 0.00 0.00 0.00 0.00 0.00 0.00 0.00 0.00 0.00 0.00 0.00 0.00 0.00 0.00 0.00 0.00 0.00 0.00 0.00 0.00 0.00 0.00 0.00 0.00 0.00 0.00 0.00 0.00 0.00 0.00 0.00 0.00 0.00 0.00 0.00 0.00 0.00 0.00 0.00 0.00
0.49 0.65 0.68 0.51 0.47 0.32 0.13 0.11 0.04 0.00 0.00 0.00 0.00 0.00 0.00 0.00 0.00 0.00 0.00 0.00 0.00 0.00 0.00 0.00 0.00 0.00 0.00 0.00 0.00 0.00 0.00 0.00 0.00 0.00 0.00 0.00 0.00 0.00 0.00 0.00 0.00 0.00 0.00 0.00 0.00 0.00 0.00 0.00 0.00
0.53 0.60 0.62 0.43 0.25 0.14 0.10 0.11 0.04 0.00 0.00 0.00 0.00 0.00 0.00 0.00 0.00 0.00 0.00 0.00 0.00 0.00 0.00 0.00 0.00 0.00 0.00 0.00 0.00 0.00 0.00 0.00 0.00 0.00 0.00 0.00 0.00 0.00 0.00 0.00 0.00 0.00 0.00 0.00 0.00 0.00 0.00 0.00 0.00
0.46 0.48 0.40 0.44 0.29 0.17 0.11 0.08 0.03 0.01 0.00 0.00 0.00 0.00 0.00 0.00 0.00 0.00 0.00 0.00 0.00 0.00 0.00 0.00 0.00 0.00 0.00 0.00 0.00 0.00 0.00 0.00 0.00 0.00 0.00 0.00 0.00 0.00 0.00 0.00 0.00 0.00 0.00 0.00 0.00 0.00 0.00 0.00 0.00
0.39 0.36 0.45 0.62 0.51 0.29 0.13 0.06 0.02 0.00 0.00 0.00 0.00 0.00 0.00 0.00 0.00 0.00 0.00 0.00 0.00 0.00 0.00 0.00 0.00 0.00 0.00 0.00 0.00 0.00 0.00 0.00 0.00 0.00 0.00 0.00 0.00 0.00 0.00 0.00 0.00 0.00 0.00 0.00 0.00 0.00 0.00 0.00 0.00
0.40 0.41 0.46 0.43 0.33 0.33 0.19 0.06 0.02 0.01 0.00 0.01 0.00 0.00 0.00 0.00 0.00 0.00 0.00 0.00 0.00 0.00 0.00 0.00 0.00 0.00 0.00 0.00 0.00 0.00 0.00 0.00 0.00 0.00 0.00 0.00 0.00 0.00 0.00 0.00 0.00 0.00 0.00 0.00 0.00 0.00 0.00 0.00 0.00
0.34 0.32 0.36 0.41 0.30 0.25 0.20 0.07 0.02 0.01 0.01 0.02 0.02 0.02 0.01 0.01 0.01 0.00 0.00 0.00 0.00 0.00 0.00 0.00 0.00 0.00 0.00 0.00 0.00 0.00 0.00 0.00 0.00 0.00 0.00 0.00 0.00 0.00 0.00 0.00 0.00 0.00 0.00 0.00 0.00 0.00 0.00 0.00 0.00

GEFSSGP_prec_meanprecacc_024.txt.gz
Total_Precipitation_Accumulation
0.00 0.00 0.00 0.00 0.00 0.00 0.00 0.00 0.00 0.00 0.00 0.00 0.00 0.00 0.00 0.00 0.00 0.00 0.00 0.00 0.00 0.00 0.00 0.01 0.01 0.02 0.02 0.02 0.01 0.00 0.00 0.00 0.00 0.02 0.03 0.02 0.02 0.01 0.00 0.00 0.00 0.00 0.00 0.00 0.00 0.00 0.01 0.01 0.01
0.00 0.00 0.00 0.00 0.00 0.00 0.00 0.00 0.00 0.00 0.00 0.00 0.00 0.00 0.00 0.00 0.00 0.00 0.00 0.00 0.00 0.00 0.00 0.00 0.01 0.02 0.02 0.01 0.00 0.00 0.00 0.00 0.00 0.01 0.01 0.01 0.01 0.00 0.00 0.00 0.00 0.00 0.00 0.00 0.00 0.00 0.00 0.00 0.00
0.00 0.00 0.00 0.00 0.00 0.00 0.00 0.00 0.00 0.00 0.00 0.00 0.00 0.00 0.00 0.00 0.00 0.00 0.00 0.00 0.00 0.00 0.00 0.00 0.01 0.02 0.02 0.01 0.00 0.00 0.00 0.00 0.00 0.00 0.00 0.01 0.02 0.03 0.02 0.00 0.00 0.00 0.00 0.00 0.00 0.00 0.00 0.00 0.00
0.00 0.00 0.00 0.00 0.00 0.00 0.00 0.00 0.00 0.00 0.00 0.00 0.00 0.00 0.00 0.00 0.00 0.00 0.00 0.00 0.00 0.00 0.00 0.00 0.01 0.02 0.01 0.00 0.00 0.00 0.00 0.00 0.00 0.00 0.00 0.01 0.03 0.08 0.06 0.02 0.00 0.00 0.00 0.00 0.00 0.00 0.00 0.00 0.00
0.00 0.00 0.00 0.00 0.00 0.00 0.00 0.00 0.00 0.00 0.00 0.00 0.00 0.00 0.00 0.00 0.00 0.00 0.00 0.00 0.00 0.00 0.00 0.00 0.01 0.01 0.01 0.00 0.00 0.00 0.00 0.00 0.00 0.00 0.00 0.01 0.03 0.08 0.10 0.05 0.01 0.00 0.00 0.00 0.00 0.00 0.00 0.00 0.00
0.00 0.00 0.00 0.00 0.00 0.00 0.00 0.00 0.00 0.00 0.00 0.00 0.00 0.00 0.00 0.00 0.00 0.00 0.00 0.00 0.00 0.00 0.00 0.00 0.01 0.01 0.01 0.01 0.00 0.00 0.00 0.00 0.00 0.00 0.00 0.00 0.01 0.05 0.09 0.05 0.01 0.00 0.00 0.00 0.00 0.00 0.00 0.01 0.01
0.00 0.00 0.00 0.00 0.00 0.00 0.00 0.00 0.00 0.00 0.00 0.00 0.00 0.00 0.00 0.00 0.00 0.00 0.00 0.00 0.00 0.00 0.00 0.00 0.00 0.01 0.01 0.01 0.01 0.00 0.00 0.00 0.00 0.00 0.00 0.00 0.00 0.01 0.03 0.02 0.01 0.00 0.00 0.00 0.00 0.01 0.01 0.02 0.02
0.00 0.00 0.00 0.00 0.00 0.00 0.00 0.00 0.00 0.00 0.00 0.00 0.00 0.00 0.00 0.00 0.00 0.00 0.00 0.00 0.00 0.00 0.00 0.00 0.00 0.01 0.01 0.01 0.00 0.00 0.00 0.00 0.00 0.00 0.00 0.00 0.00 0.00 0.01 0.00 0.00 0.00 0.01 0.01 0.01 0.01 0.02 0.02 0.01
0.00 0.00 0.00 0.00 0.00 0.00 0.00 0.00 0.00 0.00 0.00 0.00 0.00 0.00 0.00 0.00 0.00 0.00 0.00 0.00 0.00 0.00 0.00 0.00 0.00 0.00 0.01 0.01 0.00 0.00 0.00 0.00 0.00 0.00 0.00 0.00 0.00 0.00 0.00 0.00 0.00 0.00 0.00 0.01 0.01 0.01 0.01 0.01 0.00
0.00 0.00 0.00 0.00 0.00 0.00 0.00 0.00 0.00 0.00 0.00 0.00 0.00 0.00 0.00 0.00 0.00 0.00 0.00 0.00 0.00 0.00 0.00 0.00 0.00 0.00 0.00 0.01 0.00 0.00 0.00 0.00 0.00 0.00 0.00 0.00 0.00 0.00 0.00 0.00 0.00 0.00 0.00 0.00 0.00 0.00 0.00 0.00 0.00
0.00 0.00 0.00 0.00 0.00 0.00 0.00 0.00 0.00 0.00 0.00 0.00 0.00 0.00 0.00 0.00 0.00 0.00 0.00 0.00 0.00 0.00 0.00 0.00 0.00 0.00 0.00 0.00 0.00 0.00 0.00 0.00 0.00 0.00 0.00 0.00 0.00 0.00 0.00 0.00 0.00 0.00 0.00 0.00 0.00 0.00 0.00 0.00 0.00
0.00 0.00 0.00 0.00 0.00 0.00 0.00 0.00 0.00 0.00 0.00 0.00 0.00 0.00 0.00 0.00 0.00 0.00 0.00 0.00 0.00 0.00 0.00 0.00 0.00 0.00 0.00 0.00 0.00 0.00 0.00 0.00 0.00 0.00 0.00 0.00 0.00 0.00 0.00 0.00 0.00 0.00 0.00 0.00 0.00 0.00 0.00 0.00 0.00
0.01 0.00 0.00 0.00 0.00 0.00 0.00 0.00 0.00 0.00 0.00 0.00 0.00 0.00 0.00 0.00 0.00 0.00 0.00 0.00 0.00 0.00 0.00 0.00 0.00 0.00 0.00 0.00 0.00 0.00 0.00 0.00 0.00 0.00 0.00 0.00 0.00 0.00 0.00 0.00 0.00 0.01 0.01 0.01 0.01 0.00 0.00 0.00 0.00
0.01 0.01 0.00 0.00 0.00 0.00 0.00 0.00 0.00 0.00 0.00 0.00 0.00 0.00 0.00 0.00 0.00 0.00 0.00 0.00 0.00 0.00 0.00 0.00 0.00 0.00 0.00 0.00 0.00 0.01 0.01 0.00 0.00 0.00 0.00 0.00 0.00 0.00 0.00 0.01 0.01 0.01 0.01 0.01 0.00 0.00 0.00 0.00 0.00
0.02 0.02 0.01 0.00 0.00 0.00 0.00 0.00 0.00 0.00 0.00 0.00 0.00 0.00 0.00 0.00 0.00 0.00 0.00 0.00 0.00 0.00 0.00 0.00 0.00 0.00 0.00 0.00 0.01 0.02 0.02 0.00 0.00 0.00 0.00 0.00 0.00 0.00 0.00 0.01 0.01 0.00 0.00 0.00 0.00 0.00 0.00 0.00 0.00
0.16 0.09 0.03 0.00 0.00 0.00 0.00 0.00 0.00 0.00 0.00 0.00 0.00 0.00 0.00 0.00 0.00 0.00 0.00 0.00 0.00 0.00 0.00 0.00 0.00 0.00 0.00 0.00 0.02 0.04 0.03 0.01 0.00 0.00 0.00 0.00 0.00 0.00 0.00 0.00 0.00 0.00 0.00 0.00 0.00 0.00 0.00 0.00 0.00
0.18 0.10 0.03 0.01 0.00 0.00 0.01 0.00 0.00 0.00 0.00 0.00 0.00 0.00 0.00 0.00 0.00 0.00 0.00 0.00 0.00 0.00 0.00 0.00 0.00 0.00 0.00 0.01 0.04 0.06 0.05 0.03 0.01 0.01 0.00 0.00 0.00 0.00 0.00 0.00 0.00 0.00 0.00 0.00 0.00 0.00 0.00 0.00 0.00
0.08 0.06 0.04 0.01 0.00 0.01 0.01 0.00 0.00 0.00 0.00 0.00 0.00 0.00 0.00 0.00 0.00 0.00 0.00 0.00 0.00 0.00 0.00 0.00 0.00 0.00 0.00 0.02 0.05 0.08 0.08 0.06 0.04 0.03 0.03 0.01 0.00 0.00 0.00 0.00 0.00 0.00 0.00 0.00 0.00 0.00 0.00 0.00 0.00
0.10 0.09 0.06 0.01 0.00 0.02 0.01 0.00 0.00 0.00 0.00 0.00 0.00 0.00 0.00 0.00 0.00 0.00 0.00 0.00 0.00 0.00 0.00 0.00 0.00 0.00 0.00 0.01 0.03 0.07 0.09 0.09 0.08 0.06 0.05 0.03 0.01 0.00 0.00 0.00 0.00 0.00 0.00 0.00 0.00 0.00 0.00 0.00 0.00
0.12 0.12 0.10 0.04 0.01 0.03 0.02 0.01 0.00 0.00 0.00 0.00 0.00 0.00 0.00 0.00 0.00 0.00 0.00 0.00 0.00 0.00 0.00 0.00 0.00 0.00 0.00 0.01 0.05 0.11 0.14 0.13 0.12 0.08 0.05 0.03 0.01 0.00 0.00 0.00 0.00 0.00 0.00 0.00 0.00 0.00 0.00 0.00 0.00
0.14 0.11 0.10 0.09 0.06 0.06 0.05 0.02 0.00 0.00 0.00 0.00 0.00 0.00 0.00 0.00 0.00 0.00 0.00 0.00 0.00 0.00 0.00 0.00 0.00 0.00 0.00 0.01 0.05 0.09 0.11 0.09 0.06 0.05 0.03 0.02 0.01 0.01 0.00 0.00 0.00 0.00 0.00 0.00 0.00 0.00 0.00 0.00 0.00
0.14 0.08 0.08 0.12 0.14 0.11 0.08 0.04 0.00 0.00 0.00 0.00 0.00 0.00 0.00 0.00 0.00 0.00 0.00 0.00 0.00 0.00 0.00 0.00 0.00 0.00 0.00 0.01 0.04 0.08 0.09 0.07 0.05 0.03 0.02 0.01 0.01 0.00 0.00 0.00 0.00 0.00 0.00 0.00 0.00 0.00 0.00 0.00 0.00
0.15 0.11 0.12 0.18 0.23 0.22 0.11 0.07 0.01 0.00 0.00 0.00 0.00 0.00 0.00 0.00 0.00 0.00 0.00 0.00 0.00 0.00 0.00 0.00 0.00 0.00 0.00 0.00 0.03 0.08 0.09 0.07 0.04 0.02 0.01 0.01 0.00 0.00 0.00 0.00 0.00 0.00 0.00 0.00 0.00 0.00 0.00 0.00 0.00
0.24 0.30 0.29 0.28 0.40 0.39 0.17 0.09 0.03 0.00 0.00 0.00 0.00 0.00 0.00 0.00 0.00 0.00 0.00 0.00 0.00 0.00 0.00 0.00 0.00 0.00 0.00 0.00 0.01 0.02 0.03 0.03 0.02 0.01 0.01 0.01 0.00 0.00 0.00 0.00 0.00 0.00 0.00 0.00 0.00 0.00 0.00 0.00 0.00
0.50 0.69 0.73 0.55 0.52 0.34 0.13 0.11 0.04 0.00 0.00 0.00 0.00 0.00 0.00 0.00 0.00 0.00 0.00 0.00 0.00 0.00 0.00 0.00 0.00 0.00 0.00 0.00 0.00 0.01 0.03 0.04 0.02 0.01 0.01 0.00 0.00 0.00 0.00 0.00 0.00 0.00 0.00 0.00 0.00 0.00 0.00 0.00 0.00
0.53 0.62 0.64 0.44 0.26 0.14 0.10 0.11 0.04 0.00 0.00 0.00 0.00 0.00 0.00 0.00 0.00 0.00 0.00 0.00 0.00 0.00 0.00 0.00 0.00 0.00 0.00 0.00 0.00 0.01 0.02 0.02 0.02 0.01 0.01 0.00 0.00 0.00 0.00 0.00 0.00 0.00 0.00 0.00 0.00 0.00 0.00 0.00 0.00
0.48 0.51 0.41 0.49 0.33 0.20 0.12 0.08 0.03 0.01 0.00 0.00 0.00 0.00 0.00 0.00 0.00 0.00 0.00 0.00 0.00 0.00 0.00 0.00 0.00 0.00 0.00 0.00 0.00 0.00 0.01 0.02 0.02 0.01 0.00 0.00 0.00 0.00 0.00 0.00 0.00 0.00 0.00 0.00 0.00 0.00 0.00 0.00 0.00
0.40 0.37 0.50 0.74 0.59 0.32 0.13 0.06 0.02 0.01 0.00 0.00 0.00 0.00 0.00 0.00 0.00 0.00 0.00 0.00 0.00 0.00 0.00 0.00 0.01 0.01 0.00 0.00 0.00 0.00 0.01 0.02 0.01 0.00 0.00 0.00 0.00 0.00 0.00 0.00 0.00 0.00 0.00 0.00 0.00 0.00 0.00 0.00 0.00
0.41 0.44 0.53 0.52 0.38 0.35 0.20 0.06 0.02 0.01 0.01 0.01 0.01 0.01 0.00 0.00 0.00 0.00 0.00 0.00 0.00 0.00 0.00 0.00 0.00 0.01 0.00 0.00 0.00 0.00 0.01 0.01 0.00 0.00 0.00 0.00 0.00 0.00 0.00 0.00 0.00 0.00 0.00 0.00 0.00 0.00 0.00 0.00 0.00
0.34 0.33 0.42 0.56 0.39 0.30 0.23 0.08 0.02 0.01 0.02 0.02 0.02 0.02 0.01 0.01 0.01 0.00 0.00 0.00 0.00 0.00 0.00 0.01 0.01 0.00 0.00 0.00 0.00 0.00 0.00 0.00 0.00 0.00 0.00 0.00 0.00 0.00 0.00 0.00 0.00 0.00 0.00 0.00 0.00 0.00 0.00 0.00 0.00

GEFSSGP_prec_meanprecacc_030.txt.gz
Total_Precipitation_Accumulation
0.00 0.00 0.00 0.00 0.00 0.00 0.00 0.00 0.00 0.00 0.00 0.00 0.00 0.00 0.00 0.00 0.00 0.00 0.00 0.00 0.00 0.00 0.00 0.01 0.01 0.02 0.02 0.02 0.01 0.00 0.00 0.00 0.01 0.04 0.05 0.04 0.02 0.01 0.00 0.00 0.00 0.00 0.00 0.00 0.00 0.01 0.02 0.02 0.01
0.00 0.00 0.00 0.00 0.00 0.00 0.00 0.00 0.00 0.00 0.00 0.00 0.00 0.00 0.00 0.00 0.00 0.00 0.00 0.00 0.00 0.00 0.00 0.00 0.01 0.02 0.02 0.01 0.00 0.00 0.00 0.00 0.01 0.03 0.03 0.02 0.01 0.00 0.00 0.00 0.00 0.00 0.00 0.00 0.00 0.00 0.00 0.00 0.00
0.00 0.00 0.00 0.00 0.00 0.00 0.00 0.00 0.00 0.00 0.00 0.00 0.00 0.00 0.00 0.00 0.00 0.00 0.00 0.00 0.00 0.00 0.00 0.00 0.01 0.02 0.02 0.01 0.00 0.00 0.00 0.00 0.01 0.01 0.01 0.01 0.02 0.03 0.02 0.00 0.00 0.00 0.00 0.00 0.00 0.00 0.00 0.00 0.00
0.00 0.00 0.00 0.00 0.00 0.00 0.00 0.00 0.00 0.00 0.00 0.00 0.00 0.00 0.00 0.00 0.00 0.00 0.00 0.00 0.00 0.00 0.00 0.00 0.01 0.02 0.01 0.01 0.00 0.00 0.00 0.00 0.00 0.00 0.00 0.01 0.03 0.08 0.07 0.02 0.00 0.00 0.00 0.00 0.00 0.00 0.00 0.00 0.00
0.00 0.00 0.00 0.00 0.00 0.00 0.00 0.00 0.00 0.00 0.00 0.00 0.00 0.00 0.00 0.00 0.00 0.00 0.00 0.00 0.00 0.00 0.00 0.00 0.01 0.02 0.01 0.01 0.00 0.00 0.00 0.00 0.00 0.00 0.00 0.01 0.03 0.09 0.11 0.05 0.01 0.00 0.00 0.00 0.00 0.00 0.00 0.00 0.00
0.00 0.00 0.00 0.00 0.00 0.00 0.00 0.00 0.00 0.00 0.00 0.00 0.00 0.00 0.00 0.00 0.00 0.00 0.00 0.00 0.00 0.00 0.00 0.00 0.01 0.02 0.02 0.01 0.01 0.00 0.00 0.00 0.00 0.00 0.00 0.00 0.01 0.05 0.10 0.06 0.01 0.00 0.00 0.00 0.00 0.01 0.01 0.01 0.02
0.00 0.00 0.00 0.00 0.00 0.00 0.00 0.00 0.00 0.00 0.00 0.00 0.00 0.00 0.00 0.00 0.00 0.00 0.00 0.00 0.00 0.00 0.00 0.00 0.01 0.02 0.02 0.01 0.01 0.00 0.00 0.00 0.00 0.00 0.00 0.00 0.00 0.02 0.03 0.03 0.01 0.00 0.00 0.01 0.01 0.02 0.02 0.03 0.03
0.00 0.00 0.00 0.00 0.00 0.00 0.00 0.00 0.00 0.00 0.00 0.00 0.00 0.00 0.00 0.00 0.00 0.00 0.00 0.00 0.00 0.00 0.00 0.00 0.00 0.01 0.02 0.02 0.01 0.00 0.00 0.00 0.00 0.00 0.00 0.00 0.00 0.00 0.01 0.01 0.00 0.01 0.01 0.01 0.02 0.02 0.02 0.02 0.01
0.00 0.00 0.00 0.00 0.00 0.00 0.00 0.00 0.00 0.00 0.00 0.00 0.00 0.00 0.00 0.00 0.00 0.00 0.00 0.00 0.00 0.00 0.00 0.00 0.00 0.00 0.01 0.01 0.01 0.00 0.00 0.00 0.00 0.00 0.00 0.00 0.00 0.00 0.00 0.00 0.00 0.00 0.00 0.01 0.01 0.01 0.01 0.01 0.00
0.00 0.00 0.00 0.00 0.00 0.00 0.00 0.00 0.00 0.00 0.00 0.00 0.00 0.00 0.00 0.00 0.00 0.00 0.00 0.00 0.00 0.00 0.00 0.00 0.00 0.00 0.01 0.01 0.01 0.00 0.00 0.00 0.00 0.00 0.00 0.00 0.00 0.00 0.00 0.00 0.00 0.00 0.00 0.00 0.00 0.00 0.00 0.00 0.00
0.00 0.00 0.00 0.00 0.00 0.00 0.00 0.00 0.00 0.00 0.00 0.00 0.00 0.00 0.00 0.00 0.00 0.00 0.00 0.00 0.00 0.00 0.00 0.00 0.00 0.00 0.00 0.01 0.01 0.00 0.00 0.00 0.00 0.00 0.00 0.00 0.00 0.00 0.00 0.00 0.00 0.00 0.00 0.00 0.00 0.00 0.00 0.00 0.00
0.00 0.00 0.00 0.00 0.00 0.00 0.00 0.00 0.00 0.00 0.00 0.00 0.00 0.00 0.00 0.00 0.00 0.00 0.00 0.00 0.00 0.00 0.00 0.00 0.00 0.00 0.00 0.00 0.00 0.00 0.00 0.00 0.00 0.00 0.00 0.00 0.00 0.00 0.00 0.00 0.00 0.00 0.00 0.00 0.00 0.00 0.00 0.00 0.00
0.01 0.00 0.00 0.00 0.00 0.00 0.00 0.00 0.00 0.00 0.00 0.00 0.00 0.00 0.00 0.00 0.00 0.00 0.00 0.00 0.00 0.00 0.00 0.00 0.00 0.00 0.00 0.00 0.00 0.00 0.00 0.00 0.00 0.00 0.00 0.00 0.00 0.00 0.00 0.00 0.01 0.01 0.01 0.01 0.01 0.00 0.00 0.00 0.00
0.01 0.01 0.00 0.00 0.00 0.00 0.00 0.00 0.00 0.00 0.00 0.00 0.00 0.00 0.00 0.00 0.00 0.00 0.00 0.00 0.00 0.00 0.00 0.00 0.00 0.00 0.00 0.00 0.00 0.01 0.01 0.00 0.00 0.00 0.00 0.00 0.00 0.00 0.00 0.01 0.01 0.01 0.01 0.01 0.00 0.00 0.00 0.00 0.00
0.02 0.02 0.01 0.00 0.00 0.00 0.00 0.00 0.00 0.00 0.00 0.00 0.00 0.00 0.00 0.00 0.00 0.00 0.00 0.00 0.00 0.00 0.00 0.00 0.00 0.00 0.00 0.00 0.01 0.02 0.02 0.01 0.00 0.00 0.00 0.00 0.00 0.00 0.00 0.01 0.01 0.00 0.00 0.00 0.00 0.00 0.00 0.00 0.00
0.16 0.10 0.03 0.00 0.00 0.00 0.00 0.00 0.00 0.00 0.00 0.00 0.00 0.00 0.00 0.00 0.00 0.00 0.00 0.00 0.00 0.00 0.00 0.00 0.00 0.00 0.00 0.00 0.02 0.04 0.03 0.01 0.00 0.00 0.00 0.00 0.00 0.00 0.00 0.00 0.00 0.00 0.00 0.00 0.00 0.00 0.00 0.00 0.00
0.18 0.10 0.03 0.01 0.00 0.00 0.01 0.00 0.00 0.00 0.00 0.00 0.00 0.00 0.00 0.00 0.00 0.00 0.00 0.00 0.00 0.00 0.00 0.00 0.00 0.00 0.00 0.01 0.04 0.06 0.05 0.03 0.01 0.01 0.00 0.00 0.00 0.00 0.00 0.00 0.00 0.00 0.00 0.00 0.00 0.00 0.00 0.00 0.00
0.08 0.06 0.04 0.01 0.00 0.01 0.01 0.00 0.00 0.00 0.00 0.00 0.00 0.00 0.00 0.00 0.00 0.00 0.00 0.00 0.00 0.00 0.00 0.00 0.00 0.00 0.00 0.02 0.05 0.09 0.08 0.07 0.05 0.04 0.03 0.02 0.01 0.00 0.00 0.00 0.00 0.00 0.00 0.00 0.00 0.00 0.00 0.00 0.00
0.10 0.09 0.06 0.01 0.00 0.02 0.01 0.00 0.00 0.00 0.00 0.00 0.00 0.00 0.00 0.00 0.00 0.00 0.00 0.00 0.00 0.00 0.00 0.00 0.00 0.00 0.00 0.01 0.04 0.08 0.10 0.12 0.11 0.08 0.06 0.04 0.02 0.01 0.01 0.00 0.00 0.00 0.00 0.00 0.00 0.00 0.00 0.00 0.00
0.13 0.12 0.10 0.04 0.01 0.03 0.02 0.01 0.00 0.00 0.00 0.00 0.00 0.00 0.00 0.00 0.00 0.00 0.00 0.00 0.00 0.00 0.00 0.00 0.00 0.00 0.00 0.01 0.05 0.11 0.15 0.16 0.15 0.11 0.08 0.06 0.05 0.03 0.02 0.01 0.00 0.00 0.00 0.00 0.00 0.00 0.00 0.00 0.00
0.14 0.11 0.10 0.09 0.06 0.06 0.05 0.02 0.00 0.00 0.00 0.00 0.00 0.00 0.00 0.00 0.00 0.00 0.00 0.00 0.00 0.00 0.00 0.00 0.00 0.00 0.00 0.01 0.05 0.09 0.11 0.10 0.08 0.06 0.06 0.06 0.06 0.05 0.04 0.02 0.01 0.00 0.00 0.00 0.00 0.00 0.00 0.00 0.00
0.14 0.08 0.08 0.12 0.14 0.11 0.08 0.04 0.00 0.00 0.00 0.00 0.00 0.00 0.00 0.00 0.00 0.00 0.00 0.00 0.00 0.00 0.00 0.00 0.00 0.00 0.00 0.01 0.05 0.08 0.10 0.08 0.07 0.06 0.07 0.06 0.05 0.04 0.04 0.03 0.01 0.00 0.00 0.00 0.00 0.00 0.00 0.00 0.00
0.15 0.11 0.12 0.18 0.23 0.22 0.11 0.07 0.01 0.00 0.00 0.00 0.00 0.00 0.00 0.00 0.00 0.00 0.00 0.00 0.00 0.00 0.00 0.00 0.00 0.00 0.00 0.00 0.04 0.09 0.10 0.08 0.06 0.05 0.05 0.05 0.04 0.02 0.02 0.02 0.01 0.00 0.00 0.00 0.00 0.00 0.00 0.00 0.00
0.24 0.30 0.29 0.29 0.40 0.39 0.17 0.09 0.03 0.00 0.00 0.00 0.00 0.00 0.00 0.00 0.00 0.00 0.00 0.00 0.00 0.00 0.00 0.00 0.00 0.00 0.00 0.01 0.01 0.02 0.04 0.03 0.03 0.03 0.04 0.04 0.03 0.02 0.01 0.01 0.01 0.00 0.00 0.00 0.00 0.00 0.00 0.00 0.00
0.50 0.69 0.73 0.55 0.53 0.35 0.13 0.11 0.04 0.00 0.00 0.00 0.00 0.00 0.00 0.00 0.00 0.00 0.00 0.00 0.00 0.00 0.00 0.00 0.00 0.00 0.01 0.01 0.01 0.01 0.03 0.05 0.04 0.04 0.04 0.05 0.04 0.02 0.01 0.01 0.00 0.00 0.00 0.00 0.00 0.00 0.00 0.00 0.00
0.54 0.62 0.65 0.45 0.26 0.14 0.10 0.11 0.04 0.00 0.00 0.00 0.00 0.00 0.00 0.00 0.00 0.00 0.00 0.00 0.00 0.00 0.00 0.00 0.00 0.00 0.01 0.02 0.01 0.01 0.02 0.03 0.03 0.04 0.05 0.05 0.05 0.04 0.02 0.01 0.01 0.00 0.00 0.00 0.00 0.00 0.00 0.00 0.00
0.48 0.52 0.41 0.50 0.33 0.20 0.12 0.08 0.03 0.01 0.00 0.00 0.00 0.00 0.00 0.00 0.00 0.00 0.00 0.00 0.00 0.00 0.00 0.00 0.00 0.01 0.01 0.02 0.01 0.01 0.01 0.02 0.03 0.03 0.03 0.03 0.03 0.03 0.02 0.01 0.00 0.00 0.00 0.00 0.00 0.00 0.00 0.00 0.00
0.40 0.38 0.51 0.77 0.60 0.33 0.13 0.06 0.02 0.01 0.00 0.00 0.00 0.00 0.00 0.00 0.00 0.00 0.00 0.00 0.00 0.00 0.00 0.00 0.01 0.01 0.02 0.02 0.01 0.01 0.01 0.02 0.03 0.03 0.02 0.02 0.02 0.01 0.01 0.00 0.00 0.00 0.00 0.00 0.00 0.00 0.00 0.00 0.00
0.41 0.45 0.54 0.54 0.40 0.37 0.20 0.06 0.02 0.01 0.01 0.01 0.01 0.01 0.01 0.00 0.00 0.00 0.00 0.00 0.00 0.00 0.00 0.01 0.01 0.02 0.02 0.01 0.00 0.00 0.01 0.01 0.01 0.02 0.02 0.02 0.02 0.01 0.00 0.00 0.00 0.00 0.00 0.00 0.00 0.00 0.00 0.00 0.00
0.34 0.33 0.43 0.60 0.41 0.32 0.26 0.08 0.02 0.01 0.02 0.02 0.02 0.02 0.02 0.01 0.01 0.00 0.00 0.00 0.00 0.01 0.01 0.02 0.02 0.02 0.01 0.00 0.00 0.00 0.01 0.01 0.01 0.01 0.02 0.01 0.01 0.00 0.00 0.00 0.00 0.00 0.00 0.00 0.00 0.00 0.00 0.00 0.00

GEFSSGP_prec_meanprecacc_036.txt.gz
Total_Precipitation_Accumulation
0.00 0.00 0.00 0.00 0.00 0.00 0.00 0.00 0.00 0.00 0.00 0.00 0.00 0.00 0.00 0.00 0.00 0.00 0.00 0.00 0.00 0.00 0.00 0.01 0.01 0.02 0.02 0.02 0.01 0.00 0.00 0.00 0.02 0.05 0.06 0.04 0.03 0.01 0.00 0.00 0.00 0.01 0.01 0.01 0.01 0.02 0.03 0.03 0.01
0.00 0.00 0.00 0.00 0.00 0.00 0.00 0.00 0.00 0.00 0.00 0.00 0.00 0.00 0.00 0.00 0.00 0.00 0.00 0.00 0.00 0.00 0.00 0.01 0.01 0.02 0.02 0.01 0.00 0.00 0.00 0.00 0.02 0.03 0.03 0.02 0.01 0.00 0.00 0.00 0.00 0.00 0.00 0.00 0.00 0.00 0.00 0.00 0.00
0.00 0.00 0.00 0.00 0.00 0.00 0.00 0.00 0.00 0.00 0.00 0.00 0.00 0.00 0.00 0.00 0.00 0.00 0.00 0.00 0.00 0.00 0.00 0.00 0.01 0.02 0.02 0.01 0.00 0.00 0.00 0.00 0.01 0.01 0.01 0.01 0.02 0.03 0.02 0.00 0.00 0.00 0.00 0.00 0.00 0.00 0.00 0.00 0.00
0.00 0.00 0.00 0.00 0.00 0.00 0.00 0.00 0.00 0.00 0.00 0.00 0.00 0.00 0.00 0.00 0.00 0.00 0.00 0.00 0.00 0.00 0.00 0.00 0.01 0.02 0.01 0.01 0.00 0.00 0.00 0.00 0.01 0.00 0.00 0.01 0.03 0.08 0.07 0.02 0.00 0.00 0.00 0.00 0.00 0.00 0.00 0.00 0.00
0.00 0.00 0.00 0.00 0.00 0.00 0.00 0.00 0.00 0.00 0.00 0.00 0.00 0.00 0.00 0.00 0.00 0.00 0.00 0.00 0.00 0.00 0.00 0.00 0.01 0.02 0.01 0.01 0.00 0.00 0.00 0.00 0.00 0.00 0.00 0.01 0.03 0.09 0.11 0.05 0.01 0.00 0.00 0.00 0.00 0.00 0.00 0.00 0.00
0.00 0.00 0.00 0.00 0.00 0.00 0.00 0.00 0.00 0.00 0.00 0.00 0.00 0.00 0.00 0.00 0.00 0.00 0.00 0.00 0.00 0.00 0.00 0.00 0.01 0.02 0.02 0.01 0.01 0.00 0.00 0.00 0.00 0.00 0.00 0.00 0.02 0.06 0.10 0.06 0.01 0.00 0.00 0.00 0.00 0.01 0.01 0.01 0.02
0.00 0.00 0.00 0.00 0.00 0.00 0.00 0.00 0.00 0.00 0.00 0.00 0.00 0.00 0.00 0.00 0.00 0.00 0.00 0.00 0.00 0.00 0.00 0.00 0.01 0.02 0.02 0.01 0.01 0.00 0.00 0.00 0.00 0.00 0.00 0.00 0.00 0.02 0.03 0.03 0.01 0.00 0.00 0.01 0.01 0.02 0.02 0.03 0.03
0.00 0.00 0.00 0.00 0.00 0.00 0.00 0.00 0.00 0.00 0.00 0.00 0.00 0.00 0.00 0.00 0.00 0.00 0.00 0.00 0.00 0.00 0.00 0.00 0.00 0.01 0.02 0.02 0.01 0.00 0.00 0.00 0.00 0.00 0.00 0.00 0.00 0.00 0.01 0.01 0.00 0.01 0.01 0.01 0.02 0.02 0.02 0.02 0.01
0.00 0.00 0.00 0.00 0.00 0.00 0.00 0.00 0.00 0.00 0.00 0.00 0.00 0.00 0.00 0.00 0.00 0.00 0.00 0.00 0.01 0.01 0.01 0.00 0.00 0.00 0.01 0.01 0.01 0.00 0.00 0.00 0.00 0.00 0.00 0.00 0.00 0.00 0.00 0.00 0.00 0.00 0.00 0.01 0.01 0.01 0.01 0.01 0.00
0.00 0.00 0.00 0.00 0.00 0.00 0.00 0.00 0.00 0.00 0.00 0.00 0.00 0.00 0.00 0.00 0.00 0.00 0.00 0.00 0.01 0.01 0.01 0.00 0.00 0.00 0.01 0.01 0.01 0.00 0.00 0.00 0.00 0.00 0.00 0.00 0.00 0.00 0.00 0.00 0.00 0.00 0.00 0.00 0.00 0.00 0.00 0.00 0.00
0.00 0.00 0.00 0.00 0.00 0.00 0.00 0.00 0.00 0.00 0.00 0.00 0.00 0.00 0.00 0.00 0.00 0.00 0.00 0.00 0.00 0.00 0.00 0.00 0.00 0.00 0.00 0.01 0.01 0.00 0.00 0.00 0.00 0.00 0.00 0.00 0.00 0.00 0.00 0.00 0.00 0.00 0.00 0.00 0.00 0.00 0.00 0.00 0.00
0.00 0.00 0.00 0.00 0.00 0.00 0.00 0.00 0.00 0.00 0.00 0.00 0.00 0.00 0.00 0.00 0.00 0.00 0.00 0.01 0.01 0.00 0.00 0.00 0.00 0.00 0.00 0.00 0.00 0.00 0.00 0.00 0.00 0.00 0.00 0.00 0.00 0.00 0.00 0.00 0.00 0.00 0.00 0.00 0.00 0.00 0.00 0.00 0.00
0.01 0.00 0.00 0.00 0.00 0.00 0.00 0.00 0.00 0.00 0.00 0.00 0.00 0.00 0.00 0.00 0.00 0.00 0.00 0.01 0.01 0.00 0.00 0.00 0.00 0.00 0.00 0.00 0.00 0.00 0.00 0.00 0.00 0.00 0.00 0.00 0.00 0.00 0.00 0.00 0.01 0.01 0.01 0.01 0.01 0.00 0.00 0.00 0.00
0.01 0.01 0.00 0.00 0.00 0.00 0.00 0.00 0.00 0.00 0.00 0.00 0.00 0.00 0.00 0.00 0.00 0.00 0.00 0.00 0.00 0.00 0.00 0.00 0.01 0.00 0.00 0.00 0.00 0.01 0.01 0.00 0.00 0.00 0.00 0.00 0.00 0.00 0.00 0.01 0.01 0.01 0.01 0.01 0.00 0.00 0.00 0.00 0.00
0.02 0.02 0.01 0.00 0.00 0.00 0.00 0.00 0.00 0.00 0.00 0.00 0.00 0.00 0.00 0.00 0.00 0.00 0.00 0.00 0.00 0.00 0.00 0.00 0.01 0.01 0.00 0.00 0.01 0.02 0.02 0.01 0.00 0.00 0.00 0.00 0.00 0.00 0.00 0.01 0.01 0.00 0.00 0.00 0.00 0.00 0.00 0.00 0.00
0.16 0.10 0.03 0.00 0.00 0.00 0.00 0.00 0.00 0.00 0.00 0.00 0.00 0.00 0.00 0.00 0.00 0.00 0.00 0.00 0.00 0.00 0.00 0.00 0.01 0.00 0.00 0.01 0.03 0.04 0.03 0.01 0.01 0.00 0.00 0.00 0.00 0.00 0.00 0.00 0.00 0.00 0.00 0.00 0.00 0.00 0.00 0.00 0.00
0.18 0.10 0.03 0.01 0.00 0.00 0.01 0.00 0.00 0.00 0.00 0.00 0.00 0.00 0.00 0.00 0.00 0.00 0.00 0.00 0.00 0.00 0.00 0.00 0.01 0.01 0.01 0.03 0.06 0.07 0.06 0.04 0.02 0.01 0.01 0.00 0.00 0.00 0.00 0.00 0.00 0.00 0.00 0.00 0.00 0.00 0.00 0.00 0.00
0.08 0.06 0.04 0.01 0.00 0.01 0.01 0.00 0.00 0.00 0.00 0.00 0.00 0.00 0.00 0.00 0.00 0.00 0.00 0.00 0.00 0.00 0.00 0.00 0.01 0.01 0.03 0.07 0.11 0.13 0.11 0.08 0.06 0.05 0.04 0.02 0.01 0.00 0.00 0.00 0.00 0.00 0.00 0.00 0.00 0.00 0.00 0.00 0.00
0.10 0.09 0.06 0.01 0.00 0.02 0.01 0.00 0.00 0.00 0.00 0.00 0.00 0.00 0.00 0.00 0.00 0.00 0.00 0.00 0.00 0.00 0.00 0.00 0.00 0.01 0.04 0.07 0.08 0.12 0.13 0.14 0.12 0.09 0.08 0.06 0.03 0.01 0.01 0.00 0.00 0.00 0.00 0.00 0.00 0.00 0.00 0.00 0.00
0.13 0.12 0.10 0.04 0.01 0.03 0.02 0.01 0.00 0.00 0.00 0.00 0.00 0.00 0.00 0.00 0.00 0.00 0.00 0.00 0.00 0.00 0.00 0.00 0.00 0.00 0.02 0.03 0.08 0.17 0.25 0.24 0.21 0.16 0.11 0.09 0.06 0.04 0.02 0.01 0.01 0.00 0.00 0.00 0.00 0.00 0.00 0.00 0.00
0.15 0.11 0.10 0.09 0.06 0.06 0.05 0.02 0.00 0.00 0.00 0.00 0.00 0.00 0.00 0.00 0.00 0.00 0.00 0.00 0.00 0.00 0.00 0.00 0.00 0.00 0.01 0.05 0.15 0.25 0.29 0.25 0.18 0.11 0.09 0.09 0.09 0.09 0.06 0.03 0.02 0.01 0.00 0.00 0.00 0.00 0.00 0.00 0.00
0.15 0.08 0.08 0.12 0.14 0.11 0.08 0.04 0.00 0.00 0.00 0.00 0.00 0.00 0.00 0.00 0.00 0.00 0.00 0.00 0.00 0.00 0.00 0.00 0.00 0.00 0.01 0.04 0.10 0.14 0.14 0.12 0.11 0.11 0.12 0.14 0.14 0.11 0.08 0.05 0.03 0.02 0.02 0.01 0.01 0.00 0.00 0.00 0.00
0.15 0.11 0.12 0.18 0.23 0.22 0.11 0.07 0.01 0.00 0.00 0.00 0.00 0.00 0.00 0.00 0.00 0.00 0.00 0.00 0.00 0.00 0.00 0.00 0.00 0.00 0.00 0.01 0.05 0.11 0.12 0.11 0.11 0.12 0.12 0.13 0.12 0.10 0.09 0.06 0.04 0.03 0.03 0.02 0.01 0.01 0.00 0.00 0.00
0.24 0.30 0.29 0.29 0.40 0.39 0.17 0.09 0.03 0.00 0.00 0.00 0.00 0.00 0.00 0.00 0.00 0.00 0.00 0.00 0.00 0.00 0.00 0.00 0.00 0.00 0.00 0.01 0.02 0.04 0.05 0.05 0.06 0.07 0.09 0.10 0.11 0.09 0.08 0.07 0.06 0.05 0.03 0.02 0.01 0.01 0.00 0.00 0.00
0.50 0.69 0.73 0.55 0.53 0.35 0.13 0.11 0.04 0.00 0.00 0.00 0.00 0.00 0.00 0.00 0.00 0.00 0.00 0.00 0.00 0.00 0.00 0.00 0.00 0.00 0.01 0.02 0.02 0.03 0.05 0.06 0.07 0.08 0.10 0.11 0.10 0.08 0.08 0.07 0.06 0.06 0.04 0.02 0.01 0.01 0.00 0.00 0.00
0.54 0.62 0.65 0.45 0.26 0.14 0.10 0.11 0.04 0.00 0.00 0.00 0.00 0.00 0.00 0.00 0.00 0.00 0.00 0.00 0.00 0.00 0.00 0.00 0.00 0.00 0.02 0.03 0.03 0.03 0.04 0.05 0.06 0.08 0.09 0.11 0.11 0.12 0.11 0.10 0.09 0.08 0.05 0.03 0.02 0.01 0.00 0.00 0.00
0.48 0.52 0.41 0.50 0.33 0.20 0.12 0.08 0.03 0.01 0.00 0.00 0.00 0.00 0.00 0.00 0.00 0.00 0.00 0.00 0.00 0.00 0.00 0.00 0.00 0.01 0.03 0.04 0.04 0.03 0.03 0.04 0.06 0.07 0.08 0.09 0.09 0.10 0.10 0.10 0.10 0.08 0.06 0.04 0.03 0.01 0.00 0.00 0.00
0.40 0.38 0.51 0.77 0.61 0.33 0.13 0.06 0.02 0.01 0.00 0.00 0.00 0.00 0.00 0.00 0.00 0.00 0.00 0.00 0.00 0.00 0.00 0.01 0.01 0.02 0.04 0.05 0.05 0.04 0.04 0.05 0.06 0.06 0.06 0.06 0.07 0.07 0.08 0.09 0.09 0.08 0.07 0.05 0.03 0.01 0.01 0.01 0.01
0.41 0.45 0.54 0.54 0.40 0.37 0.20 0.06 0.02 0.01 0.01 0.01 0.01 0.01 0.01 0.01 0.00 0.00 0.00 0.00 0.00 0.00 0.01 0.01 0.03 0.04 0.05 0.05 0.04 0.03 0.03 0.04 0.04 0.04 0.05 0.05 0.06 0.06 0.06 0.08 0.08 0.07 0.06 0.04 0.03 0.02 0.01 0.01 0.01
0.34 0.33 0.43 0.60 0.41 0.32 0.26 0.08 0.02 0.02 0.02 0.03 0.03 0.02 0.02 0.02 0.01 0.01 0.00 0.00 0.00 0.01 0.02 0.04 0.05 0.05 0.05 0.05 0.04 0.04 0.04 0.04 0.04 0.05 0.05 0.04 0.04 0.04 0.05 0.05 0.06 0.05 0.04 0.04 0.04 0.03 0.02 0.01 0.00

GEFSSGP_prec_meanprecacc_042.txt.gz
Total_Precipitation_Accumulation
0.00 0.00 0.00 0.00 0.00 0.00 0.00 0.00 0.00 0.00 0.00 0.00 0.00 0.00 0.00 0.00 0.00 0.00 0.00 0.00 0.00 0.00 0.00 0.02 0.02 0.03 0.03 0.02 0.01 0.01 0.01 0.01 0.02 0.05 0.06 0.04 0.03 0.01 0.00 0.01 0.02 0.03 0.05 0.06 0.05 0.04 0.03 0.03 0.02
0.00 0.00 0.00 0.00 0.00 0.00 0.00 0.00 0.00 0.00 0.00 0.00 0.00 0.00 0.00 0.00 0.00 0.00 0.00 0.00 0.00 0.00 0.00 0.01 0.02 0.02 0.03 0.01 0.01 0.00 0.01 0.01 0.02 0.04 0.03 0.02 0.01 0.01 0.00 0.01 0.02 0.02 0.02 0.02 0.01 0.01 0.00 0.00 0.00
0.00 0.00 0.00 0.00 0.00 0.00 0.00 0.00 0.00 0.00 0.00 0.00 0.00 0.00 0.00 0.00 0.00 0.00 0.00 0.00 0.00 0.00 0.00 0.01 0.02 0.02 0.02 0.01 0.00 0.00 0.01 0.01 0.02 0.02 0.01 0.01 0.02 0.03 0.02 0.01 0.01 0.00 0.00 0.00 0.00 0.00 0.00 0.00 0.00
0.00 0.00 0.00 0.00 0.00 0.00 0.00 0.00 0.00 0.00 0.00 0.00 0.00 0.00 0.00 0.00 0.00 0.00 0.00 0.00 0.00 0.00 0.00 0.01 0.02 0.02 0.02 0.01 0.00 0.00 0.01 0.01 0.01 0.00 0.00 0.01 0.03 0.08 0.07 0.02 0.00 0.00 0.00 0.00 0.00 0.00 0.00 0.00 0.00
0.00 0.00 0.00 0.00 0.00 0.00 0.00 0.00 0.00 0.00 0.00 0.00 0.00 0.00 0.00 0.00 0.00 0.00 0.00 0.00 0.00 0.00 0.00 0.00 0.02 0.02 0.02 0.01 0.00 0.00 0.01 0.01 0.00 0.00 0.00 0.01 0.03 0.09 0.11 0.05 0.01 0.00 0.00 0.00 0.00 0.00 0.00 0.00 0.00
0.00 0.00 0.00 0.00 0.00 0.00 0.00 0.00 0.00 0.00 0.00 0.00 0.00 0.00 0.00 0.00 0.00 0.00 0.00 0.00 0.00 0.00 0.00 0.00 0.01 0.02 0.02 0.01 0.01 0.00 0.01 0.01 0.00 0.00 0.00 0.00 0.02 0.06 0.10 0.06 0.01 0.00 0.00 0.00 0.00 0.01 0.01 0.01 0.02
0.00 0.00 0.00 0.00 0.00 0.00 0.00 0.00 0.00 0.00 0.00 0.00 0.00 0.00 0.00 0.00 0.00 0.00 0.00 0.00 0.00 0.00 0.00 0.00 0.01 0.02 0.02 0.01 0.01 0.01 0.01 0.01 0.00 0.00 0.00 0.00 0.01 0.02 0.03 0.03 0.01 0.00 0.00 0.01 0.01 0.02 0.02 0.03 0.03
0.00 0.00 0.00 0.00 0.00 0.00 0.00 0.00 0.00 0.00 0.00 0.00 0.00 0.00 0.00 0.00 0.00 0.00 0.00 0.00 0.01 0.01 0.00 0.00 0.00 0.01 0.02 0.02 0.01 0.00 0.00 0.00 0.00 0.00 0.00 0.00 0.00 0.01 0.01 0.01 0.00 0.01 0.01 0.02 0.02 0.02 0.03 0.02 0.01
0.00 0.00 0.00 0.00 0.00 0.00 0.00 0.00 0.00 0.00 0.00 0.00 0.00 0.00 0.00 0.00 0.00 0.00 0.00 0.01 0.01 0.02 0.02 0.00 0.00 0.00 0.01 0.01 0.01 0.00 0.00 0.00 0.00 0.00 0.00 0.00 0.00 0.00 0.00 0.00 0.00 0.00 0.01 0.01 0.01 0.01 0.01 0.01 0.00
0.00 0.00 0.00 0.00 0.00 0.00 0.00 0.00 0.00 0.00 0.00 0.00 0.00 0.00 0.00 0.00 0.00 0.00 0.00 0.01 0.01 0.03 0.03 0.01 0.00 0.00 0.01 0.01 0.01 0.00 0.00 0.00 0.00 0.00 0.00 0.00 0.00 0.00 0.00 0.00 0.00 0.00 0.00 0.00 0.00 0.00 0.00 0.00 0.00
0.00 0.00 0.00 0.00 0.00 0.00 0.00 0.00 0.00 0.00 0.00 0.00 0.00 0.00 0.00 0.00 0.00 0.00 0.00 0.00 0.00 0.01 0.01 0.01 0.00 0.00 0.00 0.01 0.01 0.00 0.00 0.00 0.00 0.00 0.00 0.00 0.00 0.00 0.00 0.00 0.00 0.00 0.00 0.00 0.00 0.00 0.00 0.00 0.00
0.00 0.00 0.00 0.00 0.00 0.00 0.00 0.00 0.00 0.00 0.00 0.00 0.00 0.00 0.00 0.00 0.00 0.01 0.01 0.01 0.01 0.00 0.00 0.00 0.00 0.00 0.00 0.00 0.00 0.00 0.00 0.00 0.00 0.00 0.00 0.00 0.00 0.00 0.00 0.00 0.00 0.00 0.00 0.00 0.00 0.00 0.00 0.00 0.00
0.01 0.00 0.00 0.00 0.00 0.00 0.00 0.00 0.00 0.00 0.00 0.00 0.00 0.00 0.00 0.00 0.00 0.00 0.01 0.01 0.02 0.01 0.01 0.01 0.01 0.00 0.00 0.00 0.00 0.00 0.00 0.00 0.00 0.00 0.00 0.00 0.00 0.00 0.00 0.00 0.01 0.01 0.01 0.01 0.01 0.00 0.00 0.00 0.00
0.01 0.01 0.00 0.00 0.00 0.00 0.00 0.00 0.00 0.00 0.00 0.00 0.00 0.00 0.00 0.00 0.00 0.00 0.00 0.00 0.01 0.01 0.01 0.01 0.01 0.01 0.00 0.00 0.00 0.01 0.01 0.00 0.00 0.00 0.00 0.00 0.00 0.00 0.00 0.01 0.01 0.01 0.01 0.01 0.00 0.00 0.00 0.00 0.00
0.02 0.02 0.01 0.00 0.00 0.00 0.00 0.00 0.00 0.00 0.00 0.00 0.00 0.00 0.00 0.00 0.00 0.00 0.00 0.00 0.00 0.00 0.01 0.01 0.02 0.02 0.01 0.01 0.02 0.03 0.02 0.01 0.00 0.00 0.00 0.00 0.00 0.00 0.00 0.01 0.01 0.00 0.00 0.00 0.00 0.00 0.00 0.00 0.00
0.16 0.10 0.03 0.00 0.00 0.00 0.00 0.00 0.00 0.00 0.00 0.00 0.00 0.00 0.00 0.00 0.00 0.00 0.00 0.00 0.00 0.00 0.00 0.00 0.01 0.01 0.01 0.02 0.06 0.07 0.05 0.02 0.01 0.01 0.00 0.00 0.00 0.00 0.00 0.00 0.00 0.00 0.00 0.00 0.00 0.00 0.00 0.00 0.00
0.18 0.10 0.03 0.01 0.00 0.00 0.01 0.00 0.00 0.00 0.00 0.00 0.00 0.00 0.00 0.00 0.00 0.00 0.00 0.00 0.00 0.00 0.00 0.00 0.01 0.01 0.02 0.04 0.08 0.10 0.08 0.05 0.03 0.02 0.01 0.00 0.00 0.00 0.00 0.00 0.00 0.00 0.00 0.00 0.00 0.00 0.00 0.00 0.00
0.08 0.06 0.04 0.01 0.00 0.01 0.01 0.00 0.00 0.00 0.00 0.00 0.00 0.00 0.00 0.00 0.00 0.00 0.00 0.00 0.00 0.00 0.00 0.00 0.01 0.02 0.04 0.09 0.15 0.17 0.14 0.10 0.08 0.06 0.04 0.03 0.01 0.00 0.00 0.00 0.00 0.00 0.00 0.00 0.00 0.00 0.00 0.00 0.00
0.10 0.09 0.06 0.01 0.00 0.02 0.01 0.00 0.00 0.00 0.00 0.00 0.00 0.00 0.00 0.00 0.00 0.00 0.00 0.00 0.00 0.00 0.00 0.00 0.00 0.01 0.04 0.08 0.11 0.14 0.15 0.15 0.14 0.11 0.10 0.08 0.04 0.02 0.01 0.01 0.00 0.00 0.00 0.00 0.00 0.00 0.00 0.00 0.00
0.13 0.12 0.10 0.04 0.01 0.03 0.02 0.01 0.00 0.00 0.00 0.00 0.00 0.00 0.00 0.00 0.00 0.00 0.00 0.00 0.00 0.00 0.00 0.00 0.00 0.01 0.02 0.03 0.09 0.19 0.27 0.27 0.23 0.20 0.16 0.14 0.10 0.08 0.04 0.02 0.01 0.01 0.00 0.00 0.00 0.00 0.00 0.00 0.00
0.16 0.11 0.10 0.09 0.06 0.06 0.05 0.02 0.00 0.00 0.00 0.00 0.00 0.00 0.00 0.00 0.00 0.00 0.00 0.00 0.00 0.00 0.00 0.00 0.00 0.00 0.01 0.05 0.17 0.29 0.36 0.30 0.22 0.14 0.11 0.12 0.15 0.16 0.12 0.08 0.06 0.04 0.02 0.01 0.01 0.01 0.01 0.00 0.00
0.17 0.09 0.08 0.12 0.14 0.11 0.08 0.04 0.00 0.00 0.00 0.00 0.00 0.00 0.00 0.00 0.00 0.00 0.00 0.00 0.00 0.00 0.00 0.00 0.00 0.00 0.01 0.04 0.12 0.16 0.15 0.13 0.12 0.12 0.13 0.18 0.21 0.22 0.20 0.15 0.10 0.07 0.05 0.04 0.03 0.03 0.02 0.01 0.01
0.17 0.12 0.12 0.18 0.23 0.22 0.11 0.07 0.01 0.00 0.00 0.00 0.00 0.00 0.00 0.00 0.00 0.00 0.00 0.00 0.00 0.00 0.00 0.00 0.00 0.00 0.00 0.01 0.06 0.12 0.13 0.12 0.12 0.14 0.15 0.17 0.18 0.19 0.20 0.17 0.15 0.11 0.09 0.09 0.08 0.05 0.04 0.03 0.02
0.25 0.31 0.30 0.29 0.40 0.39 0.17 0.09 0.03 0.00 0.00 0.00 0.00 0.00 0.00 0.00 0.00 0.00 0.00 0.00 0.00 0.00 0.00 0.00 0.00 0.00 0.00 0.01 0.02 0.04 0.06 0.06 0.07 0.09 0.12 0.14 0.16 0.16 0.17 0.18 0.17 0.15 0.14 0.13 0.11 0.08 0.06 0.04 0.02
0.51 0.70 0.73 0.55 0.53 0.35 0.13 0.11 0.04 0.00 0.00 0.00 0.00 0.00 0.00 0.00 0.00 0.00 0.00 0.00 0.00 0.00 0.00 0.00 0.00 0.00 0.01 0.02 0.02 0.03 0.05 0.06 0.08 0.09 0.12 0.14 0.13 0.12 0.13 0.15 0.17 0.18 0.19 0.17 0.14 0.10 0.07 0.05 0.03
0.54 0.62 0.65 0.45 0.26 0.14 0.10 0.11 0.04 0.00 0.00 0.00 0.00 0.00 0.00 0.00 0.00 0.00 0.00 0.00 0.00 0.00 0.00 0.00 0.00 0.00 0.02 0.03 0.03 0.03 0.04 0.05 0.06 0.09 0.10 0.12 0.13 0.15 0.17 0.18 0.20 0.20 0.20 0.18 0.15 0.13 0.09 0.06 0.04
0.48 0.52 0.41 0.50 0.33 0.20 0.12 0.08 0.03 0.01 0.00 0.00 0.00 0.00 0.00 0.00 0.00 0.00 0.00 0.00 0.00 0.00 0.00 0.00 0.00 0.01 0.03 0.04 0.04 0.03 0.03 0.04 0.06 0.07 0.08 0.10 0.11 0.14 0.15 0.17 0.19 0.19 0.18 0.17 0.16 0.13 0.10 0.07 0.04
0.40 0.38 0.51 0.77 0.61 0.33 0.13 0.06 0.02 0.01 0.00 0.00 0.00 0.00 0.00 0.00 0.00 0.00 0.00 0.00 0.00 0.00 0.00 0.01 0.01 0.02 0.04 0.05 0.05 0.04 0.04 0.05 0.07 0.07 0.07 0.07 0.09 0.10 0.13 0.15 0.16 0.16 0.16 0.15 0.13 0.11 0.08 0.06 0.05
0.41 0.45 0.54 0.54 0.40 0.37 0.20 0.06 0.02 0.01 0.01 0.01 0.01 0.01 0.01 0.01 0.00 0.00 0.00 0.00 0.00 0.00 0.01 0.01 0.03 0.04 0.05 0.05 0.04 0.04 0.04 0.05 0.05 0.06 0.07 0.08 0.08 0.09 0.10 0.12 0.13 0.13 0.12 0.10 0.09 0.08 0.07 0.07 0.07
0.34 0.33 0.43 0.60 0.41 0.32 0.26 0.08 0.02 0.02 0.02 0.03 0.03 0.02 0.02 0.02 0.01 0.01 0.00 0.00 0.00 0.01 0.02 0.04 0.05 0.05 0.05 0.05 0.04 0.04 0.05 0.05 0.06 0.07 0.07 0.07 0.07 0.07 0.07 0.08 0.08 0.08 0.07 0.07 0.07 0.07 0.07 0.08 0.09

GEFSSGP_prec_meanprecacc_048.txt.gz
Total_Precipitation_Accumulation
0.00 0.00 0.00 0.00 0.00 0.00 0.00 0.00 0.00 0.00 0.00 0.00 0.00 0.00 0.00 0.00 0.00 0.00 0.00 0.00 0.00 0.00 0.00 0.02 0.02 0.03 0.03 0.03 0.03 0.02 0.01 0.01 0.02 0.05 0.06 0.04 0.03 0.01 0.01 0.02 0.04 0.06 0.11 0.13 0.09 0.05 0.04 0.03 0.02
0.00 0.00 0.00 0.00 0.00 0.00 0.00 0.00 0.00 0.00 0.00 0.00 0.00 0.00 0.00 0.00 0.00 0.00 0.00 0.00 0.00 0.00 0.00 0.01 0.02 0.03 0.03 0.02 0.02 0.01 0.01 0.01 0.02 0.04 0.03 0.02 0.01 0.01 0.01 0.03 0.04 0.05 0.06 0.05 0.03 0.01 0.00 0.00 0.00
0.00 0.00 0.00 0.00 0.00 0.00 0.00 0.00 0.00 0.00 0.00 0.00 0.00 0.00 0.00 0.00 0.00 0.00 0.00 0.00 0.00 0.00 0.00 0.01 0.02 0.03 0.03 0.02 0.01 0.01 0.01 0.01 0.02 0.02 0.01 0.01 0.02 0.04 0.03 0.02 0.02 0.02 0.01 0.01 0.00 0.00 0.00 0.00 0.00
0.00 0.00 0.00 0.00 0.00 0.00 0.00 0.00 0.00 0.00 0.00 0.00 0.00 0.00 0.00 0.00 0.00 0.00 0.00 0.00 0.00 0.00 0.00 0.01 0.02 0.03 0.02 0.01 0.01 0.01 0.01 0.01 0.01 0.00 0.00 0.01 0.04 0.08 0.07 0.02 0.00 0.00 0.00 0.00 0.00 0.00 0.00 0.00 0.00
0.00 0.00 0.00 0.00 0.00 0.00 0.00 0.00 0.00 0.00 0.00 0.00 0.00 0.00 0.00 0.00 0.00 0.00 0.00 0.00 0.00 0.00 0.00 0.01 0.02 0.03 0.02 0.01 0.01 0.01 0.01 0.01 0.01 0.00 0.00 0.01 0.03 0.09 0.11 0.05 0.01 0.00 0.00 0.00 0.00 0.00 0.00 0.00 0.00
0.00 0.00 0.00 0.00 0.00 0.00 0.00 0.00 0.00 0.00 0.00 0.00 0.00 0.00 0.00 0.00 0.00 0.00 0.00 0.00 0.00 0.00 0.00 0.01 0.02 0.03 0.02 0.01 0.01 0.01 0.01 0.01 0.01 0.00 0.00 0.00 0.02 0.06 0.10 0.06 0.01 0.00 0.00 0.00 0.00 0.01 0.01 0.01 0.02
0.00 0.00 0.00 0.00 0.00 0.00 0.00 0.00 0.00 0.00 0.00 0.00 0.00 0.00 0.00 0.00 0.00 0.00 0.00 0.00 0.00 0.00 0.00 0.00 0.01 0.02 0.02 0.02 0.01 0.01 0.01 0.01 0.00 0.00 0.00 0.00 0.01 0.02 0.04 0.03 0.01 0.00 0.00 0.01 0.02 0.02 0.02 0.03 0.03
0.00 0.00 0.00 0.00 0.00 0.00 0.00 0.00 0.00 0.00 0.00 0.00 0.00 0.00 0.00 0.00 0.00 0.00 0.00 0.00 0.01 0.01 0.00 0.00 0.00 0.01 0.02 0.02 0.01 0.01 0.01 0.01 0.00 0.00 0.00 0.00 0.00 0.01 0.01 0.01 0.00 0.01 0.01 0.02 0.02 0.02 0.03 0.02 0.01
0.00 0.00 0.00 0.00 0.00 0.00 0.00 0.00 0.00 0.00 0.00 0.00 0.00 0.00 0.00 0.00 0.00 0.01 0.01 0.01 0.02 0.02 0.02 0.00 0.00 0.00 0.01 0.01 0.01 0.00 0.01 0.01 0.00 0.00 0.00 0.00 0.00 0.00 0.00 0.00 0.00 0.01 0.01 0.01 0.01 0.01 0.01 0.01 0.00
0.00 0.00 0.00 0.00 0.00 0.00 0.00 0.00 0.00 0.00 0.00 0.00 0.00 0.00 0.00 0.00 0.00 0.01 0.01 0.01 0.02 0.03 0.03 0.01 0.00 0.00 0.01 0.01 0.01 0.00 0.00 0.00 0.00 0.00 0.00 0.00 0.00 0.00 0.00 0.00 0.00 0.00 0.01 0.01 0.00 0.00 0.00 0.00 0.00
0.00 0.00 0.00 0.00 0.00 0.00 0.00 0.00 0.00 0.00 0.00 0.00 0.00 0.00 0.00 0.00 0.01 0.01 0.01 0.00 0.01 0.01 0.01 0.01 0.01 0.00 0.00 0.01 0.01 0.00 0.00 0.00 0.00 0.00 0.00 0.00 0.00 0.00 0.00 0.00 0.00 0.00 0.00 0.00 0.00 0.00 0.00 0.00 0.00
0.00 0.00 0.00 0.00 0.00 0.00 0.00 0.00 0.00 0.00 0.00 0.00 0.00 0.00 0.00 0.00 0.01 0.01 0.01 0.01 0.01 0.01 0.01 0.01 0.01 0.01 0.00 0.00 0.00 0.00 0.00 0.00 0.00 0.00 0.00 0.00 0.00 0.00 0.00 0.00 0.00 0.00 0.00 0.00 0.00 0.00 0.00 0.00 0.00
0.01 0.00 0.00 0.00 0.00 0.00 0.00 0.00 0.00 0.00 0.00 0.00 0.00 0.00 0.00 0.00 0.00 0.01 0.01 0.02 0.02 0.01 0.01 0.01 0.01 0.01 0.01 0.00 0.00 0.00 0.00 0.00 0.00 0.00 0.00 0.00 0.00 0.00 0.00 0.00 0.01 0.01 0.01 0.01 0.01 0.00 0.00 0.00 0.00
0.01 0.01 0.00 0.00 0.00 0.00 0.00 0.00 0.00 0.00 0.00 0.00 0.00 0.00 0.00 0.00 0.00 0.00 0.00 0.01 0.01 0.01 0.01 0.01 0.01 0.01 0.01 0.01 0.00 0.01 0.01 0.00 0.00 0.00 0.00 0.00 0.00 0.00 0.00 0.01 0.01 0.01 0.01 0.01 0.00 0.00 0.00 0.00 0.00
0.02 0.03 0.01 0.00 0.00 0.00 0.00 0.00 0.00 0.00 0.00 0.00 0.00 0.00 0.00 0.00 0.00 0.00 0.00 0.00 0.00 0.00 0.01 0.01 0.02 0.02 0.01 0.02 0.03 0.04 0.03 0.01 0.01 0.00 0.00 0.00 0.00 0.00 0.00 0.01 0.01 0.00 0.00 0.00 0.00 0.00 0.00 0.00 0.00
0.16 0.10 0.03 0.00 0.00 0.00 0.00 0.00 0.00 0.00 0.00 0.00 0.00 0.00 0.00 0.00 0.00 0.00 0.00 0.00 0.00 0.00 0.00 0.00 0.01 0.01 0.01 0.03 0.06 0.07 0.06 0.03 0.01 0.01 0.01 0.00 0.00 0.00 0.00 0.00 0.00 0.00 0.00 0.00 0.00 0.00 0.00 0.00 0.00
0.19 0.10 0.03 0.01 0.00 0.00 0.01 0.00 0.00 0.00 0.00 0.00 0.00 0.00 0.00 0.00 0.00 0.00 0.00 0.00 0.00 0.00 0.00 0.00 0.01 0.01 0.02 0.04 0.09 0.11 0.09 0.06 0.04 0.02 0.01 0.00 0.00 0.01 0.00 0.00 0.00 0.00 0.00 0.00 0.00 0.00 0.00 0.00 0.00
0.08 0.06 0.04 0.01 0.00 0.01 0.01 0.00 0.00 0.00 0.00 0.00 0.00 0.00 0.00 0.00 0.00 0.00 0.00 0.00 0.00 0.00 0.00 0.00 0.01 0.02 0.04 0.10 0.15 0.18 0.15 0.11 0.09 0.06 0.05 0.04 0.02 0.02 0.01 0.01 0.01 0.00 0.00 0.00 0.00 0.00 0.00 0.00 0.00
0.10 0.09 0.06 0.01 0.00 0.02 0.01 0.00 0.00 0.00 0.00 0.00 0.00 0.00 0.00 0.00 0.00 0.00 0.00 0.00 0.00 0.00 0.00 0.00 0.00 0.01 0.04 0.09 0.11 0.15 0.15 0.15 0.14 0.11 0.12 0.10 0.06 0.05 0.04 0.03 0.02 0.01 0.00 0.00 0.00 0.00 0.00 0.00 0.00
0.13 0.12 0.10 0.04 0.01 0.03 0.02 0.01 0.00 0.00 0.00 0.00 0.00 0.00 0.00 0.00 0.00 0.00 0.00 0.00 0.00 0.00 0.00 0.00 0.00 0.01 0.02 0.03 0.09 0.19 0.27 0.27 0.24 0.20 0.17 0.15 0.11 0.09 0.07 0.04 0.04 0.03 0.01 0.01 0.00 0.00 0.00 0.00 0.00
0.16 0.11 0.10 0.09 0.06 0.06 0.05 0.02 0.00 0.00 0.00 0.00 0.00 0.00 0.00 0.00 0.00 0.00 0.00 0.00 0.00 0.00 0.00 0.00 0.00 0.00 0.01 0.05 0.17 0.29 0.36 0.31 0.23 0.15 0.11 0.12 0.16 0.18 0.14 0.11 0.09 0.07 0.04 0.02 0.02 0.01 0.01 0.01 0.00
0.18 0.09 0.08 0.12 0.14 0.11 0.08 0.04 0.00 0.00 0.00 0.00 0.00 0.00 0.00 0.00 0.00 0.00 0.00 0.00 0.00 0.00 0.00 0.00 0.00 0.00 0.01 0.04 0.12 0.16 0.16 0.13 0.12 0.12 0.14 0.18 0.22 0.23 0.23 0.19 0.15 0.12 0.10 0.07 0.07 0.06 0.04 0.03 0.02
0.18 0.12 0.12 0.18 0.23 0.22 0.11 0.07 0.01 0.00 0.00 0.00 0.00 0.00 0.00 0.00 0.00 0.00 0.00 0.00 0.00 0.00 0.00 0.00 0.00 0.00 0.00 0.01 0.06 0.12 0.13 0.12 0.12 0.14 0.16 0.17 0.19 0.21 0.23 0.21 0.19 0.16 0.15 0.16 0.15 0.13 0.11 0.08 0.05
0.27 0.31 0.30 0.29 0.40 0.39 0.17 0.09 0.03 0.00 0.00 0.00 0.00 0.00 0.00 0.00 0.00 0.00 0.00 0.00 0.00 0.00 0.00 0.00 0.00 0.00 0.00 0.01 0.02 0.04 0.06 0.06 0.07 0.09 0.12 0.15 0.16 0.17 0.19 0.21 0.20 0.19 0.20 0.21 0.21 0.20 0.18 0.15 0.12
0.55 0.72 0.75 0.56 0.53 0.35 0.13 0.11 0.04 0.00 0.00 0.00 0.00 0.00 0.00 0.00 0.00 0.00 0.00 0.00 0.00 0.00 0.00 0.00 0.00 0.00 0.01 0.02 0.02 0.03 0.05 0.06 0.08 0.09 0.12 0.14 0.14 0.13 0.14 0.17 0.19 0.22 0.25 0.28 0.28 0.25 0.22 0.20 0.16
0.57 0.65 0.65 0.45 0.26 0.14 0.10 0.11 0.04 0.00 0.00 0.00 0.00 0.00 0.00 0.00 0.00 0.00 0.00 0.00 0.00 0.00 0.00 0.00 0.00 0.00 0.02 0.03 0.03 0.03 0.04 0.05 0.06 0.09 0.10 0.12 0.13 0.15 0.18 0.20 0.22 0.25 0.27 0.27 0.27 0.25 0.23 0.21 0.18
0.50 0.52 0.41 0.50 0.33 0.20 0.12 0.08 0.03 0.01 0.00 0.00 0.00 0.00 0.00 0.00 0.00 0.00 0.00 0.00 0.00 0.00 0.00 0.00 0.00 0.01 0.03 0.04 0.04 0.03 0.03 0.04 0.06 0.07 0.09 0.10 0.12 0.15 0.17 0.19 0.22 0.23 0.24 0.24 0.25 0.23 0.21 0.19 0.16
0.41 0.38 0.51 0.77 0.61 0.33 0.13 0.06 0.02 0.01 0.00 0.00 0.00 0.00 0.00 0.00 0.00 0.00 0.00 0.00 0.00 0.00 0.00 0.01 0.01 0.02 0.04 0.05 0.05 0.04 0.04 0.05 0.07 0.07 0.07 0.07 0.09 0.11 0.13 0.16 0.18 0.19 0.19 0.19 0.19 0.17 0.15 0.14 0.13
0.41 0.45 0.54 0.54 0.40 0.37 0.20 0.06 0.02 0.01 0.01 0.01 0.01 0.01 0.01 0.01 0.00 0.00 0.00 0.00 0.00 0.00 0.01 0.01 0.03 0.04 0.05 0.05 0.04 0.04 0.04 0.05 0.05 0.06 0.07 0.08 0.09 0.09 0.11 0.13 0.14 0.14 0.14 0.13 0.13 0.11 0.10 0.11 0.11
0.34 0.33 0.43 0.60 0.41 0.32 0.26 0.08 0.02 0.02 0.02 0.03 0.03 0.02 0.02 0.02 0.01 0.01 0.00 0.00 0.00 0.01 0.02 0.04 0.05 0.05 0.05 0.05 0.05 0.04 0.05 0.05 0.06 0.07 0.07 0.07 0.07 0.07 0.08 0.09 0.10 0.10 0.09 0.09 0.09 0.10 0.10 0.12 0.13

GEFSSGP_prec_meanprecacc_054.txt.gz
Total_Precipitation_Accumulation
0.00 0.00 0.00 0.00 0.00 0.00 0.00 0.00 0.00 0.00 0.00 0.00 0.00 0.00 0.00 0.00 0.00 0.00 0.00 0.00 0.00 0.00 0.00 0.02 0.02 0.03 0.04 0.05 0.04 0.02 0.02 0.02 0.03 0.06 0.06 0.04 0.03 0.01 0.01 0.03 0.05 0.09 0.14 0.16 0.11 0.06 0.04 0.03 0.02
0.00 0.00 0.00 0.00 0.00 0.00 0.00 0.00 0.00 0.00 0.00 0.00 0.00 0.00 0.00 0.00 0.00 0.00 0.00 0.00 0.00 0.00 0.00 0.01 0.02 0.03 0.04 0.04 0.03 0.02 0.02 0.02 0.02 0.04 0.03 0.02 0.01 0.02 0.02 0.04 0.06 0.08 0.09 0.06 0.03 0.01 0.00 0.00 0.00
0.00 0.00 0.00 0.00 0.00 0.00 0.00 0.00 0.00 0.00 0.00 0.00 0.00 0.00 0.00 0.00 0.00 0.00 0.00 0.00 0.00 0.00 0.00 0.01 0.02 0.03 0.04 0.03 0.02 0.02 0.02 0.02 0.02 0.02 0.01 0.01 0.03 0.05 0.04 0.03 0.03 0.03 0.02 0.01 0.00 0.00 0.00 0.00 0.00
0.00 0.00 0.00 0.00 0.00 0.00 0.00 0.00 0.00 0.00 0.00 0.00 0.00 0.00 0.00 0.00 0.00 0.00 0.00 0.00 0.00 0.00 0.00 0.01 0.02 0.03 0.03 0.02 0.02 0.02 0.02 0.02 0.01 0.01 0.00 0.01 0.04 0.10 0.08 0.03 0.01 0.01 0.00 0.00 0.00 0.00 0.00 0.00 0.00
0.00 0.00 0.00 0.00 0.00 0.00 0.00 0.00 0.00 0.00 0.00 0.00 0.00 0.00 0.00 0.00 0.00 0.00 0.00 0.00 0.00 0.00 0.00 0.01 0.02 0.03 0.03 0.02 0.01 0.02 0.02 0.02 0.01 0.00 0.00 0.01 0.04 0.10 0.12 0.05 0.01 0.00 0.00 0.00 0.00 0.00 0.00 0.00 0.00
0.01 0.01 0.01 0.00 0.00 0.00 0.00 0.00 0.00 0.00 0.00 0.00 0.00 0.00 0.00 0.00 0.00 0.00 0.00 0.00 0.00 0.00 0.00 0.01 0.02 0.03 0.03 0.02 0.01 0.02 0.02 0.02 0.01 0.00 0.00 0.01 0.02 0.06 0.10 0.06 0.01 0.00 0.00 0.00 0.00 0.01 0.01 0.01 0.02
0.02 0.01 0.01 0.00 0.00 0.00 0.00 0.00 0.00 0.00 0.00 0.00 0.00 0.00 0.00 0.00 0.00 0.00 0.00 0.00 0.00 0.00 0.00 0.00 0.01 0.02 0.03 0.02 0.02 0.02 0.02 0.02 0.01 0.00 0.00 0.00 0.01 0.02 0.04 0.03 0.01 0.00 0.00 0.01 0.02 0.02 0.02 0.03 0.03
0.01 0.02 0.01 0.00 0.00 0.00 0.00 0.00 0.00 0.00 0.00 0.00 0.00 0.00 0.01 0.00 0.00 0.00 0.00 0.00 0.01 0.01 0.00 0.00 0.00 0.01 0.02 0.02 0.01 0.01 0.02 0.01 0.01 0.00 0.00 0.00 0.00 0.01 0.01 0.01 0.00 0.01 0.01 0.02 0.02 0.02 0.03 0.02 0.01
0.01 0.02 0.02 0.00 0.00 0.00 0.00 0.00 0.00 0.00 0.00 0.00 0.00 0.00 0.00 0.00 0.00 0.01 0.01 0.01 0.02 0.02 0.02 0.00 0.00 0.00 0.01 0.02 0.01 0.01 0.01 0.01 0.01 0.00 0.00 0.00 0.00 0.00 0.00 0.00 0.00 0.01 0.01 0.01 0.01 0.01 0.01 0.01 0.00
0.01 0.01 0.01 0.00 0.00 0.00 0.00 0.00 0.00 0.00 0.00 0.00 0.00 0.00 0.00 0.00 0.00 0.01 0.01 0.01 0.02 0.04 0.03 0.01 0.00 0.00 0.01 0.01 0.01 0.01 0.01 0.01 0.00 0.00 0.00 0.00 0.00 0.00 0.00 0.00 0.00 0.00 0.01 0.01 0.00 0.00 0.00 0.00 0.00
0.00 0.00 0.00 0.00 0.00 0.00 0.00 0.00 0.00 0.00 0.00 0.00 0.00 0.00 0.00 0.00 0.01 0.01 0.01 0.00 0.01 0.01 0.01 0.01 0.01 0.01 0.00 0.01 0.01 0.00 0.00 0.00 0.00 0.00 0.00 0.00 0.00 0.00 0.00 0.00 0.00 0.00 0.00 0.00 0.00 0.00 0.00 0.00 0.00
0.00 0.00 0.00 0.00 0.00 0.00 0.00 0.00 0.00 0.00 0.00 0.00 0.00 0.00 0.00 0.00 0.01 0.01 0.01 0.02 0.01 0.01 0.01 0.01 0.01 0.01 0.01 0.00 0.00 0.00 0.00 0.00 0.00 0.00 0.00 0.00 0.00 0.00 0.00 0.00 0.00 0.00 0.00 0.00 0.00 0.00 0.00 0.00 0.00
0.01 0.00 0.00 0.00 0.00 0.00 0.00 0.00 0.00 0.00 0.00 0.00 0.00 0.00 0.00 0.00 0.00 0.01 0.01 0.02 0.02 0.01 0.01 0.01 0.01 0.01 0.01 0.01 0.00 0.00 0.00 0.00 0.00 0.00 0.00 0.00 0.00 0.00 0.00 0.00 0.01 0.01 0.01 0.01 0.01 0.00 0.00 0.00 0.00
0.01 0.01 0.00 0.00 0.00 0.00 0.00 0.00 0.00 0.00 0.00 0.00 0.00 0.00 0.00 0.00 0.00 0.00 0.00 0.01 0.01 0.01 0.01 0.02 0.01 0.01 0.01 0.01 0.01 0.01 0.01 0.00 0.00 0.00 0.00 0.00 0.00 0.00 0.00 0.01 0.01 0.01 0.01 0.01 0.00 0.00 0.00 0.00 0.00
0.02 0.03 0.01 0.00 0.00 0.00 0.00 0.00 0.00 0.00 0.00 0.00 0.00 0.00 0.00 0.00 0.00 0.00 0.00 0.00 0.00 0.00 0.01 0.01 0.02 0.02 0.01 0.02 0.03 0.04 0.03 0.01 0.01 0.00 0.00 0.00 0.00 0.00 0.00 0.01 0.01 0.00 0.00 0.00 0.00 0.00 0.00 0.00 0.00
0.17 0.10 0.03 0.00 0.00 0.00 0.00 0.00 0.00 0.00 0.00 0.00 0.00 0.00 0.00 0.00 0.00 0.00 0.00 0.00 0.00 0.00 0.00 0.01 0.01 0.01 0.02 0.03 0.06 0.08 0.06 0.03 0.01 0.01 0.01 0.00 0.00 0.00 0.00 0.00 0.00 0.00 0.00 0.00 0.00 0.00 0.00 0.00 0.00
0.21 0.11 0.03 0.01 0.00 0.00 0.01 0.00 0.00 0.00 0.00 0.00 0.00 0.00 0.00 0.00 0.00 0.00 0.00 0.00 0.00 0.00 0.00 0.00 0.01 0.01 0.02 0.04 0.09 0.11 0.10 0.06 0.04 0.02 0.01 0.01 0.01 0.01 0.00 0.00 0.00 0.00 0.00 0.00 0.00 0.00 0.00 0.00 0.00
0.08 0.06 0.04 0.01 0.00 0.01 0.01 0.00 0.00 0.00 0.00 0.00 0.00 0.00 0.00 0.00 0.00 0.00 0.00 0.00 0.00 0.00 0.00 0.00 0.01 0.02 0.04 0.10 0.16 0.18 0.15 0.11 0.09 0.06 0.05 0.05 0.03 0.03 0.02 0.01 0.01 0.00 0.00 0.00 0.00 0.00 0.00 0.00 0.00
0.10 0.09 0.06 0.01 0.00 0.02 0.01 0.00 0.00 0.00 0.00 0.00 0.00 0.00 0.00 0.00 0.00 0.00 0.00 0.00 0.00 0.00 0.00 0.00 0.00 0.01 0.05 0.10 0.13 0.16 0.16 0.16 0.14 0.12 0.12 0.10 0.07 0.06 0.05 0.03 0.03 0.01 0.01 0.00 0.00 0.00 0.00 0.00 0.00
0.14 0.12 0.11 0.05 0.01 0.03 0.02 0.01 0.00 0.00 0.00 0.00 0.00 0.00 0.00 0.00 0.00 0.00 0.00 0.00 0.00 0.00 0.00 0.00 0.00 0.01 0.02 0.04 0.10 0.19 0.28 0.27 0.24 0.21 0.17 0.15 0.12 0.10 0.08 0.05 0.04 0.04 0.02 0.01 0.01 0.01 0.00 0.00 0.00
0.16 0.11 0.10 0.09 0.06 0.06 0.05 0.02 0.00 0.00 0.00 0.00 0.00 0.00 0.00 0.00 0.00 0.00 0.00 0.00 0.00 0.00 0.00 0.00 0.00 0.00 0.01 0.05 0.17 0.29 0.36 0.32 0.23 0.15 0.11 0.13 0.16 0.19 0.15 0.12 0.10 0.08 0.05 0.03 0.03 0.03 0.03 0.02 0.01
0.19 0.09 0.08 0.12 0.14 0.11 0.08 0.04 0.00 0.00 0.00 0.00 0.00 0.00 0.00 0.00 0.00 0.00 0.00 0.00 0.00 0.00 0.00 0.00 0.00 0.00 0.01 0.04 0.12 0.16 0.16 0.14 0.12 0.13 0.14 0.18 0.22 0.24 0.24 0.20 0.16 0.13 0.11 0.09 0.09 0.09 0.08 0.06 0.04
0.20 0.12 0.13 0.18 0.23 0.22 0.11 0.07 0.01 0.00 0.00 0.00 0.00 0.00 0.00 0.00 0.00 0.00 0.00 0.00 0.00 0.00 0.00 0.00 0.00 0.00 0.00 0.01 0.06 0.12 0.13 0.12 0.12 0.14 0.16 0.18 0.19 0.22 0.24 0.22 0.21 0.18 0.16 0.18 0.18 0.17 0.15 0.13 0.10
0.28 0.32 0.30 0.29 0.41 0.39 0.17 0.09 0.03 0.00 0.00 0.00 0.00 0.00 0.00 0.00 0.00 0.00 0.00 0.00 0.00 0.00 0.00 0.00 0.00 0.00 0.00 0.01 0.02 0.04 0.06 0.06 0.07 0.09 0.13 0.15 0.17 0.18 0.21 0.24 0.22 0.22 0.22 0.23 0.25 0.25 0.24 0.23 0.20
0.58 0.74 0.77 0.58 0.54 0.35 0.13 0.11 0.04 0.00 0.00 0.00 0.00 0.00 0.00 0.00 0.00 0.00 0.00 0.00 0.00 0.00 0.00 0.00 0.00 0.00 0.01 0.02 0.02 0.03 0.05 0.06 0.08 0.09 0.12 0.14 0.14 0.13 0.16 0.19 0.22 0.26 0.29 0.33 0.33 0.31 0.29 0.29 0.27
0.61 0.68 0.68 0.46 0.26 0.14 0.10 0.11 0.04 0.00 0.00 0.00 0.00 0.00 0.00 0.00 0.00 0.00 0.00 0.00 0.00 0.00 0.00 0.00 0.00 0.00 0.02 0.03 0.03 0.03 0.04 0.05 0.06 0.09 0.10 0.12 0.14 0.16 0.19 0.22 0.25 0.28 0.31 0.33 0.34 0.34 0.33 0.32 0.30
0.54 0.56 0.43 0.50 0.34 0.20 0.12 0.08 0.03 0.01 0.00 0.00 0.00 0.00 0.00 0.00 0.00 0.00 0.00 0.00 0.00 0.00 0.00 0.00 0.00 0.01 0.03 0.04 0.04 0.03 0.03 0.04 0.06 0.07 0.09 0.10 0.12 0.15 0.17 0.21 0.24 0.26 0.28 0.30 0.32 0.32 0.31 0.30 0.28
0.43 0.40 0.52 0.77 0.61 0.33 0.13 0.06 0.02 0.01 0.00 0.00 0.00 0.00 0.00 0.00 0.00 0.00 0.00 0.00 0.00 0.00 0.00 0.01 0.01 0.02 0.04 0.05 0.05 0.04 0.04 0.05 0.07 0.07 0.07 0.07 0.09 0.11 0.14 0.17 0.19 0.21 0.23 0.24 0.26 0.25 0.24 0.25 0.24
0.42 0.45 0.55 0.55 0.40 0.37 0.21 0.06 0.02 0.01 0.01 0.01 0.01 0.01 0.01 0.01 0.00 0.00 0.00 0.00 0.00 0.00 0.01 0.01 0.03 0.04 0.05 0.05 0.05 0.04 0.04 0.05 0.05 0.06 0.07 0.08 0.09 0.09 0.11 0.13 0.15 0.16 0.16 0.17 0.18 0.19 0.19 0.20 0.21
0.35 0.34 0.43 0.61 0.41 0.32 0.26 0.08 0.02 0.02 0.02 0.03 0.03 0.02 0.02 0.02 0.01 0.01 0.00 0.00 0.00 0.01 0.02 0.04 0.05 0.05 0.05 0.05 0.05 0.04 0.05 0.05 0.06 0.07 0.07 0.07 0.07 0.07 0.08 0.09 0.11 0.11 0.11 0.12 0.13 0.14 0.16 0.18 0.20

GEFSSGP_prec_meanprecacc_060.txt.gz
Total_Precipitation_Accumulation
0.00 0.00 0.00 0.00 0.00 0.00 0.00 0.00 0.00 0.00 0.00 0.00 0.00 0.00 0.00 0.00 0.00 0.00 0.00 0.00 0.00 0.00 0.00 0.02 0.03 0.03 0.04 0.05 0.04 0.03 0.02 0.02 0.03 0.06 0.06 0.04 0.03 0.01 0.02 0.04 0.07 0.11 0.15 0.16 0.11 0.06 0.04 0.03 0.02
0.00 0.00 0.00 0.00 0.00 0.00 0.00 0.00 0.00 0.00 0.00 0.00 0.00 0.00 0.00 0.00 0.00 0.00 0.00 0.00 0.00 0.00 0.00 0.01 0.02 0.03 0.04 0.04 0.03 0.02 0.02 0.02 0.03 0.04 0.03 0.02 0.02 0.02 0.03 0.05 0.07 0.09 0.09 0.06 0.03 0.01 0.00 0.00 0.00
0.00 0.00 0.00 0.00 0.00 0.00 0.00 0.00 0.00 0.00 0.00 0.00 0.00 0.00 0.00 0.00 0.00 0.00 0.00 0.00 0.00 0.00 0.00 0.01 0.02 0.03 0.04 0.03 0.02 0.02 0.02 0.02 0.02 0.02 0.01 0.01 0.03 0.06 0.05 0.04 0.04 0.04 0.02 0.01 0.00 0.00 0.00 0.00 0.00
0.00 0.00 0.00 0.00 0.00 0.00 0.00 0.00 0.00 0.00 0.00 0.00 0.00 0.00 0.00 0.00 0.00 0.00 0.00 0.00 0.00 0.00 0.00 0.01 0.02 0.03 0.03 0.02 0.02 0.02 0.02 0.02 0.01 0.01 0.00 0.01 0.05 0.10 0.09 0.03 0.01 0.01 0.00 0.00 0.00 0.00 0.00 0.00 0.00
0.01 0.01 0.01 0.00 0.00 0.00 0.00 0.00 0.00 0.00 0.00 0.00 0.00 0.00 0.00 0.00 0.00 0.00 0.00 0.00 0.00 0.00 0.00 0.01 0.02 0.03 0.03 0.02 0.02 0.02 0.02 0.02 0.01 0.00 0.00 0.01 0.04 0.10 0.12 0.05 0.01 0.00 0.00 0.00 0.00 0.00 0.00 0.00 0.00
0.03 0.02 0.02 0.00 0.00 0.00 0.00 0.00 0.00 0.00 0.00 0.00 0.00 0.01 0.01 0.00 0.00 0.00 0.00 0.00 0.00 0.00 0.00 0.01 0.02 0.04 0.03 0.02 0.02 0.02 0.02 0.02 0.01 0.00 0.01 0.01 0.02 0.06 0.10 0.06 0.01 0.00 0.00 0.00 0.00 0.01 0.01 0.01 0.02
0.05 0.04 0.02 0.00 0.00 0.00 0.00 0.00 0.00 0.00 0.00 0.00 0.00 0.02 0.03 0.00 0.00 0.00 0.00 0.00 0.00 0.00 0.00 0.01 0.02 0.03 0.03 0.02 0.02 0.02 0.02 0.02 0.01 0.00 0.00 0.01 0.01 0.02 0.04 0.03 0.01 0.00 0.00 0.01 0.02 0.02 0.02 0.03 0.03
0.03 0.06 0.04 0.01 0.00 0.00 0.00 0.00 0.00 0.00 0.00 0.00 0.00 0.01 0.06 0.01 0.00 0.00 0.01 0.01 0.01 0.01 0.00 0.00 0.01 0.02 0.03 0.02 0.01 0.01 0.02 0.01 0.01 0.00 0.00 0.00 0.00 0.01 0.01 0.01 0.00 0.01 0.01 0.02 0.02 0.02 0.03 0.02 0.01
0.04 0.09 0.08 0.02 0.00 0.00 0.00 0.00 0.00 0.00 0.00 0.00 0.00 0.00 0.02 0.01 0.01 0.01 0.01 0.02 0.02 0.02 0.02 0.01 0.00 0.01 0.01 0.02 0.01 0.01 0.01 0.01 0.01 0.00 0.00 0.00 0.00 0.00 0.00 0.00 0.00 0.01 0.01 0.01 0.01 0.01 0.01 0.01 0.00
0.06 0.08 0.04 0.01 0.00 0.00 0.00 0.00 0.00 0.00 0.00 0.00 0.00 0.00 0.00 0.01 0.03 0.02 0.01 0.01 0.02 0.04 0.03 0.01 0.00 0.00 0.01 0.01 0.01 0.01 0.01 0.01 0.00 0.00 0.00 0.00 0.00 0.00 0.00 0.00 0.00 0.00 0.01 0.01 0.00 0.00 0.00 0.00 0.00
0.04 0.02 0.01 0.01 0.01 0.01 0.01 0.00 0.00 0.00 0.00 0.00 0.00 0.00 0.00 0.02 0.05 0.04 0.02 0.01 0.01 0.01 0.02 0.01 0.01 0.01 0.00 0.01 0.01 0.00 0.00 0.00 0.00 0.00 0.00 0.00 0.00 0.00 0.00 0.00 0.00 0.00 0.00 0.00 0.00 0.00 0.00 0.00 0.00
0.02 0.01 0.00 0.01 0.01 0.03 0.02 0.01 0.00 0.00 0.00 0.00 0.00 0.00 0.00 0.01 0.02 0.03 0.03 0.02 0.02 0.01 0.01 0.01 0.01 0.01 0.01 0.00 0.00 0.00 0.00 0.00 0.00 0.00 0.00 0.00 0.00 0.00 0.00 0.00 0.00 0.00 0.00 0.00 0.00 0.00 0.00 0.00 0.00
0.01 0.01 0.01 0.01 0.02 0.03 0.03 0.02 0.00 0.00 0.00 0.00 0.00 0.00 0.00 0.00 0.01 0.01 0.01 0.02 0.02 0.01 0.01 0.01 0.01 0.01 0.01 0.01 0.00 0.00 0.00 0.00 0.00 0.00 0.00 0.00 0.00 0.00 0.00 0.00 0.01 0.01 0.01 0.01 0.01 0.00 0.00 0.00 0.00
0.01 0.01 0.01 0.01 0.01 0.01 0.03 0.02 0.01 0.00 0.00 0.00 0.00 0.00 0.00 0.00 0.00 0.00 0.01 0.01 0.01 0.01 0.01 0.02 0.02 0.01 0.01 0.01 0.01 0.01 0.01 0.00 0.00 0.00 0.00 0.00 0.00 0.00 0.00 0.01 0.01 0.01 0.01 0.01 0.00 0.00 0.00 0.00 0.00
0.04 0.04 0.03 0.01 0.01 0.01 0.01 0.02 0.01 0.00 0.00 0.00 0.00 0.00 0.00 0.00 0.00 0.00 0.00 0.00 0.00 0.01 0.01 0.02 0.02 0.02 0.01 0.02 0.03 0.04 0.03 0.01 0.01 0.00 0.00 0.00 0.00 0.00 0.00 0.01 0.01 0.00 0.00 0.00 0.00 0.00 0.00 0.00 0.00
0.21 0.13 0.05 0.01 0.00 0.00 0.01 0.01 0.00 0.00 0.00 0.00 0.00 0.00 0.00 0.00 0.00 0.00 0.00 0.00 0.00 0.00 0.01 0.01 0.02 0.02 0.02 0.03 0.06 0.08 0.06 0.03 0.02 0.01 0.01 0.01 0.01 0.00 0.00 0.00 0.00 0.00 0.00 0.00 0.00 0.00 0.00 0.00 0.00
0.26 0.14 0.04 0.01 0.00 0.00 0.01 0.00 0.00 0.00 0.00 0.00 0.00 0.00 0.00 0.00 0.00 0.00 0.00 0.00 0.00 0.00 0.00 0.00 0.02 0.02 0.03 0.05 0.10 0.12 0.10 0.07 0.05 0.03 0.02 0.02 0.02 0.02 0.01 0.00 0.00 0.00 0.00 0.00 0.00 0.00 0.00 0.00 0.00
0.10 0.07 0.05 0.02 0.00 0.01 0.01 0.00 0.00 0.00 0.00 0.00 0.00 0.00 0.00 0.00 0.00 0.00 0.00 0.00 0.00 0.00 0.00 0.00 0.01 0.02 0.05 0.12 0.18 0.20 0.16 0.13 0.10 0.08 0.07 0.07 0.06 0.06 0.04 0.02 0.02 0.02 0.02 0.01 0.01 0.01 0.01 0.01 0.00
0.10 0.10 0.07 0.01 0.00 0.02 0.01 0.00 0.00 0.00 0.00 0.00 0.00 0.00 0.00 0.00 0.00 0.00 0.00 0.00 0.00 0.00 0.00 0.00 0.00 0.01 0.05 0.11 0.14 0.17 0.17 0.17 0.15 0.13 0.14 0.12 0.08 0.08 0.08 0.05 0.05 0.04 0.04 0.03 0.03 0.03 0.03 0.02 0.03
0.14 0.13 0.11 0.05 0.01 0.03 0.02 0.01 0.00 0.00 0.00 0.00 0.00 0.00 0.00 0.00 0.00 0.00 0.00 0.00 0.00 0.00 0.00 0.00 0.00 0.01 0.02 0.04 0.10 0.20 0.28 0.28 0.24 0.21 0.18 0.16 0.13 0.12 0.10 0.08 0.07 0.07 0.06 0.05 0.06 0.06 0.06 0.06 0.07
0.17 0.11 0.10 0.10 0.06 0.06 0.05 0.02 0.00 0.00 0.00 0.00 0.00 0.00 0.00 0.00 0.00 0.00 0.00 0.00 0.00 0.00 0.00 0.00 0.00 0.00 0.01 0.05 0.17 0.29 0.37 0.32 0.23 0.15 0.12 0.13 0.18 0.20 0.17 0.14 0.13 0.11 0.09 0.07 0.09 0.11 0.11 0.10 0.10
0.20 0.09 0.09 0.12 0.15 0.11 0.08 0.05 0.00 0.00 0.00 0.00 0.00 0.00 0.00 0.00 0.00 0.00 0.00 0.00 0.00 0.00 0.00 0.00 0.00 0.00 0.01 0.04 0.12 0.16 0.16 0.14 0.12 0.13 0.14 0.19 0.23 0.25 0.25 0.21 0.18 0.16 0.15 0.13 0.14 0.16 0.16 0.17 0.13
0.21 0.13 0.13 0.18 0.23 0.22 0.11 0.07 0.01 0.00 0.00 0.00 0.00 0.00 0.00 0.00 0.00 0.00 0.00 0.00 0.00 0.00 0.00 0.00 0.00 0.00 0.00 0.01 0.06 0.12 0.13 0.12 0.12 0.14 0.16 0.18 0.20 0.22 0.25 0.24 0.23 0.20 0.19 0.21 0.23 0.23 0.23 0.23 0.20
0.30 0.33 0.31 0.30 0.41 0.40 0.17 0.09 0.03 0.00 0.00 0.00 0.00 0.00 0.00 0.00 0.00 0.00 0.00 0.00 0.00 0.00 0.00 0.00 0.00 0.00 0.00 0.01 0.02 0.04 0.06 0.06 0.07 0.09 0.13 0.15 0.17 0.18 0.21 0.24 0.24 0.24 0.25 0.26 0.29 0.31 0.32 0.33 0.31
0.59 0.76 0.79 0.61 0.56 0.35 0.13 0.11 0.04 0.00 0.00 0.00 0.00 0.00 0.00 0.00 0.00 0.00 0.00 0.00 0.00 0.00 0.00 0.00 0.00 0.00 0.01 0.02 0.02 0.03 0.05 0.06 0.08 0.09 0.12 0.14 0.14 0.13 0.16 0.20 0.23 0.27 0.31 0.35 0.36 0.36 0.36 0.38 0.38
0.63 0.69 0.69 0.47 0.27 0.14 0.10 0.11 0.04 0.00 0.00 0.00 0.00 0.00 0.00 0.00 0.00 0.00 0.00 0.00 0.00 0.00 0.00 0.00 0.00 0.00 0.02 0.03 0.03 0.03 0.04 0.05 0.06 0.09 0.10 0.12 0.14 0.16 0.19 0.22 0.26 0.29 0.32 0.34 0.36 0.37 0.38 0.40 0.40
0.58 0.57 0.44 0.50 0.34 0.20 0.12 0.08 0.03 0.01 0.00 0.00 0.00 0.00 0.00 0.00 0.00 0.00 0.00 0.00 0.00 0.00 0.00 0.00 0.00 0.01 0.03 0.04 0.04 0.03 0.03 0.04 0.06 0.07 0.09 0.10 0.12 0.15 0.17 0.21 0.24 0.26 0.29 0.31 0.34 0.34 0.34 0.35 0.35
0.47 0.42 0.54 0.78 0.61 0.33 0.13 0.06 0.02 0.01 0.00 0.00 0.00 0.00 0.00 0.00 0.00 0.00 0.00 0.00 0.00 0.00 0.00 0.01 0.01 0.02 0.04 0.05 0.05 0.04 0.04 0.05 0.07 0.07 0.07 0.07 0.09 0.11 0.14 0.17 0.19 0.21 0.23 0.25 0.27 0.27 0.26 0.28 0.29
0.45 0.48 0.57 0.56 0.41 0.37 0.21 0.06 0.02 0.01 0.01 0.01 0.01 0.01 0.01 0.01 0.00 0.00 0.00 0.00 0.00 0.00 0.01 0.01 0.03 0.04 0.05 0.05 0.05 0.04 0.04 0.05 0.05 0.06 0.07 0.08 0.09 0.09 0.11 0.13 0.15 0.16 0.17 0.17 0.19 0.19 0.20 0.23 0.25
0.36 0.34 0.44 0.62 0.42 0.32 0.26 0.08 0.02 0.02 0.02 0.03 0.03 0.02 0.02 0.02 0.01 0.01 0.00 0.00 0.00 0.01 0.02 0.04 0.05 0.05 0.05 0.05 0.05 0.04 0.05 0.05 0.06 0.07 0.07 0.07 0.07 0.07 0.08 0.09 0.11 0.11 0.11 0.12 0.14 0.15 0.16 0.19 0.22

GEFSSGP_prec_meanprecacc_066.txt.gz
Total_Precipitation_Accumulation
0.00 0.00 0.00 0.00 0.00 0.00 0.00 0.00 0.00 0.00 0.00 0.00 0.00 0.00 0.00 0.00 0.00 0.00 0.00 0.00 0.00 0.00 0.01 0.03 0.03 0.04 0.05 0.06 0.05 0.03 0.02 0.02 0.03 0.06 0.06 0.05 0.03 0.02 0.03 0.05 0.07 0.11 0.15 0.16 0.11 0.06 0.04 0.03 0.02
0.00 0.00 0.00 0.00 0.00 0.00 0.00 0.00 0.00 0.00 0.00 0.00 0.00 0.00 0.00 0.00 0.00 0.00 0.00 0.00 0.00 0.00 0.01 0.02 0.02 0.04 0.05 0.05 0.03 0.02 0.02 0.02 0.03 0.04 0.03 0.02 0.02 0.03 0.04 0.06 0.07 0.09 0.09 0.06 0.03 0.01 0.00 0.00 0.00
0.00 0.00 0.00 0.00 0.00 0.00 0.00 0.00 0.00 0.00 0.00 0.00 0.00 0.00 0.00 0.00 0.00 0.00 0.00 0.00 0.00 0.00 0.00 0.01 0.03 0.04 0.05 0.04 0.03 0.02 0.02 0.02 0.02 0.02 0.01 0.02 0.04 0.06 0.06 0.04 0.04 0.04 0.02 0.01 0.00 0.00 0.00 0.00 0.00
0.00 0.00 0.00 0.00 0.00 0.00 0.00 0.00 0.00 0.00 0.00 0.00 0.00 0.00 0.00 0.00 0.00 0.00 0.00 0.00 0.00 0.00 0.00 0.02 0.03 0.04 0.04 0.03 0.02 0.02 0.02 0.02 0.01 0.01 0.01 0.02 0.06 0.11 0.09 0.03 0.01 0.01 0.00 0.00 0.00 0.00 0.00 0.00 0.00
0.02 0.02 0.01 0.00 0.00 0.00 0.00 0.00 0.00 0.00 0.00 0.00 0.00 0.00 0.00 0.00 0.00 0.00 0.00 0.00 0.00 0.00 0.01 0.02 0.03 0.04 0.03 0.02 0.02 0.02 0.02 0.02 0.01 0.01 0.01 0.02 0.05 0.11 0.12 0.05 0.01 0.00 0.00 0.00 0.00 0.00 0.00 0.00 0.01
0.06 0.04 0.03 0.00 0.00 0.00 0.00 0.00 0.00 0.00 0.00 0.00 0.00 0.01 0.01 0.00 0.00 0.00 0.00 0.00 0.00 0.00 0.01 0.02 0.04 0.05 0.04 0.02 0.02 0.02 0.02 0.02 0.01 0.01 0.01 0.02 0.03 0.06 0.10 0.06 0.01 0.00 0.00 0.00 0.00 0.01 0.01 0.02 0.02
0.08 0.06 0.03 0.00 0.00 0.00 0.00 0.00 0.00 0.00 0.00 0.00 0.00 0.02 0.03 0.01 0.00 0.01 0.01 0.01 0.01 0.00 0.01 0.02 0.03 0.04 0.04 0.03 0.02 0.02 0.02 0.02 0.01 0.01 0.01 0.01 0.01 0.02 0.04 0.03 0.01 0.00 0.00 0.01 0.02 0.02 0.02 0.03 0.03
0.05 0.08 0.05 0.01 0.00 0.00 0.00 0.00 0.00 0.00 0.00 0.00 0.00 0.01 0.06 0.01 0.01 0.01 0.01 0.01 0.01 0.01 0.01 0.01 0.02 0.03 0.03 0.03 0.01 0.01 0.02 0.01 0.01 0.00 0.00 0.00 0.00 0.01 0.01 0.01 0.00 0.01 0.01 0.02 0.02 0.02 0.03 0.02 0.01
0.08 0.14 0.10 0.02 0.00 0.00 0.00 0.00 0.00 0.00 0.00 0.00 0.00 0.00 0.02 0.01 0.01 0.02 0.02 0.03 0.03 0.03 0.03 0.01 0.01 0.01 0.02 0.02 0.01 0.01 0.01 0.01 0.01 0.00 0.00 0.00 0.00 0.00 0.00 0.00 0.00 0.01 0.01 0.01 0.01 0.01 0.01 0.01 0.00
0.13 0.13 0.06 0.01 0.00 0.00 0.00 0.00 0.00 0.00 0.00 0.00 0.01 0.01 0.01 0.03 0.04 0.04 0.04 0.03 0.03 0.04 0.04 0.02 0.01 0.01 0.01 0.02 0.01 0.01 0.01 0.01 0.01 0.00 0.00 0.00 0.00 0.00 0.00 0.00 0.00 0.00 0.01 0.01 0.01 0.00 0.00 0.00 0.00
0.09 0.05 0.01 0.01 0.01 0.01 0.02 0.01 0.00 0.00 0.00 0.00 0.02 0.03 0.03 0.05 0.07 0.06 0.05 0.02 0.01 0.02 0.02 0.02 0.01 0.01 0.01 0.01 0.01 0.00 0.00 0.00 0.00 0.00 0.00 0.00 0.00 0.00 0.00 0.00 0.00 0.00 0.00 0.00 0.00 0.00 0.00 0.00 0.00
0.05 0.02 0.01 0.02 0.02 0.03 0.03 0.01 0.00 0.00 0.00 0.00 0.01 0.04 0.06 0.05 0.05 0.05 0.05 0.03 0.02 0.01 0.01 0.01 0.01 0.01 0.01 0.01 0.00 0.00 0.00 0.00 0.00 0.00 0.00 0.00 0.00 0.00 0.00 0.00 0.00 0.00 0.00 0.00 0.00 0.00 0.00 0.00 0.00
0.04 0.02 0.01 0.02 0.04 0.05 0.05 0.03 0.01 0.00 0.00 0.00 0.01 0.04 0.05 0.05 0.04 0.03 0.03 0.03 0.03 0.02 0.01 0.02 0.01 0.01 0.01 0.01 0.01 0.00 0.00 0.00 0.00 0.00 0.00 0.00 0.00 0.00 0.00 0.00 0.01 0.01 0.01 0.01 0.01 0.00 0.00 0.00 0.00
0.03 0.03 0.03 0.03 0.04 0.04 0.06 0.06 0.04 0.01 0.00 0.01 0.02 0.03 0.04 0.04 0.04 0.03 0.02 0.02 0.02 0.02 0.01 0.02 0.02 0.01 0.01 0.01 0.01 0.01 0.01 0.00 0.00 0.00 0.00 0.00 0.00 0.00 0.00 0.01 0.01 0.01 0.01 0.01 0.00 0.00 0.00 0.00 0.00
0.08 0.08 0.08 0.06 0.05 0.04 0.06 0.09 0.05 0.01 0.00 0.01 0.02 0.03 0.03 0.03 0.04 0.03 0.02 0.02 0.02 0.02 0.01 0.02 0.02 0.02 0.02 0.02 0.03 0.04 0.03 0.01 0.01 0.00 0.00 0.00 0.00 0.00 0.00 0.01 0.01 0.00 0.00 0.00 0.00 0.00 0.00 0.00 0.00
0.28 0.20 0.12 0.06 0.05 0.05 0.07 0.07 0.03 0.02 0.01 0.00 0.01 0.01 0.02 0.03 0.03 0.02 0.02 0.02 0.02 0.01 0.01 0.01 0.02 0.02 0.02 0.03 0.06 0.08 0.06 0.04 0.02 0.01 0.01 0.01 0.01 0.01 0.00 0.00 0.00 0.00 0.00 0.00 0.00 0.00 0.00 0.00 0.00
0.32 0.19 0.07 0.03 0.03 0.05 0.06 0.03 0.01 0.01 0.01 0.00 0.00 0.00 0.01 0.01 0.02 0.02 0.02 0.02 0.02 0.01 0.01 0.01 0.02 0.02 0.03 0.06 0.10 0.12 0.11 0.07 0.05 0.04 0.02 0.02 0.03 0.03 0.01 0.00 0.00 0.00 0.00 0.00 0.00 0.00 0.01 0.00 0.00
0.12 0.09 0.05 0.02 0.01 0.02 0.03 0.01 0.00 0.01 0.01 0.01 0.00 0.00 0.00 0.00 0.00 0.01 0.01 0.01 0.01 0.01 0.00 0.00 0.01 0.03 0.05 0.12 0.18 0.20 0.17 0.13 0.11 0.08 0.07 0.08 0.07 0.06 0.05 0.03 0.02 0.02 0.02 0.02 0.02 0.02 0.02 0.01 0.01
0.11 0.10 0.07 0.02 0.01 0.02 0.01 0.00 0.00 0.01 0.01 0.01 0.00 0.00 0.00 0.00 0.00 0.00 0.00 0.00 0.00 0.00 0.00 0.00 0.00 0.01 0.05 0.11 0.15 0.18 0.17 0.17 0.16 0.13 0.15 0.13 0.09 0.09 0.09 0.06 0.06 0.05 0.05 0.05 0.05 0.05 0.04 0.04 0.05
0.15 0.13 0.11 0.05 0.02 0.03 0.02 0.01 0.00 0.00 0.00 0.00 0.00 0.00 0.00 0.00 0.00 0.00 0.00 0.00 0.00 0.00 0.00 0.00 0.00 0.01 0.02 0.04 0.11 0.20 0.29 0.28 0.25 0.22 0.19 0.17 0.14 0.13 0.11 0.09 0.09 0.08 0.07 0.06 0.07 0.08 0.08 0.08 0.09
0.18 0.12 0.11 0.10 0.07 0.07 0.06 0.03 0.01 0.00 0.00 0.00 0.00 0.00 0.00 0.00 0.00 0.00 0.00 0.00 0.00 0.00 0.00 0.00 0.00 0.00 0.01 0.05 0.17 0.29 0.37 0.32 0.23 0.15 0.12 0.14 0.18 0.21 0.18 0.15 0.14 0.12 0.10 0.08 0.10 0.13 0.14 0.12 0.12
0.21 0.10 0.09 0.13 0.16 0.13 0.08 0.05 0.00 0.00 0.00 0.00 0.00 0.00 0.00 0.00 0.00 0.00 0.00 0.00 0.00 0.00 0.00 0.00 0.00 0.00 0.01 0.04 0.12 0.16 0.16 0.14 0.12 0.13 0.14 0.19 0.23 0.25 0.25 0.22 0.19 0.16 0.15 0.13 0.14 0.17 0.18 0.19 0.15
0.22 0.13 0.14 0.19 0.24 0.23 0.12 0.07 0.01 0.00 0.00 0.00 0.00 0.00 0.00 0.00 0.00 0.00 0.00 0.00 0.00 0.00 0.00 0.00 0.00 0.00 0.00 0.01 0.06 0.12 0.13 0.12 0.12 0.14 0.16 0.18 0.20 0.22 0.25 0.24 0.24 0.21 0.19 0.22 0.24 0.24 0.25 0.24 0.22
0.32 0.34 0.32 0.31 0.44 0.42 0.17 0.09 0.03 0.00 0.00 0.00 0.00 0.00 0.00 0.00 0.00 0.00 0.00 0.00 0.00 0.00 0.00 0.00 0.00 0.00 0.00 0.01 0.02 0.04 0.06 0.06 0.07 0.09 0.13 0.15 0.17 0.18 0.21 0.24 0.24 0.24 0.25 0.27 0.29 0.31 0.33 0.34 0.32
0.61 0.77 0.82 0.66 0.61 0.37 0.13 0.11 0.04 0.00 0.00 0.00 0.00 0.00 0.00 0.00 0.00 0.00 0.00 0.00 0.00 0.00 0.00 0.00 0.00 0.00 0.01 0.02 0.02 0.03 0.05 0.06 0.08 0.09 0.12 0.14 0.14 0.13 0.16 0.20 0.23 0.27 0.31 0.35 0.37 0.36 0.36 0.39 0.39
0.64 0.69 0.70 0.48 0.27 0.14 0.10 0.11 0.04 0.00 0.00 0.00 0.00 0.00 0.00 0.00 0.00 0.00 0.00 0.00 0.00 0.00 0.00 0.00 0.00 0.00 0.02 0.03 0.03 0.03 0.04 0.05 0.06 0.09 0.10 0.12 0.14 0.16 0.19 0.22 0.26 0.29 0.32 0.34 0.36 0.37 0.38 0.40 0.40
0.59 0.57 0.44 0.50 0.34 0.20 0.12 0.08 0.03 0.01 0.00 0.00 0.00 0.00 0.00 0.00 0.00 0.00 0.00 0.00 0.00 0.00 0.00 0.00 0.00 0.01 0.03 0.04 0.04 0.03 0.03 0.04 0.06 0.07 0.09 0.10 0.12 0.15 0.17 0.21 0.24 0.26 0.29 0.31 0.34 0.34 0.34 0.35 0.35
0.49 0.43 0.54 0.79 0.61 0.33 0.13 0.06 0.02 0.01 0.00 0.00 0.00 0.00 0.00 0.00 0.00 0.00 0.00 0.00 0.00 0.00 0.00 0.01 0.01 0.02 0.04 0.05 0.05 0.04 0.04 0.05 0.07 0.07 0.07 0.07 0.09 0.11 0.14 0.17 0.19 0.21 0.23 0.25 0.27 0.27 0.26 0.28 0.29
0.46 0.50 0.58 0.57 0.41 0.37 0.21 0.06 0.02 0.01 0.01 0.01 0.01 0.01 0.01 0.01 0.00 0.00 0.00 0.00 0.00 0.00 0.01 0.01 0.03 0.04 0.05 0.05 0.05 0.04 0.04 0.05 0.05 0.06 0.07 0.08 0.09 0.09 0.11 0.13 0.15 0.16 0.17 0.17 0.19 0.19 0.20 0.23 0.25
0.37 0.36 0.46 0.63 0.42 0.33 0.26 0.08 0.02 0.02 0.02 0.03 0.03 0.02 0.02 0.02 0.01 0.01 0.00 0.00 0.00 0.01 0.02 0.04 0.05 0.05 0.05 0.05 0.05 0.04 0.05 0.05 0.06 0.07 0.07 0.07 0.07 0.07 0.08 0.09 0.11 0.11 0.11 0.12 0.14 0.15 0.16 0.19 0.22

GEFSSGP_prec_meanprecacc_072.txt.gz
Total_Precipitation_Accumulation
0.00 0.00 0.00 0.00 0.00 0.00 0.00 0.00 0.00 0.00 0.00 0.00 0.00 0.00 0.00 0.00 0.00 0.00 0.00 0.00 0.00 0.00 0.01 0.03 0.04 0.04 0.06 0.07 0.06 0.03 0.02 0.02 0.03 0.06 0.07 0.05 0.04 0.03 0.03 0.05 0.07 0.11 0.15 0.16 0.11 0.06 0.04 0.03 0.02
0.00 0.00 0.00 0.00 0.00 0.00 0.00 0.00 0.00 0.00 0.00 0.00 0.00 0.00 0.00 0.00 0.00 0.00 0.00 0.00 0.00 0.00 0.01 0.02 0.03 0.04 0.06 0.05 0.04 0.02 0.02 0.02 0.03 0.04 0.04 0.03 0.03 0.03 0.04 0.06 0.07 0.09 0.09 0.06 0.03 0.01 0.01 0.00 0.00
0.00 0.00 0.00 0.00 0.00 0.00 0.00 0.00 0.00 0.00 0.00 0.00 0.00 0.00 0.00 0.00 0.00 0.00 0.00 0.00 0.00 0.00 0.01 0.02 0.04 0.04 0.05 0.04 0.03 0.02 0.02 0.02 0.02 0.02 0.02 0.02 0.05 0.07 0.06 0.04 0.04 0.04 0.02 0.01 0.01 0.00 0.00 0.00 0.00
0.01 0.00 0.00 0.00 0.00 0.00 0.00 0.00 0.00 0.00 0.00 0.00 0.00 0.00 0.00 0.00 0.00 0.00 0.00 0.00 0.00 0.00 0.01 0.03 0.04 0.05 0.04 0.03 0.02 0.02 0.02 0.02 0.01 0.01 0.01 0.03 0.06 0.12 0.10 0.03 0.01 0.01 0.00 0.00 0.00 0.00 0.00 0.00 0.00
0.03 0.03 0.01 0.00 0.00 0.00 0.00 0.00 0.00 0.00 0.00 0.00 0.00 0.00 0.00 0.00 0.00 0.00 0.00 0.00 0.00 0.01 0.01 0.03 0.04 0.05 0.04 0.03 0.02 0.02 0.02 0.02 0.01 0.01 0.02 0.03 0.06 0.11 0.12 0.05 0.01 0.00 0.00 0.00 0.00 0.00 0.00 0.00 0.01
0.10 0.07 0.04 0.01 0.00 0.00 0.00 0.00 0.00 0.00 0.00 0.00 0.00 0.01 0.01 0.00 0.01 0.01 0.01 0.01 0.01 0.01 0.02 0.04 0.05 0.05 0.04 0.03 0.02 0.02 0.02 0.02 0.01 0.01 0.02 0.02 0.03 0.07 0.10 0.07 0.01 0.00 0.00 0.00 0.00 0.01 0.01 0.02 0.02
0.13 0.10 0.04 0.01 0.00 0.00 0.00 0.00 0.00 0.00 0.00 0.00 0.00 0.02 0.03 0.01 0.01 0.01 0.01 0.01 0.02 0.01 0.02 0.04 0.05 0.05 0.05 0.03 0.02 0.02 0.02 0.02 0.01 0.01 0.01 0.01 0.02 0.03 0.04 0.03 0.01 0.00 0.00 0.01 0.02 0.02 0.02 0.03 0.03
0.10 0.14 0.07 0.01 0.00 0.00 0.00 0.00 0.00 0.00 0.00 0.00 0.00 0.02 0.06 0.03 0.02 0.02 0.02 0.03 0.03 0.03 0.02 0.03 0.04 0.04 0.04 0.03 0.02 0.01 0.02 0.01 0.01 0.01 0.01 0.00 0.00 0.01 0.01 0.01 0.00 0.01 0.01 0.02 0.02 0.02 0.03 0.02 0.01
0.14 0.23 0.14 0.03 0.00 0.00 0.00 0.00 0.00 0.00 0.00 0.00 0.00 0.00 0.02 0.03 0.04 0.04 0.04 0.05 0.06 0.05 0.05 0.03 0.03 0.03 0.03 0.03 0.01 0.01 0.01 0.01 0.01 0.00 0.00 0.00 0.00 0.00 0.00 0.00 0.00 0.01 0.01 0.01 0.01 0.01 0.01 0.01 0.00
0.22 0.20 0.09 0.01 0.00 0.00 0.00 0.00 0.00 0.00 0.00 0.01 0.01 0.01 0.03 0.06 0.08 0.07 0.05 0.04 0.05 0.06 0.06 0.04 0.03 0.03 0.02 0.02 0.01 0.01 0.01 0.01 0.01 0.00 0.00 0.00 0.00 0.00 0.00 0.00 0.00 0.00 0.01 0.01 0.01 0.00 0.00 0.00 0.00
0.15 0.08 0.02 0.01 0.01 0.02 0.02 0.01 0.00 0.00 0.00 0.00 0.02 0.04 0.06 0.10 0.12 0.09 0.06 0.03 0.02 0.03 0.03 0.03 0.03 0.02 0.02 0.02 0.01 0.01 0.00 0.00 0.00 0.00 0.00 0.00 0.00 0.00 0.00 0.00 0.00 0.00 0.00 0.00 0.00 0.00 0.00 0.00 0.00
0.09 0.04 0.02 0.03 0.03 0.04 0.04 0.02 0.00 0.00 0.00 0.00 0.01 0.05 0.08 0.09 0.09 0.08 0.07 0.05 0.03 0.02 0.02 0.02 0.03 0.02 0.02 0.01 0.01 0.01 0.00 0.00 0.00 0.00 0.00 0.00 0.00 0.00 0.00 0.00 0.00 0.00 0.00 0.00 0.00 0.00 0.00 0.00 0.00
0.08 0.04 0.03 0.04 0.06 0.06 0.05 0.04 0.01 0.00 0.00 0.00 0.02 0.05 0.07 0.09 0.10 0.09 0.07 0.06 0.04 0.03 0.02 0.03 0.02 0.02 0.02 0.02 0.01 0.01 0.00 0.00 0.00 0.00 0.00 0.00 0.00 0.00 0.00 0.00 0.01 0.01 0.01 0.01 0.01 0.00 0.00 0.00 0.00
0.06 0.07 0.07 0.08 0.08 0.07 0.07 0.06 0.04 0.01 0.00 0.01 0.03 0.04 0.06 0.08 0.11 0.11 0.08 0.07 0.04 0.03 0.03 0.03 0.03 0.02 0.02 0.02 0.01 0.01 0.01 0.00 0.00 0.00 0.00 0.00 0.00 0.00 0.00 0.01 0.01 0.01 0.01 0.01 0.00 0.00 0.00 0.00 0.00
0.11 0.14 0.16 0.13 0.11 0.08 0.09 0.11 0.06 0.01 0.01 0.01 0.02 0.04 0.05 0.06 0.08 0.10 0.08 0.08 0.07 0.06 0.04 0.03 0.03 0.03 0.02 0.02 0.03 0.04 0.03 0.01 0.01 0.00 0.00 0.00 0.00 0.00 0.01 0.01 0.01 0.00 0.00 0.00 0.00 0.00 0.00 0.00 0.00
0.33 0.27 0.20 0.12 0.11 0.09 0.11 0.10 0.03 0.02 0.01 0.01 0.01 0.02 0.03 0.04 0.05 0.05 0.06 0.08 0.09 0.09 0.06 0.04 0.03 0.03 0.02 0.03 0.07 0.08 0.06 0.04 0.02 0.01 0.01 0.01 0.01 0.01 0.01 0.00 0.00 0.00 0.00 0.00 0.00 0.00 0.00 0.00 0.00
0.39 0.23 0.11 0.07 0.07 0.10 0.10 0.05 0.01 0.02 0.02 0.01 0.00 0.00 0.01 0.02 0.03 0.03 0.04 0.06 0.08 0.08 0.08 0.05 0.04 0.04 0.04 0.06 0.10 0.13 0.11 0.07 0.05 0.04 0.03 0.02 0.03 0.03 0.02 0.01 0.01 0.01 0.01 0.01 0.00 0.01 0.01 0.01 0.01
0.17 0.10 0.06 0.04 0.03 0.05 0.06 0.02 0.01 0.01 0.01 0.01 0.00 0.00 0.00 0.00 0.01 0.02 0.02 0.03 0.05 0.05 0.06 0.05 0.05 0.05 0.07 0.13 0.19 0.21 0.17 0.13 0.11 0.09 0.08 0.08 0.07 0.07 0.05 0.03 0.03 0.03 0.02 0.02 0.02 0.02 0.02 0.02 0.02
0.14 0.11 0.07 0.02 0.01 0.03 0.02 0.01 0.01 0.01 0.01 0.01 0.01 0.00 0.00 0.00 0.00 0.00 0.01 0.01 0.02 0.03 0.04 0.04 0.04 0.05 0.08 0.12 0.16 0.18 0.17 0.18 0.16 0.14 0.15 0.13 0.09 0.09 0.09 0.06 0.06 0.06 0.05 0.05 0.05 0.05 0.05 0.04 0.05
0.18 0.15 0.13 0.06 0.02 0.04 0.03 0.02 0.01 0.01 0.01 0.01 0.01 0.00 0.00 0.00 0.00 0.00 0.00 0.01 0.01 0.01 0.02 0.02 0.03 0.04 0.05 0.06 0.12 0.21 0.29 0.29 0.25 0.22 0.19 0.17 0.14 0.13 0.11 0.09 0.09 0.08 0.07 0.07 0.07 0.08 0.08 0.08 0.10
0.21 0.13 0.12 0.10 0.07 0.07 0.07 0.04 0.01 0.00 0.00 0.00 0.01 0.01 0.00 0.00 0.00 0.00 0.00 0.00 0.00 0.01 0.01 0.02 0.01 0.02 0.03 0.07 0.19 0.31 0.38 0.32 0.24 0.16 0.12 0.14 0.18 0.21 0.18 0.15 0.14 0.12 0.10 0.09 0.10 0.13 0.14 0.13 0.13
0.23 0.11 0.10 0.14 0.17 0.13 0.09 0.06 0.00 0.00 0.00 0.00 0.00 0.00 0.00 0.00 0.00 0.00 0.00 0.00 0.00 0.00 0.00 0.01 0.01 0.01 0.02 0.05 0.13 0.17 0.16 0.14 0.12 0.13 0.14 0.19 0.23 0.25 0.25 0.22 0.19 0.16 0.15 0.14 0.15 0.18 0.19 0.20 0.17
0.24 0.14 0.15 0.20 0.25 0.24 0.12 0.07 0.01 0.00 0.00 0.00 0.00 0.00 0.00 0.00 0.00 0.00 0.00 0.00 0.00 0.00 0.00 0.00 0.00 0.00 0.00 0.02 0.06 0.12 0.13 0.12 0.12 0.14 0.16 0.18 0.20 0.22 0.25 0.24 0.24 0.21 0.20 0.22 0.24 0.24 0.26 0.25 0.23
0.34 0.36 0.34 0.33 0.46 0.44 0.17 0.10 0.03 0.00 0.00 0.00 0.00 0.00 0.00 0.00 0.00 0.00 0.00 0.00 0.00 0.00 0.00 0.00 0.00 0.00 0.00 0.01 0.02 0.04 0.06 0.06 0.07 0.09 0.13 0.15 0.17 0.18 0.21 0.24 0.24 0.24 0.25 0.27 0.29 0.32 0.33 0.34 0.33
0.65 0.81 0.87 0.71 0.65 0.38 0.13 0.11 0.04 0.00 0.00 0.00 0.00 0.00 0.00 0.00 0.00 0.00 0.00 0.00 0.00 0.00 0.00 0.00 0.00 0.00 0.01 0.02 0.02 0.03 0.05 0.06 0.08 0.09 0.12 0.14 0.14 0.13 0.16 0.20 0.23 0.27 0.31 0.35 0.37 0.37 0.36 0.39 0.39
0.68 0.72 0.72 0.50 0.28 0.14 0.10 0.11 0.04 0.00 0.00 0.00 0.00 0.00 0.00 0.00 0.00 0.00 0.00 0.00 0.00 0.00 0.00 0.00 0.00 0.00 0.02 0.03 0.03 0.03 0.04 0.05 0.06 0.09 0.10 0.12 0.14 0.16 0.19 0.22 0.26 0.29 0.32 0.34 0.36 0.37 0.38 0.40 0.40
0.63 0.60 0.45 0.51 0.34 0.20 0.12 0.08 0.03 0.01 0.00 0.00 0.00 0.00 0.00 0.00 0.00 0.00 0.00 0.00 0.00 0.00 0.00 0.00 0.00 0.01 0.03 0.04 0.04 0.03 0.03 0.04 0.06 0.07 0.09 0.10 0.12 0.15 0.17 0.21 0.24 0.26 0.29 0.31 0.34 0.34 0.34 0.35 0.35
0.52 0.44 0.56 0.80 0.62 0.33 0.13 0.06 0.02 0.01 0.00 0.00 0.00 0.00 0.00 0.00 0.00 0.00 0.00 0.00 0.00 0.00 0.00 0.01 0.01 0.02 0.04 0.05 0.05 0.04 0.04 0.05 0.07 0.07 0.07 0.07 0.09 0.11 0.14 0.17 0.19 0.21 0.23 0.25 0.27 0.27 0.26 0.28 0.29
0.48 0.51 0.59 0.58 0.42 0.37 0.21 0.06 0.02 0.01 0.01 0.01 0.01 0.01 0.01 0.01 0.00 0.00 0.00 0.00 0.00 0.00 0.01 0.01 0.03 0.04 0.05 0.05 0.05 0.04 0.04 0.05 0.05 0.06 0.07 0.08 0.09 0.09 0.11 0.13 0.15 0.16 0.17 0.17 0.19 0.19 0.20 0.23 0.25
0.38 0.37 0.47 0.64 0.43 0.33 0.26 0.08 0.02 0.02 0.02 0.03 0.03 0.02 0.02 0.02 0.01 0.01 0.00 0.00 0.00 0.01 0.02 0.04 0.05 0.05 0.05 0.05 0.05 0.04 0.05 0.05 0.06 0.07 0.07 0.07 0.07 0.07 0.08 0.09 0.11 0.11 0.11 0.12 0.14 0.15 0.16 0.19 0.22

GEFSSGP_prec_meanprecacc_078.txt.gz
Total_Precipitation_Accumulation
0.00 0.00 0.00 0.00 0.00 0.00 0.01 0.01 0.00 0.00 0.00 0.00 0.01 0.01 0.01 0.01 0.01 0.02 0.00 0.00 0.00 0.00 0.01 0.04 0.04 0.05 0.07 0.07 0.06 0.03 0.02 0.03 0.04 0.07 0.08 0.06 0.04 0.03 0.04 0.05 0.08 0.12 0.16 0.17 0.12 0.07 0.04 0.03 0.02
0.00 0.00 0.00 0.00 0.00 0.00 0.00 0.00 0.00 0.00 0.00 0.00 0.01 0.01 0.01 0.01 0.00 0.00 0.00 0.00 0.00 0.00 0.01 0.03 0.04 0.05 0.07 0.06 0.04 0.02 0.02 0.02 0.03 0.05 0.05 0.04 0.03 0.04 0.04 0.06 0.07 0.09 0.10 0.06 0.04 0.01 0.01 0.00 0.00
0.00 0.00 0.01 0.00 0.00 0.00 0.00 0.00 0.00 0.00 0.00 0.00 0.01 0.01 0.01 0.02 0.00 0.00 0.00 0.00 0.00 0.00 0.01 0.03 0.04 0.05 0.06 0.04 0.03 0.02 0.02 0.02 0.03 0.03 0.02 0.03 0.05 0.07 0.06 0.04 0.04 0.04 0.02 0.01 0.01 0.01 0.00 0.00 0.00
0.01 0.02 0.01 0.00 0.00 0.00 0.00 0.00 0.00 0.00 0.00 0.00 0.00 0.01 0.01 0.01 0.00 0.00 0.00 0.00 0.00 0.00 0.01 0.03 0.04 0.06 0.05 0.03 0.02 0.02 0.02 0.02 0.02 0.02 0.02 0.03 0.07 0.12 0.10 0.03 0.01 0.01 0.00 0.00 0.00 0.00 0.00 0.00 0.01
0.07 0.09 0.05 0.01 0.00 0.00 0.00 0.00 0.00 0.00 0.00 0.00 0.00 0.01 0.03 0.01 0.00 0.00 0.00 0.00 0.00 0.01 0.02 0.04 0.05 0.06 0.04 0.03 0.02 0.02 0.02 0.02 0.01 0.02 0.02 0.04 0.06 0.11 0.12 0.05 0.01 0.00 0.00 0.00 0.00 0.00 0.00 0.00 0.01
0.20 0.15 0.08 0.01 0.00 0.00 0.00 0.00 0.00 0.00 0.00 0.00 0.01 0.03 0.06 0.02 0.01 0.01 0.01 0.01 0.01 0.01 0.02 0.05 0.06 0.06 0.05 0.03 0.02 0.02 0.02 0.02 0.02 0.02 0.03 0.03 0.04 0.07 0.10 0.07 0.01 0.00 0.00 0.00 0.00 0.01 0.01 0.02 0.02
0.23 0.17 0.07 0.01 0.00 0.00 0.00 0.00 0.00 0.00 0.00 0.00 0.01 0.07 0.08 0.03 0.03 0.03 0.02 0.03 0.02 0.02 0.03 0.05 0.06 0.06 0.05 0.03 0.02 0.02 0.03 0.02 0.02 0.02 0.02 0.02 0.02 0.03 0.04 0.03 0.01 0.00 0.00 0.01 0.02 0.02 0.02 0.03 0.03
0.18 0.25 0.11 0.02 0.01 0.00 0.00 0.00 0.00 0.00 0.00 0.00 0.01 0.06 0.12 0.05 0.04 0.05 0.05 0.05 0.05 0.04 0.03 0.04 0.05 0.05 0.05 0.04 0.02 0.02 0.02 0.02 0.01 0.01 0.01 0.00 0.00 0.01 0.01 0.01 0.00 0.01 0.01 0.02 0.02 0.02 0.03 0.02 0.01
0.24 0.37 0.19 0.04 0.01 0.00 0.00 0.00 0.00 0.00 0.00 0.00 0.01 0.05 0.07 0.05 0.07 0.09 0.09 0.10 0.08 0.07 0.07 0.05 0.05 0.05 0.04 0.03 0.02 0.01 0.01 0.01 0.01 0.01 0.00 0.00 0.00 0.00 0.00 0.00 0.00 0.01 0.01 0.01 0.01 0.01 0.01 0.01 0.00
0.33 0.30 0.13 0.02 0.01 0.01 0.01 0.01 0.00 0.00 0.00 0.01 0.02 0.03 0.05 0.10 0.12 0.13 0.11 0.10 0.09 0.09 0.09 0.07 0.06 0.05 0.04 0.03 0.02 0.01 0.01 0.01 0.01 0.00 0.00 0.00 0.00 0.00 0.00 0.00 0.00 0.00 0.01 0.01 0.01 0.00 0.00 0.00 0.00
0.22 0.13 0.05 0.03 0.03 0.03 0.03 0.02 0.01 0.00 0.00 0.01 0.03 0.05 0.09 0.14 0.17 0.15 0.12 0.09 0.07 0.07 0.08 0.07 0.07 0.05 0.03 0.02 0.01 0.01 0.01 0.01 0.01 0.01 0.00 0.00 0.00 0.00 0.00 0.00 0.00 0.00 0.00 0.00 0.00 0.00 0.00 0.00 0.00
0.13 0.06 0.04 0.06 0.06 0.07 0.06 0.04 0.01 0.00 0.00 0.00 0.02 0.07 0.11 0.12 0.13 0.12 0.12 0.10 0.09 0.07 0.07 0.06 0.07 0.05 0.04 0.02 0.01 0.01 0.01 0.01 0.01 0.01 0.00 0.00 0.00 0.00 0.00 0.00 0.00 0.00 0.00 0.00 0.00 0.00 0.00 0.00 0.00
0.11 0.07 0.06 0.09 0.11 0.09 0.08 0.07 0.03 0.01 0.00 0.00 0.02 0.08 0.12 0.13 0.14 0.14 0.13 0.13 0.11 0.09 0.07 0.07 0.07 0.06 0.04 0.03 0.02 0.01 0.01 0.00 0.00 0.00 0.01 0.00 0.00 0.00 0.00 0.00 0.01 0.01 0.01 0.01 0.01 0.00 0.00 0.00 0.00
0.09 0.11 0.12 0.15 0.15 0.12 0.12 0.10 0.07 0.03 0.01 0.01 0.04 0.07 0.12 0.15 0.17 0.16 0.15 0.13 0.10 0.09 0.08 0.07 0.08 0.08 0.06 0.04 0.03 0.02 0.01 0.01 0.00 0.00 0.00 0.00 0.00 0.00 0.01 0.01 0.01 0.01 0.01 0.01 0.00 0.00 0.00 0.00 0.00
0.15 0.21 0.25 0.22 0.20 0.16 0.17 0.19 0.09 0.03 0.02 0.02 0.04 0.06 0.08 0.12 0.17 0.17 0.14 0.15 0.14 0.12 0.10 0.08 0.07 0.07 0.06 0.06 0.06 0.06 0.03 0.02 0.01 0.01 0.00 0.00 0.00 0.01 0.01 0.01 0.01 0.01 0.01 0.01 0.00 0.00 0.00 0.00 0.00
0.42 0.38 0.32 0.22 0.20 0.19 0.23 0.20 0.06 0.03 0.02 0.02 0.02 0.03 0.04 0.07 0.12 0.13 0.13 0.16 0.17 0.16 0.13 0.10 0.07 0.07 0.07 0.07 0.10 0.11 0.07 0.04 0.02 0.02 0.01 0.01 0.01 0.01 0.01 0.01 0.01 0.01 0.01 0.01 0.01 0.01 0.01 0.01 0.01
0.50 0.33 0.19 0.15 0.14 0.18 0.21 0.11 0.04 0.03 0.03 0.02 0.01 0.01 0.02 0.03 0.05 0.08 0.10 0.12 0.14 0.16 0.15 0.10 0.08 0.07 0.08 0.10 0.13 0.16 0.14 0.09 0.06 0.04 0.03 0.03 0.03 0.03 0.02 0.01 0.02 0.02 0.02 0.02 0.02 0.02 0.02 0.02 0.01
0.22 0.14 0.10 0.09 0.07 0.10 0.12 0.06 0.04 0.04 0.02 0.01 0.01 0.01 0.01 0.01 0.02 0.04 0.06 0.08 0.10 0.12 0.11 0.10 0.08 0.09 0.11 0.17 0.23 0.24 0.20 0.16 0.13 0.09 0.08 0.08 0.08 0.07 0.05 0.03 0.03 0.04 0.03 0.03 0.04 0.04 0.03 0.03 0.03
0.17 0.13 0.10 0.04 0.04 0.06 0.05 0.03 0.03 0.03 0.03 0.02 0.01 0.00 0.00 0.00 0.01 0.01 0.02 0.03 0.05 0.07 0.09 0.10 0.10 0.11 0.12 0.16 0.19 0.21 0.21 0.21 0.18 0.15 0.15 0.13 0.10 0.09 0.09 0.07 0.07 0.07 0.06 0.06 0.07 0.07 0.06 0.06 0.07
0.22 0.18 0.15 0.09 0.05 0.06 0.05 0.03 0.02 0.02 0.02 0.02 0.01 0.00 0.00 0.00 0.00 0.00 0.01 0.01 0.02 0.04 0.05 0.07 0.08 0.09 0.10 0.11 0.18 0.26 0.34 0.32 0.27 0.23 0.20 0.17 0.14 0.13 0.12 0.10 0.10 0.09 0.08 0.08 0.09 0.10 0.10 0.10 0.11
0.24 0.16 0.14 0.14 0.11 0.10 0.09 0.06 0.01 0.01 0.00 0.01 0.01 0.01 0.00 0.00 0.00 0.00 0.00 0.01 0.01 0.02 0.03 0.05 0.05 0.06 0.08 0.13 0.25 0.35 0.41 0.35 0.25 0.17 0.13 0.15 0.19 0.22 0.18 0.15 0.14 0.13 0.11 0.10 0.12 0.15 0.16 0.15 0.15
0.26 0.12 0.12 0.18 0.20 0.16 0.10 0.07 0.01 0.00 0.00 0.00 0.00 0.00 0.00 0.00 0.00 0.00 0.00 0.00 0.01 0.01 0.02 0.02 0.03 0.03 0.04 0.08 0.16 0.19 0.18 0.16 0.14 0.15 0.16 0.20 0.24 0.26 0.26 0.22 0.19 0.17 0.16 0.14 0.16 0.18 0.20 0.22 0.18
0.28 0.17 0.17 0.24 0.29 0.27 0.13 0.08 0.01 0.00 0.00 0.00 0.00 0.00 0.00 0.00 0.00 0.00 0.00 0.00 0.00 0.00 0.00 0.01 0.02 0.01 0.02 0.03 0.07 0.13 0.14 0.14 0.14 0.16 0.17 0.18 0.20 0.22 0.25 0.24 0.24 0.21 0.20 0.22 0.24 0.25 0.26 0.26 0.24
0.37 0.40 0.39 0.38 0.52 0.48 0.18 0.10 0.03 0.00 0.00 0.00 0.00 0.00 0.00 0.00 0.00 0.00 0.00 0.00 0.00 0.00 0.00 0.00 0.01 0.01 0.01 0.02 0.03 0.05 0.06 0.07 0.07 0.09 0.13 0.15 0.17 0.18 0.21 0.24 0.24 0.24 0.25 0.27 0.29 0.32 0.33 0.35 0.34
0.69 0.87 0.94 0.79 0.71 0.41 0.14 0.11 0.04 0.00 0.00 0.00 0.00 0.00 0.00 0.00 0.00 0.00 0.00 0.00 0.00 0.00 0.00 0.00 0.00 0.00 0.01 0.02 0.02 0.03 0.05 0.07 0.08 0.09 0.13 0.14 0.14 0.13 0.16 0.20 0.23 0.27 0.31 0.35 0.37 0.37 0.36 0.39 0.40
0.71 0.77 0.77 0.55 0.31 0.15 0.11 0.11 0.04 0.00 0.00 0.00 0.00 0.00 0.00 0.00 0.00 0.00 0.00 0.00 0.00 0.00 0.00 0.00 0.00 0.00 0.02 0.03 0.03 0.03 0.04 0.05 0.06 0.09 0.10 0.12 0.14 0.16 0.19 0.22 0.26 0.29 0.32 0.34 0.36 0.38 0.38 0.40 0.40
0.67 0.64 0.47 0.54 0.36 0.21 0.12 0.08 0.03 0.01 0.00 0.00 0.00 0.00 0.00 0.00 0.00 0.00 0.00 0.00 0.00 0.00 0.00 0.00 0.00 0.01 0.03 0.04 0.04 0.03 0.03 0.04 0.06 0.08 0.09 0.11 0.12 0.15 0.17 0.21 0.24 0.26 0.29 0.31 0.34 0.34 0.34 0.35 0.35
0.56 0.48 0.58 0.83 0.65 0.35 0.14 0.06 0.02 0.01 0.00 0.00 0.00 0.00 0.00 0.00 0.00 0.00 0.00 0.00 0.00 0.00 0.00 0.01 0.01 0.02 0.04 0.05 0.05 0.04 0.04 0.05 0.07 0.07 0.07 0.08 0.09 0.11 0.14 0.17 0.19 0.21 0.23 0.25 0.27 0.27 0.26 0.28 0.29
0.50 0.54 0.62 0.61 0.44 0.39 0.22 0.07 0.02 0.01 0.01 0.01 0.01 0.01 0.01 0.01 0.00 0.00 0.00 0.00 0.00 0.00 0.01 0.01 0.03 0.04 0.05 0.05 0.05 0.04 0.04 0.05 0.05 0.06 0.07 0.08 0.09 0.09 0.11 0.13 0.15 0.16 0.17 0.17 0.19 0.19 0.20 0.23 0.25
0.40 0.39 0.49 0.68 0.45 0.34 0.27 0.09 0.02 0.02 0.02 0.03 0.03 0.02 0.02 0.02 0.01 0.01 0.00 0.00 0.00 0.01 0.02 0.04 0.05 0.05 0.05 0.05 0.05 0.04 0.05 0.05 0.06 0.07 0.07 0.07 0.07 0.07 0.08 0.09 0.11 0.11 0.11 0.12 0.14 0.15 0.16 0.19 0.22

GEFSSGP_prec_meanprecacc_084.txt.gz
Total_Precipitation_Accumulation
0.00 0.01 0.01 0.02 0.01 0.02 0.03 0.02 0.02 0.02 0.02 0.01 0.02 0.03 0.02 0.02 0.02 0.03 0.00 0.00 0.00 0.00 0.01 0.04 0.05 0.06 0.07 0.08 0.06 0.04 0.03 0.03 0.04 0.08 0.08 0.07 0.05 0.04 0.05 0.06 0.09 0.12 0.17 0.17 0.12 0.07 0.04 0.04 0.02
0.01 0.02 0.05 0.05 0.01 0.01 0.01 0.02 0.02 0.02 0.02 0.02 0.02 0.04 0.05 0.04 0.04 0.02 0.00 0.00 0.00 0.00 0.01 0.03 0.04 0.06 0.07 0.06 0.04 0.03 0.03 0.03 0.04 0.05 0.05 0.04 0.04 0.04 0.05 0.06 0.08 0.09 0.10 0.07 0.04 0.02 0.01 0.00 0.00
0.02 0.05 0.12 0.06 0.01 0.00 0.01 0.01 0.01 0.02 0.01 0.02 0.03 0.05 0.10 0.09 0.05 0.03 0.01 0.00 0.00 0.00 0.01 0.03 0.05 0.06 0.06 0.04 0.03 0.03 0.03 0.02 0.03 0.03 0.03 0.03 0.06 0.07 0.06 0.04 0.04 0.04 0.03 0.01 0.01 0.01 0.00 0.00 0.00
0.05 0.14 0.14 0.06 0.01 0.00 0.00 0.00 0.01 0.02 0.01 0.02 0.04 0.07 0.14 0.10 0.06 0.04 0.03 0.01 0.00 0.01 0.01 0.04 0.05 0.06 0.05 0.03 0.03 0.03 0.03 0.02 0.02 0.02 0.02 0.03 0.07 0.12 0.10 0.03 0.01 0.01 0.01 0.00 0.00 0.00 0.00 0.00 0.01
0.16 0.27 0.16 0.04 0.00 0.00 0.00 0.00 0.01 0.02 0.01 0.02 0.04 0.10 0.19 0.14 0.10 0.11 0.05 0.01 0.01 0.01 0.02 0.05 0.06 0.06 0.04 0.03 0.03 0.03 0.03 0.02 0.02 0.02 0.03 0.04 0.07 0.12 0.12 0.06 0.01 0.00 0.00 0.00 0.00 0.00 0.00 0.00 0.01
0.32 0.30 0.18 0.05 0.00 0.00 0.00 0.00 0.00 0.01 0.01 0.02 0.03 0.12 0.24 0.21 0.17 0.18 0.12 0.04 0.01 0.01 0.03 0.06 0.08 0.07 0.05 0.03 0.03 0.03 0.03 0.02 0.02 0.02 0.03 0.03 0.04 0.07 0.10 0.07 0.01 0.00 0.00 0.00 0.00 0.01 0.01 0.02 0.02
0.33 0.26 0.14 0.05 0.01 0.00 0.00 0.00 0.00 0.00 0.01 0.02 0.02 0.15 0.24 0.25 0.22 0.22 0.19 0.11 0.04 0.03 0.04 0.06 0.07 0.07 0.06 0.04 0.03 0.03 0.03 0.03 0.02 0.02 0.02 0.02 0.02 0.03 0.04 0.03 0.01 0.00 0.00 0.01 0.02 0.02 0.02 0.03 0.03
0.29 0.36 0.16 0.05 0.02 0.01 0.00 0.00 0.00 0.00 0.01 0.01 0.03 0.12 0.23 0.23 0.26 0.28 0.26 0.22 0.13 0.07 0.05 0.05 0.06 0.06 0.06 0.04 0.02 0.02 0.02 0.02 0.01 0.01 0.01 0.00 0.00 0.01 0.01 0.01 0.00 0.01 0.01 0.02 0.02 0.02 0.03 0.02 0.01
0.36 0.50 0.25 0.05 0.02 0.01 0.02 0.01 0.01 0.00 0.00 0.02 0.04 0.09 0.15 0.17 0.27 0.38 0.36 0.33 0.22 0.13 0.09 0.06 0.06 0.05 0.04 0.03 0.02 0.02 0.02 0.02 0.01 0.01 0.00 0.00 0.00 0.00 0.00 0.00 0.00 0.01 0.01 0.01 0.01 0.01 0.01 0.01 0.00
0.46 0.43 0.19 0.04 0.03 0.04 0.04 0.03 0.02 0.01 0.01 0.04 0.09 0.11 0.15 0.23 0.32 0.41 0.38 0.33 0.26 0.20 0.14 0.09 0.07 0.06 0.04 0.03 0.02 0.01 0.01 0.01 0.01 0.00 0.00 0.00 0.00 0.00 0.00 0.00 0.00 0.00 0.01 0.01 0.01 0.00 0.00 0.00 0.00
0.33 0.20 0.10 0.07 0.07 0.08 0.08 0.05 0.03 0.01 0.01 0.02 0.06 0.12 0.19 0.26 0.32 0.38 0.40 0.32 0.26 0.22 0.19 0.13 0.10 0.07 0.04 0.02 0.02 0.01 0.01 0.01 0.01 0.01 0.00 0.00 0.00 0.00 0.00 0.00 0.00 0.00 0.00 0.00 0.00 0.00 0.00 0.00 0.00
0.19 0.11 0.10 0.12 0.13 0.13 0.12 0.08 0.04 0.02 0.01 0.02 0.05 0.12 0.18 0.21 0.22 0.26 0.34 0.33 0.27 0.21 0.20 0.16 0.15 0.10 0.05 0.03 0.01 0.01 0.01 0.01 0.01 0.01 0.00 0.00 0.00 0.00 0.00 0.00 0.00 0.00 0.00 0.00 0.00 0.00 0.00 0.00 0.00
0.16 0.12 0.12 0.17 0.18 0.17 0.16 0.13 0.08 0.04 0.03 0.05 0.09 0.17 0.20 0.22 0.23 0.24 0.27 0.32 0.29 0.24 0.21 0.20 0.18 0.16 0.08 0.04 0.02 0.01 0.01 0.01 0.00 0.00 0.01 0.00 0.00 0.00 0.00 0.00 0.01 0.01 0.01 0.01 0.01 0.00 0.00 0.00 0.00
0.14 0.16 0.18 0.23 0.24 0.21 0.21 0.19 0.16 0.09 0.07 0.10 0.16 0.20 0.25 0.28 0.29 0.28 0.26 0.27 0.25 0.26 0.24 0.22 0.23 0.21 0.12 0.06 0.04 0.02 0.01 0.01 0.00 0.00 0.00 0.00 0.00 0.00 0.01 0.01 0.01 0.01 0.01 0.01 0.00 0.00 0.00 0.00 0.00
0.21 0.28 0.32 0.32 0.30 0.26 0.28 0.32 0.19 0.12 0.11 0.10 0.13 0.18 0.23 0.29 0.35 0.33 0.28 0.28 0.25 0.24 0.25 0.22 0.23 0.25 0.17 0.12 0.10 0.07 0.04 0.02 0.01 0.01 0.01 0.00 0.00 0.01 0.01 0.01 0.01 0.01 0.01 0.01 0.00 0.00 0.00 0.00 0.00
0.50 0.46 0.41 0.31 0.31 0.31 0.37 0.35 0.15 0.11 0.12 0.10 0.10 0.12 0.15 0.21 0.30 0.33 0.31 0.32 0.33 0.31 0.28 0.27 0.22 0.26 0.24 0.17 0.16 0.14 0.09 0.05 0.02 0.02 0.01 0.01 0.01 0.01 0.01 0.01 0.01 0.01 0.01 0.01 0.01 0.01 0.02 0.01 0.01
0.58 0.41 0.25 0.23 0.24 0.30 0.36 0.26 0.17 0.12 0.11 0.10 0.09 0.09 0.11 0.14 0.20 0.25 0.27 0.28 0.31 0.32 0.32 0.28 0.23 0.24 0.26 0.23 0.22 0.22 0.18 0.11 0.06 0.05 0.03 0.03 0.03 0.03 0.02 0.01 0.02 0.02 0.02 0.02 0.03 0.02 0.02 0.02 0.01
0.27 0.20 0.15 0.14 0.15 0.20 0.24 0.17 0.17 0.14 0.11 0.09 0.08 0.07 0.08 0.09 0.11 0.15 0.18 0.23 0.27 0.27 0.26 0.24 0.22 0.23 0.27 0.33 0.34 0.31 0.26 0.20 0.15 0.10 0.08 0.08 0.08 0.07 0.05 0.03 0.03 0.04 0.04 0.04 0.04 0.04 0.04 0.03 0.03
0.21 0.17 0.14 0.08 0.08 0.12 0.14 0.11 0.13 0.15 0.11 0.08 0.07 0.06 0.05 0.05 0.06 0.08 0.12 0.15 0.20 0.23 0.24 0.24 0.24 0.23 0.25 0.29 0.30 0.28 0.28 0.28 0.23 0.18 0.17 0.14 0.10 0.10 0.09 0.07 0.07 0.07 0.06 0.06 0.07 0.08 0.07 0.06 0.08
0.27 0.22 0.18 0.12 0.08 0.10 0.09 0.08 0.08 0.10 0.10 0.07 0.06 0.05 0.03 0.03 0.03 0.04 0.06 0.08 0.13 0.15 0.17 0.19 0.20 0.21 0.22 0.24 0.32 0.40 0.47 0.42 0.35 0.29 0.23 0.19 0.16 0.14 0.12 0.10 0.10 0.09 0.08 0.09 0.10 0.11 0.11 0.10 0.12
0.29 0.19 0.17 0.18 0.16 0.15 0.12 0.08 0.04 0.04 0.05 0.04 0.04 0.03 0.02 0.02 0.02 0.01 0.02 0.04 0.07 0.10 0.13 0.16 0.16 0.17 0.20 0.27 0.42 0.54 0.58 0.48 0.36 0.24 0.18 0.18 0.21 0.23 0.19 0.16 0.16 0.14 0.12 0.11 0.13 0.16 0.17 0.15 0.15
0.31 0.15 0.15 0.20 0.26 0.22 0.14 0.10 0.01 0.01 0.01 0.02 0.02 0.02 0.01 0.01 0.01 0.01 0.01 0.01 0.03 0.04 0.06 0.08 0.10 0.12 0.15 0.20 0.27 0.30 0.28 0.25 0.22 0.24 0.24 0.26 0.28 0.29 0.28 0.24 0.21 0.18 0.17 0.15 0.16 0.19 0.21 0.22 0.19
0.31 0.19 0.20 0.26 0.33 0.32 0.16 0.09 0.01 0.00 0.00 0.00 0.00 0.00 0.00 0.00 0.00 0.00 0.00 0.00 0.00 0.01 0.02 0.04 0.07 0.08 0.10 0.11 0.15 0.22 0.23 0.21 0.22 0.24 0.24 0.24 0.24 0.25 0.27 0.25 0.25 0.21 0.20 0.22 0.24 0.25 0.26 0.26 0.24
0.41 0.44 0.43 0.43 0.56 0.52 0.20 0.10 0.03 0.00 0.00 0.00 0.00 0.00 0.00 0.00 0.00 0.00 0.00 0.00 0.00 0.00 0.01 0.03 0.05 0.07 0.09 0.10 0.11 0.12 0.14 0.13 0.13 0.14 0.17 0.18 0.20 0.20 0.22 0.25 0.24 0.24 0.25 0.27 0.29 0.32 0.33 0.35 0.34
0.74 0.93 1.02 0.89 0.79 0.43 0.14 0.12 0.04 0.00 0.00 0.00 0.00 0.00 0.00 0.00 0.00 0.00 0.00 0.00 0.00 0.00 0.01 0.02 0.03 0.04 0.07 0.08 0.08 0.09 0.11 0.12 0.12 0.13 0.16 0.17 0.16 0.14 0.16 0.20 0.23 0.27 0.31 0.35 0.37 0.37 0.36 0.39 0.40
0.75 0.82 0.81 0.59 0.34 0.16 0.11 0.11 0.04 0.00 0.00 0.00 0.00 0.00 0.00 0.00 0.00 0.00 0.00 0.00 0.00 0.00 0.00 0.01 0.01 0.02 0.04 0.05 0.05 0.06 0.08 0.09 0.09 0.11 0.12 0.13 0.14 0.17 0.20 0.23 0.26 0.29 0.32 0.34 0.36 0.38 0.38 0.40 0.40
0.73 0.67 0.50 0.57 0.38 0.22 0.13 0.08 0.03 0.01 0.00 0.00 0.00 0.00 0.00 0.00 0.00 0.00 0.00 0.00 0.00 0.00 0.00 0.00 0.01 0.02 0.04 0.06 0.06 0.05 0.06 0.06 0.08 0.09 0.10 0.11 0.13 0.16 0.18 0.21 0.25 0.27 0.29 0.31 0.34 0.34 0.34 0.35 0.35
0.60 0.52 0.61 0.87 0.67 0.36 0.14 0.06 0.02 0.01 0.00 0.00 0.00 0.00 0.00 0.00 0.00 0.00 0.00 0.00 0.00 0.00 0.00 0.01 0.01 0.03 0.05 0.06 0.06 0.06 0.06 0.07 0.08 0.09 0.08 0.08 0.10 0.12 0.14 0.17 0.20 0.21 0.23 0.25 0.27 0.27 0.26 0.28 0.29
0.52 0.57 0.65 0.65 0.47 0.41 0.23 0.07 0.02 0.01 0.01 0.01 0.01 0.01 0.01 0.01 0.00 0.00 0.00 0.00 0.00 0.00 0.01 0.01 0.03 0.04 0.05 0.05 0.05 0.04 0.05 0.06 0.06 0.07 0.07 0.08 0.09 0.09 0.11 0.13 0.15 0.16 0.17 0.17 0.19 0.19 0.20 0.23 0.25
0.42 0.41 0.51 0.70 0.48 0.37 0.30 0.09 0.02 0.02 0.02 0.03 0.03 0.02 0.02 0.02 0.01 0.01 0.00 0.00 0.00 0.01 0.02 0.04 0.05 0.05 0.05 0.05 0.05 0.05 0.05 0.06 0.06 0.07 0.07 0.08 0.07 0.07 0.08 0.10 0.11 0.11 0.11 0.12 0.14 0.15 0.16 0.19 0.22

GEFSSGP_prec_meanprecacc_090.txt.gz
Total_Precipitation_Accumulation
0.04 0.05 0.04 0.06 0.06 0.05 0.05 0.03 0.03 0.03 0.04 0.03 0.03 0.03 0.03 0.02 0.02 0.03 0.01 0.00 0.00 0.00 0.02 0.05 0.05 0.07 0.08 0.08 0.07 0.04 0.04 0.04 0.05 0.10 0.11 0.10 0.08 0.07 0.08 0.09 0.11 0.15 0.18 0.18 0.12 0.07 0.05 0.04 0.02
0.04 0.06 0.12 0.14 0.07 0.05 0.03 0.02 0.03 0.03 0.03 0.04 0.04 0.05 0.06 0.05 0.04 0.03 0.03 0.01 0.00 0.01 0.02 0.04 0.05 0.07 0.08 0.06 0.05 0.04 0.04 0.04 0.05 0.08 0.08 0.07 0.07 0.06 0.07 0.08 0.08 0.10 0.10 0.07 0.04 0.02 0.01 0.01 0.00
0.07 0.11 0.24 0.16 0.07 0.04 0.02 0.01 0.02 0.03 0.03 0.04 0.06 0.07 0.12 0.11 0.07 0.05 0.04 0.02 0.01 0.01 0.02 0.04 0.06 0.07 0.07 0.05 0.04 0.04 0.04 0.03 0.04 0.05 0.04 0.05 0.07 0.09 0.07 0.05 0.04 0.04 0.03 0.02 0.01 0.01 0.01 0.00 0.00
0.14 0.28 0.29 0.17 0.07 0.02 0.01 0.01 0.02 0.04 0.03 0.04 0.07 0.12 0.19 0.15 0.10 0.08 0.07 0.04 0.03 0.02 0.03 0.06 0.06 0.07 0.05 0.04 0.04 0.04 0.03 0.03 0.03 0.03 0.03 0.04 0.08 0.13 0.10 0.04 0.01 0.01 0.01 0.01 0.00 0.00 0.00 0.00 0.01
0.27 0.43 0.31 0.15 0.05 0.02 0.01 0.01 0.01 0.04 0.04 0.04 0.08 0.16 0.26 0.23 0.19 0.18 0.11 0.06 0.04 0.03 0.04 0.07 0.08 0.07 0.05 0.04 0.03 0.04 0.03 0.03 0.02 0.03 0.03 0.04 0.07 0.12 0.13 0.06 0.01 0.00 0.00 0.00 0.00 0.00 0.00 0.00 0.01
0.45 0.44 0.33 0.17 0.04 0.01 0.01 0.01 0.02 0.03 0.04 0.05 0.07 0.18 0.34 0.35 0.32 0.30 0.20 0.11 0.06 0.04 0.06 0.09 0.09 0.08 0.06 0.04 0.04 0.04 0.04 0.03 0.03 0.03 0.03 0.03 0.04 0.07 0.10 0.07 0.02 0.00 0.00 0.00 0.00 0.01 0.01 0.02 0.02
0.44 0.37 0.25 0.13 0.04 0.01 0.00 0.01 0.02 0.02 0.03 0.04 0.05 0.21 0.36 0.44 0.43 0.39 0.32 0.20 0.11 0.07 0.08 0.09 0.09 0.08 0.07 0.05 0.04 0.04 0.04 0.03 0.02 0.02 0.02 0.02 0.02 0.03 0.04 0.03 0.01 0.00 0.00 0.01 0.02 0.02 0.02 0.03 0.03
0.42 0.48 0.24 0.11 0.06 0.03 0.01 0.01 0.02 0.02 0.03 0.04 0.06 0.18 0.34 0.42 0.51 0.53 0.44 0.37 0.25 0.14 0.10 0.09 0.08 0.07 0.07 0.05 0.04 0.03 0.03 0.02 0.02 0.01 0.01 0.01 0.01 0.01 0.01 0.01 0.01 0.01 0.01 0.02 0.02 0.02 0.03 0.02 0.01
0.50 0.63 0.31 0.09 0.06 0.04 0.04 0.03 0.02 0.02 0.04 0.07 0.08 0.15 0.25 0.37 0.54 0.66 0.59 0.54 0.39 0.25 0.16 0.10 0.07 0.06 0.05 0.04 0.03 0.02 0.02 0.02 0.01 0.01 0.00 0.00 0.00 0.01 0.00 0.00 0.00 0.01 0.01 0.01 0.01 0.01 0.01 0.01 0.00
0.61 0.55 0.25 0.07 0.07 0.08 0.09 0.06 0.04 0.04 0.07 0.11 0.17 0.20 0.31 0.44 0.60 0.73 0.68 0.55 0.43 0.31 0.22 0.14 0.09 0.07 0.05 0.04 0.03 0.02 0.02 0.01 0.01 0.00 0.00 0.00 0.00 0.00 0.00 0.00 0.00 0.00 0.01 0.01 0.01 0.00 0.00 0.00 0.00
0.45 0.31 0.17 0.13 0.13 0.13 0.14 0.11 0.08 0.06 0.07 0.07 0.12 0.20 0.33 0.45 0.58 0.69 0.74 0.64 0.47 0.36 0.28 0.21 0.14 0.08 0.05 0.03 0.03 0.02 0.01 0.01 0.01 0.01 0.00 0.00 0.00 0.00 0.00 0.00 0.00 0.00 0.00 0.00 0.00 0.00 0.00 0.00 0.00
0.28 0.20 0.19 0.20 0.20 0.22 0.20 0.15 0.10 0.08 0.05 0.05 0.10 0.19 0.30 0.38 0.42 0.53 0.66 0.69 0.57 0.41 0.34 0.25 0.20 0.12 0.06 0.04 0.02 0.01 0.01 0.01 0.01 0.01 0.00 0.00 0.00 0.00 0.00 0.00 0.00 0.00 0.00 0.00 0.00 0.00 0.00 0.00 0.00
0.23 0.20 0.22 0.25 0.26 0.27 0.25 0.21 0.14 0.09 0.07 0.11 0.18 0.28 0.32 0.37 0.42 0.44 0.53 0.63 0.60 0.46 0.40 0.33 0.25 0.19 0.09 0.05 0.03 0.02 0.01 0.01 0.00 0.00 0.01 0.00 0.00 0.00 0.00 0.00 0.01 0.01 0.01 0.01 0.01 0.00 0.00 0.00 0.00
0.21 0.23 0.28 0.32 0.32 0.30 0.33 0.28 0.22 0.15 0.13 0.19 0.28 0.33 0.40 0.44 0.47 0.48 0.47 0.53 0.50 0.46 0.42 0.39 0.35 0.29 0.17 0.09 0.05 0.03 0.02 0.01 0.00 0.00 0.00 0.00 0.00 0.00 0.01 0.01 0.01 0.01 0.01 0.01 0.00 0.00 0.00 0.00 0.00
0.28 0.36 0.41 0.42 0.39 0.35 0.39 0.46 0.28 0.18 0.18 0.20 0.25 0.33 0.39 0.49 0.54 0.56 0.49 0.48 0.47 0.45 0.42 0.40 0.39 0.39 0.28 0.17 0.13 0.10 0.05 0.02 0.01 0.01 0.01 0.00 0.00 0.01 0.01 0.01 0.01 0.01 0.01 0.01 0.00 0.00 0.00 0.00 0.00
0.59 0.54 0.50 0.41 0.41 0.40 0.49 0.49 0.25 0.16 0.20 0.19 0.19 0.25 0.31 0.40 0.51 0.57 0.58 0.56 0.55 0.52 0.46 0.43 0.37 0.43 0.39 0.27 0.23 0.19 0.12 0.07 0.03 0.02 0.01 0.01 0.01 0.01 0.01 0.01 0.01 0.01 0.01 0.01 0.01 0.01 0.02 0.01 0.01
0.68 0.48 0.32 0.30 0.34 0.41 0.46 0.36 0.27 0.19 0.17 0.17 0.17 0.19 0.24 0.30 0.39 0.48 0.53 0.54 0.54 0.55 0.53 0.46 0.40 0.41 0.45 0.38 0.35 0.33 0.24 0.15 0.10 0.07 0.04 0.03 0.03 0.03 0.02 0.01 0.02 0.02 0.02 0.02 0.03 0.02 0.02 0.02 0.02
0.35 0.25 0.18 0.19 0.22 0.28 0.31 0.24 0.26 0.23 0.17 0.14 0.15 0.15 0.17 0.20 0.25 0.32 0.40 0.51 0.55 0.54 0.52 0.48 0.44 0.45 0.49 0.54 0.51 0.45 0.36 0.26 0.21 0.15 0.12 0.11 0.09 0.07 0.05 0.03 0.03 0.04 0.04 0.04 0.04 0.04 0.04 0.03 0.03
0.27 0.22 0.18 0.12 0.13 0.17 0.19 0.17 0.21 0.24 0.19 0.13 0.12 0.13 0.12 0.13 0.16 0.21 0.28 0.39 0.50 0.54 0.54 0.53 0.53 0.51 0.53 0.55 0.52 0.47 0.43 0.41 0.34 0.28 0.27 0.21 0.14 0.12 0.10 0.07 0.08 0.08 0.07 0.07 0.08 0.08 0.07 0.06 0.08
0.33 0.27 0.23 0.17 0.12 0.14 0.14 0.14 0.15 0.19 0.17 0.12 0.09 0.09 0.08 0.07 0.08 0.11 0.18 0.26 0.35 0.43 0.47 0.50 0.54 0.54 0.53 0.51 0.58 0.66 0.71 0.65 0.54 0.45 0.38 0.32 0.24 0.19 0.16 0.13 0.13 0.11 0.09 0.09 0.10 0.12 0.12 0.11 0.12
0.34 0.23 0.21 0.23 0.21 0.19 0.16 0.14 0.09 0.10 0.11 0.08 0.06 0.05 0.05 0.05 0.04 0.05 0.09 0.16 0.24 0.30 0.36 0.41 0.44 0.47 0.48 0.57 0.75 0.88 0.91 0.77 0.60 0.46 0.38 0.35 0.34 0.33 0.27 0.21 0.18 0.16 0.14 0.12 0.14 0.17 0.17 0.16 0.15
0.35 0.18 0.18 0.25 0.31 0.27 0.17 0.14 0.04 0.04 0.06 0.05 0.03 0.03 0.03 0.03 0.03 0.03 0.04 0.07 0.11 0.16 0.23 0.28 0.33 0.38 0.44 0.52 0.61 0.62 0.58 0.52 0.47 0.47 0.44 0.44 0.43 0.40 0.37 0.31 0.26 0.22 0.20 0.17 0.17 0.20 0.21 0.23 0.19
0.34 0.22 0.24 0.31 0.39 0.36 0.19 0.11 0.02 0.01 0.03 0.03 0.01 0.01 0.01 0.01 0.01 0.01 0.02 0.03 0.05 0.07 0.14 0.19 0.24 0.29 0.35 0.37 0.42 0.50 0.49 0.44 0.44 0.46 0.45 0.43 0.43 0.42 0.41 0.36 0.32 0.27 0.24 0.25 0.26 0.26 0.27 0.27 0.24
0.44 0.48 0.47 0.47 0.62 0.57 0.22 0.11 0.04 0.01 0.01 0.01 0.01 0.00 0.01 0.01 0.01 0.01 0.01 0.01 0.02 0.04 0.07 0.12 0.17 0.23 0.28 0.33 0.34 0.34 0.34 0.31 0.29 0.30 0.33 0.34 0.35 0.34 0.35 0.37 0.35 0.32 0.30 0.30 0.31 0.33 0.34 0.35 0.34
0.77 0.98 1.09 0.96 0.85 0.46 0.15 0.12 0.05 0.00 0.00 0.00 0.01 0.00 0.00 0.01 0.01 0.00 0.00 0.00 0.00 0.01 0.03 0.06 0.10 0.13 0.19 0.24 0.26 0.25 0.28 0.28 0.27 0.26 0.30 0.32 0.29 0.25 0.26 0.28 0.30 0.33 0.36 0.38 0.39 0.38 0.37 0.40 0.40
0.77 0.86 0.87 0.64 0.37 0.18 0.12 0.12 0.04 0.00 0.00 0.00 0.00 0.00 0.00 0.00 0.00 0.00 0.00 0.00 0.00 0.01 0.02 0.03 0.04 0.07 0.12 0.14 0.16 0.18 0.21 0.21 0.22 0.23 0.24 0.25 0.25 0.25 0.27 0.28 0.31 0.34 0.36 0.37 0.39 0.39 0.39 0.41 0.41
0.75 0.70 0.54 0.60 0.39 0.24 0.14 0.08 0.03 0.01 0.00 0.00 0.00 0.00 0.00 0.00 0.00 0.00 0.00 0.00 0.00 0.00 0.01 0.02 0.02 0.04 0.07 0.11 0.12 0.13 0.14 0.15 0.16 0.18 0.18 0.18 0.18 0.21 0.22 0.26 0.28 0.30 0.31 0.33 0.35 0.35 0.35 0.35 0.35
0.62 0.54 0.64 0.89 0.69 0.37 0.15 0.07 0.03 0.01 0.00 0.00 0.00 0.00 0.00 0.00 0.00 0.00 0.00 0.00 0.00 0.00 0.00 0.01 0.03 0.05 0.07 0.10 0.11 0.10 0.11 0.12 0.14 0.14 0.12 0.13 0.14 0.15 0.17 0.19 0.22 0.23 0.24 0.26 0.27 0.27 0.27 0.28 0.29
0.54 0.59 0.67 0.67 0.50 0.43 0.24 0.08 0.02 0.01 0.01 0.01 0.01 0.01 0.01 0.01 0.00 0.00 0.00 0.00 0.00 0.00 0.01 0.02 0.03 0.05 0.07 0.08 0.09 0.09 0.09 0.10 0.10 0.10 0.10 0.11 0.12 0.12 0.13 0.15 0.16 0.17 0.17 0.18 0.19 0.20 0.20 0.23 0.25
0.43 0.42 0.53 0.72 0.50 0.39 0.31 0.10 0.02 0.02 0.02 0.03 0.03 0.02 0.02 0.02 0.01 0.01 0.00 0.00 0.00 0.01 0.02 0.04 0.05 0.06 0.06 0.06 0.06 0.07 0.08 0.09 0.09 0.09 0.09 0.09 0.09 0.09 0.10 0.11 0.12 0.11 0.12 0.12 0.14 0.15 0.17 0.19 0.22

GEFSSGP_prec_meanprecacc_096.txt.gz
Total_Precipitation_Accumulation
0.09 0.10 0.08 0.11 0.11 0.09 0.09 0.05 0.03 0.03 0.04 0.03 0.03 0.03 0.03 0.02 0.02 0.03 0.01 0.01 0.00 0.01 0.04 0.08 0.07 0.07 0.09 0.09 0.07 0.05 0.05 0.06 0.08 0.13 0.14 0.14 0.13 0.10 0.11 0.12 0.13 0.17 0.20 0.19 0.13 0.08 0.05 0.04 0.03
0.10 0.11 0.19 0.23 0.15 0.10 0.05 0.04 0.03 0.03 0.03 0.04 0.04 0.05 0.06 0.06 0.05 0.04 0.04 0.02 0.01 0.01 0.04 0.06 0.07 0.07 0.09 0.07 0.05 0.04 0.04 0.05 0.09 0.11 0.11 0.12 0.11 0.09 0.09 0.10 0.10 0.12 0.11 0.07 0.04 0.02 0.01 0.01 0.01
0.13 0.19 0.34 0.26 0.15 0.11 0.05 0.03 0.03 0.03 0.03 0.05 0.08 0.09 0.13 0.12 0.08 0.06 0.05 0.03 0.03 0.03 0.04 0.06 0.07 0.08 0.07 0.05 0.05 0.04 0.05 0.05 0.08 0.08 0.08 0.09 0.11 0.11 0.09 0.06 0.05 0.05 0.03 0.02 0.01 0.01 0.01 0.01 0.01
0.21 0.37 0.41 0.28 0.14 0.06 0.03 0.02 0.03 0.05 0.04 0.05 0.10 0.16 0.22 0.17 0.11 0.09 0.08 0.06 0.05 0.05 0.06 0.08 0.08 0.08 0.06 0.05 0.04 0.05 0.05 0.05 0.06 0.05 0.06 0.08 0.11 0.15 0.12 0.04 0.02 0.01 0.01 0.01 0.01 0.01 0.00 0.00 0.01
0.37 0.54 0.43 0.27 0.13 0.05 0.03 0.02 0.03 0.06 0.06 0.06 0.10 0.20 0.31 0.25 0.21 0.21 0.15 0.10 0.07 0.07 0.08 0.11 0.10 0.09 0.06 0.05 0.05 0.05 0.05 0.06 0.05 0.04 0.06 0.07 0.09 0.13 0.13 0.06 0.01 0.00 0.00 0.00 0.00 0.00 0.01 0.00 0.01
0.56 0.56 0.45 0.26 0.10 0.04 0.03 0.03 0.04 0.05 0.07 0.07 0.11 0.23 0.39 0.39 0.38 0.37 0.28 0.17 0.11 0.09 0.11 0.14 0.14 0.11 0.07 0.05 0.05 0.05 0.06 0.05 0.05 0.05 0.06 0.05 0.06 0.08 0.11 0.07 0.02 0.00 0.00 0.00 0.01 0.01 0.01 0.02 0.02
0.56 0.46 0.35 0.20 0.08 0.03 0.02 0.03 0.05 0.05 0.06 0.08 0.09 0.28 0.43 0.53 0.55 0.52 0.46 0.33 0.22 0.15 0.15 0.16 0.14 0.11 0.09 0.06 0.05 0.05 0.06 0.05 0.04 0.04 0.04 0.04 0.03 0.03 0.04 0.03 0.01 0.00 0.01 0.01 0.02 0.02 0.02 0.03 0.03
0.57 0.58 0.32 0.18 0.11 0.05 0.04 0.04 0.05 0.06 0.07 0.08 0.11 0.26 0.42 0.52 0.66 0.73 0.66 0.58 0.42 0.28 0.21 0.17 0.13 0.11 0.09 0.06 0.05 0.04 0.05 0.04 0.03 0.02 0.02 0.01 0.01 0.01 0.02 0.01 0.01 0.01 0.02 0.02 0.02 0.02 0.03 0.02 0.01
0.66 0.75 0.39 0.15 0.11 0.08 0.08 0.08 0.05 0.06 0.10 0.13 0.14 0.22 0.35 0.51 0.72 0.94 0.90 0.82 0.65 0.45 0.30 0.20 0.15 0.11 0.08 0.06 0.04 0.04 0.04 0.03 0.02 0.01 0.01 0.00 0.01 0.01 0.01 0.00 0.00 0.01 0.01 0.01 0.01 0.01 0.01 0.01 0.00
0.74 0.68 0.30 0.11 0.11 0.12 0.13 0.13 0.10 0.09 0.14 0.20 0.26 0.29 0.45 0.63 0.80 0.98 1.02 0.85 0.72 0.56 0.39 0.25 0.18 0.13 0.08 0.05 0.04 0.03 0.03 0.02 0.01 0.01 0.01 0.01 0.00 0.00 0.00 0.00 0.00 0.00 0.01 0.01 0.01 0.00 0.00 0.00 0.00
0.54 0.41 0.25 0.18 0.18 0.19 0.20 0.18 0.16 0.14 0.15 0.16 0.21 0.30 0.49 0.68 0.82 0.91 1.05 0.94 0.77 0.66 0.50 0.35 0.25 0.17 0.09 0.05 0.04 0.03 0.02 0.02 0.01 0.01 0.00 0.00 0.00 0.00 0.00 0.00 0.00 0.00 0.00 0.00 0.00 0.00 0.00 0.00 0.00
0.36 0.26 0.27 0.28 0.26 0.28 0.26 0.23 0.19 0.16 0.12 0.12 0.20 0.29 0.45 0.61 0.69 0.78 0.93 0.97 0.85 0.69 0.60 0.44 0.33 0.22 0.12 0.06 0.04 0.02 0.02 0.02 0.02 0.01 0.01 0.00 0.00 0.00 0.00 0.00 0.00 0.01 0.00 0.00 0.00 0.00 0.00 0.00 0.00
0.31 0.26 0.28 0.34 0.34 0.33 0.31 0.29 0.24 0.18 0.14 0.17 0.28 0.39 0.47 0.58 0.66 0.72 0.81 0.91 0.88 0.72 0.63 0.53 0.41 0.30 0.16 0.09 0.05 0.02 0.01 0.01 0.01 0.01 0.01 0.00 0.00 0.00 0.00 0.00 0.01 0.01 0.01 0.01 0.01 0.00 0.00 0.00 0.00
0.28 0.29 0.35 0.40 0.42 0.39 0.40 0.36 0.32 0.24 0.21 0.27 0.38 0.47 0.56 0.65 0.68 0.73 0.76 0.82 0.77 0.72 0.64 0.57 0.50 0.39 0.24 0.12 0.07 0.05 0.02 0.01 0.01 0.00 0.00 0.00 0.00 0.00 0.01 0.01 0.01 0.01 0.01 0.01 0.00 0.00 0.00 0.00 0.00
0.35 0.42 0.48 0.50 0.49 0.46 0.51 0.56 0.36 0.26 0.27 0.30 0.36 0.46 0.54 0.67 0.77 0.79 0.76 0.79 0.73 0.69 0.66 0.60 0.54 0.50 0.36 0.22 0.16 0.12 0.06 0.02 0.01 0.01 0.01 0.01 0.01 0.01 0.01 0.01 0.01 0.01 0.01 0.01 0.01 0.00 0.00 0.00 0.00
0.68 0.63 0.59 0.50 0.50 0.49 0.60 0.61 0.34 0.25 0.29 0.28 0.29 0.38 0.49 0.59 0.74 0.80 0.82 0.85 0.84 0.78 0.72 0.66 0.54 0.56 0.50 0.35 0.27 0.22 0.14 0.08 0.04 0.02 0.02 0.01 0.01 0.01 0.01 0.01 0.01 0.01 0.01 0.01 0.01 0.02 0.02 0.02 0.01
0.79 0.57 0.41 0.39 0.43 0.49 0.55 0.46 0.35 0.26 0.25 0.26 0.27 0.31 0.41 0.51 0.61 0.69 0.77 0.83 0.87 0.86 0.79 0.71 0.59 0.55 0.58 0.49 0.42 0.37 0.28 0.17 0.11 0.08 0.05 0.05 0.04 0.04 0.03 0.02 0.03 0.03 0.02 0.02 0.03 0.02 0.03 0.02 0.02
0.42 0.31 0.25 0.26 0.29 0.35 0.39 0.32 0.33 0.29 0.23 0.20 0.21 0.24 0.30 0.39 0.44 0.52 0.65 0.83 0.89 0.90 0.83 0.77 0.68 0.64 0.67 0.68 0.60 0.51 0.41 0.30 0.24 0.18 0.16 0.14 0.12 0.10 0.07 0.05 0.04 0.05 0.04 0.04 0.05 0.05 0.04 0.03 0.03
0.33 0.28 0.23 0.16 0.16 0.23 0.24 0.22 0.26 0.29 0.23 0.18 0.17 0.19 0.20 0.28 0.35 0.43 0.53 0.71 0.87 0.95 0.91 0.81 0.78 0.73 0.73 0.72 0.65 0.57 0.51 0.48 0.40 0.34 0.33 0.27 0.20 0.17 0.15 0.10 0.10 0.10 0.09 0.10 0.10 0.09 0.07 0.06 0.08
0.37 0.34 0.29 0.21 0.15 0.18 0.18 0.18 0.19 0.22 0.21 0.15 0.13 0.13 0.13 0.18 0.27 0.33 0.45 0.57 0.70 0.84 0.89 0.84 0.82 0.80 0.75 0.70 0.77 0.86 0.88 0.78 0.64 0.54 0.47 0.42 0.34 0.29 0.23 0.18 0.17 0.15 0.12 0.12 0.11 0.12 0.12 0.11 0.13
0.38 0.28 0.27 0.28 0.25 0.23 0.21 0.19 0.14 0.14 0.14 0.10 0.09 0.08 0.09 0.12 0.19 0.24 0.32 0.47 0.55 0.68 0.80 0.84 0.81 0.78 0.75 0.80 1.00 1.14 1.16 0.98 0.78 0.61 0.53 0.50 0.48 0.45 0.38 0.31 0.26 0.21 0.17 0.14 0.15 0.18 0.18 0.16 0.15
0.38 0.22 0.22 0.30 0.36 0.31 0.21 0.20 0.08 0.08 0.08 0.06 0.05 0.05 0.06 0.08 0.12 0.16 0.19 0.33 0.42 0.48 0.63 0.74 0.81 0.78 0.80 0.83 0.90 0.91 0.87 0.77 0.70 0.71 0.66 0.63 0.59 0.55 0.50 0.42 0.35 0.29 0.25 0.20 0.19 0.21 0.23 0.24 0.20
0.38 0.27 0.29 0.36 0.44 0.40 0.21 0.15 0.06 0.05 0.05 0.04 0.02 0.03 0.04 0.06 0.08 0.12 0.12 0.16 0.26 0.35 0.50 0.60 0.70 0.74 0.71 0.74 0.76 0.84 0.80 0.74 0.72 0.72 0.67 0.61 0.58 0.56 0.55 0.51 0.46 0.38 0.32 0.31 0.30 0.29 0.29 0.29 0.27
0.46 0.53 0.53 0.52 0.68 0.61 0.24 0.13 0.07 0.04 0.03 0.03 0.02 0.02 0.03 0.04 0.06 0.09 0.08 0.09 0.15 0.21 0.35 0.48 0.57 0.65 0.68 0.68 0.72 0.76 0.70 0.62 0.57 0.54 0.54 0.53 0.51 0.48 0.47 0.49 0.47 0.44 0.40 0.38 0.37 0.38 0.38 0.37 0.36
0.81 1.04 1.16 1.03 0.90 0.51 0.17 0.14 0.08 0.03 0.02 0.03 0.03 0.02 0.01 0.03 0.04 0.05 0.05 0.06 0.10 0.13 0.19 0.27 0.37 0.44 0.52 0.56 0.59 0.63 0.63 0.60 0.55 0.50 0.50 0.51 0.46 0.41 0.40 0.41 0.41 0.43 0.45 0.47 0.47 0.45 0.43 0.45 0.43
0.79 0.90 0.92 0.69 0.41 0.22 0.15 0.17 0.08 0.02 0.02 0.02 0.03 0.03 0.01 0.01 0.02 0.02 0.02 0.03 0.06 0.10 0.12 0.14 0.17 0.24 0.31 0.35 0.37 0.41 0.46 0.49 0.48 0.47 0.46 0.45 0.42 0.39 0.40 0.40 0.42 0.43 0.45 0.45 0.46 0.45 0.44 0.45 0.44
0.76 0.73 0.56 0.64 0.43 0.28 0.19 0.13 0.06 0.02 0.01 0.02 0.02 0.03 0.02 0.02 0.02 0.02 0.02 0.02 0.03 0.03 0.04 0.07 0.09 0.13 0.18 0.24 0.27 0.30 0.32 0.35 0.37 0.39 0.39 0.41 0.38 0.37 0.38 0.39 0.39 0.39 0.39 0.39 0.40 0.40 0.38 0.38 0.38
0.65 0.58 0.67 0.92 0.74 0.43 0.19 0.11 0.08 0.02 0.01 0.01 0.01 0.02 0.02 0.02 0.03 0.02 0.02 0.02 0.02 0.01 0.01 0.03 0.06 0.09 0.12 0.16 0.20 0.21 0.23 0.25 0.29 0.29 0.26 0.27 0.30 0.31 0.31 0.32 0.32 0.31 0.31 0.31 0.32 0.31 0.30 0.30 0.31
0.58 0.63 0.69 0.69 0.52 0.46 0.28 0.15 0.07 0.02 0.01 0.02 0.01 0.01 0.01 0.02 0.02 0.02 0.02 0.02 0.02 0.01 0.01 0.02 0.04 0.06 0.09 0.11 0.13 0.15 0.16 0.18 0.19 0.20 0.21 0.21 0.21 0.20 0.21 0.22 0.22 0.23 0.22 0.22 0.23 0.23 0.23 0.25 0.27
0.45 0.43 0.53 0.74 0.52 0.40 0.34 0.17 0.06 0.03 0.03 0.03 0.03 0.03 0.03 0.02 0.02 0.01 0.01 0.01 0.01 0.02 0.03 0.04 0.05 0.06 0.07 0.08 0.08 0.10 0.12 0.14 0.16 0.18 0.18 0.17 0.16 0.14 0.14 0.15 0.16 0.16 0.15 0.15 0.16 0.17 0.19 0.21 0.24

GEFSSGP_prec_meanprecacc_102.txt.gz
Total_Precipitation_Accumulation
0.15 0.13 0.11 0.17 0.16 0.12 0.11 0.05 0.03 0.04 0.04 0.03 0.03 0.03 0.03 0.03 0.03 0.06 0.03 0.01 0.01 0.01 0.04 0.08 0.07 0.07 0.09 0.09 0.07 0.05 0.06 0.08 0.11 0.16 0.18 0.19 0.18 0.15 0.15 0.17 0.18 0.20 0.23 0.20 0.15 0.08 0.06 0.04 0.03
0.14 0.17 0.24 0.29 0.20 0.13 0.07 0.05 0.04 0.04 0.04 0.04 0.04 0.05 0.06 0.06 0.05 0.04 0.05 0.03 0.01 0.02 0.05 0.06 0.07 0.08 0.09 0.07 0.05 0.05 0.05 0.08 0.12 0.16 0.17 0.18 0.17 0.13 0.14 0.16 0.13 0.14 0.15 0.09 0.05 0.02 0.01 0.01 0.01
0.17 0.25 0.42 0.33 0.20 0.14 0.06 0.04 0.04 0.04 0.04 0.06 0.08 0.10 0.14 0.14 0.09 0.07 0.06 0.04 0.03 0.04 0.06 0.08 0.08 0.09 0.08 0.06 0.05 0.05 0.06 0.08 0.10 0.13 0.16 0.17 0.17 0.16 0.15 0.10 0.07 0.08 0.05 0.02 0.01 0.01 0.01 0.01 0.01
0.25 0.45 0.52 0.36 0.19 0.08 0.05 0.03 0.05 0.06 0.05 0.06 0.11 0.18 0.24 0.19 0.13 0.10 0.10 0.07 0.06 0.07 0.10 0.12 0.10 0.10 0.07 0.05 0.05 0.06 0.06 0.08 0.09 0.10 0.13 0.17 0.18 0.20 0.17 0.07 0.03 0.03 0.02 0.01 0.01 0.01 0.00 0.01 0.01
0.43 0.62 0.54 0.35 0.17 0.07 0.04 0.04 0.05 0.08 0.07 0.06 0.12 0.24 0.35 0.27 0.23 0.23 0.16 0.12 0.10 0.10 0.13 0.15 0.14 0.12 0.08 0.06 0.05 0.06 0.07 0.09 0.09 0.09 0.13 0.17 0.17 0.18 0.16 0.08 0.03 0.01 0.01 0.01 0.00 0.00 0.01 0.01 0.01
0.65 0.65 0.54 0.34 0.14 0.06 0.04 0.05 0.07 0.09 0.10 0.09 0.13 0.28 0.44 0.44 0.41 0.41 0.31 0.21 0.16 0.14 0.18 0.20 0.18 0.15 0.10 0.07 0.06 0.06 0.08 0.08 0.09 0.09 0.13 0.14 0.14 0.11 0.13 0.08 0.03 0.01 0.01 0.01 0.01 0.01 0.01 0.02 0.02
0.67 0.56 0.43 0.26 0.12 0.07 0.04 0.04 0.07 0.09 0.11 0.12 0.13 0.33 0.49 0.60 0.63 0.61 0.54 0.41 0.32 0.26 0.26 0.25 0.20 0.16 0.12 0.09 0.07 0.07 0.09 0.08 0.08 0.09 0.11 0.11 0.09 0.06 0.06 0.05 0.02 0.01 0.01 0.01 0.02 0.02 0.02 0.03 0.03
0.67 0.70 0.41 0.25 0.15 0.10 0.08 0.07 0.06 0.09 0.11 0.12 0.17 0.32 0.49 0.62 0.78 0.87 0.81 0.77 0.62 0.47 0.35 0.28 0.23 0.17 0.12 0.09 0.07 0.07 0.08 0.07 0.06 0.06 0.06 0.06 0.05 0.04 0.03 0.02 0.01 0.01 0.02 0.02 0.02 0.02 0.03 0.02 0.01
0.74 0.86 0.47 0.21 0.16 0.12 0.14 0.13 0.09 0.08 0.13 0.19 0.21 0.30 0.45 0.63 0.87 1.14 1.10 1.04 0.91 0.72 0.53 0.35 0.28 0.22 0.15 0.10 0.07 0.07 0.07 0.06 0.04 0.03 0.03 0.03 0.04 0.03 0.02 0.01 0.01 0.01 0.01 0.02 0.02 0.02 0.01 0.01 0.00
0.81 0.76 0.36 0.15 0.15 0.16 0.20 0.19 0.15 0.14 0.18 0.25 0.33 0.37 0.55 0.77 0.97 1.20 1.24 1.06 0.95 0.81 0.65 0.47 0.37 0.29 0.21 0.14 0.09 0.08 0.07 0.05 0.03 0.02 0.03 0.03 0.03 0.03 0.02 0.01 0.01 0.01 0.01 0.01 0.01 0.00 0.00 0.00 0.00
0.61 0.46 0.28 0.21 0.22 0.24 0.26 0.25 0.23 0.22 0.22 0.22 0.28 0.38 0.60 0.82 1.03 1.14 1.32 1.19 1.00 0.91 0.81 0.63 0.49 0.40 0.29 0.19 0.11 0.08 0.07 0.05 0.03 0.02 0.02 0.02 0.03 0.02 0.01 0.01 0.01 0.01 0.01 0.01 0.00 0.00 0.00 0.00 0.00
0.42 0.30 0.30 0.32 0.30 0.33 0.31 0.29 0.26 0.23 0.20 0.20 0.28 0.36 0.54 0.73 0.88 1.04 1.20 1.24 1.11 0.98 0.93 0.74 0.61 0.49 0.37 0.25 0.13 0.08 0.06 0.05 0.04 0.03 0.02 0.02 0.02 0.02 0.01 0.01 0.01 0.01 0.01 0.01 0.00 0.00 0.00 0.00 0.00
0.37 0.30 0.33 0.38 0.38 0.38 0.36 0.34 0.30 0.24 0.20 0.24 0.38 0.50 0.57 0.70 0.81 0.96 1.12 1.19 1.13 1.00 0.95 0.84 0.68 0.59 0.43 0.32 0.21 0.11 0.06 0.04 0.03 0.02 0.02 0.01 0.02 0.02 0.01 0.01 0.01 0.01 0.01 0.01 0.01 0.00 0.00 0.00 0.00
0.34 0.33 0.39 0.46 0.47 0.43 0.45 0.41 0.38 0.30 0.27 0.35 0.48 0.59 0.70 0.81 0.87 0.97 1.05 1.14 1.01 0.93 0.94 0.87 0.77 0.68 0.53 0.36 0.26 0.18 0.08 0.05 0.03 0.02 0.02 0.02 0.02 0.02 0.02 0.01 0.02 0.02 0.01 0.01 0.00 0.00 0.00 0.00 0.00
0.42 0.48 0.53 0.55 0.55 0.51 0.57 0.63 0.42 0.30 0.33 0.38 0.46 0.58 0.71 0.87 1.01 1.04 0.99 1.11 1.06 0.91 0.92 0.92 0.85 0.81 0.66 0.49 0.35 0.25 0.15 0.08 0.05 0.02 0.02 0.02 0.02 0.02 0.02 0.02 0.01 0.01 0.01 0.01 0.01 0.00 0.01 0.00 0.00
0.75 0.71 0.66 0.55 0.55 0.55 0.69 0.71 0.41 0.30 0.35 0.38 0.41 0.52 0.66 0.80 0.97 1.06 1.05 1.14 1.17 1.05 0.96 0.95 0.89 0.92 0.83 0.65 0.52 0.38 0.25 0.16 0.09 0.05 0.03 0.03 0.03 0.03 0.02 0.02 0.02 0.02 0.01 0.01 0.01 0.02 0.02 0.02 0.02
0.85 0.64 0.48 0.45 0.49 0.55 0.62 0.55 0.42 0.33 0.32 0.35 0.39 0.45 0.60 0.75 0.84 0.93 1.01 1.11 1.19 1.17 1.10 1.04 0.93 0.92 0.93 0.81 0.71 0.58 0.41 0.26 0.17 0.11 0.07 0.07 0.06 0.06 0.04 0.03 0.04 0.04 0.03 0.03 0.03 0.02 0.03 0.04 0.04
0.48 0.36 0.31 0.31 0.35 0.42 0.47 0.40 0.39 0.34 0.30 0.29 0.33 0.37 0.48 0.63 0.67 0.71 0.85 1.06 1.20 1.27 1.17 1.13 1.06 1.00 1.04 1.03 0.93 0.77 0.58 0.41 0.31 0.23 0.19 0.16 0.13 0.12 0.09 0.06 0.05 0.06 0.06 0.06 0.07 0.07 0.07 0.06 0.06
0.37 0.32 0.28 0.20 0.22 0.30 0.33 0.32 0.35 0.36 0.30 0.26 0.29 0.34 0.38 0.46 0.58 0.62 0.72 0.92 1.11 1.28 1.24 1.13 1.14 1.07 1.10 1.10 0.99 0.84 0.70 0.61 0.49 0.41 0.38 0.30 0.23 0.20 0.17 0.12 0.11 0.12 0.11 0.12 0.14 0.14 0.12 0.10 0.11
0.41 0.39 0.34 0.26 0.21 0.27 0.29 0.30 0.29 0.32 0.30 0.23 0.25 0.29 0.29 0.35 0.46 0.52 0.64 0.80 0.90 1.09 1.20 1.15 1.15 1.14 1.06 1.03 1.09 1.12 1.07 0.92 0.74 0.60 0.51 0.45 0.38 0.32 0.26 0.21 0.20 0.17 0.15 0.16 0.17 0.18 0.17 0.16 0.16
0.44 0.34 0.32 0.36 0.33 0.33 0.32 0.30 0.23 0.23 0.22 0.16 0.16 0.21 0.22 0.26 0.35 0.42 0.53 0.72 0.78 0.92 1.09 1.15 1.13 1.15 1.05 1.08 1.30 1.41 1.39 1.17 0.91 0.69 0.59 0.55 0.52 0.49 0.42 0.35 0.30 0.25 0.20 0.18 0.19 0.22 0.22 0.20 0.18
0.46 0.27 0.28 0.37 0.46 0.42 0.31 0.34 0.19 0.17 0.15 0.12 0.10 0.14 0.17 0.19 0.24 0.28 0.36 0.53 0.64 0.72 0.90 1.03 1.13 1.15 1.10 1.11 1.22 1.20 1.11 0.98 0.86 0.82 0.75 0.71 0.66 0.61 0.55 0.47 0.41 0.34 0.29 0.23 0.23 0.26 0.27 0.28 0.24
0.44 0.32 0.34 0.42 0.53 0.50 0.29 0.30 0.18 0.13 0.12 0.09 0.08 0.09 0.10 0.12 0.17 0.24 0.26 0.31 0.44 0.57 0.76 0.89 0.99 1.06 1.04 1.04 1.08 1.16 1.08 0.96 0.91 0.87 0.77 0.68 0.65 0.63 0.63 0.58 0.52 0.45 0.40 0.38 0.36 0.35 0.35 0.34 0.31
0.49 0.57 0.57 0.57 0.77 0.72 0.30 0.25 0.21 0.14 0.09 0.08 0.09 0.07 0.07 0.09 0.13 0.19 0.21 0.24 0.32 0.40 0.60 0.76 0.86 0.95 1.01 1.00 1.01 1.06 0.99 0.87 0.75 0.69 0.67 0.62 0.59 0.54 0.54 0.57 0.54 0.50 0.47 0.45 0.44 0.44 0.44 0.43 0.41
0.83 1.09 1.23 1.12 1.00 0.58 0.21 0.23 0.22 0.13 0.07 0.09 0.11 0.08 0.07 0.09 0.10 0.15 0.20 0.23 0.26 0.31 0.39 0.50 0.66 0.76 0.86 0.89 0.88 0.90 0.90 0.86 0.77 0.67 0.66 0.62 0.56 0.50 0.48 0.48 0.48 0.49 0.51 0.54 0.54 0.52 0.50 0.51 0.49
0.82 0.95 1.02 0.81 0.50 0.28 0.22 0.27 0.22 0.11 0.08 0.11 0.11 0.10 0.08 0.10 0.10 0.13 0.16 0.19 0.24 0.29 0.28 0.30 0.39 0.49 0.57 0.64 0.67 0.67 0.71 0.74 0.73 0.70 0.63 0.59 0.53 0.49 0.49 0.50 0.51 0.52 0.53 0.53 0.52 0.51 0.50 0.51 0.49
0.78 0.76 0.61 0.71 0.50 0.37 0.29 0.25 0.20 0.15 0.12 0.11 0.12 0.13 0.11 0.12 0.12 0.13 0.13 0.14 0.18 0.21 0.20 0.21 0.26 0.30 0.37 0.49 0.52 0.52 0.52 0.56 0.59 0.62 0.61 0.60 0.54 0.51 0.50 0.50 0.49 0.50 0.50 0.48 0.49 0.47 0.45 0.44 0.43
0.66 0.60 0.70 0.99 0.82 0.53 0.29 0.23 0.26 0.19 0.13 0.12 0.13 0.13 0.14 0.13 0.14 0.14 0.14 0.13 0.14 0.15 0.16 0.16 0.19 0.23 0.27 0.35 0.42 0.41 0.42 0.44 0.47 0.47 0.45 0.48 0.48 0.46 0.45 0.46 0.47 0.45 0.44 0.42 0.41 0.39 0.36 0.36 0.36
0.60 0.66 0.72 0.73 0.57 0.54 0.37 0.28 0.22 0.15 0.11 0.10 0.09 0.10 0.10 0.09 0.09 0.11 0.12 0.11 0.11 0.10 0.10 0.11 0.12 0.17 0.21 0.25 0.30 0.32 0.32 0.34 0.34 0.34 0.35 0.37 0.37 0.35 0.34 0.34 0.35 0.36 0.35 0.33 0.33 0.31 0.30 0.31 0.32
0.47 0.47 0.57 0.79 0.55 0.43 0.39 0.28 0.17 0.11 0.08 0.07 0.07 0.08 0.07 0.06 0.06 0.06 0.05 0.05 0.06 0.06 0.07 0.08 0.09 0.12 0.15 0.16 0.18 0.21 0.23 0.25 0.28 0.28 0.29 0.29 0.28 0.27 0.26 0.26 0.25 0.25 0.25 0.25 0.25 0.26 0.26 0.28 0.30

GEFSSGP_prec_meanprecacc_108.txt.gz
Total_Precipitation_Accumulation
0.15 0.14 0.13 0.20 0.19 0.15 0.12 0.05 0.03 0.05 0.05 0.04 0.03 0.03 0.03 0.03 0.03 0.06 0.03 0.02 0.02 0.03 0.06 0.10 0.08 0.08 0.09 0.09 0.07 0.05 0.06 0.09 0.13 0.17 0.19 0.20 0.21 0.17 0.17 0.18 0.20 0.23 0.25 0.21 0.16 0.09 0.06 0.04 0.03
0.14 0.18 0.26 0.33 0.25 0.15 0.08 0.05 0.04 0.05 0.05 0.05 0.05 0.05 0.06 0.06 0.05 0.05 0.05 0.03 0.02 0.04 0.07 0.09 0.10 0.09 0.09 0.07 0.06 0.05 0.06 0.09 0.13 0.17 0.19 0.21 0.20 0.15 0.16 0.19 0.17 0.17 0.17 0.10 0.05 0.02 0.01 0.01 0.01
0.17 0.26 0.45 0.38 0.24 0.16 0.07 0.04 0.05 0.05 0.04 0.06 0.09 0.10 0.14 0.14 0.09 0.08 0.08 0.06 0.06 0.06 0.09 0.10 0.11 0.11 0.09 0.06 0.06 0.06 0.07 0.09 0.12 0.15 0.19 0.21 0.21 0.18 0.17 0.14 0.10 0.10 0.08 0.03 0.01 0.01 0.01 0.01 0.01
0.25 0.46 0.55 0.40 0.22 0.10 0.06 0.04 0.05 0.07 0.05 0.07 0.13 0.20 0.25 0.20 0.14 0.12 0.13 0.11 0.11 0.12 0.14 0.15 0.13 0.13 0.10 0.06 0.06 0.07 0.07 0.09 0.11 0.12 0.16 0.21 0.22 0.23 0.20 0.11 0.06 0.05 0.03 0.01 0.01 0.01 0.00 0.01 0.01
0.44 0.63 0.56 0.38 0.19 0.08 0.05 0.05 0.06 0.08 0.08 0.07 0.13 0.26 0.36 0.29 0.25 0.26 0.21 0.18 0.16 0.16 0.19 0.21 0.19 0.15 0.10 0.08 0.07 0.07 0.08 0.10 0.10 0.11 0.16 0.22 0.23 0.22 0.20 0.11 0.04 0.03 0.01 0.01 0.00 0.01 0.01 0.01 0.01
0.66 0.66 0.56 0.36 0.16 0.07 0.05 0.06 0.08 0.10 0.11 0.10 0.15 0.30 0.46 0.46 0.45 0.46 0.37 0.28 0.24 0.22 0.22 0.24 0.24 0.19 0.14 0.11 0.09 0.08 0.10 0.10 0.11 0.11 0.16 0.20 0.20 0.16 0.16 0.10 0.04 0.02 0.01 0.01 0.01 0.01 0.01 0.02 0.02
0.68 0.57 0.44 0.27 0.14 0.10 0.05 0.05 0.08 0.11 0.12 0.14 0.15 0.35 0.52 0.64 0.68 0.68 0.62 0.52 0.43 0.38 0.35 0.32 0.26 0.21 0.17 0.12 0.10 0.10 0.11 0.10 0.10 0.12 0.15 0.17 0.17 0.11 0.09 0.07 0.03 0.02 0.01 0.01 0.02 0.02 0.02 0.03 0.03
0.67 0.70 0.42 0.26 0.16 0.13 0.10 0.08 0.07 0.11 0.13 0.14 0.20 0.36 0.54 0.67 0.86 0.96 0.93 0.91 0.77 0.64 0.53 0.42 0.33 0.25 0.19 0.14 0.11 0.10 0.11 0.09 0.08 0.09 0.09 0.10 0.09 0.08 0.06 0.04 0.03 0.02 0.02 0.02 0.02 0.02 0.03 0.02 0.01
0.76 0.88 0.47 0.22 0.17 0.15 0.16 0.16 0.10 0.09 0.16 0.22 0.24 0.33 0.50 0.70 0.96 1.25 1.23 1.21 1.12 0.95 0.76 0.58 0.47 0.35 0.24 0.16 0.12 0.10 0.10 0.08 0.05 0.05 0.06 0.06 0.06 0.06 0.04 0.02 0.01 0.02 0.02 0.02 0.02 0.02 0.01 0.01 0.00
0.83 0.77 0.36 0.15 0.16 0.18 0.21 0.22 0.19 0.15 0.20 0.29 0.37 0.41 0.62 0.87 1.07 1.31 1.37 1.22 1.16 1.07 0.92 0.74 0.61 0.50 0.35 0.22 0.15 0.13 0.11 0.08 0.04 0.03 0.05 0.05 0.05 0.05 0.04 0.02 0.01 0.01 0.01 0.01 0.01 0.01 0.00 0.00 0.00
0.62 0.46 0.28 0.21 0.22 0.25 0.28 0.28 0.27 0.24 0.23 0.25 0.33 0.43 0.66 0.93 1.15 1.25 1.45 1.33 1.18 1.17 1.10 0.90 0.74 0.63 0.48 0.32 0.20 0.15 0.12 0.08 0.05 0.03 0.04 0.04 0.05 0.04 0.03 0.03 0.02 0.01 0.01 0.01 0.00 0.00 0.00 0.00 0.00
0.44 0.31 0.31 0.32 0.31 0.35 0.33 0.32 0.30 0.27 0.22 0.23 0.32 0.41 0.60 0.82 1.02 1.16 1.35 1.44 1.29 1.21 1.21 1.04 0.88 0.70 0.58 0.41 0.27 0.19 0.13 0.09 0.06 0.04 0.03 0.03 0.03 0.03 0.03 0.02 0.02 0.01 0.01 0.01 0.00 0.00 0.00 0.00 0.00
0.38 0.31 0.33 0.39 0.39 0.40 0.39 0.37 0.34 0.27 0.23 0.28 0.43 0.56 0.64 0.76 0.91 1.11 1.26 1.40 1.35 1.21 1.20 1.16 1.00 0.83 0.63 0.51 0.39 0.28 0.17 0.09 0.06 0.05 0.03 0.03 0.03 0.03 0.03 0.02 0.02 0.02 0.01 0.01 0.01 0.00 0.00 0.00 0.00
0.35 0.34 0.40 0.47 0.48 0.45 0.49 0.45 0.41 0.32 0.29 0.39 0.53 0.65 0.76 0.86 0.93 1.09 1.21 1.34 1.24 1.16 1.17 1.17 1.13 1.00 0.77 0.55 0.45 0.38 0.24 0.14 0.08 0.06 0.04 0.03 0.03 0.03 0.03 0.03 0.03 0.02 0.01 0.01 0.00 0.00 0.00 0.00 0.00
0.44 0.49 0.55 0.57 0.57 0.53 0.62 0.67 0.45 0.33 0.35 0.41 0.51 0.64 0.78 0.94 1.08 1.12 1.13 1.28 1.29 1.15 1.14 1.20 1.19 1.19 0.98 0.72 0.56 0.46 0.35 0.24 0.14 0.08 0.06 0.05 0.04 0.04 0.04 0.04 0.03 0.02 0.02 0.01 0.01 0.01 0.01 0.00 0.00
0.78 0.74 0.68 0.58 0.58 0.57 0.73 0.76 0.45 0.34 0.38 0.40 0.46 0.59 0.75 0.90 1.09 1.17 1.17 1.28 1.36 1.29 1.16 1.20 1.20 1.28 1.20 0.93 0.74 0.59 0.46 0.35 0.23 0.14 0.10 0.07 0.06 0.05 0.05 0.05 0.04 0.03 0.02 0.02 0.02 0.02 0.02 0.02 0.02
0.89 0.68 0.51 0.48 0.52 0.58 0.66 0.60 0.47 0.37 0.35 0.39 0.45 0.52 0.71 0.87 0.97 1.07 1.13 1.24 1.35 1.36 1.29 1.24 1.19 1.23 1.27 1.16 0.99 0.82 0.63 0.47 0.34 0.23 0.17 0.14 0.12 0.09 0.06 0.05 0.07 0.06 0.04 0.04 0.04 0.03 0.04 0.04 0.05
0.52 0.40 0.35 0.36 0.39 0.45 0.50 0.45 0.45 0.42 0.36 0.34 0.39 0.44 0.60 0.78 0.82 0.88 1.00 1.18 1.35 1.45 1.36 1.32 1.27 1.27 1.37 1.38 1.27 1.07 0.83 0.65 0.51 0.38 0.30 0.24 0.21 0.18 0.13 0.09 0.08 0.10 0.09 0.08 0.08 0.08 0.08 0.07 0.07
0.41 0.35 0.30 0.23 0.26 0.34 0.36 0.37 0.42 0.45 0.38 0.32 0.35 0.44 0.49 0.62 0.73 0.79 0.89 1.06 1.23 1.46 1.42 1.31 1.33 1.30 1.38 1.43 1.33 1.15 0.96 0.85 0.73 0.61 0.52 0.40 0.31 0.27 0.23 0.17 0.16 0.16 0.17 0.17 0.17 0.15 0.13 0.12 0.13
0.45 0.41 0.36 0.29 0.26 0.32 0.34 0.37 0.38 0.41 0.36 0.29 0.31 0.40 0.39 0.44 0.60 0.70 0.83 0.96 1.04 1.26 1.39 1.31 1.32 1.35 1.28 1.29 1.42 1.43 1.35 1.15 0.98 0.83 0.70 0.57 0.46 0.39 0.32 0.26 0.23 0.20 0.19 0.21 0.20 0.20 0.20 0.19 0.19
0.47 0.36 0.35 0.41 0.39 0.39 0.42 0.44 0.38 0.33 0.31 0.25 0.25 0.32 0.33 0.36 0.51 0.61 0.72 0.92 0.94 1.10 1.30 1.32 1.32 1.36 1.29 1.31 1.60 1.75 1.71 1.43 1.15 0.95 0.82 0.70 0.62 0.58 0.49 0.40 0.34 0.27 0.22 0.20 0.22 0.25 0.26 0.24 0.21
0.50 0.31 0.32 0.42 0.52 0.53 0.43 0.51 0.34 0.31 0.30 0.24 0.21 0.25 0.29 0.33 0.41 0.45 0.52 0.74 0.82 0.91 1.13 1.21 1.33 1.38 1.37 1.36 1.48 1.51 1.40 1.23 1.07 1.02 0.96 0.91 0.79 0.71 0.64 0.54 0.47 0.39 0.33 0.27 0.28 0.30 0.32 0.33 0.28
0.49 0.37 0.41 0.48 0.60 0.59 0.36 0.42 0.34 0.29 0.30 0.28 0.24 0.26 0.28 0.28 0.33 0.38 0.39 0.44 0.58 0.73 0.97 1.07 1.17 1.27 1.32 1.29 1.32 1.45 1.34 1.17 1.10 1.08 0.97 0.88 0.82 0.75 0.72 0.65 0.58 0.50 0.45 0.42 0.41 0.39 0.39 0.39 0.36
0.55 0.63 0.62 0.63 0.84 0.81 0.37 0.34 0.33 0.30 0.27 0.27 0.26 0.25 0.24 0.24 0.27 0.31 0.32 0.35 0.43 0.54 0.79 0.94 1.05 1.14 1.24 1.24 1.25 1.31 1.23 1.07 0.95 0.92 0.88 0.79 0.74 0.66 0.63 0.64 0.59 0.55 0.52 0.50 0.49 0.50 0.49 0.48 0.47
0.87 1.14 1.28 1.18 1.07 0.66 0.28 0.30 0.34 0.28 0.21 0.23 0.26 0.24 0.22 0.22 0.22 0.26 0.31 0.37 0.40 0.49 0.58 0.66 0.80 0.90 1.03 1.12 1.11 1.12 1.11 1.07 0.96 0.86 0.84 0.79 0.70 0.62 0.58 0.56 0.53 0.53 0.55 0.59 0.58 0.57 0.54 0.56 0.54
0.83 0.98 1.07 0.86 0.56 0.34 0.28 0.35 0.31 0.20 0.19 0.23 0.26 0.25 0.20 0.20 0.23 0.24 0.29 0.36 0.41 0.48 0.47 0.46 0.52 0.63 0.73 0.81 0.83 0.87 0.89 0.93 0.91 0.87 0.80 0.74 0.67 0.61 0.59 0.58 0.57 0.58 0.58 0.58 0.57 0.56 0.55 0.56 0.55
0.79 0.77 0.63 0.76 0.56 0.43 0.35 0.33 0.29 0.24 0.23 0.24 0.26 0.28 0.26 0.24 0.26 0.27 0.30 0.34 0.36 0.39 0.38 0.38 0.41 0.46 0.52 0.63 0.66 0.70 0.69 0.72 0.77 0.79 0.77 0.75 0.68 0.63 0.61 0.60 0.57 0.56 0.55 0.54 0.55 0.53 0.52 0.51 0.50
0.67 0.62 0.73 1.04 0.89 0.62 0.35 0.31 0.40 0.33 0.28 0.28 0.29 0.29 0.31 0.29 0.30 0.32 0.34 0.33 0.32 0.33 0.32 0.33 0.35 0.37 0.42 0.50 0.56 0.56 0.59 0.60 0.65 0.65 0.61 0.62 0.62 0.59 0.57 0.57 0.54 0.51 0.50 0.49 0.48 0.45 0.43 0.44 0.44
0.61 0.69 0.77 0.78 0.64 0.63 0.45 0.41 0.39 0.29 0.25 0.25 0.25 0.24 0.25 0.25 0.26 0.30 0.34 0.34 0.32 0.29 0.27 0.29 0.27 0.30 0.35 0.40 0.43 0.48 0.49 0.51 0.53 0.53 0.54 0.52 0.50 0.47 0.46 0.47 0.46 0.44 0.42 0.40 0.39 0.38 0.36 0.37 0.38
0.47 0.48 0.60 0.84 0.60 0.47 0.47 0.43 0.32 0.24 0.20 0.19 0.20 0.20 0.21 0.21 0.22 0.25 0.26 0.28 0.27 0.24 0.24 0.26 0.25 0.27 0.30 0.32 0.33 0.38 0.43 0.44 0.46 0.44 0.46 0.48 0.45 0.41 0.39 0.38 0.37 0.36 0.35 0.33 0.33 0.33 0.33 0.34 0.37

GEFSSGP_prec_meanprecacc_114.txt.gz
Total_Precipitation_Accumulation
0.15 0.14 0.13 0.21 0.19 0.15 0.13 0.06 0.04 0.05 0.06 0.04 0.04 0.03 0.03 0.03 0.03 0.06 0.03 0.02 0.03 0.04 0.07 0.12 0.10 0.09 0.10 0.10 0.08 0.06 0.06 0.10 0.14 0.18 0.20 0.21 0.22 0.17 0.17 0.20 0.21 0.25 0.26 0.23 0.17 0.09 0.06 0.05 0.03
0.14 0.18 0.27 0.34 0.25 0.15 0.08 0.06 0.04 0.05 0.05 0.05 0.05 0.06 0.06 0.06 0.05 0.05 0.05 0.04 0.03 0.06 0.09 0.10 0.12 0.11 0.11 0.10 0.07 0.06 0.06 0.10 0.15 0.18 0.20 0.22 0.22 0.16 0.17 0.20 0.18 0.20 0.19 0.11 0.06 0.03 0.02 0.01 0.01
0.17 0.26 0.45 0.38 0.25 0.16 0.07 0.05 0.05 0.05 0.05 0.07 0.10 0.11 0.15 0.14 0.09 0.08 0.08 0.06 0.07 0.09 0.11 0.12 0.14 0.14 0.12 0.09 0.08 0.08 0.08 0.11 0.13 0.16 0.20 0.23 0.23 0.19 0.18 0.16 0.12 0.13 0.10 0.04 0.02 0.01 0.01 0.01 0.01
0.25 0.46 0.55 0.41 0.22 0.10 0.06 0.04 0.06 0.07 0.06 0.07 0.14 0.21 0.27 0.21 0.15 0.12 0.13 0.11 0.12 0.14 0.16 0.19 0.18 0.18 0.15 0.11 0.09 0.09 0.09 0.11 0.12 0.14 0.18 0.24 0.25 0.25 0.21 0.12 0.08 0.08 0.06 0.02 0.01 0.01 0.01 0.01 0.01
0.44 0.63 0.57 0.38 0.19 0.08 0.05 0.06 0.06 0.08 0.08 0.08 0.14 0.28 0.37 0.30 0.25 0.26 0.22 0.20 0.18 0.18 0.23 0.25 0.26 0.23 0.17 0.14 0.11 0.10 0.11 0.13 0.13 0.14 0.19 0.26 0.26 0.24 0.21 0.13 0.06 0.05 0.04 0.02 0.01 0.01 0.01 0.01 0.01
0.66 0.66 0.56 0.36 0.16 0.07 0.05 0.06 0.08 0.10 0.11 0.10 0.16 0.33 0.47 0.47 0.46 0.48 0.40 0.32 0.29 0.25 0.26 0.29 0.30 0.27 0.22 0.19 0.15 0.13 0.13 0.14 0.15 0.15 0.20 0.25 0.25 0.18 0.18 0.12 0.06 0.04 0.03 0.02 0.01 0.01 0.01 0.02 0.02
0.68 0.57 0.44 0.27 0.14 0.10 0.05 0.05 0.08 0.11 0.12 0.14 0.16 0.38 0.55 0.66 0.70 0.70 0.66 0.57 0.48 0.42 0.42 0.38 0.35 0.30 0.25 0.21 0.19 0.17 0.17 0.15 0.14 0.14 0.19 0.23 0.23 0.16 0.13 0.09 0.05 0.03 0.02 0.02 0.02 0.02 0.02 0.03 0.03
0.68 0.71 0.42 0.26 0.16 0.13 0.10 0.09 0.07 0.11 0.14 0.15 0.21 0.39 0.58 0.71 0.88 0.99 0.97 0.96 0.83 0.69 0.59 0.50 0.44 0.37 0.28 0.23 0.21 0.19 0.19 0.15 0.13 0.13 0.13 0.15 0.15 0.13 0.11 0.07 0.05 0.04 0.03 0.02 0.02 0.02 0.03 0.02 0.01
0.76 0.88 0.48 0.22 0.17 0.15 0.16 0.16 0.10 0.09 0.16 0.22 0.25 0.35 0.55 0.75 1.01 1.29 1.27 1.25 1.16 0.99 0.82 0.67 0.57 0.48 0.39 0.29 0.23 0.22 0.20 0.16 0.12 0.12 0.12 0.11 0.11 0.10 0.08 0.05 0.04 0.03 0.02 0.02 0.02 0.02 0.01 0.01 0.00
0.83 0.77 0.36 0.15 0.16 0.18 0.22 0.22 0.19 0.16 0.20 0.29 0.37 0.42 0.67 0.94 1.14 1.35 1.41 1.26 1.20 1.11 0.97 0.82 0.70 0.61 0.49 0.38 0.29 0.24 0.21 0.15 0.10 0.09 0.11 0.10 0.09 0.08 0.06 0.04 0.04 0.03 0.02 0.01 0.01 0.01 0.00 0.00 0.00
0.62 0.47 0.28 0.21 0.22 0.25 0.28 0.28 0.27 0.24 0.24 0.26 0.34 0.44 0.69 1.00 1.26 1.31 1.48 1.38 1.24 1.22 1.16 0.99 0.84 0.74 0.61 0.48 0.36 0.29 0.23 0.18 0.13 0.09 0.08 0.07 0.08 0.08 0.06 0.05 0.04 0.03 0.02 0.01 0.01 0.00 0.00 0.00 0.00
0.44 0.31 0.31 0.32 0.31 0.35 0.33 0.32 0.30 0.27 0.22 0.23 0.33 0.42 0.63 0.87 1.13 1.28 1.40 1.47 1.34 1.28 1.29 1.11 0.98 0.83 0.72 0.58 0.43 0.34 0.26 0.20 0.15 0.11 0.08 0.07 0.07 0.06 0.05 0.04 0.03 0.03 0.02 0.01 0.01 0.00 0.00 0.00 0.00
0.38 0.31 0.34 0.39 0.39 0.40 0.39 0.37 0.34 0.27 0.23 0.28 0.44 0.57 0.66 0.81 1.00 1.25 1.37 1.47 1.40 1.28 1.28 1.26 1.09 0.96 0.77 0.67 0.57 0.44 0.29 0.21 0.16 0.14 0.11 0.07 0.06 0.07 0.06 0.04 0.04 0.03 0.03 0.02 0.01 0.01 0.00 0.00 0.00
0.35 0.34 0.40 0.47 0.48 0.45 0.50 0.45 0.41 0.32 0.29 0.39 0.54 0.66 0.78 0.89 0.99 1.24 1.35 1.46 1.32 1.22 1.24 1.26 1.24 1.14 0.93 0.70 0.61 0.53 0.36 0.26 0.19 0.16 0.13 0.10 0.08 0.07 0.07 0.05 0.05 0.04 0.03 0.02 0.01 0.01 0.00 0.00 0.00
0.44 0.50 0.55 0.57 0.57 0.54 0.62 0.67 0.45 0.34 0.35 0.41 0.52 0.65 0.79 0.96 1.12 1.21 1.24 1.39 1.39 1.23 1.21 1.26 1.26 1.30 1.13 0.87 0.69 0.61 0.47 0.34 0.26 0.19 0.17 0.15 0.11 0.09 0.08 0.07 0.06 0.04 0.03 0.02 0.02 0.01 0.01 0.00 0.00
0.79 0.74 0.69 0.58 0.58 0.57 0.74 0.76 0.45 0.35 0.39 0.41 0.47 0.61 0.76 0.92 1.11 1.21 1.20 1.34 1.44 1.37 1.23 1.26 1.26 1.36 1.33 1.10 0.89 0.73 0.61 0.46 0.34 0.25 0.21 0.19 0.16 0.13 0.11 0.10 0.08 0.06 0.05 0.04 0.03 0.03 0.02 0.02 0.02
0.90 0.69 0.52 0.49 0.52 0.59 0.67 0.61 0.48 0.39 0.38 0.43 0.48 0.55 0.73 0.88 0.99 1.10 1.15 1.26 1.42 1.43 1.35 1.30 1.25 1.31 1.39 1.33 1.17 0.99 0.82 0.62 0.47 0.36 0.28 0.25 0.23 0.19 0.14 0.12 0.13 0.10 0.08 0.06 0.06 0.05 0.05 0.05 0.05
0.54 0.41 0.35 0.37 0.40 0.46 0.51 0.47 0.49 0.47 0.42 0.39 0.42 0.47 0.63 0.82 0.85 0.92 1.02 1.21 1.41 1.54 1.43 1.38 1.33 1.35 1.48 1.54 1.47 1.27 1.05 0.83 0.66 0.53 0.43 0.36 0.31 0.26 0.21 0.16 0.14 0.15 0.13 0.11 0.11 0.11 0.10 0.08 0.08
0.42 0.37 0.32 0.25 0.27 0.36 0.40 0.43 0.51 0.54 0.45 0.37 0.38 0.46 0.52 0.66 0.77 0.84 0.95 1.11 1.29 1.55 1.51 1.37 1.39 1.38 1.49 1.58 1.52 1.36 1.16 1.02 0.88 0.74 0.67 0.55 0.44 0.36 0.31 0.25 0.22 0.21 0.21 0.21 0.21 0.19 0.16 0.14 0.15
0.47 0.44 0.38 0.32 0.30 0.38 0.41 0.46 0.47 0.49 0.45 0.37 0.36 0.44 0.42 0.48 0.67 0.79 0.92 1.06 1.11 1.35 1.51 1.42 1.41 1.45 1.40 1.41 1.57 1.63 1.55 1.33 1.12 0.96 0.83 0.71 0.60 0.52 0.43 0.35 0.31 0.26 0.24 0.25 0.25 0.24 0.23 0.22 0.22
0.50 0.39 0.38 0.46 0.46 0.47 0.49 0.52 0.45 0.41 0.41 0.35 0.30 0.37 0.37 0.40 0.58 0.72 0.82 1.04 1.05 1.22 1.43 1.45 1.45 1.50 1.43 1.46 1.75 1.95 1.95 1.66 1.35 1.11 0.97 0.85 0.78 0.72 0.63 0.52 0.44 0.36 0.28 0.24 0.27 0.30 0.31 0.27 0.24
0.54 0.34 0.36 0.48 0.61 0.62 0.50 0.61 0.45 0.41 0.39 0.34 0.27 0.30 0.34 0.39 0.50 0.59 0.68 0.93 1.02 1.11 1.28 1.36 1.49 1.57 1.56 1.57 1.69 1.72 1.64 1.47 1.28 1.20 1.12 1.07 0.97 0.87 0.77 0.67 0.59 0.51 0.42 0.33 0.33 0.36 0.37 0.38 0.32
0.53 0.42 0.46 0.54 0.68 0.66 0.40 0.50 0.45 0.41 0.41 0.40 0.35 0.36 0.38 0.39 0.47 0.58 0.61 0.69 0.84 1.00 1.18 1.25 1.35 1.44 1.51 1.49 1.56 1.68 1.56 1.38 1.30 1.27 1.16 1.07 1.03 0.95 0.87 0.79 0.72 0.64 0.56 0.51 0.47 0.44 0.44 0.43 0.41
0.59 0.70 0.70 0.70 0.90 0.87 0.41 0.40 0.42 0.42 0.40 0.41 0.40 0.41 0.39 0.38 0.44 0.52 0.55 0.58 0.70 0.81 1.04 1.15 1.27 1.35 1.44 1.42 1.44 1.53 1.42 1.24 1.11 1.07 1.04 0.95 0.91 0.84 0.79 0.77 0.72 0.67 0.63 0.60 0.57 0.56 0.54 0.52 0.50
0.91 1.21 1.35 1.25 1.12 0.71 0.31 0.35 0.43 0.39 0.35 0.39 0.43 0.41 0.39 0.38 0.40 0.45 0.50 0.57 0.62 0.70 0.79 0.84 0.98 1.08 1.20 1.28 1.27 1.30 1.26 1.20 1.08 0.97 0.94 0.90 0.81 0.73 0.69 0.67 0.64 0.64 0.65 0.67 0.66 0.64 0.61 0.61 0.58
0.86 1.00 1.11 0.90 0.58 0.38 0.31 0.40 0.39 0.32 0.33 0.40 0.44 0.42 0.35 0.35 0.41 0.40 0.44 0.53 0.59 0.64 0.62 0.59 0.65 0.78 0.88 0.95 0.96 1.00 1.00 1.04 1.01 0.95 0.87 0.82 0.75 0.69 0.68 0.69 0.68 0.67 0.67 0.66 0.64 0.63 0.61 0.62 0.59
0.80 0.79 0.64 0.79 0.58 0.46 0.39 0.37 0.35 0.33 0.35 0.36 0.38 0.40 0.38 0.38 0.39 0.41 0.45 0.50 0.49 0.51 0.50 0.50 0.53 0.58 0.64 0.77 0.77 0.82 0.81 0.83 0.86 0.86 0.84 0.82 0.76 0.71 0.69 0.70 0.68 0.66 0.64 0.62 0.61 0.59 0.56 0.55 0.54
0.68 0.63 0.75 1.06 0.91 0.64 0.38 0.36 0.48 0.41 0.37 0.39 0.39 0.39 0.42 0.40 0.43 0.48 0.53 0.52 0.49 0.47 0.46 0.45 0.47 0.48 0.52 0.60 0.66 0.68 0.70 0.73 0.77 0.76 0.71 0.70 0.70 0.68 0.66 0.66 0.65 0.61 0.58 0.57 0.55 0.51 0.47 0.48 0.48
0.62 0.71 0.79 0.80 0.66 0.65 0.48 0.48 0.46 0.37 0.34 0.35 0.35 0.35 0.37 0.37 0.40 0.47 0.53 0.55 0.52 0.47 0.43 0.42 0.37 0.38 0.44 0.49 0.54 0.59 0.59 0.62 0.69 0.68 0.67 0.64 0.60 0.57 0.56 0.57 0.57 0.55 0.51 0.48 0.48 0.46 0.43 0.43 0.43
0.49 0.50 0.63 0.87 0.62 0.49 0.50 0.50 0.38 0.30 0.27 0.27 0.29 0.30 0.30 0.32 0.35 0.40 0.42 0.43 0.42 0.39 0.39 0.41 0.38 0.40 0.41 0.43 0.45 0.50 0.53 0.53 0.58 0.59 0.61 0.61 0.59 0.55 0.53 0.52 0.52 0.50 0.46 0.43 0.42 0.42 0.42 0.43 0.44

GEFSSGP_prec_meanprecacc_120.txt.gz
Total_Precipitation_Accumulation
0.15 0.14 0.13 0.21 0.20 0.15 0.13 0.06 0.04 0.05 0.06 0.04 0.04 0.03 0.03 0.03 0.03 0.06 0.03 0.02 0.03 0.05 0.08 0.15 0.13 0.11 0.12 0.12 0.10 0.08 0.08 0.12 0.16 0.20 0.22 0.22 0.22 0.18 0.18 0.21 0.22 0.25 0.27 0.24 0.19 0.11 0.07 0.06 0.04
0.14 0.18 0.27 0.34 0.25 0.15 0.08 0.06 0.04 0.05 0.05 0.05 0.05 0.06 0.06 0.06 0.05 0.05 0.05 0.04 0.04 0.06 0.11 0.13 0.16 0.14 0.14 0.12 0.10 0.09 0.09 0.13 0.17 0.20 0.22 0.24 0.23 0.17 0.19 0.22 0.19 0.21 0.20 0.13 0.08 0.04 0.02 0.01 0.01
0.17 0.26 0.45 0.39 0.25 0.16 0.07 0.05 0.05 0.05 0.05 0.07 0.10 0.11 0.15 0.14 0.09 0.08 0.08 0.06 0.07 0.10 0.13 0.16 0.18 0.20 0.18 0.14 0.11 0.10 0.11 0.13 0.16 0.18 0.23 0.24 0.25 0.21 0.21 0.18 0.14 0.14 0.12 0.07 0.03 0.02 0.01 0.01 0.01
0.25 0.46 0.55 0.41 0.22 0.10 0.06 0.04 0.06 0.07 0.06 0.07 0.14 0.21 0.27 0.21 0.15 0.12 0.13 0.11 0.13 0.15 0.18 0.24 0.24 0.24 0.23 0.19 0.16 0.14 0.13 0.15 0.16 0.17 0.21 0.26 0.27 0.28 0.26 0.16 0.10 0.09 0.08 0.05 0.02 0.01 0.01 0.01 0.01
0.44 0.63 0.57 0.38 0.19 0.08 0.05 0.06 0.06 0.08 0.08 0.08 0.14 0.28 0.37 0.30 0.26 0.27 0.22 0.20 0.19 0.20 0.25 0.29 0.32 0.31 0.28 0.26 0.23 0.19 0.18 0.18 0.18 0.17 0.22 0.28 0.28 0.28 0.27 0.17 0.09 0.07 0.05 0.03 0.01 0.01 0.01 0.01 0.01
0.66 0.66 0.56 0.36 0.16 0.07 0.05 0.06 0.08 0.10 0.11 0.10 0.16 0.33 0.48 0.47 0.46 0.48 0.40 0.33 0.30 0.26 0.29 0.33 0.36 0.34 0.31 0.31 0.29 0.26 0.24 0.23 0.22 0.22 0.27 0.32 0.30 0.23 0.22 0.16 0.09 0.06 0.05 0.03 0.01 0.01 0.01 0.02 0.02
0.68 0.57 0.44 0.27 0.14 0.10 0.05 0.05 0.08 0.11 0.12 0.14 0.16 0.38 0.55 0.66 0.70 0.70 0.67 0.58 0.50 0.44 0.44 0.42 0.40 0.37 0.35 0.30 0.29 0.29 0.30 0.27 0.24 0.24 0.27 0.31 0.31 0.22 0.17 0.12 0.08 0.06 0.04 0.04 0.03 0.02 0.02 0.03 0.03
0.68 0.71 0.42 0.26 0.16 0.13 0.10 0.09 0.07 0.11 0.14 0.15 0.21 0.39 0.58 0.72 0.89 1.00 0.98 0.97 0.84 0.72 0.63 0.54 0.49 0.42 0.35 0.31 0.30 0.30 0.31 0.29 0.26 0.24 0.21 0.21 0.21 0.19 0.17 0.10 0.08 0.07 0.05 0.04 0.03 0.03 0.03 0.02 0.01
0.76 0.88 0.48 0.22 0.17 0.15 0.16 0.16 0.10 0.09 0.16 0.22 0.25 0.35 0.56 0.78 1.06 1.31 1.29 1.27 1.18 1.01 0.85 0.70 0.64 0.55 0.44 0.35 0.31 0.32 0.31 0.27 0.24 0.23 0.19 0.17 0.19 0.17 0.14 0.08 0.08 0.06 0.04 0.03 0.02 0.02 0.02 0.01 0.00
0.84 0.77 0.36 0.15 0.16 0.18 0.22 0.23 0.19 0.16 0.20 0.29 0.37 0.42 0.67 0.97 1.20 1.39 1.43 1.28 1.22 1.13 0.99 0.86 0.76 0.67 0.55 0.44 0.35 0.33 0.31 0.26 0.20 0.17 0.18 0.15 0.16 0.16 0.12 0.08 0.07 0.08 0.05 0.03 0.02 0.01 0.00 0.00 0.00
0.63 0.47 0.28 0.21 0.22 0.25 0.28 0.28 0.27 0.25 0.24 0.26 0.34 0.44 0.69 1.03 1.35 1.38 1.52 1.41 1.27 1.24 1.19 1.03 0.89 0.79 0.66 0.52 0.41 0.36 0.31 0.28 0.23 0.16 0.15 0.14 0.14 0.16 0.13 0.10 0.09 0.09 0.05 0.03 0.02 0.01 0.00 0.00 0.00
0.44 0.31 0.31 0.32 0.31 0.35 0.33 0.32 0.30 0.27 0.22 0.23 0.33 0.42 0.63 0.89 1.21 1.40 1.47 1.52 1.37 1.30 1.32 1.15 1.02 0.88 0.77 0.61 0.47 0.39 0.33 0.29 0.23 0.17 0.13 0.13 0.13 0.12 0.10 0.09 0.08 0.08 0.05 0.03 0.02 0.01 0.00 0.00 0.00
0.38 0.31 0.34 0.39 0.39 0.40 0.39 0.37 0.34 0.27 0.23 0.28 0.44 0.58 0.66 0.82 1.03 1.34 1.48 1.53 1.44 1.30 1.31 1.30 1.14 1.00 0.81 0.71 0.60 0.47 0.34 0.27 0.24 0.21 0.16 0.12 0.10 0.10 0.10 0.08 0.08 0.07 0.06 0.05 0.03 0.01 0.01 0.00 0.00
0.35 0.34 0.40 0.47 0.48 0.45 0.50 0.45 0.41 0.32 0.29 0.39 0.54 0.66 0.78 0.90 1.01 1.29 1.45 1.54 1.36 1.24 1.26 1.29 1.28 1.19 0.98 0.75 0.65 0.57 0.42 0.33 0.27 0.24 0.19 0.15 0.12 0.10 0.10 0.09 0.08 0.07 0.06 0.04 0.02 0.02 0.01 0.00 0.00
0.45 0.50 0.55 0.57 0.57 0.54 0.62 0.67 0.45 0.34 0.36 0.41 0.52 0.66 0.80 0.97 1.14 1.27 1.33 1.49 1.44 1.26 1.23 1.28 1.29 1.34 1.19 0.94 0.75 0.67 0.54 0.41 0.33 0.26 0.24 0.20 0.16 0.13 0.11 0.11 0.09 0.07 0.07 0.05 0.03 0.03 0.02 0.01 0.01
0.79 0.75 0.69 0.58 0.58 0.57 0.74 0.76 0.45 0.35 0.39 0.41 0.47 0.61 0.77 0.94 1.13 1.24 1.27 1.42 1.49 1.40 1.26 1.29 1.30 1.40 1.37 1.17 0.96 0.79 0.68 0.54 0.41 0.31 0.28 0.26 0.22 0.19 0.17 0.15 0.13 0.11 0.09 0.08 0.06 0.04 0.03 0.03 0.03
0.90 0.69 0.52 0.49 0.52 0.59 0.67 0.61 0.48 0.39 0.38 0.43 0.48 0.56 0.74 0.90 1.01 1.12 1.19 1.30 1.45 1.46 1.38 1.33 1.29 1.35 1.42 1.38 1.23 1.05 0.89 0.70 0.56 0.44 0.36 0.33 0.30 0.26 0.20 0.17 0.18 0.17 0.13 0.11 0.10 0.07 0.06 0.06 0.05
0.54 0.41 0.36 0.37 0.40 0.46 0.52 0.47 0.49 0.48 0.44 0.40 0.43 0.49 0.67 0.83 0.86 0.94 1.05 1.24 1.44 1.56 1.46 1.40 1.36 1.39 1.52 1.58 1.52 1.33 1.12 0.93 0.77 0.63 0.52 0.45 0.39 0.34 0.29 0.22 0.20 0.22 0.20 0.17 0.15 0.14 0.12 0.09 0.09
0.43 0.38 0.33 0.26 0.28 0.37 0.41 0.44 0.53 0.56 0.46 0.38 0.40 0.49 0.55 0.68 0.79 0.86 0.97 1.12 1.30 1.57 1.54 1.40 1.42 1.41 1.53 1.63 1.57 1.40 1.21 1.13 1.00 0.87 0.77 0.64 0.52 0.44 0.39 0.32 0.29 0.28 0.27 0.27 0.26 0.24 0.20 0.17 0.16
0.49 0.45 0.39 0.33 0.31 0.39 0.42 0.47 0.49 0.50 0.46 0.39 0.39 0.47 0.44 0.50 0.69 0.81 0.95 1.09 1.13 1.38 1.54 1.45 1.45 1.49 1.43 1.46 1.63 1.69 1.60 1.42 1.26 1.11 0.96 0.82 0.70 0.61 0.51 0.41 0.37 0.33 0.30 0.31 0.31 0.30 0.28 0.25 0.24
0.51 0.39 0.38 0.47 0.47 0.49 0.51 0.54 0.47 0.42 0.42 0.37 0.34 0.40 0.39 0.42 0.60 0.74 0.85 1.08 1.10 1.26 1.47 1.50 1.50 1.55 1.47 1.52 1.83 2.02 2.02 1.75 1.48 1.27 1.11 0.97 0.89 0.83 0.73 0.60 0.51 0.42 0.36 0.32 0.34 0.38 0.37 0.32 0.27
0.57 0.35 0.38 0.50 0.65 0.67 0.53 0.65 0.48 0.44 0.42 0.37 0.32 0.34 0.39 0.44 0.54 0.64 0.73 0.99 1.09 1.18 1.37 1.45 1.56 1.62 1.62 1.65 1.78 1.80 1.73 1.58 1.39 1.35 1.28 1.19 1.09 0.99 0.90 0.80 0.71 0.60 0.51 0.42 0.41 0.45 0.46 0.46 0.39
0.56 0.44 0.49 0.57 0.72 0.70 0.43 0.55 0.50 0.44 0.46 0.47 0.43 0.44 0.47 0.48 0.55 0.65 0.69 0.78 0.93 1.10 1.30 1.35 1.42 1.50 1.56 1.55 1.62 1.77 1.65 1.51 1.43 1.41 1.33 1.23 1.18 1.09 1.00 0.90 0.84 0.77 0.68 0.62 0.57 0.54 0.55 0.53 0.49
0.62 0.74 0.74 0.73 0.94 0.91 0.44 0.45 0.48 0.49 0.49 0.49 0.49 0.50 0.49 0.49 0.55 0.62 0.64 0.69 0.79 0.91 1.16 1.28 1.36 1.43 1.51 1.50 1.51 1.64 1.56 1.38 1.24 1.20 1.20 1.12 1.09 1.02 0.95 0.90 0.84 0.79 0.75 0.71 0.67 0.66 0.64 0.62 0.58
0.94 1.25 1.39 1.28 1.15 0.74 0.34 0.40 0.51 0.47 0.43 0.48 0.53 0.53 0.51 0.51 0.53 0.57 0.62 0.70 0.73 0.80 0.91 0.99 1.09 1.19 1.32 1.38 1.36 1.43 1.43 1.36 1.21 1.09 1.08 1.04 0.95 0.86 0.82 0.81 0.77 0.75 0.74 0.75 0.74 0.72 0.68 0.68 0.66
0.88 1.03 1.14 0.93 0.61 0.40 0.34 0.45 0.48 0.39 0.42 0.49 0.53 0.52 0.47 0.48 0.53 0.53 0.57 0.67 0.72 0.76 0.75 0.72 0.78 0.92 1.01 1.06 1.06 1.12 1.12 1.16 1.13 1.06 0.97 0.93 0.85 0.79 0.78 0.78 0.77 0.77 0.76 0.74 0.72 0.70 0.68 0.68 0.66
0.82 0.80 0.66 0.81 0.59 0.48 0.41 0.41 0.41 0.39 0.42 0.44 0.45 0.47 0.46 0.46 0.48 0.52 0.57 0.62 0.61 0.63 0.64 0.63 0.66 0.71 0.76 0.86 0.86 0.91 0.89 0.91 0.96 0.96 0.92 0.89 0.82 0.77 0.75 0.77 0.75 0.73 0.73 0.71 0.70 0.67 0.62 0.60 0.59
0.69 0.64 0.76 1.08 0.93 0.66 0.40 0.39 0.54 0.46 0.43 0.46 0.44 0.44 0.48 0.46 0.49 0.56 0.62 0.63 0.59 0.58 0.57 0.56 0.57 0.59 0.64 0.71 0.75 0.76 0.78 0.80 0.85 0.83 0.77 0.75 0.74 0.72 0.71 0.71 0.70 0.67 0.65 0.64 0.63 0.60 0.55 0.55 0.54
0.64 0.72 0.80 0.82 0.67 0.67 0.50 0.51 0.51 0.42 0.39 0.39 0.39 0.40 0.42 0.42 0.47 0.55 0.63 0.65 0.62 0.55 0.50 0.50 0.47 0.48 0.54 0.58 0.61 0.65 0.65 0.67 0.74 0.74 0.72 0.69 0.65 0.61 0.60 0.61 0.61 0.59 0.56 0.54 0.54 0.53 0.51 0.51 0.50
0.51 0.52 0.64 0.88 0.63 0.50 0.52 0.53 0.42 0.33 0.30 0.30 0.31 0.33 0.34 0.37 0.42 0.49 0.51 0.52 0.51 0.49 0.48 0.49 0.46 0.48 0.48 0.52 0.55 0.59 0.60 0.59 0.64 0.67 0.69 0.67 0.64 0.59 0.57 0.57 0.57 0.54 0.51 0.48 0.47 0.47 0.48 0.50 0.51

GEFSSGP_prec_meanprecacc_126.txt.gz
Total_Precipitation_Accumulation
0.15 0.14 0.13 0.21 0.20 0.15 0.13 0.06 0.04 0.05 0.06 0.04 0.04 0.03 0.03 0.03 0.04 0.06 0.03 0.02 0.03 0.05 0.10 0.16 0.15 0.14 0.15 0.15 0.12 0.09 0.11 0.15 0.20 0.23 0.24 0.24 0.24 0.19 0.19 0.22 0.24 0.26 0.28 0.25 0.21 0.13 0.09 0.07 0.04
0.14 0.18 0.27 0.34 0.25 0.15 0.08 0.06 0.04 0.05 0.05 0.05 0.05 0.06 0.06 0.06 0.05 0.05 0.05 0.04 0.04 0.07 0.13 0.15 0.18 0.17 0.17 0.15 0.13 0.12 0.12 0.16 0.21 0.24 0.25 0.27 0.25 0.18 0.20 0.23 0.21 0.22 0.21 0.14 0.11 0.07 0.05 0.02 0.02
0.17 0.26 0.45 0.39 0.25 0.16 0.07 0.05 0.05 0.05 0.05 0.07 0.10 0.11 0.15 0.14 0.09 0.08 0.08 0.06 0.08 0.10 0.15 0.19 0.21 0.22 0.21 0.17 0.15 0.14 0.14 0.18 0.23 0.24 0.28 0.28 0.28 0.24 0.24 0.21 0.17 0.16 0.14 0.09 0.07 0.05 0.03 0.02 0.01
0.25 0.46 0.55 0.41 0.22 0.10 0.06 0.04 0.06 0.07 0.06 0.07 0.14 0.21 0.27 0.21 0.15 0.12 0.13 0.11 0.13 0.17 0.22 0.28 0.26 0.27 0.26 0.23 0.20 0.19 0.18 0.20 0.23 0.25 0.27 0.30 0.32 0.32 0.30 0.22 0.15 0.11 0.09 0.07 0.06 0.03 0.02 0.01 0.01
0.44 0.63 0.57 0.38 0.19 0.08 0.05 0.06 0.06 0.08 0.08 0.08 0.14 0.28 0.38 0.30 0.26 0.27 0.22 0.20 0.19 0.22 0.30 0.35 0.35 0.35 0.32 0.30 0.27 0.25 0.26 0.26 0.25 0.24 0.28 0.34 0.34 0.34 0.32 0.23 0.13 0.09 0.07 0.06 0.05 0.02 0.01 0.01 0.01
0.66 0.66 0.56 0.36 0.16 0.07 0.05 0.06 0.08 0.10 0.11 0.10 0.16 0.33 0.48 0.47 0.46 0.48 0.40 0.33 0.30 0.28 0.32 0.39 0.40 0.37 0.35 0.35 0.34 0.31 0.30 0.30 0.29 0.28 0.33 0.39 0.38 0.30 0.28 0.21 0.12 0.09 0.07 0.05 0.04 0.03 0.02 0.02 0.02
0.69 0.57 0.44 0.27 0.14 0.10 0.05 0.05 0.08 0.11 0.12 0.14 0.16 0.38 0.56 0.67 0.70 0.70 0.67 0.58 0.51 0.46 0.47 0.47 0.45 0.40 0.36 0.32 0.31 0.32 0.35 0.32 0.31 0.31 0.35 0.37 0.38 0.28 0.22 0.16 0.11 0.08 0.07 0.07 0.05 0.04 0.03 0.03 0.03
0.68 0.71 0.42 0.26 0.16 0.13 0.10 0.09 0.07 0.11 0.14 0.15 0.21 0.39 0.59 0.73 0.90 1.00 0.98 0.98 0.85 0.74 0.66 0.59 0.56 0.49 0.41 0.35 0.32 0.32 0.33 0.31 0.30 0.30 0.26 0.26 0.24 0.23 0.20 0.13 0.10 0.09 0.09 0.08 0.06 0.05 0.04 0.03 0.02
0.77 0.88 0.48 0.22 0.17 0.15 0.16 0.16 0.10 0.09 0.16 0.22 0.25 0.35 0.56 0.78 1.06 1.32 1.29 1.28 1.19 1.03 0.88 0.74 0.68 0.63 0.53 0.45 0.37 0.36 0.34 0.30 0.27 0.26 0.22 0.21 0.23 0.22 0.18 0.10 0.09 0.08 0.08 0.07 0.06 0.04 0.03 0.01 0.00
0.85 0.78 0.36 0.15 0.16 0.18 0.22 0.23 0.19 0.16 0.20 0.29 0.37 0.42 0.67 0.97 1.20 1.40 1.44 1.28 1.23 1.15 1.02 0.89 0.80 0.72 0.60 0.49 0.41 0.40 0.37 0.31 0.23 0.21 0.23 0.21 0.22 0.22 0.17 0.12 0.08 0.09 0.08 0.06 0.05 0.04 0.02 0.01 0.00
0.64 0.47 0.28 0.21 0.22 0.25 0.28 0.28 0.27 0.25 0.24 0.26 0.34 0.44 0.69 1.03 1.35 1.38 1.52 1.41 1.28 1.26 1.21 1.06 0.94 0.84 0.71 0.60 0.49 0.43 0.39 0.36 0.28 0.22 0.22 0.19 0.21 0.23 0.20 0.17 0.13 0.11 0.07 0.06 0.05 0.03 0.01 0.00 0.00
0.45 0.32 0.31 0.32 0.31 0.35 0.33 0.32 0.30 0.27 0.22 0.23 0.33 0.42 0.63 0.89 1.21 1.40 1.47 1.53 1.38 1.32 1.34 1.19 1.07 0.94 0.82 0.68 0.55 0.46 0.40 0.36 0.30 0.25 0.20 0.21 0.22 0.20 0.17 0.16 0.14 0.13 0.10 0.08 0.06 0.03 0.02 0.01 0.01
0.39 0.32 0.34 0.39 0.39 0.40 0.39 0.37 0.34 0.27 0.23 0.28 0.44 0.58 0.66 0.82 1.03 1.34 1.48 1.53 1.45 1.31 1.32 1.32 1.18 1.06 0.87 0.77 0.67 0.53 0.40 0.32 0.30 0.28 0.24 0.19 0.18 0.18 0.17 0.13 0.14 0.12 0.11 0.11 0.09 0.05 0.03 0.02 0.01
0.36 0.35 0.41 0.47 0.48 0.45 0.50 0.45 0.41 0.32 0.29 0.39 0.54 0.66 0.78 0.90 1.01 1.29 1.45 1.54 1.37 1.24 1.26 1.30 1.31 1.23 1.04 0.82 0.72 0.63 0.47 0.38 0.34 0.31 0.26 0.21 0.18 0.17 0.17 0.15 0.13 0.11 0.09 0.09 0.08 0.06 0.04 0.03 0.02
0.45 0.50 0.55 0.57 0.57 0.54 0.62 0.67 0.45 0.34 0.36 0.41 0.52 0.66 0.80 0.97 1.14 1.27 1.33 1.49 1.45 1.26 1.23 1.29 1.32 1.38 1.24 1.01 0.83 0.74 0.60 0.46 0.37 0.31 0.32 0.29 0.24 0.20 0.19 0.17 0.14 0.11 0.10 0.09 0.08 0.08 0.07 0.04 0.03
0.80 0.75 0.69 0.58 0.58 0.58 0.74 0.76 0.46 0.35 0.39 0.42 0.47 0.61 0.77 0.95 1.13 1.24 1.27 1.42 1.50 1.41 1.27 1.31 1.33 1.43 1.41 1.22 1.02 0.85 0.74 0.60 0.45 0.35 0.34 0.35 0.32 0.28 0.26 0.23 0.19 0.17 0.14 0.12 0.10 0.09 0.09 0.06 0.05
0.91 0.70 0.52 0.49 0.52 0.59 0.67 0.61 0.48 0.39 0.38 0.43 0.48 0.56 0.75 0.91 1.01 1.12 1.20 1.33 1.47 1.48 1.39 1.35 1.32 1.37 1.45 1.43 1.29 1.10 0.94 0.77 0.63 0.50 0.41 0.39 0.38 0.35 0.30 0.26 0.27 0.26 0.21 0.16 0.14 0.11 0.11 0.10 0.08
0.55 0.42 0.36 0.37 0.40 0.47 0.52 0.48 0.49 0.48 0.44 0.40 0.43 0.49 0.67 0.84 0.87 0.95 1.07 1.28 1.47 1.59 1.47 1.42 1.39 1.42 1.56 1.63 1.58 1.39 1.19 1.01 0.86 0.72 0.60 0.52 0.46 0.43 0.39 0.33 0.31 0.32 0.29 0.23 0.20 0.18 0.16 0.13 0.12
0.44 0.38 0.33 0.26 0.28 0.38 0.41 0.44 0.53 0.56 0.46 0.39 0.40 0.50 0.56 0.69 0.80 0.87 0.99 1.17 1.35 1.61 1.56 1.41 1.46 1.46 1.57 1.67 1.62 1.48 1.28 1.21 1.10 0.96 0.85 0.73 0.61 0.53 0.49 0.43 0.40 0.38 0.37 0.34 0.31 0.29 0.25 0.21 0.20
0.49 0.46 0.39 0.33 0.31 0.39 0.43 0.48 0.49 0.50 0.46 0.39 0.39 0.47 0.45 0.52 0.70 0.82 0.96 1.12 1.20 1.43 1.58 1.48 1.49 1.54 1.48 1.51 1.69 1.77 1.69 1.51 1.34 1.21 1.06 0.93 0.81 0.72 0.62 0.53 0.49 0.44 0.40 0.39 0.37 0.37 0.34 0.31 0.30
0.52 0.40 0.39 0.48 0.48 0.49 0.52 0.55 0.48 0.43 0.43 0.37 0.34 0.40 0.39 0.43 0.62 0.76 0.87 1.11 1.17 1.34 1.53 1.55 1.54 1.61 1.54 1.58 1.91 2.10 2.11 1.83 1.57 1.36 1.20 1.07 1.00 0.94 0.85 0.72 0.63 0.56 0.48 0.42 0.42 0.45 0.44 0.39 0.34
0.57 0.35 0.39 0.51 0.66 0.69 0.55 0.67 0.49 0.45 0.43 0.38 0.33 0.35 0.40 0.45 0.56 0.65 0.75 1.02 1.14 1.26 1.44 1.51 1.62 1.69 1.69 1.71 1.86 1.88 1.81 1.66 1.47 1.42 1.35 1.27 1.18 1.09 1.02 0.94 0.83 0.72 0.64 0.53 0.50 0.54 0.54 0.54 0.47
0.56 0.44 0.49 0.58 0.74 0.73 0.44 0.57 0.51 0.45 0.47 0.48 0.45 0.46 0.50 0.51 0.58 0.67 0.70 0.80 0.96 1.15 1.36 1.41 1.49 1.57 1.63 1.61 1.69 1.85 1.72 1.58 1.51 1.49 1.42 1.31 1.29 1.21 1.13 1.05 0.99 0.88 0.79 0.72 0.67 0.64 0.65 0.63 0.59
0.63 0.75 0.75 0.74 0.97 0.95 0.45 0.47 0.50 0.51 0.53 0.52 0.52 0.54 0.53 0.53 0.59 0.66 0.67 0.71 0.82 0.96 1.22 1.34 1.44 1.51 1.57 1.55 1.56 1.72 1.64 1.46 1.33 1.29 1.31 1.23 1.19 1.13 1.07 1.03 0.98 0.92 0.87 0.81 0.76 0.74 0.72 0.70 0.66
0.96 1.27 1.42 1.32 1.19 0.77 0.35 0.42 0.54 0.50 0.48 0.53 0.59 0.59 0.56 0.55 0.57 0.61 0.65 0.74 0.78 0.86 0.98 1.05 1.15 1.24 1.36 1.42 1.41 1.50 1.52 1.47 1.35 1.20 1.18 1.15 1.07 0.98 0.94 0.93 0.88 0.86 0.84 0.85 0.82 0.80 0.76 0.75 0.73
0.90 1.05 1.16 0.97 0.65 0.42 0.35 0.47 0.51 0.42 0.45 0.52 0.59 0.60 0.54 0.55 0.59 0.58 0.63 0.74 0.80 0.84 0.82 0.78 0.83 0.96 1.05 1.10 1.12 1.20 1.20 1.25 1.24 1.15 1.06 1.04 0.96 0.89 0.88 0.90 0.88 0.87 0.84 0.81 0.80 0.78 0.76 0.77 0.73
0.83 0.82 0.67 0.82 0.61 0.50 0.43 0.43 0.44 0.41 0.44 0.46 0.50 0.54 0.54 0.54 0.55 0.59 0.64 0.71 0.71 0.72 0.71 0.69 0.71 0.76 0.81 0.92 0.93 1.00 0.97 0.99 1.05 1.04 1.00 1.00 0.94 0.87 0.85 0.87 0.85 0.83 0.80 0.77 0.76 0.73 0.69 0.68 0.67
0.70 0.64 0.77 1.10 0.95 0.69 0.42 0.40 0.56 0.49 0.46 0.49 0.49 0.50 0.53 0.52 0.55 0.63 0.70 0.72 0.70 0.69 0.67 0.64 0.64 0.64 0.70 0.77 0.84 0.85 0.86 0.88 0.92 0.91 0.85 0.84 0.82 0.79 0.78 0.78 0.78 0.75 0.72 0.70 0.69 0.65 0.61 0.62 0.60
0.65 0.73 0.81 0.83 0.68 0.69 0.52 0.52 0.52 0.43 0.40 0.42 0.42 0.44 0.46 0.46 0.51 0.61 0.71 0.75 0.72 0.65 0.60 0.58 0.56 0.57 0.62 0.66 0.69 0.71 0.72 0.75 0.83 0.83 0.81 0.77 0.71 0.67 0.65 0.67 0.67 0.64 0.61 0.58 0.58 0.57 0.56 0.56 0.56
0.52 0.53 0.64 0.89 0.64 0.51 0.53 0.54 0.42 0.34 0.31 0.31 0.33 0.35 0.37 0.39 0.44 0.52 0.56 0.59 0.60 0.58 0.57 0.59 0.55 0.56 0.56 0.59 0.61 0.65 0.66 0.65 0.72 0.76 0.77 0.73 0.69 0.64 0.61 0.60 0.61 0.58 0.54 0.51 0.50 0.51 0.52 0.53 0.55

GEFSSGP_prec_meanprecacc_132.txt.gz
Total_Precipitation_Accumulation
0.15 0.14 0.13 0.21 0.20 0.15 0.13 0.06 0.04 0.05 0.06 0.04 0.04 0.03 0.03 0.03 0.04 0.06 0.04 0.02 0.04 0.06 0.11 0.17 0.16 0.15 0.16 0.16 0.13 0.10 0.12 0.16 0.21 0.25 0.24 0.25 0.24 0.19 0.19 0.23 0.24 0.27 0.29 0.26 0.23 0.14 0.10 0.07 0.04
0.14 0.18 0.27 0.34 0.25 0.15 0.08 0.06 0.04 0.05 0.05 0.05 0.05 0.06 0.06 0.06 0.06 0.05 0.06 0.05 0.04 0.08 0.14 0.16 0.19 0.19 0.18 0.16 0.14 0.13 0.13 0.18 0.23 0.26 0.27 0.28 0.25 0.18 0.21 0.24 0.22 0.23 0.23 0.15 0.12 0.08 0.06 0.04 0.02
0.17 0.27 0.46 0.39 0.25 0.16 0.07 0.05 0.05 0.05 0.05 0.07 0.10 0.11 0.15 0.15 0.10 0.09 0.08 0.07 0.08 0.11 0.16 0.20 0.23 0.25 0.24 0.19 0.17 0.16 0.16 0.20 0.25 0.27 0.29 0.30 0.29 0.25 0.25 0.23 0.20 0.18 0.16 0.10 0.08 0.06 0.05 0.03 0.02
0.26 0.47 0.55 0.41 0.22 0.10 0.06 0.04 0.06 0.07 0.06 0.07 0.14 0.21 0.27 0.21 0.15 0.13 0.14 0.12 0.14 0.17 0.23 0.29 0.30 0.31 0.30 0.26 0.22 0.21 0.21 0.23 0.26 0.29 0.30 0.32 0.34 0.34 0.31 0.23 0.17 0.12 0.10 0.08 0.07 0.04 0.03 0.03 0.02
0.45 0.64 0.57 0.38 0.19 0.08 0.05 0.06 0.06 0.08 0.08 0.08 0.14 0.28 0.38 0.30 0.26 0.27 0.23 0.21 0.20 0.22 0.31 0.37 0.39 0.40 0.38 0.33 0.29 0.27 0.28 0.29 0.27 0.27 0.31 0.37 0.37 0.37 0.34 0.24 0.14 0.09 0.08 0.07 0.07 0.05 0.02 0.02 0.02
0.67 0.66 0.56 0.36 0.16 0.07 0.05 0.06 0.08 0.10 0.11 0.10 0.16 0.33 0.48 0.47 0.47 0.49 0.41 0.34 0.31 0.29 0.33 0.42 0.45 0.42 0.41 0.41 0.37 0.33 0.34 0.34 0.33 0.31 0.36 0.43 0.41 0.33 0.30 0.22 0.13 0.09 0.07 0.06 0.06 0.06 0.04 0.03 0.03
0.69 0.57 0.44 0.27 0.14 0.10 0.05 0.05 0.08 0.11 0.12 0.14 0.16 0.38 0.56 0.67 0.70 0.71 0.67 0.58 0.51 0.46 0.48 0.49 0.49 0.45 0.42 0.37 0.34 0.35 0.38 0.36 0.34 0.35 0.38 0.40 0.41 0.31 0.25 0.17 0.12 0.09 0.08 0.08 0.07 0.06 0.05 0.05 0.04
0.69 0.71 0.42 0.26 0.16 0.13 0.10 0.09 0.07 0.11 0.14 0.15 0.21 0.39 0.59 0.74 0.90 1.00 0.98 0.98 0.86 0.75 0.68 0.61 0.59 0.53 0.46 0.39 0.34 0.34 0.35 0.34 0.34 0.33 0.28 0.28 0.26 0.25 0.23 0.14 0.11 0.10 0.10 0.09 0.08 0.06 0.05 0.04 0.02
0.78 0.89 0.48 0.22 0.17 0.15 0.16 0.16 0.10 0.09 0.16 0.22 0.25 0.35 0.56 0.79 1.06 1.32 1.30 1.28 1.19 1.04 0.90 0.78 0.73 0.67 0.57 0.50 0.41 0.39 0.36 0.32 0.29 0.28 0.24 0.22 0.25 0.23 0.19 0.10 0.10 0.09 0.09 0.08 0.07 0.06 0.05 0.02 0.01
0.87 0.80 0.36 0.15 0.16 0.18 0.22 0.23 0.19 0.16 0.20 0.29 0.37 0.42 0.67 0.97 1.20 1.40 1.44 1.29 1.23 1.15 1.03 0.92 0.85 0.78 0.65 0.55 0.48 0.43 0.39 0.33 0.26 0.23 0.24 0.22 0.23 0.23 0.18 0.12 0.09 0.10 0.08 0.08 0.07 0.05 0.04 0.02 0.01
0.68 0.50 0.29 0.21 0.22 0.25 0.28 0.28 0.27 0.25 0.24 0.26 0.34 0.44 0.69 1.03 1.35 1.39 1.53 1.42 1.28 1.27 1.23 1.09 0.98 0.89 0.77 0.64 0.55 0.49 0.42 0.38 0.31 0.25 0.23 0.21 0.23 0.25 0.22 0.18 0.13 0.12 0.08 0.07 0.07 0.05 0.02 0.01 0.01
0.49 0.35 0.32 0.32 0.31 0.35 0.33 0.32 0.30 0.27 0.22 0.23 0.33 0.42 0.63 0.89 1.21 1.40 1.47 1.53 1.38 1.32 1.35 1.20 1.09 0.97 0.87 0.73 0.60 0.54 0.46 0.40 0.33 0.27 0.23 0.23 0.24 0.22 0.19 0.17 0.14 0.13 0.11 0.09 0.07 0.04 0.02 0.02 0.01
0.42 0.35 0.37 0.40 0.39 0.40 0.39 0.37 0.34 0.27 0.23 0.28 0.44 0.58 0.66 0.82 1.03 1.34 1.48 1.53 1.45 1.31 1.32 1.32 1.18 1.07 0.90 0.81 0.72 0.59 0.48 0.39 0.35 0.33 0.27 0.22 0.21 0.20 0.19 0.16 0.15 0.13 0.11 0.11 0.09 0.07 0.05 0.03 0.02
0.38 0.37 0.44 0.50 0.48 0.45 0.50 0.45 0.41 0.32 0.29 0.39 0.54 0.66 0.78 0.90 1.01 1.29 1.45 1.54 1.37 1.24 1.26 1.30 1.31 1.24 1.06 0.85 0.76 0.68 0.53 0.45 0.42 0.39 0.31 0.26 0.23 0.22 0.21 0.18 0.16 0.13 0.10 0.09 0.09 0.07 0.06 0.05 0.03
0.47 0.52 0.57 0.60 0.58 0.54 0.62 0.67 0.45 0.34 0.36 0.41 0.52 0.66 0.80 0.97 1.14 1.27 1.33 1.49 1.45 1.26 1.23 1.30 1.32 1.38 1.25 1.03 0.88 0.81 0.66 0.54 0.46 0.39 0.39 0.37 0.32 0.27 0.23 0.22 0.18 0.14 0.12 0.11 0.10 0.10 0.08 0.07 0.05
0.81 0.77 0.71 0.60 0.60 0.58 0.74 0.76 0.46 0.35 0.39 0.42 0.47 0.61 0.77 0.95 1.13 1.24 1.27 1.42 1.50 1.41 1.27 1.31 1.33 1.43 1.42 1.24 1.05 0.91 0.81 0.68 0.53 0.42 0.42 0.44 0.40 0.36 0.32 0.30 0.26 0.23 0.19 0.16 0.14 0.12 0.12 0.09 0.08
0.93 0.71 0.53 0.50 0.53 0.59 0.67 0.61 0.48 0.39 0.38 0.43 0.48 0.56 0.75 0.91 1.01 1.12 1.20 1.33 1.48 1.48 1.39 1.35 1.32 1.38 1.46 1.45 1.32 1.15 1.00 0.83 0.70 0.56 0.48 0.48 0.46 0.43 0.37 0.33 0.34 0.35 0.31 0.25 0.22 0.16 0.15 0.13 0.12
0.56 0.42 0.36 0.38 0.41 0.47 0.52 0.48 0.49 0.48 0.44 0.40 0.43 0.49 0.67 0.84 0.87 0.95 1.07 1.28 1.47 1.59 1.48 1.42 1.40 1.43 1.56 1.65 1.63 1.44 1.25 1.07 0.91 0.77 0.66 0.61 0.56 0.53 0.48 0.41 0.41 0.41 0.39 0.33 0.29 0.25 0.22 0.17 0.16
0.44 0.39 0.33 0.26 0.28 0.38 0.41 0.44 0.53 0.56 0.46 0.39 0.40 0.50 0.56 0.69 0.80 0.87 0.99 1.17 1.36 1.62 1.57 1.42 1.46 1.47 1.58 1.70 1.68 1.55 1.33 1.27 1.15 1.01 0.92 0.81 0.72 0.66 0.64 0.57 0.54 0.54 0.49 0.44 0.41 0.39 0.33 0.27 0.25
0.50 0.46 0.40 0.33 0.31 0.40 0.43 0.48 0.49 0.50 0.46 0.39 0.39 0.47 0.45 0.52 0.70 0.83 0.96 1.12 1.20 1.43 1.58 1.49 1.49 1.55 1.50 1.55 1.74 1.84 1.74 1.57 1.43 1.27 1.12 1.01 0.90 0.82 0.76 0.71 0.68 0.62 0.58 0.55 0.51 0.48 0.43 0.39 0.36
0.53 0.41 0.40 0.48 0.48 0.50 0.52 0.56 0.48 0.43 0.43 0.37 0.34 0.41 0.39 0.43 0.62 0.76 0.87 1.12 1.18 1.34 1.54 1.56 1.56 1.63 1.56 1.63 1.97 2.18 2.17 1.89 1.66 1.47 1.29 1.17 1.11 1.05 0.95 0.84 0.79 0.73 0.67 0.58 0.54 0.55 0.55 0.50 0.45
0.58 0.36 0.39 0.52 0.67 0.70 0.55 0.68 0.50 0.45 0.43 0.38 0.33 0.36 0.40 0.46 0.56 0.66 0.76 1.03 1.16 1.28 1.45 1.52 1.64 1.71 1.73 1.76 1.92 1.97 1.88 1.71 1.52 1.50 1.45 1.37 1.29 1.19 1.12 1.05 0.95 0.87 0.80 0.69 0.65 0.64 0.64 0.65 0.59
0.57 0.45 0.50 0.59 0.74 0.73 0.45 0.58 0.52 0.45 0.48 0.48 0.46 0.47 0.50 0.52 0.59 0.68 0.71 0.82 0.98 1.19 1.39 1.42 1.51 1.60 1.68 1.67 1.76 1.94 1.82 1.65 1.55 1.53 1.48 1.40 1.38 1.30 1.21 1.14 1.11 1.04 0.97 0.91 0.86 0.79 0.75 0.72 0.68
0.63 0.75 0.75 0.75 0.98 0.96 0.45 0.47 0.50 0.51 0.53 0.53 0.53 0.54 0.54 0.54 0.60 0.67 0.68 0.73 0.84 1.00 1.26 1.36 1.47 1.54 1.62 1.60 1.63 1.80 1.73 1.55 1.40 1.35 1.36 1.29 1.26 1.20 1.14 1.09 1.07 1.04 1.00 0.97 0.93 0.90 0.85 0.80 0.75
0.96 1.28 1.43 1.33 1.20 0.78 0.35 0.43 0.54 0.50 0.48 0.53 0.59 0.59 0.57 0.55 0.57 0.62 0.67 0.76 0.81 0.92 1.05 1.10 1.19 1.29 1.41 1.46 1.46 1.57 1.60 1.54 1.42 1.26 1.24 1.21 1.14 1.05 1.00 1.01 0.98 1.00 0.98 0.97 0.97 0.94 0.89 0.88 0.82
0.90 1.05 1.17 0.99 0.66 0.43 0.35 0.47 0.51 0.42 0.45 0.52 0.60 0.61 0.55 0.55 0.60 0.59 0.64 0.76 0.83 0.90 0.91 0.85 0.89 1.03 1.11 1.14 1.16 1.25 1.26 1.31 1.32 1.23 1.12 1.09 1.04 0.97 0.95 0.99 1.03 1.04 1.03 0.96 0.95 0.93 0.89 0.88 0.83
0.83 0.82 0.67 0.83 0.62 0.50 0.43 0.43 0.44 0.41 0.45 0.47 0.50 0.55 0.55 0.55 0.56 0.60 0.66 0.73 0.74 0.78 0.79 0.77 0.77 0.82 0.87 0.97 0.97 1.04 1.01 1.04 1.12 1.11 1.06 1.05 1.00 0.93 0.92 0.95 0.95 0.95 0.95 0.91 0.90 0.87 0.81 0.76 0.75
0.70 0.64 0.77 1.10 0.96 0.70 0.43 0.41 0.57 0.49 0.46 0.50 0.50 0.52 0.55 0.54 0.56 0.64 0.72 0.75 0.74 0.74 0.73 0.70 0.70 0.72 0.77 0.84 0.89 0.89 0.89 0.92 0.98 0.97 0.90 0.88 0.87 0.84 0.83 0.85 0.84 0.83 0.81 0.81 0.79 0.75 0.70 0.69 0.65
0.65 0.73 0.81 0.83 0.69 0.71 0.54 0.53 0.52 0.44 0.40 0.43 0.43 0.45 0.48 0.48 0.52 0.62 0.73 0.78 0.76 0.68 0.63 0.63 0.62 0.63 0.67 0.72 0.74 0.76 0.76 0.79 0.87 0.87 0.84 0.80 0.75 0.70 0.70 0.74 0.75 0.71 0.68 0.66 0.67 0.65 0.63 0.63 0.62
0.52 0.53 0.65 0.90 0.64 0.52 0.55 0.55 0.43 0.34 0.31 0.32 0.33 0.36 0.38 0.41 0.46 0.53 0.58 0.62 0.62 0.61 0.60 0.63 0.61 0.61 0.61 0.65 0.67 0.70 0.69 0.68 0.75 0.79 0.81 0.77 0.74 0.69 0.66 0.67 0.68 0.65 0.61 0.57 0.56 0.56 0.56 0.58 0.60

GEFSSGP_prec_meanprecacc_138.txt.gz
Total_Precipitation_Accumulation
0.16 0.15 0.14 0.21 0.20 0.16 0.13 0.06 0.04 0.05 0.06 0.04 0.04 0.03 0.03 0.03 0.04 0.07 0.04 0.03 0.04 0.06 0.12 0.21 0.21 0.21 0.21 0.19 0.15 0.12 0.12 0.17 0.22 0.25 0.25 0.26 0.25 0.20 0.20 0.23 0.25 0.27 0.29 0.27 0.24 0.16 0.10 0.08 0.05
0.14 0.19 0.28 0.35 0.25 0.15 0.08 0.06 0.04 0.05 0.05 0.05 0.05 0.06 0.06 0.06 0.06 0.05 0.06 0.05 0.04 0.08 0.15 0.18 0.23 0.24 0.24 0.21 0.17 0.15 0.15 0.19 0.24 0.27 0.28 0.29 0.26 0.19 0.22 0.26 0.24 0.25 0.24 0.17 0.13 0.10 0.08 0.05 0.03
0.18 0.28 0.47 0.39 0.25 0.16 0.07 0.05 0.05 0.05 0.05 0.07 0.10 0.11 0.15 0.15 0.10 0.09 0.09 0.08 0.08 0.11 0.17 0.22 0.26 0.29 0.29 0.25 0.21 0.19 0.19 0.23 0.28 0.29 0.31 0.31 0.30 0.26 0.26 0.25 0.21 0.19 0.17 0.12 0.10 0.07 0.06 0.04 0.03
0.27 0.48 0.56 0.41 0.22 0.10 0.06 0.04 0.06 0.07 0.06 0.07 0.14 0.21 0.27 0.21 0.15 0.13 0.14 0.12 0.14 0.18 0.23 0.31 0.34 0.37 0.35 0.31 0.27 0.25 0.24 0.27 0.30 0.32 0.33 0.34 0.36 0.36 0.33 0.25 0.17 0.13 0.11 0.09 0.09 0.05 0.04 0.04 0.03
0.47 0.66 0.58 0.38 0.19 0.08 0.05 0.06 0.06 0.08 0.08 0.08 0.15 0.28 0.38 0.30 0.26 0.28 0.23 0.21 0.20 0.23 0.32 0.39 0.43 0.47 0.44 0.39 0.35 0.32 0.32 0.34 0.33 0.31 0.35 0.40 0.40 0.39 0.37 0.25 0.15 0.10 0.08 0.07 0.08 0.06 0.04 0.04 0.03
0.70 0.68 0.57 0.36 0.16 0.07 0.05 0.06 0.08 0.10 0.11 0.10 0.16 0.33 0.48 0.48 0.48 0.49 0.42 0.34 0.32 0.29 0.34 0.44 0.49 0.47 0.49 0.49 0.43 0.39 0.39 0.40 0.40 0.38 0.44 0.49 0.46 0.37 0.32 0.24 0.14 0.10 0.08 0.07 0.07 0.08 0.06 0.05 0.05
0.73 0.59 0.44 0.27 0.14 0.10 0.05 0.05 0.08 0.11 0.12 0.14 0.16 0.38 0.56 0.67 0.71 0.71 0.68 0.59 0.53 0.48 0.49 0.52 0.52 0.48 0.47 0.44 0.41 0.41 0.44 0.42 0.40 0.41 0.45 0.47 0.47 0.37 0.29 0.19 0.14 0.10 0.09 0.09 0.09 0.08 0.07 0.07 0.06
0.72 0.72 0.42 0.26 0.16 0.13 0.10 0.09 0.07 0.11 0.14 0.15 0.21 0.39 0.59 0.74 0.91 1.01 0.99 0.99 0.87 0.77 0.70 0.63 0.62 0.55 0.48 0.43 0.41 0.40 0.41 0.39 0.38 0.36 0.31 0.30 0.29 0.29 0.27 0.17 0.13 0.11 0.11 0.11 0.09 0.08 0.08 0.06 0.04
0.82 0.90 0.48 0.22 0.17 0.15 0.16 0.16 0.10 0.09 0.16 0.22 0.25 0.35 0.56 0.79 1.07 1.33 1.30 1.29 1.20 1.05 0.91 0.80 0.76 0.70 0.60 0.54 0.47 0.44 0.42 0.37 0.34 0.31 0.25 0.24 0.27 0.25 0.21 0.12 0.11 0.11 0.10 0.09 0.08 0.08 0.07 0.04 0.02
0.92 0.81 0.37 0.16 0.16 0.18 0.22 0.23 0.19 0.16 0.20 0.29 0.37 0.42 0.67 0.97 1.20 1.40 1.44 1.29 1.23 1.15 1.04 0.93 0.87 0.80 0.69 0.59 0.53 0.49 0.43 0.37 0.31 0.26 0.27 0.24 0.24 0.25 0.20 0.14 0.11 0.11 0.09 0.09 0.08 0.08 0.06 0.03 0.01
0.70 0.51 0.29 0.22 0.22 0.25 0.28 0.28 0.27 0.25 0.24 0.26 0.34 0.44 0.69 1.03 1.35 1.39 1.53 1.42 1.28 1.27 1.23 1.10 1.00 0.92 0.81 0.70 0.60 0.55 0.47 0.42 0.35 0.28 0.27 0.24 0.25 0.27 0.24 0.19 0.14 0.13 0.09 0.08 0.08 0.07 0.04 0.02 0.01
0.50 0.36 0.33 0.33 0.31 0.35 0.33 0.32 0.30 0.27 0.22 0.23 0.33 0.42 0.63 0.89 1.21 1.40 1.47 1.53 1.38 1.32 1.35 1.20 1.10 0.99 0.90 0.78 0.67 0.60 0.53 0.45 0.38 0.32 0.27 0.26 0.27 0.24 0.20 0.18 0.16 0.15 0.11 0.09 0.07 0.05 0.03 0.02 0.02
0.45 0.37 0.38 0.40 0.39 0.40 0.39 0.37 0.34 0.27 0.23 0.28 0.44 0.58 0.67 0.82 1.03 1.34 1.48 1.53 1.45 1.31 1.32 1.32 1.19 1.08 0.92 0.85 0.78 0.66 0.55 0.45 0.40 0.37 0.31 0.26 0.24 0.23 0.22 0.18 0.17 0.14 0.13 0.12 0.10 0.07 0.05 0.04 0.02
0.41 0.39 0.46 0.50 0.48 0.45 0.50 0.45 0.41 0.32 0.29 0.39 0.54 0.67 0.78 0.90 1.01 1.29 1.45 1.54 1.37 1.24 1.26 1.30 1.31 1.24 1.07 0.86 0.80 0.74 0.59 0.51 0.48 0.44 0.35 0.30 0.27 0.25 0.25 0.22 0.20 0.16 0.12 0.11 0.10 0.08 0.07 0.05 0.04
0.49 0.54 0.59 0.61 0.58 0.54 0.62 0.67 0.45 0.34 0.36 0.41 0.52 0.66 0.80 0.97 1.14 1.27 1.33 1.49 1.45 1.26 1.23 1.30 1.32 1.39 1.26 1.04 0.89 0.84 0.69 0.58 0.51 0.45 0.46 0.43 0.37 0.32 0.28 0.27 0.23 0.18 0.16 0.14 0.12 0.12 0.10 0.08 0.06
0.84 0.79 0.73 0.62 0.60 0.58 0.74 0.76 0.46 0.35 0.39 0.42 0.47 0.61 0.77 0.95 1.13 1.24 1.27 1.42 1.50 1.41 1.27 1.31 1.33 1.43 1.42 1.24 1.06 0.92 0.83 0.71 0.57 0.47 0.48 0.53 0.48 0.43 0.39 0.36 0.31 0.28 0.25 0.21 0.17 0.15 0.14 0.11 0.10
0.96 0.74 0.55 0.52 0.54 0.59 0.67 0.61 0.48 0.39 0.38 0.43 0.48 0.56 0.75 0.91 1.01 1.12 1.20 1.33 1.48 1.48 1.39 1.35 1.32 1.38 1.46 1.45 1.33 1.16 1.01 0.84 0.72 0.58 0.52 0.54 0.54 0.50 0.44 0.41 0.43 0.45 0.40 0.33 0.28 0.20 0.18 0.16 0.14
0.57 0.44 0.37 0.39 0.42 0.47 0.52 0.48 0.49 0.48 0.44 0.40 0.43 0.49 0.67 0.84 0.87 0.95 1.07 1.28 1.47 1.59 1.48 1.42 1.40 1.43 1.57 1.65 1.63 1.44 1.25 1.07 0.92 0.78 0.67 0.64 0.61 0.59 0.55 0.48 0.49 0.52 0.51 0.44 0.39 0.32 0.27 0.22 0.21
0.45 0.39 0.34 0.26 0.28 0.38 0.42 0.44 0.53 0.56 0.46 0.39 0.40 0.50 0.56 0.69 0.80 0.87 0.99 1.17 1.36 1.62 1.57 1.42 1.46 1.47 1.59 1.70 1.68 1.55 1.34 1.28 1.16 1.01 0.93 0.83 0.76 0.71 0.71 0.66 0.64 0.64 0.61 0.56 0.53 0.50 0.41 0.33 0.32
0.51 0.47 0.40 0.33 0.31 0.40 0.43 0.48 0.49 0.50 0.46 0.39 0.39 0.47 0.45 0.52 0.70 0.83 0.96 1.12 1.20 1.43 1.58 1.49 1.49 1.55 1.50 1.55 1.74 1.84 1.75 1.58 1.44 1.29 1.14 1.03 0.92 0.85 0.80 0.78 0.78 0.74 0.72 0.70 0.65 0.63 0.57 0.49 0.45
0.54 0.42 0.41 0.49 0.48 0.50 0.52 0.56 0.48 0.43 0.43 0.37 0.34 0.41 0.39 0.43 0.62 0.76 0.87 1.12 1.18 1.34 1.54 1.56 1.56 1.63 1.56 1.63 1.98 2.19 2.18 1.90 1.67 1.49 1.31 1.18 1.12 1.07 0.98 0.88 0.84 0.81 0.78 0.74 0.71 0.74 0.74 0.67 0.59
0.60 0.37 0.40 0.52 0.68 0.70 0.56 0.68 0.50 0.45 0.43 0.38 0.33 0.36 0.40 0.46 0.56 0.66 0.76 1.03 1.16 1.28 1.46 1.52 1.64 1.71 1.73 1.77 1.92 1.98 1.89 1.72 1.53 1.52 1.47 1.39 1.31 1.21 1.15 1.08 1.00 0.93 0.87 0.80 0.80 0.81 0.82 0.84 0.77
0.57 0.45 0.51 0.60 0.75 0.74 0.45 0.58 0.52 0.46 0.48 0.48 0.46 0.47 0.50 0.52 0.59 0.68 0.71 0.82 0.99 1.19 1.39 1.43 1.51 1.60 1.68 1.67 1.77 1.95 1.83 1.67 1.58 1.55 1.50 1.42 1.40 1.34 1.25 1.18 1.16 1.10 1.05 1.00 0.99 0.97 0.93 0.91 0.88
0.64 0.76 0.76 0.75 0.99 0.97 0.46 0.47 0.51 0.51 0.53 0.53 0.53 0.54 0.54 0.54 0.60 0.67 0.68 0.73 0.84 1.01 1.27 1.37 1.47 1.55 1.63 1.61 1.64 1.82 1.75 1.58 1.43 1.38 1.39 1.32 1.29 1.24 1.18 1.15 1.13 1.11 1.07 1.05 1.03 1.03 1.01 0.97 0.91
0.97 1.28 1.44 1.33 1.21 0.79 0.36 0.43 0.54 0.50 0.48 0.53 0.59 0.59 0.57 0.55 0.57 0.62 0.67 0.76 0.81 0.92 1.05 1.10 1.20 1.30 1.43 1.48 1.48 1.60 1.64 1.59 1.45 1.29 1.26 1.23 1.17 1.08 1.03 1.04 1.03 1.06 1.04 1.03 1.04 1.02 0.99 1.00 0.97
0.90 1.05 1.18 0.99 0.67 0.43 0.35 0.47 0.51 0.42 0.45 0.52 0.60 0.61 0.55 0.55 0.60 0.59 0.64 0.76 0.83 0.91 0.91 0.86 0.91 1.05 1.14 1.18 1.19 1.29 1.32 1.38 1.38 1.27 1.16 1.13 1.07 1.00 0.98 1.02 1.06 1.09 1.10 1.03 1.02 1.00 0.96 0.97 0.94
0.84 0.82 0.67 0.83 0.62 0.51 0.43 0.43 0.44 0.41 0.45 0.47 0.50 0.55 0.55 0.55 0.56 0.60 0.67 0.73 0.74 0.79 0.80 0.78 0.78 0.84 0.90 1.01 1.02 1.11 1.10 1.11 1.18 1.17 1.12 1.10 1.04 0.97 0.95 0.98 0.98 0.98 0.99 0.96 0.96 0.94 0.88 0.85 0.84
0.70 0.65 0.78 1.11 0.96 0.70 0.43 0.41 0.57 0.49 0.46 0.50 0.50 0.52 0.56 0.54 0.56 0.64 0.73 0.76 0.75 0.75 0.74 0.70 0.71 0.74 0.79 0.87 0.94 0.98 0.99 1.02 1.06 1.04 0.96 0.92 0.91 0.89 0.87 0.89 0.87 0.85 0.85 0.86 0.86 0.83 0.78 0.76 0.72
0.65 0.73 0.81 0.83 0.69 0.71 0.55 0.54 0.52 0.44 0.41 0.43 0.43 0.46 0.49 0.49 0.53 0.62 0.73 0.79 0.77 0.69 0.64 0.64 0.63 0.65 0.69 0.74 0.79 0.81 0.81 0.86 0.95 0.93 0.89 0.84 0.78 0.73 0.72 0.77 0.78 0.74 0.71 0.69 0.71 0.70 0.71 0.71 0.68
0.52 0.53 0.65 0.91 0.65 0.53 0.56 0.56 0.43 0.34 0.31 0.32 0.33 0.36 0.39 0.42 0.47 0.54 0.59 0.62 0.63 0.62 0.62 0.65 0.63 0.63 0.63 0.67 0.71 0.73 0.71 0.70 0.77 0.81 0.83 0.79 0.76 0.71 0.68 0.69 0.71 0.68 0.64 0.61 0.62 0.61 0.63 0.67 0.69

GEFSSGP_prec_meanprecacc_144.txt.gz
Total_Precipitation_Accumulation
0.18 0.18 0.18 0.24 0.21 0.16 0.13 0.06 0.04 0.05 0.06 0.04 0.04 0.03 0.03 0.03 0.04 0.07 0.04 0.03 0.05 0.07 0.13 0.23 0.25 0.27 0.27 0.23 0.19 0.15 0.15 0.19 0.24 0.28 0.28 0.28 0.26 0.21 0.21 0.24 0.27 0.28 0.31 0.28 0.25 0.17 0.12 0.08 0.05
0.17 0.22 0.32 0.38 0.27 0.16 0.08 0.06 0.04 0.05 0.05 0.05 0.05 0.06 0.06 0.06 0.06 0.05 0.06 0.05 0.05 0.09 0.17 0.21 0.27 0.28 0.28 0.25 0.21 0.19 0.17 0.21 0.27 0.29 0.30 0.31 0.28 0.21 0.23 0.27 0.26 0.27 0.26 0.19 0.15 0.11 0.09 0.05 0.03
0.21 0.31 0.50 0.43 0.27 0.17 0.07 0.05 0.05 0.05 0.05 0.07 0.10 0.11 0.15 0.15 0.10 0.09 0.09 0.08 0.09 0.12 0.19 0.26 0.30 0.33 0.33 0.28 0.24 0.23 0.23 0.27 0.32 0.32 0.34 0.33 0.32 0.28 0.28 0.27 0.23 0.21 0.18 0.14 0.11 0.07 0.06 0.04 0.03
0.31 0.52 0.61 0.45 0.24 0.11 0.06 0.04 0.06 0.07 0.06 0.07 0.14 0.21 0.27 0.21 0.15 0.13 0.14 0.13 0.15 0.19 0.26 0.35 0.37 0.40 0.38 0.35 0.31 0.28 0.28 0.30 0.33 0.36 0.38 0.37 0.38 0.38 0.35 0.27 0.19 0.14 0.12 0.10 0.10 0.05 0.04 0.04 0.04
0.50 0.70 0.63 0.41 0.20 0.09 0.05 0.06 0.06 0.08 0.08 0.08 0.15 0.28 0.38 0.30 0.27 0.28 0.23 0.22 0.21 0.24 0.34 0.42 0.48 0.52 0.48 0.42 0.38 0.36 0.38 0.40 0.39 0.36 0.41 0.46 0.44 0.43 0.39 0.28 0.16 0.11 0.09 0.08 0.08 0.07 0.04 0.04 0.04
0.76 0.74 0.61 0.38 0.16 0.07 0.05 0.06 0.08 0.10 0.11 0.10 0.17 0.33 0.48 0.48 0.48 0.50 0.42 0.35 0.33 0.31 0.36 0.47 0.54 0.54 0.54 0.53 0.46 0.43 0.43 0.45 0.46 0.45 0.49 0.56 0.52 0.41 0.36 0.27 0.16 0.11 0.09 0.08 0.08 0.09 0.07 0.06 0.06
0.79 0.64 0.47 0.28 0.15 0.10 0.05 0.05 0.08 0.11 0.12 0.14 0.16 0.39 0.57 0.68 0.72 0.72 0.69 0.61 0.54 0.50 0.51 0.56 0.57 0.53 0.52 0.48 0.45 0.44 0.47 0.46 0.44 0.45 0.50 0.52 0.52 0.42 0.34 0.23 0.16 0.13 0.12 0.11 0.10 0.09 0.08 0.08 0.07
0.77 0.78 0.45 0.27 0.17 0.13 0.10 0.09 0.07 0.11 0.14 0.15 0.21 0.40 0.60 0.74 0.91 1.02 1.00 1.00 0.88 0.79 0.72 0.67 0.67 0.60 0.52 0.48 0.45 0.45 0.45 0.42 0.41 0.39 0.33 0.33 0.32 0.31 0.30 0.20 0.16 0.14 0.14 0.12 0.11 0.10 0.09 0.07 0.05
0.85 0.95 0.51 0.23 0.17 0.15 0.16 0.16 0.10 0.09 0.16 0.22 0.25 0.36 0.57 0.79 1.07 1.34 1.31 1.29 1.21 1.06 0.94 0.83 0.80 0.75 0.65 0.59 0.51 0.49 0.47 0.43 0.39 0.36 0.28 0.27 0.31 0.29 0.23 0.13 0.12 0.12 0.13 0.12 0.10 0.09 0.08 0.06 0.03
0.94 0.84 0.39 0.16 0.16 0.18 0.22 0.23 0.19 0.16 0.20 0.29 0.37 0.42 0.68 0.99 1.21 1.41 1.45 1.30 1.24 1.16 1.04 0.95 0.89 0.83 0.73 0.62 0.58 0.55 0.48 0.42 0.37 0.33 0.33 0.29 0.29 0.29 0.22 0.15 0.11 0.13 0.11 0.11 0.11 0.10 0.08 0.05 0.03
0.72 0.52 0.31 0.23 0.23 0.25 0.28 0.28 0.27 0.25 0.24 0.26 0.34 0.44 0.70 1.05 1.36 1.39 1.53 1.42 1.29 1.27 1.24 1.11 1.00 0.93 0.83 0.73 0.63 0.60 0.52 0.47 0.41 0.34 0.34 0.32 0.33 0.32 0.27 0.22 0.16 0.15 0.11 0.11 0.12 0.11 0.07 0.03 0.03
0.53 0.37 0.35 0.34 0.31 0.35 0.33 0.32 0.30 0.27 0.22 0.23 0.34 0.43 0.64 0.90 1.22 1.40 1.47 1.53 1.38 1.32 1.35 1.20 1.11 1.00 0.91 0.80 0.70 0.65 0.59 0.51 0.43 0.37 0.32 0.33 0.35 0.31 0.26 0.22 0.19 0.18 0.14 0.12 0.11 0.09 0.07 0.04 0.03
0.47 0.38 0.40 0.42 0.39 0.40 0.39 0.37 0.34 0.27 0.23 0.29 0.44 0.59 0.68 0.83 1.04 1.35 1.48 1.53 1.45 1.31 1.32 1.32 1.19 1.09 0.93 0.86 0.82 0.70 0.58 0.50 0.46 0.42 0.36 0.30 0.29 0.29 0.28 0.22 0.21 0.19 0.16 0.16 0.13 0.10 0.09 0.06 0.04
0.42 0.41 0.47 0.52 0.49 0.45 0.50 0.45 0.41 0.33 0.29 0.40 0.55 0.67 0.79 0.91 1.02 1.29 1.45 1.54 1.37 1.24 1.26 1.31 1.31 1.25 1.08 0.87 0.81 0.77 0.62 0.55 0.53 0.49 0.39 0.34 0.31 0.29 0.28 0.27 0.24 0.21 0.16 0.13 0.13 0.11 0.09 0.07 0.05
0.50 0.55 0.61 0.63 0.59 0.54 0.62 0.67 0.45 0.34 0.36 0.42 0.52 0.66 0.80 0.98 1.15 1.27 1.33 1.49 1.45 1.26 1.23 1.30 1.33 1.39 1.26 1.04 0.90 0.86 0.74 0.62 0.54 0.50 0.51 0.47 0.41 0.35 0.31 0.30 0.25 0.21 0.21 0.18 0.15 0.14 0.13 0.10 0.08
0.85 0.80 0.74 0.63 0.61 0.58 0.74 0.76 0.46 0.35 0.39 0.42 0.48 0.62 0.77 0.95 1.14 1.24 1.27 1.42 1.50 1.41 1.27 1.31 1.33 1.44 1.42 1.24 1.06 0.93 0.86 0.75 0.62 0.51 0.53 0.58 0.53 0.47 0.42 0.38 0.33 0.30 0.29 0.27 0.21 0.17 0.17 0.14 0.12
0.96 0.75 0.56 0.53 0.55 0.60 0.68 0.61 0.48 0.39 0.38 0.44 0.48 0.56 0.75 0.91 1.01 1.12 1.20 1.33 1.48 1.48 1.39 1.35 1.32 1.38 1.47 1.46 1.33 1.16 1.02 0.86 0.75 0.62 0.56 0.58 0.58 0.55 0.48 0.43 0.45 0.48 0.43 0.36 0.34 0.25 0.22 0.20 0.17
0.58 0.44 0.38 0.40 0.43 0.47 0.53 0.48 0.49 0.48 0.44 0.40 0.44 0.49 0.68 0.84 0.87 0.95 1.07 1.28 1.47 1.59 1.48 1.42 1.40 1.43 1.57 1.66 1.63 1.44 1.25 1.08 0.92 0.80 0.69 0.66 0.64 0.63 0.60 0.53 0.52 0.55 0.54 0.48 0.43 0.38 0.34 0.28 0.27
0.45 0.40 0.34 0.27 0.30 0.39 0.42 0.44 0.53 0.56 0.46 0.39 0.41 0.50 0.56 0.69 0.80 0.87 0.99 1.17 1.36 1.62 1.57 1.42 1.46 1.47 1.59 1.70 1.68 1.55 1.34 1.28 1.16 1.02 0.93 0.84 0.77 0.74 0.74 0.70 0.68 0.67 0.64 0.60 0.58 0.56 0.50 0.43 0.41
0.52 0.48 0.41 0.34 0.32 0.41 0.43 0.48 0.49 0.50 0.46 0.39 0.39 0.47 0.45 0.52 0.70 0.83 0.96 1.12 1.20 1.43 1.58 1.49 1.49 1.55 1.50 1.55 1.74 1.85 1.75 1.58 1.44 1.29 1.14 1.03 0.92 0.87 0.83 0.81 0.82 0.78 0.76 0.73 0.69 0.68 0.64 0.58 0.56
0.54 0.42 0.41 0.50 0.49 0.51 0.53 0.57 0.48 0.43 0.43 0.37 0.34 0.41 0.39 0.43 0.62 0.76 0.87 1.12 1.18 1.35 1.54 1.56 1.56 1.63 1.56 1.63 1.98 2.19 2.18 1.90 1.67 1.49 1.31 1.18 1.12 1.07 0.99 0.89 0.86 0.83 0.82 0.77 0.75 0.78 0.80 0.75 0.71
0.60 0.37 0.40 0.53 0.69 0.72 0.57 0.70 0.50 0.45 0.43 0.38 0.33 0.36 0.40 0.46 0.56 0.66 0.76 1.03 1.16 1.28 1.46 1.52 1.64 1.71 1.73 1.77 1.92 1.98 1.89 1.72 1.53 1.52 1.47 1.39 1.31 1.22 1.16 1.09 1.00 0.94 0.89 0.82 0.83 0.84 0.86 0.90 0.87
0.58 0.46 0.51 0.60 0.76 0.75 0.46 0.59 0.52 0.46 0.48 0.48 0.46 0.47 0.50 0.52 0.59 0.68 0.71 0.82 0.99 1.19 1.39 1.43 1.51 1.60 1.68 1.67 1.77 1.95 1.83 1.67 1.58 1.56 1.51 1.43 1.41 1.34 1.26 1.19 1.17 1.11 1.06 1.02 1.02 1.00 0.98 0.96 0.94
0.64 0.76 0.77 0.76 1.00 0.98 0.46 0.47 0.51 0.52 0.53 0.53 0.53 0.54 0.54 0.54 0.60 0.67 0.68 0.73 0.84 1.01 1.27 1.37 1.47 1.55 1.63 1.61 1.64 1.82 1.75 1.58 1.43 1.38 1.39 1.33 1.30 1.24 1.19 1.16 1.14 1.12 1.08 1.06 1.04 1.05 1.04 1.01 0.96
0.97 1.29 1.45 1.35 1.22 0.80 0.37 0.43 0.55 0.51 0.48 0.53 0.59 0.59 0.57 0.55 0.57 0.62 0.67 0.76 0.81 0.92 1.05 1.10 1.20 1.30 1.43 1.48 1.49 1.61 1.65 1.60 1.46 1.29 1.27 1.24 1.17 1.08 1.04 1.05 1.04 1.07 1.06 1.06 1.06 1.05 1.02 1.04 1.02
0.91 1.05 1.18 1.00 0.67 0.44 0.36 0.48 0.51 0.43 0.45 0.53 0.60 0.61 0.55 0.55 0.60 0.59 0.64 0.76 0.83 0.91 0.91 0.86 0.91 1.05 1.15 1.18 1.20 1.30 1.34 1.39 1.39 1.28 1.17 1.14 1.08 1.01 0.99 1.03 1.07 1.11 1.12 1.06 1.05 1.03 1.00 1.02 1.00
0.84 0.82 0.67 0.83 0.62 0.51 0.43 0.43 0.45 0.42 0.45 0.47 0.51 0.55 0.55 0.55 0.56 0.60 0.67 0.73 0.74 0.79 0.80 0.78 0.78 0.84 0.90 1.01 1.03 1.12 1.12 1.13 1.20 1.18 1.13 1.12 1.07 0.99 0.97 1.00 0.99 1.00 1.01 0.98 0.99 0.97 0.92 0.89 0.89
0.70 0.65 0.78 1.11 0.96 0.70 0.43 0.42 0.57 0.49 0.47 0.50 0.50 0.52 0.56 0.54 0.56 0.64 0.73 0.76 0.75 0.75 0.74 0.70 0.71 0.74 0.79 0.87 0.95 1.00 1.01 1.04 1.09 1.08 1.00 0.96 0.94 0.92 0.90 0.91 0.90 0.88 0.87 0.88 0.88 0.86 0.80 0.78 0.75
0.65 0.73 0.82 0.84 0.69 0.72 0.55 0.54 0.53 0.44 0.41 0.43 0.43 0.46 0.49 0.49 0.53 0.62 0.73 0.79 0.77 0.69 0.64 0.64 0.63 0.65 0.69 0.74 0.79 0.82 0.83 0.88 0.96 0.96 0.94 0.89 0.81 0.76 0.75 0.80 0.80 0.76 0.72 0.71 0.73 0.72 0.72 0.72 0.70
0.52 0.53 0.65 0.91 0.65 0.53 0.56 0.56 0.43 0.34 0.31 0.32 0.33 0.36 0.39 0.42 0.47 0.54 0.59 0.62 0.63 0.62 0.62 0.65 0.63 0.63 0.63 0.67 0.71 0.74 0.73 0.71 0.78 0.82 0.85 0.81 0.78 0.72 0.69 0.70 0.72 0.69 0.65 0.63 0.63 0.63 0.65 0.69 0.71

GEFSSGP_prec_meanprecacc_150.txt.gz
Total_Precipitation_Accumulation
0.19 0.20 0.22 0.28 0.25 0.18 0.14 0.06 0.04 0.05 0.06 0.04 0.04 0.03 0.03 0.04 0.06 0.09 0.06 0.04 0.05 0.08 0.15 0.24 0.26 0.28 0.28 0.25 0.20 0.16 0.16 0.21 0.27 0.30 0.29 0.29 0.28 0.22 0.22 0.25 0.28 0.30 0.32 0.29 0.27 0.19 0.13 0.09 0.05
0.18 0.26 0.38 0.42 0.29 0.17 0.09 0.06 0.05 0.05 0.05 0.05 0.05 0.06 0.06 0.07 0.06 0.06 0.08 0.07 0.06 0.10 0.18 0.23 0.29 0.30 0.30 0.26 0.22 0.20 0.19 0.23 0.29 0.31 0.32 0.32 0.30 0.22 0.24 0.29 0.27 0.29 0.28 0.21 0.16 0.12 0.10 0.06 0.04
0.23 0.35 0.56 0.47 0.29 0.18 0.08 0.05 0.06 0.05 0.05 0.07 0.10 0.11 0.15 0.15 0.10 0.09 0.10 0.09 0.10 0.14 0.21 0.28 0.33 0.35 0.34 0.30 0.26 0.24 0.24 0.29 0.33 0.35 0.36 0.34 0.34 0.29 0.29 0.28 0.24 0.23 0.21 0.16 0.12 0.08 0.07 0.05 0.04
0.35 0.56 0.66 0.49 0.25 0.11 0.07 0.05 0.06 0.07 0.06 0.07 0.14 0.22 0.27 0.21 0.15 0.14 0.15 0.13 0.16 0.21 0.29 0.38 0.41 0.43 0.40 0.37 0.33 0.30 0.30 0.33 0.36 0.38 0.40 0.39 0.40 0.39 0.36 0.29 0.21 0.16 0.13 0.11 0.11 0.07 0.05 0.05 0.05
0.56 0.75 0.67 0.45 0.21 0.09 0.06 0.06 0.06 0.09 0.08 0.08 0.15 0.29 0.38 0.31 0.27 0.28 0.25 0.22 0.23 0.27 0.37 0.46 0.53 0.55 0.50 0.43 0.41 0.38 0.41 0.44 0.43 0.40 0.44 0.49 0.46 0.44 0.41 0.29 0.18 0.12 0.10 0.09 0.09 0.08 0.05 0.06 0.05
0.82 0.79 0.64 0.42 0.18 0.08 0.05 0.06 0.08 0.10 0.11 0.10 0.17 0.34 0.48 0.48 0.48 0.51 0.44 0.37 0.35 0.34 0.40 0.51 0.59 0.57 0.56 0.54 0.49 0.46 0.47 0.48 0.50 0.48 0.53 0.60 0.55 0.43 0.38 0.28 0.17 0.13 0.10 0.09 0.09 0.10 0.08 0.08 0.07
0.85 0.70 0.50 0.31 0.17 0.11 0.05 0.05 0.08 0.11 0.12 0.14 0.16 0.39 0.57 0.68 0.72 0.74 0.71 0.64 0.57 0.53 0.55 0.59 0.62 0.58 0.54 0.49 0.47 0.46 0.50 0.49 0.47 0.48 0.52 0.55 0.55 0.44 0.36 0.25 0.18 0.14 0.13 0.12 0.10 0.10 0.10 0.09 0.08
0.82 0.85 0.49 0.29 0.19 0.15 0.10 0.09 0.07 0.11 0.14 0.15 0.21 0.41 0.61 0.75 0.92 1.04 1.01 1.03 0.91 0.82 0.76 0.71 0.71 0.68 0.58 0.50 0.47 0.47 0.48 0.44 0.43 0.41 0.35 0.34 0.34 0.33 0.32 0.21 0.17 0.16 0.15 0.13 0.11 0.11 0.11 0.08 0.06
0.88 1.00 0.56 0.26 0.20 0.17 0.17 0.16 0.11 0.09 0.16 0.22 0.25 0.36 0.57 0.80 1.08 1.35 1.33 1.32 1.23 1.09 0.98 0.88 0.84 0.80 0.74 0.64 0.54 0.51 0.50 0.45 0.41 0.38 0.29 0.28 0.35 0.33 0.27 0.14 0.13 0.14 0.15 0.13 0.11 0.11 0.10 0.07 0.04
0.97 0.87 0.42 0.19 0.19 0.21 0.23 0.23 0.19 0.16 0.20 0.29 0.38 0.43 0.68 1.00 1.23 1.43 1.47 1.32 1.26 1.19 1.08 0.99 0.94 0.89 0.86 0.73 0.61 0.59 0.53 0.47 0.40 0.36 0.35 0.32 0.35 0.35 0.28 0.20 0.13 0.14 0.13 0.12 0.12 0.12 0.11 0.07 0.05
0.74 0.54 0.32 0.26 0.24 0.27 0.30 0.29 0.27 0.25 0.24 0.26 0.34 0.45 0.71 1.06 1.39 1.41 1.55 1.44 1.32 1.31 1.27 1.14 1.04 0.97 0.90 0.86 0.71 0.65 0.57 0.53 0.46 0.40 0.39 0.36 0.40 0.40 0.34 0.30 0.21 0.18 0.13 0.12 0.13 0.13 0.09 0.08 0.09
0.54 0.37 0.36 0.37 0.33 0.36 0.35 0.32 0.30 0.27 0.23 0.24 0.34 0.44 0.65 0.91 1.25 1.44 1.50 1.54 1.39 1.33 1.36 1.22 1.13 1.02 0.95 0.87 0.80 0.72 0.65 0.56 0.49 0.42 0.37 0.39 0.42 0.38 0.32 0.29 0.26 0.24 0.19 0.16 0.15 0.14 0.11 0.10 0.09
0.49 0.39 0.41 0.45 0.42 0.41 0.40 0.38 0.34 0.27 0.23 0.29 0.45 0.60 0.70 0.84 1.06 1.38 1.51 1.54 1.46 1.32 1.34 1.33 1.20 1.10 0.95 0.89 0.88 0.77 0.65 0.55 0.51 0.49 0.42 0.36 0.35 0.33 0.33 0.28 0.29 0.27 0.24 0.22 0.19 0.16 0.13 0.12 0.09
0.43 0.42 0.49 0.55 0.51 0.46 0.51 0.45 0.41 0.33 0.30 0.40 0.56 0.68 0.81 0.93 1.03 1.30 1.46 1.56 1.38 1.25 1.27 1.31 1.32 1.25 1.09 0.89 0.84 0.82 0.69 0.60 0.57 0.53 0.44 0.39 0.36 0.32 0.31 0.30 0.28 0.27 0.23 0.20 0.20 0.18 0.16 0.13 0.11
0.51 0.56 0.63 0.66 0.61 0.55 0.63 0.68 0.45 0.34 0.36 0.42 0.53 0.67 0.82 1.00 1.17 1.29 1.34 1.50 1.46 1.27 1.24 1.30 1.33 1.39 1.26 1.05 0.91 0.88 0.78 0.68 0.60 0.55 0.56 0.52 0.46 0.39 0.34 0.32 0.28 0.26 0.28 0.26 0.23 0.23 0.19 0.15 0.12
0.85 0.81 0.76 0.65 0.61 0.59 0.75 0.77 0.46 0.35 0.40 0.43 0.48 0.63 0.78 0.96 1.15 1.25 1.28 1.43 1.51 1.42 1.28 1.31 1.33 1.44 1.42 1.24 1.07 0.95 0.87 0.77 0.67 0.58 0.60 0.64 0.60 0.55 0.49 0.45 0.38 0.36 0.36 0.37 0.31 0.27 0.26 0.19 0.15
0.97 0.75 0.57 0.53 0.55 0.61 0.69 0.62 0.49 0.39 0.39 0.45 0.49 0.57 0.76 0.91 1.02 1.13 1.20 1.34 1.48 1.48 1.40 1.35 1.32 1.38 1.47 1.46 1.34 1.17 1.03 0.88 0.78 0.65 0.60 0.63 0.64 0.63 0.58 0.52 0.53 0.54 0.48 0.43 0.41 0.33 0.31 0.27 0.22
0.58 0.44 0.38 0.40 0.43 0.48 0.53 0.48 0.50 0.48 0.44 0.41 0.44 0.49 0.68 0.85 0.87 0.96 1.07 1.28 1.47 1.59 1.48 1.43 1.40 1.43 1.57 1.66 1.64 1.45 1.26 1.09 0.94 0.82 0.71 0.69 0.68 0.68 0.68 0.63 0.63 0.64 0.61 0.54 0.48 0.43 0.39 0.35 0.33
0.45 0.40 0.35 0.27 0.30 0.40 0.42 0.44 0.53 0.56 0.47 0.39 0.41 0.50 0.56 0.70 0.80 0.88 0.99 1.18 1.36 1.62 1.57 1.42 1.46 1.47 1.59 1.70 1.69 1.56 1.35 1.29 1.16 1.02 0.94 0.85 0.80 0.78 0.80 0.76 0.77 0.78 0.74 0.67 0.65 0.63 0.55 0.47 0.47
0.52 0.48 0.41 0.34 0.32 0.41 0.44 0.48 0.49 0.50 0.46 0.40 0.39 0.47 0.45 0.52 0.70 0.83 0.96 1.12 1.20 1.43 1.58 1.49 1.49 1.55 1.50 1.55 1.74 1.85 1.75 1.58 1.45 1.29 1.14 1.03 0.93 0.87 0.85 0.86 0.87 0.85 0.85 0.82 0.77 0.75 0.70 0.64 0.62
0.55 0.43 0.41 0.50 0.49 0.52 0.54 0.57 0.48 0.43 0.43 0.37 0.34 0.41 0.40 0.44 0.62 0.77 0.87 1.12 1.18 1.35 1.54 1.56 1.56 1.63 1.56 1.63 1.98 2.19 2.18 1.90 1.67 1.49 1.31 1.18 1.12 1.07 0.99 0.90 0.88 0.86 0.88 0.86 0.86 0.88 0.89 0.84 0.79
0.61 0.37 0.40 0.53 0.69 0.73 0.57 0.71 0.51 0.45 0.43 0.38 0.33 0.36 0.41 0.46 0.56 0.66 0.76 1.03 1.16 1.28 1.46 1.52 1.64 1.71 1.73 1.77 1.92 1.98 1.90 1.72 1.53 1.52 1.48 1.39 1.31 1.22 1.16 1.09 1.01 0.95 0.91 0.86 0.91 0.96 0.98 1.01 0.96
0.59 0.46 0.51 0.60 0.76 0.76 0.46 0.59 0.53 0.46 0.48 0.48 0.46 0.47 0.50 0.52 0.59 0.68 0.71 0.82 0.99 1.19 1.39 1.43 1.51 1.60 1.68 1.67 1.77 1.95 1.84 1.67 1.58 1.56 1.51 1.43 1.41 1.34 1.26 1.20 1.18 1.12 1.07 1.04 1.04 1.05 1.06 1.06 1.04
0.65 0.77 0.77 0.76 1.00 0.99 0.47 0.48 0.51 0.52 0.53 0.53 0.53 0.54 0.54 0.54 0.60 0.67 0.68 0.73 0.84 1.01 1.27 1.37 1.47 1.55 1.63 1.61 1.64 1.82 1.75 1.58 1.43 1.38 1.40 1.33 1.30 1.24 1.19 1.16 1.15 1.12 1.09 1.07 1.05 1.06 1.06 1.05 1.02
0.98 1.29 1.46 1.36 1.23 0.81 0.38 0.43 0.55 0.51 0.48 0.53 0.59 0.59 0.57 0.55 0.57 0.62 0.67 0.76 0.81 0.92 1.05 1.10 1.20 1.30 1.43 1.48 1.49 1.61 1.65 1.60 1.46 1.29 1.27 1.24 1.18 1.09 1.04 1.05 1.05 1.08 1.07 1.07 1.07 1.06 1.03 1.05 1.04
0.91 1.06 1.19 1.00 0.68 0.44 0.36 0.48 0.52 0.43 0.46 0.53 0.60 0.61 0.55 0.55 0.60 0.59 0.64 0.76 0.83 0.91 0.91 0.86 0.91 1.05 1.15 1.18 1.20 1.30 1.34 1.40 1.39 1.29 1.18 1.15 1.09 1.02 1.00 1.03 1.07 1.11 1.12 1.07 1.07 1.05 1.01 1.03 1.01
0.84 0.83 0.68 0.84 0.62 0.51 0.44 0.44 0.45 0.42 0.45 0.47 0.51 0.55 0.55 0.55 0.56 0.60 0.67 0.73 0.74 0.79 0.80 0.78 0.78 0.84 0.90 1.01 1.03 1.12 1.12 1.13 1.20 1.19 1.13 1.12 1.07 1.00 0.97 1.00 1.00 1.01 1.02 0.99 1.00 0.99 0.94 0.91 0.91
0.70 0.65 0.79 1.12 0.97 0.71 0.43 0.42 0.58 0.50 0.47 0.50 0.50 0.52 0.56 0.54 0.56 0.64 0.73 0.76 0.75 0.75 0.74 0.70 0.71 0.74 0.79 0.87 0.95 1.00 1.01 1.04 1.09 1.08 1.00 0.96 0.95 0.92 0.91 0.92 0.91 0.89 0.88 0.89 0.89 0.86 0.81 0.79 0.76
0.65 0.73 0.82 0.84 0.69 0.72 0.55 0.54 0.53 0.44 0.41 0.43 0.43 0.46 0.49 0.49 0.53 0.62 0.73 0.79 0.77 0.69 0.64 0.64 0.63 0.65 0.69 0.74 0.79 0.82 0.83 0.88 0.96 0.96 0.94 0.89 0.82 0.76 0.76 0.80 0.81 0.76 0.73 0.72 0.73 0.72 0.73 0.73 0.70
0.52 0.53 0.65 0.92 0.66 0.54 0.56 0.56 0.43 0.34 0.31 0.32 0.33 0.36 0.39 0.42 0.47 0.54 0.59 0.62 0.63 0.62 0.62 0.65 0.63 0.63 0.63 0.67 0.71 0.74 0.73 0.71 0.78 0.82 0.85 0.82 0.78 0.72 0.70 0.71 0.73 0.70 0.65 0.63 0.64 0.64 0.65 0.70 0.71

GEFSSGP_prec_meanprecacc_156.txt.gz
Total_Precipitation_Accumulation
0.20 0.20 0.25 0.33 0.28 0.20 0.15 0.06 0.04 0.05 0.06 0.05 0.04 0.04 0.04 0.06 0.09 0.12 0.08 0.07 0.07 0.09 0.16 0.26 0.29 0.30 0.30 0.27 0.21 0.16 0.16 0.21 0.27 0.31 0.30 0.30 0.28 0.22 0.22 0.26 0.29 0.31 0.34 0.32 0.29 0.20 0.14 0.09 0.06
0.19 0.27 0.42 0.47 0.32 0.18 0.10 0.06 0.05 0.06 0.07 0.06 0.06 0.07 0.08 0.10 0.10 0.10 0.11 0.10 0.09 0.12 0.20 0.25 0.31 0.33 0.32 0.28 0.24 0.21 0.19 0.23 0.30 0.32 0.32 0.33 0.30 0.22 0.25 0.29 0.28 0.30 0.29 0.22 0.17 0.14 0.12 0.07 0.04
0.24 0.39 0.61 0.51 0.31 0.18 0.08 0.05 0.06 0.06 0.06 0.08 0.12 0.13 0.16 0.18 0.15 0.15 0.15 0.13 0.13 0.18 0.23 0.30 0.35 0.37 0.37 0.32 0.28 0.25 0.25 0.29 0.34 0.36 0.37 0.35 0.34 0.30 0.30 0.28 0.25 0.23 0.21 0.16 0.13 0.10 0.08 0.06 0.05
0.38 0.62 0.71 0.52 0.27 0.12 0.08 0.05 0.06 0.08 0.07 0.08 0.15 0.23 0.28 0.23 0.19 0.19 0.22 0.17 0.20 0.25 0.33 0.41 0.44 0.46 0.43 0.39 0.34 0.32 0.31 0.34 0.37 0.40 0.41 0.40 0.41 0.40 0.37 0.29 0.21 0.16 0.14 0.12 0.11 0.07 0.06 0.06 0.06
0.60 0.80 0.71 0.48 0.23 0.10 0.06 0.06 0.07 0.09 0.09 0.09 0.16 0.30 0.39 0.33 0.30 0.32 0.31 0.27 0.27 0.31 0.41 0.51 0.58 0.60 0.53 0.45 0.42 0.40 0.42 0.45 0.44 0.41 0.45 0.50 0.47 0.45 0.41 0.29 0.18 0.13 0.10 0.09 0.09 0.08 0.06 0.07 0.06
0.87 0.83 0.67 0.44 0.19 0.08 0.05 0.07 0.09 0.11 0.12 0.11 0.18 0.35 0.50 0.50 0.52 0.54 0.47 0.40 0.38 0.38 0.44 0.55 0.63 0.64 0.60 0.56 0.50 0.48 0.49 0.50 0.52 0.49 0.54 0.61 0.56 0.44 0.39 0.29 0.18 0.13 0.10 0.10 0.10 0.10 0.09 0.09 0.09
0.91 0.73 0.52 0.33 0.18 0.12 0.06 0.06 0.09 0.12 0.13 0.15 0.17 0.41 0.59 0.72 0.77 0.77 0.74 0.68 0.60 0.55 0.59 0.66 0.66 0.63 0.59 0.53 0.48 0.48 0.52 0.51 0.50 0.50 0.54 0.56 0.56 0.45 0.37 0.26 0.20 0.16 0.13 0.12 0.11 0.11 0.10 0.10 0.10
0.87 0.87 0.51 0.31 0.22 0.16 0.12 0.11 0.09 0.12 0.15 0.16 0.22 0.43 0.63 0.78 0.96 1.08 1.05 1.07 0.95 0.83 0.78 0.76 0.77 0.72 0.63 0.56 0.51 0.50 0.50 0.47 0.45 0.44 0.37 0.36 0.36 0.34 0.33 0.22 0.19 0.18 0.17 0.14 0.12 0.11 0.11 0.09 0.06
0.92 1.03 0.58 0.27 0.23 0.20 0.19 0.19 0.13 0.11 0.17 0.23 0.26 0.37 0.59 0.83 1.13 1.40 1.36 1.36 1.29 1.12 1.00 0.90 0.88 0.85 0.79 0.72 0.61 0.56 0.54 0.49 0.44 0.41 0.32 0.31 0.37 0.35 0.28 0.15 0.13 0.15 0.16 0.14 0.12 0.11 0.10 0.07 0.04
1.00 0.89 0.44 0.20 0.20 0.24 0.26 0.26 0.22 0.18 0.22 0.30 0.38 0.44 0.71 1.04 1.28 1.49 1.51 1.35 1.33 1.26 1.11 1.03 0.97 0.92 0.90 0.79 0.69 0.64 0.58 0.51 0.45 0.40 0.38 0.35 0.37 0.37 0.28 0.21 0.14 0.14 0.14 0.13 0.13 0.13 0.11 0.08 0.05
0.77 0.56 0.34 0.27 0.25 0.30 0.34 0.33 0.30 0.26 0.26 0.27 0.36 0.46 0.74 1.09 1.42 1.45 1.59 1.48 1.39 1.42 1.33 1.18 1.07 0.99 0.93 0.91 0.77 0.69 0.60 0.56 0.51 0.45 0.43 0.40 0.43 0.41 0.35 0.32 0.23 0.20 0.14 0.14 0.14 0.14 0.10 0.09 0.09
0.57 0.39 0.38 0.38 0.34 0.39 0.39 0.37 0.33 0.29 0.25 0.26 0.37 0.46 0.69 0.94 1.28 1.47 1.53 1.57 1.43 1.41 1.44 1.27 1.16 1.04 0.96 0.90 0.84 0.75 0.67 0.60 0.53 0.47 0.41 0.43 0.46 0.42 0.35 0.31 0.27 0.25 0.20 0.17 0.17 0.15 0.12 0.10 0.09
0.51 0.41 0.42 0.46 0.42 0.43 0.45 0.41 0.36 0.29 0.26 0.33 0.49 0.64 0.74 0.87 1.09 1.40 1.54 1.58 1.49 1.37 1.42 1.40 1.25 1.14 0.97 0.91 0.91 0.82 0.68 0.58 0.56 0.56 0.50 0.43 0.40 0.37 0.36 0.31 0.31 0.29 0.26 0.24 0.21 0.17 0.14 0.13 0.11
0.45 0.44 0.50 0.56 0.52 0.48 0.56 0.48 0.43 0.34 0.32 0.44 0.59 0.71 0.83 0.95 1.05 1.32 1.48 1.58 1.40 1.28 1.33 1.37 1.37 1.30 1.12 0.91 0.87 0.88 0.75 0.63 0.60 0.58 0.52 0.50 0.44 0.37 0.34 0.32 0.31 0.29 0.25 0.22 0.23 0.21 0.18 0.16 0.14
0.53 0.58 0.65 0.67 0.62 0.57 0.66 0.70 0.47 0.35 0.39 0.45 0.55 0.68 0.83 1.01 1.18 1.31 1.36 1.52 1.47 1.28 1.26 1.33 1.35 1.42 1.29 1.07 0.93 0.91 0.84 0.73 0.65 0.59 0.62 0.60 0.55 0.45 0.39 0.35 0.32 0.29 0.31 0.28 0.26 0.26 0.22 0.18 0.15
0.88 0.84 0.79 0.66 0.62 0.60 0.77 0.78 0.46 0.37 0.42 0.45 0.50 0.64 0.79 0.97 1.16 1.27 1.29 1.45 1.53 1.44 1.30 1.34 1.36 1.45 1.44 1.26 1.08 0.96 0.91 0.83 0.72 0.63 0.65 0.70 0.68 0.62 0.56 0.51 0.44 0.41 0.42 0.41 0.34 0.30 0.30 0.22 0.18
1.00 0.77 0.58 0.54 0.55 0.61 0.69 0.63 0.50 0.41 0.40 0.46 0.50 0.58 0.77 0.92 1.02 1.14 1.21 1.36 1.50 1.50 1.42 1.38 1.34 1.40 1.48 1.47 1.34 1.17 1.05 0.91 0.82 0.69 0.64 0.69 0.69 0.68 0.64 0.59 0.61 0.62 0.55 0.48 0.44 0.36 0.35 0.32 0.25
0.60 0.45 0.38 0.40 0.43 0.49 0.54 0.48 0.50 0.49 0.45 0.42 0.45 0.50 0.68 0.85 0.88 0.96 1.08 1.30 1.50 1.61 1.50 1.46 1.42 1.44 1.58 1.67 1.64 1.45 1.27 1.10 0.96 0.84 0.74 0.73 0.73 0.73 0.73 0.69 0.70 0.72 0.69 0.62 0.55 0.48 0.42 0.39 0.37
0.45 0.40 0.35 0.27 0.30 0.40 0.43 0.45 0.53 0.56 0.47 0.40 0.42 0.51 0.57 0.70 0.80 0.88 0.99 1.19 1.38 1.63 1.59 1.45 1.48 1.48 1.59 1.70 1.69 1.56 1.35 1.29 1.17 1.04 0.96 0.88 0.83 0.82 0.84 0.81 0.83 0.83 0.81 0.77 0.77 0.75 0.64 0.53 0.52
0.52 0.48 0.42 0.34 0.32 0.41 0.44 0.49 0.49 0.50 0.47 0.40 0.40 0.48 0.46 0.53 0.71 0.83 0.96 1.14 1.22 1.45 1.61 1.51 1.51 1.56 1.51 1.55 1.74 1.85 1.75 1.58 1.45 1.29 1.15 1.04 0.94 0.90 0.88 0.88 0.89 0.88 0.88 0.87 0.84 0.81 0.75 0.69 0.67
0.55 0.43 0.42 0.50 0.50 0.52 0.54 0.58 0.48 0.43 0.43 0.37 0.35 0.41 0.40 0.44 0.62 0.77 0.88 1.13 1.19 1.36 1.57 1.58 1.57 1.63 1.57 1.64 1.98 2.19 2.18 1.90 1.67 1.49 1.31 1.19 1.13 1.08 0.99 0.90 0.88 0.86 0.88 0.87 0.89 0.91 0.92 0.88 0.84
0.61 0.37 0.40 0.54 0.69 0.73 0.57 0.71 0.51 0.45 0.43 0.39 0.34 0.37 0.41 0.46 0.57 0.66 0.76 1.03 1.16 1.30 1.48 1.54 1.65 1.72 1.73 1.77 1.92 1.98 1.90 1.72 1.53 1.52 1.48 1.39 1.31 1.22 1.16 1.09 1.01 0.95 0.91 0.87 0.92 0.97 1.01 1.05 1.00
0.59 0.46 0.51 0.60 0.77 0.76 0.46 0.59 0.53 0.46 0.48 0.49 0.46 0.47 0.51 0.52 0.59 0.68 0.71 0.82 0.99 1.20 1.40 1.44 1.52 1.60 1.68 1.67 1.77 1.95 1.84 1.67 1.58 1.56 1.51 1.43 1.41 1.34 1.26 1.20 1.18 1.13 1.08 1.04 1.05 1.06 1.07 1.08 1.07
0.65 0.77 0.77 0.77 1.00 0.99 0.47 0.48 0.52 0.52 0.54 0.54 0.54 0.54 0.54 0.54 0.60 0.67 0.68 0.73 0.84 1.01 1.27 1.37 1.47 1.55 1.63 1.61 1.64 1.82 1.75 1.58 1.43 1.38 1.40 1.33 1.30 1.24 1.19 1.16 1.15 1.13 1.09 1.07 1.05 1.07 1.07 1.06 1.04
0.98 1.29 1.46 1.36 1.24 0.81 0.38 0.44 0.56 0.52 0.49 0.54 0.60 0.59 0.57 0.55 0.57 0.62 0.67 0.76 0.81 0.92 1.05 1.10 1.20 1.30 1.43 1.48 1.49 1.61 1.65 1.60 1.46 1.29 1.27 1.24 1.18 1.09 1.04 1.05 1.05 1.08 1.07 1.07 1.08 1.07 1.04 1.06 1.05
0.91 1.06 1.19 1.01 0.68 0.44 0.37 0.48 0.53 0.45 0.47 0.53 0.60 0.61 0.55 0.55 0.60 0.59 0.64 0.76 0.83 0.91 0.92 0.86 0.91 1.05 1.15 1.18 1.20 1.30 1.34 1.40 1.39 1.29 1.18 1.15 1.09 1.02 1.00 1.03 1.07 1.12 1.12 1.07 1.07 1.05 1.02 1.04 1.02
0.85 0.83 0.69 0.84 0.62 0.51 0.44 0.44 0.46 0.44 0.47 0.48 0.51 0.55 0.55 0.55 0.56 0.60 0.67 0.73 0.74 0.79 0.80 0.78 0.78 0.84 0.90 1.01 1.03 1.12 1.12 1.13 1.20 1.19 1.13 1.12 1.07 1.00 0.97 1.00 1.00 1.01 1.02 0.99 1.00 0.99 0.94 0.91 0.91
0.71 0.66 0.80 1.13 0.97 0.71 0.44 0.42 0.58 0.50 0.48 0.51 0.51 0.52 0.56 0.54 0.56 0.65 0.73 0.76 0.75 0.75 0.74 0.70 0.71 0.74 0.79 0.87 0.95 1.00 1.01 1.04 1.09 1.08 1.00 0.96 0.95 0.92 0.91 0.92 0.91 0.89 0.88 0.89 0.89 0.87 0.82 0.80 0.76
0.65 0.74 0.83 0.85 0.70 0.73 0.55 0.55 0.53 0.44 0.41 0.43 0.43 0.46 0.49 0.49 0.53 0.62 0.73 0.79 0.77 0.69 0.64 0.64 0.63 0.65 0.69 0.74 0.79 0.82 0.83 0.88 0.96 0.96 0.94 0.89 0.82 0.76 0.76 0.80 0.81 0.76 0.73 0.72 0.73 0.73 0.73 0.73 0.71
0.52 0.54 0.66 0.93 0.67 0.54 0.57 0.57 0.44 0.35 0.31 0.32 0.34 0.36 0.39 0.42 0.47 0.54 0.59 0.62 0.63 0.62 0.62 0.65 0.63 0.63 0.63 0.67 0.71 0.74 0.73 0.71 0.78 0.82 0.85 0.82 0.78 0.72 0.70 0.71 0.73 0.70 0.66 0.63 0.64 0.64 0.65 0.70 0.72

GEFSSGP_prec_meanprecacc_162.txt.gz
Total_Precipitation_Accumulation
0.21 0.22 0.28 0.38 0.31 0.23 0.16 0.06 0.04 0.06 0.06 0.05 0.04 0.04 0.04 0.06 0.11 0.16 0.15 0.12 0.09 0.10 0.17 0.29 0.33 0.34 0.34 0.30 0.22 0.17 0.17 0.21 0.27 0.31 0.30 0.30 0.28 0.22 0.23 0.27 0.30 0.32 0.36 0.34 0.31 0.22 0.15 0.11 0.07
0.20 0.30 0.46 0.51 0.34 0.20 0.11 0.07 0.05 0.06 0.07 0.07 0.06 0.07 0.08 0.10 0.11 0.13 0.18 0.19 0.13 0.14 0.22 0.28 0.36 0.37 0.36 0.32 0.26 0.22 0.19 0.23 0.30 0.33 0.33 0.33 0.30 0.23 0.26 0.30 0.28 0.30 0.30 0.23 0.18 0.14 0.13 0.08 0.06
0.26 0.43 0.65 0.55 0.33 0.20 0.10 0.06 0.07 0.06 0.07 0.09 0.12 0.13 0.17 0.19 0.15 0.18 0.22 0.23 0.20 0.22 0.26 0.34 0.40 0.42 0.41 0.36 0.32 0.27 0.26 0.30 0.35 0.37 0.38 0.36 0.35 0.31 0.31 0.29 0.25 0.24 0.21 0.17 0.13 0.10 0.09 0.07 0.06
0.40 0.66 0.75 0.56 0.29 0.13 0.09 0.06 0.07 0.08 0.08 0.10 0.16 0.23 0.28 0.24 0.20 0.21 0.29 0.26 0.28 0.31 0.37 0.45 0.50 0.52 0.48 0.43 0.38 0.35 0.33 0.34 0.37 0.40 0.42 0.41 0.41 0.41 0.38 0.30 0.22 0.17 0.14 0.12 0.11 0.08 0.06 0.07 0.06
0.64 0.86 0.75 0.50 0.24 0.11 0.07 0.07 0.08 0.10 0.10 0.10 0.17 0.31 0.40 0.34 0.31 0.35 0.36 0.34 0.34 0.38 0.46 0.56 0.64 0.65 0.58 0.51 0.46 0.45 0.45 0.47 0.45 0.42 0.46 0.51 0.48 0.46 0.42 0.30 0.19 0.13 0.11 0.10 0.10 0.09 0.06 0.07 0.07
0.91 0.89 0.71 0.45 0.21 0.10 0.06 0.08 0.10 0.12 0.12 0.13 0.20 0.37 0.51 0.52 0.55 0.59 0.53 0.46 0.43 0.43 0.48 0.60 0.71 0.70 0.63 0.61 0.56 0.52 0.53 0.54 0.54 0.51 0.56 0.62 0.57 0.45 0.40 0.30 0.19 0.14 0.11 0.10 0.10 0.11 0.09 0.09 0.09
0.95 0.78 0.55 0.35 0.20 0.14 0.08 0.07 0.11 0.14 0.14 0.16 0.19 0.43 0.61 0.74 0.82 0.85 0.82 0.75 0.65 0.60 0.65 0.71 0.73 0.69 0.63 0.57 0.55 0.53 0.56 0.54 0.53 0.54 0.56 0.58 0.57 0.46 0.38 0.27 0.21 0.17 0.14 0.14 0.12 0.12 0.11 0.10 0.10
0.93 0.91 0.54 0.33 0.24 0.18 0.13 0.12 0.10 0.14 0.16 0.17 0.23 0.46 0.66 0.81 1.01 1.16 1.13 1.17 1.04 0.88 0.82 0.81 0.85 0.82 0.70 0.61 0.60 0.57 0.54 0.50 0.47 0.47 0.41 0.38 0.37 0.36 0.35 0.24 0.20 0.19 0.18 0.15 0.13 0.12 0.12 0.10 0.07
0.98 1.07 0.60 0.29 0.24 0.21 0.21 0.21 0.14 0.14 0.20 0.25 0.28 0.40 0.63 0.88 1.19 1.48 1.45 1.47 1.40 1.18 1.04 0.95 0.96 0.95 0.88 0.78 0.69 0.66 0.62 0.55 0.48 0.43 0.35 0.35 0.40 0.37 0.29 0.16 0.14 0.16 0.17 0.15 0.13 0.12 0.12 0.09 0.05
1.07 0.92 0.46 0.22 0.21 0.25 0.27 0.28 0.23 0.20 0.26 0.34 0.41 0.48 0.76 1.11 1.37 1.57 1.60 1.47 1.48 1.36 1.17 1.08 1.02 1.01 1.00 0.86 0.75 0.74 0.69 0.61 0.52 0.44 0.41 0.39 0.41 0.39 0.29 0.21 0.14 0.16 0.15 0.14 0.14 0.14 0.13 0.09 0.05
0.83 0.58 0.35 0.27 0.26 0.31 0.35 0.35 0.32 0.30 0.30 0.32 0.39 0.49 0.78 1.18 1.52 1.55 1.70 1.62 1.55 1.56 1.42 1.24 1.13 1.06 1.02 0.99 0.83 0.76 0.69 0.67 0.61 0.52 0.50 0.46 0.49 0.46 0.39 0.33 0.25 0.21 0.16 0.14 0.15 0.15 0.11 0.09 0.10
0.63 0.41 0.39 0.39 0.35 0.41 0.42 0.39 0.35 0.33 0.28 0.30 0.40 0.50 0.73 1.02 1.35 1.56 1.65 1.70 1.55 1.55 1.55 1.34 1.23 1.12 1.06 0.98 0.93 0.83 0.73 0.67 0.62 0.55 0.48 0.50 0.53 0.49 0.40 0.34 0.29 0.26 0.21 0.18 0.17 0.16 0.12 0.11 0.10
0.56 0.44 0.44 0.47 0.45 0.46 0.48 0.44 0.39 0.31 0.28 0.36 0.53 0.68 0.78 0.94 1.16 1.49 1.67 1.71 1.59 1.47 1.57 1.51 1.33 1.21 1.05 0.99 0.99 0.91 0.75 0.65 0.65 0.64 0.57 0.48 0.44 0.43 0.41 0.35 0.34 0.30 0.27 0.25 0.22 0.19 0.15 0.14 0.12
0.49 0.46 0.52 0.57 0.55 0.52 0.60 0.50 0.45 0.36 0.34 0.47 0.63 0.77 0.89 1.01 1.12 1.40 1.58 1.70 1.52 1.37 1.46 1.52 1.46 1.38 1.20 0.99 0.94 0.94 0.82 0.70 0.69 0.68 0.62 0.59 0.51 0.44 0.42 0.36 0.34 0.31 0.27 0.23 0.23 0.21 0.20 0.19 0.15
0.56 0.61 0.67 0.69 0.65 0.61 0.71 0.73 0.49 0.37 0.42 0.49 0.58 0.74 0.90 1.07 1.24 1.38 1.44 1.62 1.60 1.39 1.35 1.46 1.47 1.51 1.38 1.16 1.01 0.98 0.89 0.80 0.74 0.69 0.73 0.71 0.63 0.53 0.48 0.42 0.35 0.32 0.33 0.31 0.27 0.27 0.23 0.18 0.15
0.92 0.88 0.81 0.68 0.66 0.65 0.82 0.83 0.50 0.39 0.45 0.47 0.53 0.67 0.83 1.02 1.20 1.32 1.35 1.51 1.62 1.53 1.39 1.43 1.47 1.58 1.55 1.36 1.17 1.04 0.96 0.87 0.80 0.72 0.74 0.80 0.75 0.68 0.62 0.59 0.50 0.45 0.46 0.46 0.38 0.31 0.30 0.22 0.18
1.03 0.81 0.60 0.55 0.58 0.65 0.73 0.66 0.53 0.43 0.42 0.47 0.52 0.60 0.79 0.94 1.04 1.16 1.24 1.40 1.55 1.57 1.51 1.46 1.42 1.50 1.60 1.59 1.45 1.25 1.11 0.97 0.88 0.76 0.72 0.78 0.78 0.74 0.69 0.65 0.68 0.68 0.60 0.52 0.48 0.38 0.37 0.33 0.26
0.62 0.47 0.39 0.41 0.45 0.51 0.55 0.50 0.52 0.51 0.46 0.42 0.45 0.51 0.70 0.86 0.90 0.97 1.09 1.32 1.52 1.64 1.55 1.53 1.48 1.52 1.65 1.74 1.74 1.56 1.36 1.18 1.03 0.91 0.80 0.79 0.81 0.81 0.80 0.75 0.77 0.79 0.76 0.67 0.58 0.50 0.44 0.40 0.39
0.47 0.41 0.35 0.28 0.30 0.41 0.44 0.46 0.55 0.57 0.48 0.40 0.42 0.51 0.58 0.71 0.81 0.88 1.00 1.20 1.40 1.65 1.61 1.50 1.53 1.53 1.64 1.74 1.73 1.60 1.40 1.35 1.24 1.10 1.02 0.95 0.90 0.90 0.94 0.88 0.90 0.94 0.91 0.86 0.83 0.78 0.67 0.55 0.53
0.53 0.49 0.42 0.34 0.33 0.42 0.45 0.50 0.50 0.51 0.48 0.41 0.41 0.48 0.47 0.53 0.71 0.83 0.96 1.14 1.23 1.46 1.63 1.54 1.55 1.61 1.56 1.59 1.77 1.86 1.76 1.59 1.46 1.31 1.18 1.09 0.99 0.95 0.96 0.97 0.96 0.94 0.98 0.98 0.96 0.89 0.80 0.72 0.69
0.55 0.43 0.42 0.50 0.50 0.52 0.54 0.58 0.48 0.43 0.44 0.38 0.35 0.42 0.40 0.44 0.62 0.77 0.88 1.13 1.19 1.36 1.58 1.61 1.61 1.69 1.61 1.68 2.01 2.21 2.19 1.91 1.68 1.50 1.32 1.20 1.15 1.11 1.03 0.94 0.93 0.90 0.92 0.93 0.97 0.99 1.00 0.94 0.88
0.61 0.37 0.41 0.54 0.70 0.73 0.58 0.71 0.51 0.45 0.43 0.39 0.34 0.37 0.41 0.46 0.57 0.66 0.76 1.03 1.17 1.30 1.49 1.57 1.69 1.77 1.78 1.82 1.96 2.00 1.91 1.73 1.54 1.53 1.48 1.40 1.32 1.24 1.18 1.11 1.03 0.97 0.93 0.89 0.95 1.01 1.05 1.08 1.02
0.59 0.46 0.51 0.60 0.77 0.76 0.47 0.59 0.53 0.46 0.48 0.49 0.47 0.48 0.52 0.53 0.59 0.68 0.72 0.82 0.99 1.20 1.41 1.46 1.56 1.65 1.73 1.72 1.82 1.99 1.87 1.70 1.59 1.57 1.51 1.43 1.42 1.35 1.27 1.21 1.19 1.13 1.08 1.05 1.06 1.07 1.10 1.11 1.09
0.65 0.77 0.77 0.77 1.01 0.99 0.47 0.48 0.52 0.52 0.54 0.54 0.54 0.55 0.55 0.55 0.61 0.67 0.68 0.73 0.85 1.01 1.28 1.38 1.50 1.58 1.67 1.64 1.67 1.84 1.78 1.61 1.45 1.39 1.40 1.34 1.30 1.25 1.19 1.17 1.15 1.13 1.10 1.07 1.06 1.08 1.08 1.08 1.06
0.98 1.29 1.46 1.36 1.24 0.81 0.38 0.44 0.56 0.52 0.49 0.54 0.60 0.60 0.58 0.56 0.58 0.63 0.67 0.76 0.81 0.92 1.05 1.11 1.21 1.32 1.46 1.51 1.50 1.62 1.66 1.61 1.47 1.30 1.28 1.24 1.18 1.09 1.04 1.05 1.05 1.08 1.07 1.07 1.08 1.07 1.04 1.07 1.07
0.91 1.06 1.19 1.01 0.68 0.44 0.37 0.48 0.53 0.45 0.47 0.54 0.60 0.61 0.56 0.57 0.61 0.60 0.65 0.76 0.83 0.91 0.92 0.87 0.91 1.06 1.16 1.20 1.22 1.32 1.35 1.40 1.39 1.29 1.18 1.15 1.09 1.02 1.00 1.03 1.07 1.12 1.12 1.07 1.07 1.05 1.02 1.04 1.03
0.85 0.83 0.69 0.85 0.62 0.51 0.44 0.44 0.46 0.44 0.47 0.49 0.52 0.56 0.56 0.56 0.57 0.61 0.68 0.74 0.75 0.79 0.81 0.79 0.78 0.84 0.91 1.01 1.04 1.12 1.12 1.13 1.20 1.19 1.13 1.12 1.07 1.00 0.97 1.00 1.00 1.01 1.02 0.99 1.00 1.00 0.94 0.91 0.91
0.71 0.66 0.80 1.13 0.98 0.71 0.44 0.42 0.58 0.51 0.48 0.52 0.51 0.53 0.57 0.55 0.57 0.65 0.74 0.77 0.76 0.75 0.74 0.70 0.71 0.74 0.79 0.87 0.95 1.00 1.01 1.04 1.09 1.08 1.00 0.96 0.95 0.92 0.91 0.92 0.91 0.89 0.88 0.89 0.89 0.87 0.82 0.80 0.76
0.65 0.74 0.83 0.86 0.70 0.73 0.56 0.55 0.53 0.45 0.42 0.44 0.44 0.47 0.50 0.50 0.54 0.63 0.74 0.80 0.77 0.69 0.65 0.64 0.63 0.65 0.69 0.75 0.79 0.82 0.83 0.88 0.96 0.96 0.94 0.89 0.82 0.76 0.76 0.80 0.81 0.76 0.73 0.72 0.73 0.73 0.73 0.73 0.71
0.52 0.54 0.66 0.94 0.67 0.55 0.57 0.57 0.44 0.35 0.32 0.33 0.34 0.37 0.40 0.43 0.48 0.55 0.59 0.63 0.63 0.62 0.62 0.65 0.63 0.63 0.63 0.67 0.71 0.74 0.73 0.71 0.78 0.82 0.85 0.82 0.78 0.72 0.70 0.71 0.73 0.70 0.66 0.63 0.64 0.64 0.65 0.70 0.72

GEFSSGP_prec_meanprecacc_168.txt.gz
Total_Precipitation_Accumulation
0.22 0.25 0.32 0.44 0.36 0.25 0.16 0.07 0.04 0.06 0.07 0.05 0.04 0.04 0.04 0.06 0.11 0.17 0.16 0.14 0.10 0.11 0.19 0.32 0.36 0.38 0.38 0.34 0.26 0.18 0.19 0.23 0.28 0.32 0.31 0.31 0.29 0.23 0.24 0.27 0.30 0.33 0.37 0.36 0.32 0.22 0.16 0.12 0.08
0.21 0.32 0.52 0.58 0.39 0.21 0.11 0.07 0.05 0.06 0.07 0.07 0.07 0.07 0.08 0.10 0.11 0.13 0.20 0.22 0.16 0.16 0.24 0.31 0.39 0.41 0.39 0.36 0.30 0.24 0.22 0.26 0.32 0.35 0.35 0.35 0.32 0.24 0.26 0.31 0.29 0.31 0.31 0.23 0.18 0.15 0.13 0.08 0.06
0.27 0.46 0.71 0.61 0.37 0.21 0.10 0.06 0.07 0.06 0.07 0.09 0.13 0.13 0.17 0.19 0.16 0.19 0.23 0.26 0.24 0.25 0.28 0.37 0.45 0.48 0.46 0.40 0.36 0.30 0.28 0.33 0.38 0.39 0.40 0.38 0.37 0.33 0.33 0.30 0.26 0.24 0.22 0.17 0.14 0.11 0.09 0.07 0.06
0.42 0.71 0.82 0.61 0.33 0.15 0.09 0.06 0.07 0.09 0.09 0.10 0.17 0.24 0.28 0.24 0.20 0.22 0.30 0.29 0.33 0.36 0.40 0.50 0.57 0.60 0.55 0.48 0.43 0.40 0.36 0.37 0.40 0.43 0.44 0.43 0.44 0.43 0.40 0.31 0.23 0.18 0.14 0.12 0.12 0.08 0.07 0.07 0.06
0.66 0.93 0.82 0.54 0.28 0.13 0.08 0.08 0.08 0.10 0.10 0.11 0.19 0.32 0.40 0.34 0.32 0.35 0.37 0.37 0.39 0.44 0.49 0.61 0.71 0.72 0.63 0.56 0.51 0.50 0.51 0.51 0.49 0.46 0.49 0.54 0.51 0.48 0.44 0.32 0.20 0.14 0.11 0.10 0.10 0.09 0.07 0.07 0.07
0.95 0.97 0.78 0.49 0.23 0.14 0.09 0.08 0.11 0.12 0.13 0.13 0.21 0.38 0.51 0.53 0.56 0.60 0.54 0.49 0.47 0.50 0.54 0.65 0.76 0.75 0.69 0.66 0.59 0.57 0.62 0.60 0.58 0.55 0.59 0.65 0.60 0.48 0.41 0.31 0.21 0.16 0.13 0.11 0.11 0.11 0.10 0.10 0.10
0.99 0.84 0.61 0.38 0.22 0.17 0.11 0.09 0.12 0.14 0.16 0.18 0.20 0.45 0.61 0.76 0.84 0.86 0.84 0.78 0.69 0.68 0.74 0.78 0.79 0.74 0.69 0.62 0.59 0.57 0.63 0.65 0.60 0.59 0.61 0.62 0.60 0.48 0.40 0.28 0.22 0.18 0.17 0.16 0.13 0.13 0.11 0.11 0.11
0.98 0.97 0.59 0.36 0.26 0.21 0.16 0.14 0.12 0.16 0.18 0.19 0.25 0.47 0.67 0.83 1.03 1.19 1.16 1.22 1.10 0.98 0.94 0.90 0.92 0.88 0.76 0.67 0.65 0.61 0.59 0.58 0.57 0.55 0.48 0.44 0.42 0.39 0.38 0.25 0.21 0.21 0.19 0.17 0.14 0.13 0.13 0.11 0.08
1.03 1.11 0.65 0.33 0.27 0.24 0.23 0.23 0.16 0.15 0.22 0.27 0.29 0.42 0.65 0.90 1.23 1.52 1.50 1.53 1.48 1.29 1.16 1.07 1.07 1.05 0.96 0.86 0.76 0.73 0.68 0.61 0.57 0.51 0.42 0.42 0.46 0.42 0.33 0.19 0.16 0.18 0.19 0.16 0.14 0.13 0.12 0.09 0.05
1.12 0.96 0.50 0.26 0.25 0.28 0.29 0.31 0.25 0.22 0.28 0.35 0.43 0.50 0.79 1.16 1.42 1.64 1.66 1.54 1.57 1.47 1.31 1.21 1.15 1.14 1.12 0.95 0.82 0.82 0.77 0.68 0.59 0.52 0.48 0.45 0.47 0.45 0.35 0.27 0.19 0.19 0.18 0.16 0.16 0.15 0.13 0.09 0.06
0.89 0.62 0.40 0.31 0.30 0.34 0.37 0.37 0.34 0.32 0.33 0.34 0.42 0.52 0.83 1.24 1.59 1.64 1.78 1.70 1.65 1.69 1.59 1.38 1.27 1.21 1.16 1.09 0.90 0.83 0.76 0.73 0.67 0.59 0.56 0.51 0.53 0.51 0.44 0.40 0.30 0.26 0.21 0.19 0.18 0.17 0.12 0.11 0.11
0.70 0.45 0.43 0.43 0.39 0.43 0.44 0.41 0.37 0.35 0.31 0.33 0.43 0.51 0.78 1.10 1.43 1.66 1.75 1.80 1.65 1.68 1.74 1.52 1.37 1.28 1.22 1.10 1.02 0.89 0.79 0.72 0.66 0.60 0.53 0.55 0.59 0.53 0.45 0.40 0.33 0.29 0.23 0.21 0.20 0.19 0.14 0.12 0.11
0.63 0.47 0.48 0.51 0.50 0.50 0.51 0.46 0.41 0.33 0.31 0.38 0.56 0.71 0.84 1.06 1.25 1.58 1.77 1.80 1.69 1.58 1.73 1.70 1.50 1.39 1.24 1.15 1.10 1.00 0.82 0.70 0.69 0.68 0.61 0.53 0.51 0.49 0.46 0.38 0.37 0.33 0.29 0.27 0.25 0.21 0.17 0.15 0.13
0.53 0.49 0.56 0.62 0.61 0.56 0.63 0.52 0.47 0.38 0.38 0.51 0.68 0.81 0.94 1.13 1.24 1.49 1.66 1.77 1.62 1.48 1.59 1.70 1.66 1.58 1.38 1.16 1.08 1.03 0.90 0.77 0.74 0.72 0.65 0.63 0.57 0.51 0.46 0.40 0.36 0.33 0.29 0.26 0.26 0.24 0.21 0.19 0.16
0.60 0.65 0.71 0.74 0.70 0.67 0.76 0.75 0.51 0.39 0.47 0.55 0.65 0.79 0.95 1.15 1.34 1.48 1.50 1.68 1.70 1.51 1.49 1.60 1.66 1.73 1.57 1.33 1.15 1.08 0.96 0.86 0.78 0.73 0.78 0.75 0.68 0.59 0.53 0.46 0.38 0.34 0.35 0.32 0.29 0.29 0.25 0.19 0.16
0.97 0.92 0.86 0.73 0.70 0.69 0.88 0.86 0.51 0.42 0.50 0.53 0.58 0.73 0.89 1.07 1.26 1.39 1.42 1.59 1.73 1.67 1.53 1.56 1.58 1.73 1.74 1.52 1.31 1.17 1.05 0.93 0.83 0.75 0.79 0.87 0.81 0.74 0.69 0.65 0.54 0.48 0.47 0.47 0.40 0.32 0.31 0.23 0.18
1.07 0.86 0.65 0.60 0.62 0.69 0.78 0.70 0.55 0.46 0.46 0.52 0.57 0.65 0.84 0.98 1.09 1.23 1.33 1.48 1.66 1.71 1.69 1.64 1.54 1.60 1.74 1.75 1.60 1.41 1.21 1.02 0.92 0.80 0.75 0.83 0.85 0.81 0.76 0.70 0.72 0.70 0.62 0.53 0.49 0.39 0.37 0.33 0.26
0.63 0.49 0.42 0.44 0.48 0.53 0.57 0.53 0.55 0.53 0.50 0.46 0.49 0.55 0.74 0.90 0.94 1.02 1.16 1.39 1.59 1.73 1.70 1.73 1.66 1.64 1.75 1.87 1.87 1.70 1.48 1.25 1.09 0.95 0.83 0.82 0.86 0.88 0.87 0.81 0.82 0.82 0.79 0.70 0.61 0.52 0.45 0.41 0.39
0.48 0.42 0.36 0.29 0.32 0.43 0.46 0.49 0.58 0.59 0.51 0.44 0.45 0.54 0.60 0.73 0.84 0.91 1.03 1.24 1.43 1.70 1.69 1.64 1.70 1.69 1.75 1.86 1.85 1.72 1.52 1.46 1.33 1.18 1.09 0.99 0.94 0.96 1.01 0.97 0.98 1.01 0.97 0.91 0.88 0.81 0.69 0.56 0.53
0.54 0.50 0.43 0.36 0.35 0.45 0.48 0.53 0.53 0.53 0.50 0.44 0.43 0.51 0.48 0.55 0.73 0.85 0.98 1.16 1.25 1.48 1.66 1.63 1.68 1.72 1.65 1.68 1.89 1.97 1.87 1.69 1.55 1.39 1.25 1.16 1.05 1.01 1.04 1.08 1.06 1.03 1.06 1.05 1.02 0.95 0.84 0.74 0.69
0.56 0.43 0.42 0.51 0.52 0.55 0.56 0.60 0.51 0.45 0.45 0.39 0.37 0.43 0.42 0.46 0.64 0.78 0.89 1.14 1.20 1.38 1.60 1.66 1.69 1.78 1.71 1.77 2.10 2.29 2.27 1.98 1.74 1.55 1.36 1.23 1.18 1.14 1.07 1.02 1.03 1.02 1.03 1.05 1.07 1.09 1.10 0.99 0.89
0.62 0.38 0.41 0.54 0.71 0.76 0.59 0.72 0.52 0.46 0.44 0.39 0.35 0.38 0.42 0.47 0.58 0.67 0.77 1.04 1.17 1.31 1.50 1.58 1.72 1.81 1.83 1.89 2.06 2.08 1.97 1.78 1.58 1.56 1.51 1.43 1.34 1.24 1.19 1.14 1.08 1.04 1.02 1.00 1.07 1.13 1.17 1.19 1.09
0.60 0.46 0.52 0.61 0.77 0.77 0.47 0.60 0.53 0.47 0.49 0.49 0.47 0.48 0.52 0.53 0.60 0.69 0.72 0.83 0.99 1.21 1.42 1.47 1.57 1.67 1.75 1.75 1.87 2.06 1.92 1.73 1.62 1.59 1.54 1.46 1.44 1.36 1.28 1.22 1.21 1.17 1.13 1.10 1.12 1.17 1.20 1.22 1.20
0.65 0.77 0.77 0.77 1.01 1.00 0.47 0.48 0.52 0.53 0.54 0.54 0.54 0.55 0.55 0.55 0.61 0.67 0.68 0.73 0.85 1.02 1.29 1.40 1.51 1.59 1.67 1.65 1.69 1.88 1.83 1.65 1.48 1.42 1.42 1.35 1.32 1.27 1.21 1.18 1.16 1.15 1.12 1.10 1.08 1.11 1.14 1.14 1.13
0.98 1.29 1.46 1.37 1.24 0.81 0.38 0.44 0.56 0.52 0.49 0.54 0.60 0.60 0.58 0.56 0.58 0.63 0.67 0.76 0.81 0.93 1.06 1.12 1.22 1.32 1.46 1.52 1.51 1.63 1.68 1.64 1.50 1.34 1.31 1.27 1.20 1.11 1.06 1.06 1.06 1.09 1.08 1.08 1.09 1.08 1.06 1.09 1.09
0.91 1.06 1.20 1.01 0.68 0.44 0.37 0.49 0.53 0.45 0.47 0.54 0.60 0.62 0.56 0.57 0.61 0.60 0.65 0.76 0.84 0.92 0.93 0.88 0.92 1.06 1.16 1.20 1.22 1.32 1.35 1.41 1.42 1.31 1.20 1.17 1.10 1.03 1.01 1.04 1.08 1.12 1.13 1.07 1.07 1.06 1.03 1.05 1.04
0.85 0.83 0.69 0.85 0.63 0.51 0.44 0.44 0.46 0.44 0.47 0.49 0.52 0.56 0.56 0.56 0.57 0.61 0.68 0.74 0.75 0.80 0.82 0.80 0.79 0.85 0.91 1.02 1.04 1.13 1.13 1.14 1.21 1.20 1.14 1.13 1.09 1.01 0.98 1.01 1.01 1.01 1.02 0.99 1.01 1.00 0.95 0.92 0.92
0.71 0.67 0.81 1.14 0.98 0.71 0.44 0.42 0.58 0.51 0.49 0.53 0.52 0.53 0.57 0.55 0.57 0.65 0.74 0.77 0.76 0.76 0.75 0.71 0.72 0.74 0.79 0.87 0.95 1.00 1.02 1.05 1.09 1.08 1.00 0.96 0.96 0.93 0.92 0.93 0.91 0.89 0.88 0.89 0.89 0.87 0.82 0.80 0.77
0.66 0.74 0.83 0.86 0.71 0.74 0.56 0.55 0.54 0.45 0.42 0.45 0.44 0.47 0.51 0.50 0.54 0.63 0.74 0.80 0.78 0.70 0.65 0.65 0.63 0.65 0.69 0.75 0.80 0.83 0.83 0.88 0.97 0.97 0.94 0.89 0.82 0.76 0.76 0.81 0.81 0.76 0.73 0.72 0.73 0.73 0.73 0.73 0.71
0.52 0.54 0.66 0.94 0.67 0.55 0.58 0.57 0.44 0.35 0.32 0.33 0.35 0.38 0.40 0.43 0.48 0.55 0.59 0.63 0.64 0.63 0.63 0.65 0.64 0.63 0.63 0.68 0.71 0.74 0.73 0.71 0.78 0.83 0.85 0.82 0.78 0.72 0.70 0.71 0.73 0.70 0.66 0.63 0.64 0.64 0.65 0.70 0.72

GEFSSGP_prec_meanprecacc_174.txt.gz
Total_Precipitation_Accumulation
0.23 0.26 0.34 0.48 0.42 0.29 0.17 0.07 0.04 0.06 0.07 0.05 0.04 0.04 0.06 0.08 0.12 0.20 0.19 0.16 0.11 0.11 0.20 0.32 0.37 0.39 0.39 0.36 0.27 0.20 0.21 0.24 0.29 0.34 0.33 0.33 0.31 0.25 0.24 0.28 0.31 0.34 0.39 0.38 0.33 0.23 0.17 0.13 0.09
0.22 0.34 0.54 0.63 0.44 0.24 0.12 0.07 0.05 0.06 0.07 0.07 0.07 0.07 0.09 0.12 0.12 0.14 0.21 0.25 0.17 0.17 0.26 0.33 0.40 0.42 0.40 0.38 0.32 0.27 0.24 0.29 0.34 0.36 0.37 0.37 0.34 0.26 0.28 0.32 0.31 0.33 0.32 0.25 0.19 0.15 0.13 0.09 0.06
0.28 0.48 0.75 0.66 0.41 0.25 0.12 0.07 0.07 0.07 0.08 0.10 0.13 0.13 0.17 0.20 0.16 0.20 0.25 0.29 0.26 0.26 0.31 0.40 0.47 0.50 0.48 0.42 0.38 0.34 0.32 0.36 0.41 0.41 0.43 0.41 0.39 0.36 0.35 0.32 0.29 0.26 0.23 0.18 0.14 0.11 0.10 0.07 0.06
0.44 0.74 0.86 0.64 0.35 0.17 0.12 0.08 0.08 0.09 0.09 0.11 0.17 0.25 0.29 0.25 0.21 0.24 0.32 0.35 0.38 0.38 0.44 0.55 0.63 0.64 0.57 0.51 0.46 0.43 0.40 0.41 0.44 0.46 0.47 0.47 0.47 0.46 0.42 0.34 0.25 0.19 0.15 0.13 0.12 0.08 0.07 0.08 0.07
0.69 0.96 0.86 0.57 0.29 0.15 0.10 0.10 0.10 0.12 0.11 0.12 0.19 0.33 0.41 0.34 0.32 0.38 0.40 0.41 0.46 0.49 0.55 0.68 0.79 0.81 0.67 0.58 0.53 0.53 0.55 0.56 0.53 0.49 0.52 0.57 0.54 0.51 0.46 0.34 0.22 0.16 0.12 0.11 0.11 0.10 0.07 0.08 0.08
0.98 0.99 0.80 0.51 0.25 0.15 0.11 0.11 0.13 0.15 0.15 0.16 0.22 0.39 0.53 0.53 0.57 0.62 0.58 0.54 0.54 0.56 0.61 0.73 0.86 0.85 0.76 0.71 0.62 0.59 0.64 0.63 0.61 0.58 0.62 0.68 0.63 0.51 0.44 0.34 0.23 0.18 0.15 0.13 0.12 0.12 0.11 0.10 0.11
1.04 0.86 0.62 0.39 0.24 0.18 0.13 0.12 0.15 0.17 0.18 0.20 0.21 0.46 0.63 0.77 0.86 0.90 0.89 0.84 0.77 0.75 0.82 0.87 0.89 0.85 0.78 0.70 0.64 0.60 0.66 0.68 0.63 0.62 0.64 0.66 0.64 0.51 0.43 0.31 0.25 0.21 0.19 0.17 0.15 0.14 0.12 0.12 0.12
1.02 0.99 0.60 0.37 0.27 0.22 0.18 0.17 0.16 0.19 0.22 0.23 0.28 0.49 0.70 0.85 1.06 1.23 1.21 1.29 1.18 1.06 1.03 1.03 1.06 1.00 0.85 0.74 0.70 0.65 0.61 0.60 0.60 0.58 0.51 0.48 0.46 0.43 0.42 0.29 0.25 0.23 0.22 0.19 0.16 0.14 0.14 0.11 0.08
1.08 1.15 0.68 0.35 0.29 0.25 0.25 0.26 0.21 0.19 0.28 0.34 0.34 0.45 0.67 0.93 1.26 1.57 1.56 1.60 1.56 1.38 1.27 1.19 1.22 1.22 1.09 0.94 0.81 0.77 0.71 0.64 0.60 0.54 0.45 0.45 0.50 0.47 0.38 0.23 0.21 0.21 0.21 0.19 0.16 0.15 0.14 0.10 0.06
1.17 1.00 0.52 0.27 0.26 0.29 0.31 0.34 0.31 0.28 0.35 0.41 0.49 0.54 0.83 1.21 1.48 1.68 1.71 1.59 1.63 1.56 1.44 1.34 1.27 1.32 1.30 1.05 0.89 0.88 0.82 0.72 0.65 0.56 0.52 0.49 0.52 0.51 0.40 0.31 0.24 0.24 0.21 0.18 0.18 0.17 0.15 0.11 0.08
0.93 0.64 0.41 0.32 0.32 0.36 0.40 0.41 0.40 0.41 0.43 0.42 0.46 0.56 0.87 1.31 1.66 1.70 1.83 1.75 1.70 1.76 1.71 1.51 1.38 1.35 1.35 1.27 1.01 0.90 0.83 0.80 0.75 0.64 0.61 0.57 0.59 0.57 0.51 0.46 0.36 0.32 0.26 0.23 0.22 0.22 0.16 0.14 0.14
0.75 0.49 0.48 0.46 0.42 0.46 0.47 0.46 0.43 0.44 0.43 0.41 0.47 0.55 0.83 1.17 1.50 1.73 1.83 1.86 1.69 1.73 1.84 1.65 1.49 1.40 1.37 1.31 1.19 1.00 0.88 0.80 0.75 0.68 0.58 0.61 0.64 0.58 0.50 0.45 0.38 0.35 0.29 0.25 0.25 0.23 0.18 0.15 0.13
0.67 0.51 0.52 0.54 0.53 0.54 0.56 0.52 0.48 0.42 0.41 0.47 0.62 0.75 0.89 1.10 1.30 1.65 1.86 1.88 1.74 1.62 1.79 1.81 1.66 1.51 1.37 1.34 1.31 1.14 0.92 0.79 0.77 0.76 0.68 0.59 0.56 0.52 0.49 0.42 0.40 0.37 0.34 0.32 0.29 0.25 0.21 0.18 0.15
0.57 0.52 0.59 0.64 0.66 0.63 0.69 0.58 0.55 0.48 0.46 0.60 0.75 0.86 1.00 1.17 1.30 1.57 1.76 1.86 1.68 1.52 1.64 1.77 1.82 1.77 1.56 1.34 1.28 1.20 1.03 0.89 0.85 0.81 0.72 0.70 0.63 0.55 0.50 0.44 0.40 0.37 0.33 0.29 0.29 0.27 0.25 0.23 0.18
0.65 0.70 0.75 0.79 0.77 0.75 0.82 0.81 0.58 0.49 0.56 0.63 0.71 0.84 1.00 1.19 1.41 1.59 1.62 1.80 1.80 1.57 1.54 1.65 1.77 1.92 1.82 1.57 1.39 1.31 1.12 0.97 0.88 0.83 0.85 0.82 0.76 0.65 0.58 0.51 0.42 0.37 0.37 0.35 0.32 0.32 0.27 0.21 0.17
1.03 0.98 0.92 0.80 0.77 0.77 0.97 0.94 0.60 0.51 0.59 0.61 0.64 0.77 0.94 1.12 1.33 1.49 1.54 1.72 1.87 1.77 1.59 1.61 1.64 1.84 1.93 1.78 1.58 1.45 1.28 1.06 0.92 0.84 0.88 0.94 0.89 0.81 0.74 0.70 0.61 0.53 0.50 0.49 0.42 0.34 0.33 0.24 0.20
1.12 0.91 0.72 0.68 0.70 0.77 0.87 0.78 0.63 0.54 0.54 0.59 0.62 0.70 0.88 1.03 1.15 1.29 1.40 1.59 1.81 1.86 1.79 1.70 1.60 1.66 1.86 1.95 1.83 1.64 1.44 1.20 1.04 0.87 0.83 0.91 0.94 0.90 0.83 0.76 0.78 0.76 0.66 0.56 0.51 0.41 0.39 0.34 0.27
0.67 0.53 0.47 0.51 0.54 0.59 0.64 0.59 0.61 0.59 0.54 0.50 0.53 0.60 0.78 0.93 0.97 1.06 1.21 1.46 1.71 1.88 1.82 1.80 1.71 1.70 1.83 2.00 2.05 1.91 1.70 1.44 1.22 1.06 0.92 0.90 0.95 0.96 0.95 0.87 0.87 0.89 0.83 0.74 0.63 0.54 0.47 0.42 0.41
0.51 0.46 0.40 0.32 0.34 0.46 0.51 0.54 0.62 0.62 0.53 0.47 0.48 0.58 0.64 0.76 0.87 0.94 1.08 1.29 1.51 1.80 1.81 1.74 1.76 1.74 1.82 1.97 1.99 1.89 1.74 1.65 1.48 1.30 1.18 1.07 1.00 1.02 1.08 1.03 1.02 1.06 1.01 0.95 0.91 0.83 0.70 0.58 0.55
0.56 0.53 0.46 0.38 0.36 0.47 0.51 0.56 0.56 0.54 0.52 0.46 0.46 0.55 0.54 0.61 0.78 0.90 1.04 1.21 1.31 1.55 1.75 1.71 1.75 1.79 1.74 1.78 2.01 2.11 2.05 1.88 1.71 1.53 1.35 1.24 1.11 1.06 1.10 1.14 1.12 1.07 1.09 1.08 1.05 0.98 0.85 0.76 0.71
0.57 0.45 0.44 0.52 0.54 0.56 0.58 0.62 0.53 0.46 0.46 0.42 0.39 0.47 0.46 0.50 0.68 0.85 0.95 1.18 1.25 1.44 1.67 1.72 1.75 1.84 1.78 1.85 2.18 2.38 2.39 2.13 1.90 1.71 1.49 1.32 1.24 1.19 1.13 1.07 1.08 1.06 1.07 1.08 1.09 1.12 1.12 1.01 0.91
0.64 0.38 0.42 0.55 0.73 0.79 0.61 0.75 0.54 0.47 0.45 0.41 0.37 0.41 0.46 0.49 0.59 0.69 0.80 1.07 1.21 1.34 1.53 1.63 1.76 1.86 1.87 1.94 2.12 2.14 2.04 1.89 1.70 1.70 1.65 1.53 1.41 1.28 1.23 1.18 1.11 1.08 1.06 1.04 1.10 1.16 1.19 1.21 1.11
0.61 0.47 0.52 0.62 0.79 0.79 0.49 0.62 0.55 0.47 0.49 0.50 0.48 0.50 0.54 0.55 0.61 0.70 0.73 0.84 1.01 1.23 1.44 1.50 1.60 1.70 1.78 1.78 1.91 2.11 1.97 1.81 1.71 1.68 1.65 1.59 1.53 1.42 1.31 1.24 1.24 1.19 1.15 1.13 1.15 1.19 1.22 1.24 1.22
0.65 0.78 0.79 0.78 1.02 1.02 0.49 0.50 0.53 0.53 0.55 0.55 0.54 0.55 0.56 0.56 0.61 0.68 0.69 0.74 0.86 1.03 1.30 1.42 1.53 1.61 1.69 1.67 1.71 1.90 1.87 1.70 1.56 1.52 1.51 1.45 1.43 1.34 1.25 1.21 1.19 1.17 1.14 1.12 1.10 1.13 1.17 1.18 1.16
0.98 1.30 1.48 1.38 1.25 0.82 0.38 0.45 0.57 0.52 0.50 0.55 0.60 0.60 0.58 0.57 0.58 0.63 0.68 0.77 0.83 0.95 1.08 1.14 1.24 1.33 1.47 1.53 1.52 1.64 1.71 1.67 1.55 1.42 1.41 1.34 1.27 1.18 1.12 1.10 1.09 1.12 1.11 1.11 1.11 1.10 1.08 1.13 1.14
0.91 1.06 1.21 1.03 0.69 0.45 0.37 0.49 0.53 0.45 0.47 0.54 0.60 0.62 0.56 0.57 0.61 0.60 0.65 0.77 0.84 0.93 0.93 0.89 0.94 1.08 1.16 1.21 1.22 1.32 1.36 1.43 1.45 1.36 1.27 1.25 1.17 1.09 1.06 1.08 1.11 1.14 1.15 1.09 1.09 1.07 1.05 1.07 1.07
0.85 0.83 0.69 0.86 0.63 0.51 0.44 0.44 0.46 0.44 0.48 0.49 0.52 0.56 0.56 0.56 0.57 0.61 0.68 0.74 0.76 0.80 0.82 0.80 0.81 0.87 0.92 1.02 1.04 1.14 1.13 1.15 1.23 1.23 1.18 1.18 1.14 1.07 1.03 1.05 1.04 1.04 1.04 1.01 1.02 1.01 0.96 0.93 0.94
0.71 0.67 0.81 1.14 0.99 0.72 0.44 0.42 0.59 0.51 0.49 0.53 0.52 0.53 0.57 0.55 0.57 0.65 0.74 0.77 0.77 0.76 0.75 0.72 0.73 0.76 0.81 0.88 0.96 1.01 1.02 1.05 1.10 1.10 1.02 0.99 0.99 0.96 0.95 0.97 0.96 0.93 0.91 0.91 0.91 0.88 0.83 0.81 0.78
0.66 0.75 0.84 0.86 0.71 0.74 0.56 0.55 0.54 0.45 0.42 0.45 0.45 0.48 0.51 0.50 0.54 0.63 0.74 0.80 0.78 0.70 0.65 0.66 0.65 0.66 0.71 0.76 0.80 0.83 0.83 0.88 0.97 0.97 0.94 0.90 0.83 0.78 0.77 0.82 0.83 0.79 0.75 0.74 0.75 0.74 0.74 0.74 0.71
0.52 0.54 0.67 0.95 0.68 0.56 0.58 0.58 0.44 0.35 0.32 0.33 0.35 0.38 0.41 0.43 0.48 0.55 0.59 0.63 0.64 0.63 0.63 0.66 0.64 0.64 0.64 0.69 0.72 0.74 0.73 0.72 0.78 0.83 0.85 0.82 0.79 0.73 0.70 0.72 0.74 0.71 0.67 0.64 0.65 0.65 0.66 0.70 0.72

GEFSSGP_prec_meanprecacc_180.txt.gz
Total_Precipitation_Accumulation
0.23 0.27 0.36 0.49 0.43 0.30 0.18 0.07 0.04 0.06 0.07 0.05 0.05 0.05 0.07 0.10 0.15 0.22 0.21 0.18 0.13 0.13 0.22 0.34 0.40 0.41 0.41 0.37 0.28 0.21 0.22 0.25 0.30 0.35 0.34 0.34 0.32 0.25 0.25 0.29 0.33 0.36 0.41 0.39 0.35 0.24 0.18 0.14 0.10
0.22 0.36 0.56 0.64 0.44 0.25 0.12 0.07 0.06 0.07 0.08 0.07 0.07 0.08 0.10 0.14 0.15 0.16 0.24 0.28 0.21 0.20 0.29 0.35 0.44 0.46 0.43 0.41 0.33 0.27 0.25 0.30 0.35 0.37 0.39 0.39 0.35 0.27 0.29 0.33 0.33 0.34 0.34 0.26 0.20 0.16 0.14 0.09 0.07
0.29 0.49 0.77 0.67 0.42 0.25 0.12 0.07 0.07 0.07 0.08 0.10 0.13 0.14 0.19 0.23 0.19 0.23 0.29 0.35 0.37 0.32 0.35 0.43 0.52 0.54 0.52 0.46 0.41 0.35 0.32 0.37 0.42 0.43 0.45 0.42 0.41 0.37 0.37 0.34 0.31 0.28 0.24 0.19 0.15 0.12 0.11 0.08 0.07
0.45 0.76 0.88 0.65 0.35 0.17 0.12 0.09 0.08 0.10 0.10 0.11 0.18 0.26 0.32 0.28 0.24 0.28 0.36 0.40 0.48 0.50 0.51 0.61 0.69 0.70 0.62 0.55 0.49 0.44 0.41 0.42 0.45 0.48 0.49 0.48 0.49 0.48 0.44 0.36 0.27 0.21 0.17 0.14 0.13 0.09 0.08 0.08 0.07
0.70 0.98 0.87 0.57 0.29 0.15 0.10 0.10 0.11 0.12 0.12 0.13 0.21 0.35 0.45 0.38 0.35 0.42 0.45 0.48 0.59 0.60 0.64 0.75 0.86 0.88 0.74 0.63 0.57 0.55 0.56 0.56 0.53 0.51 0.55 0.59 0.56 0.53 0.47 0.35 0.23 0.17 0.13 0.12 0.12 0.11 0.08 0.09 0.08
1.00 1.01 0.81 0.51 0.25 0.15 0.11 0.12 0.14 0.15 0.15 0.17 0.25 0.42 0.56 0.57 0.60 0.66 0.64 0.61 0.71 0.69 0.72 0.80 0.93 0.92 0.83 0.78 0.68 0.63 0.66 0.65 0.62 0.59 0.64 0.71 0.66 0.53 0.46 0.36 0.25 0.19 0.16 0.14 0.13 0.13 0.12 0.11 0.11
1.05 0.87 0.63 0.39 0.24 0.19 0.14 0.12 0.16 0.18 0.20 0.23 0.25 0.50 0.68 0.82 0.91 0.95 0.95 0.91 0.89 0.90 0.94 0.97 0.97 0.92 0.86 0.78 0.72 0.66 0.70 0.70 0.64 0.63 0.65 0.67 0.66 0.54 0.46 0.33 0.27 0.22 0.20 0.18 0.16 0.15 0.13 0.13 0.12
1.05 1.01 0.60 0.37 0.28 0.22 0.18 0.18 0.16 0.20 0.24 0.27 0.33 0.55 0.76 0.92 1.12 1.30 1.27 1.36 1.28 1.23 1.19 1.13 1.15 1.07 0.94 0.83 0.79 0.72 0.68 0.65 0.62 0.60 0.52 0.49 0.47 0.45 0.44 0.31 0.27 0.25 0.24 0.21 0.18 0.16 0.15 0.13 0.09
1.11 1.17 0.68 0.35 0.30 0.26 0.25 0.27 0.22 0.20 0.29 0.39 0.41 0.51 0.75 1.02 1.34 1.64 1.63 1.69 1.67 1.53 1.47 1.32 1.30 1.29 1.19 1.06 0.92 0.87 0.79 0.71 0.64 0.56 0.47 0.47 0.52 0.48 0.40 0.25 0.23 0.24 0.23 0.20 0.18 0.17 0.16 0.11 0.07
1.20 1.01 0.53 0.27 0.27 0.30 0.31 0.35 0.33 0.31 0.37 0.46 0.57 0.63 0.94 1.33 1.61 1.78 1.80 1.68 1.72 1.67 1.63 1.49 1.37 1.39 1.39 1.17 1.05 1.03 0.92 0.79 0.70 0.59 0.53 0.50 0.53 0.52 0.42 0.33 0.25 0.26 0.23 0.20 0.20 0.19 0.17 0.13 0.08
0.96 0.66 0.43 0.33 0.32 0.37 0.40 0.42 0.43 0.44 0.46 0.47 0.54 0.65 0.99 1.44 1.81 1.85 1.96 1.85 1.78 1.84 1.83 1.68 1.50 1.42 1.45 1.40 1.17 1.09 0.96 0.88 0.81 0.69 0.63 0.58 0.60 0.59 0.53 0.48 0.37 0.34 0.28 0.26 0.25 0.24 0.18 0.15 0.14
0.79 0.53 0.49 0.48 0.43 0.48 0.49 0.48 0.46 0.47 0.46 0.46 0.57 0.67 0.95 1.31 1.64 1.87 1.97 2.01 1.78 1.79 1.91 1.79 1.61 1.48 1.44 1.42 1.34 1.16 1.04 0.93 0.83 0.73 0.61 0.63 0.65 0.60 0.53 0.47 0.40 0.36 0.30 0.28 0.28 0.25 0.20 0.17 0.14
0.70 0.54 0.54 0.56 0.54 0.56 0.59 0.54 0.51 0.46 0.45 0.53 0.73 0.92 1.05 1.23 1.43 1.77 1.97 2.01 1.86 1.71 1.85 1.90 1.76 1.59 1.44 1.40 1.40 1.28 1.04 0.90 0.89 0.84 0.72 0.61 0.57 0.54 0.51 0.44 0.42 0.39 0.35 0.34 0.31 0.27 0.23 0.20 0.17
0.59 0.55 0.60 0.66 0.67 0.65 0.72 0.62 0.60 0.53 0.53 0.69 0.86 1.01 1.18 1.31 1.43 1.70 1.86 1.97 1.80 1.64 1.73 1.86 1.93 1.86 1.64 1.42 1.34 1.31 1.17 1.01 0.96 0.92 0.80 0.75 0.65 0.56 0.51 0.44 0.41 0.38 0.34 0.31 0.32 0.30 0.27 0.24 0.20
0.67 0.72 0.77 0.80 0.78 0.76 0.84 0.83 0.63 0.57 0.66 0.73 0.81 0.96 1.15 1.34 1.57 1.71 1.71 1.89 1.92 1.72 1.66 1.76 1.90 2.02 1.91 1.67 1.46 1.39 1.25 1.11 1.01 0.95 0.96 0.90 0.81 0.68 0.60 0.52 0.43 0.38 0.39 0.36 0.34 0.36 0.30 0.23 0.19
1.06 1.01 0.94 0.81 0.78 0.78 0.98 0.97 0.64 0.58 0.69 0.72 0.75 0.91 1.08 1.26 1.48 1.63 1.65 1.80 1.99 1.95 1.81 1.81 1.80 1.95 2.03 1.90 1.68 1.52 1.38 1.21 1.06 0.95 0.98 1.02 0.94 0.85 0.77 0.71 0.61 0.54 0.51 0.51 0.43 0.37 0.36 0.27 0.22
1.14 0.93 0.74 0.70 0.72 0.79 0.90 0.82 0.68 0.59 0.61 0.68 0.72 0.83 1.03 1.15 1.27 1.42 1.53 1.68 1.90 2.01 1.99 1.95 1.83 1.79 1.93 2.02 1.93 1.73 1.51 1.31 1.17 0.99 0.92 0.99 1.02 0.96 0.88 0.79 0.79 0.78 0.68 0.58 0.53 0.42 0.40 0.36 0.28
0.69 0.55 0.49 0.54 0.57 0.62 0.68 0.63 0.66 0.65 0.62 0.59 0.61 0.69 0.90 1.04 1.08 1.15 1.31 1.57 1.79 1.98 1.96 1.96 1.90 1.85 1.92 2.06 2.11 1.99 1.77 1.53 1.32 1.16 1.02 0.98 1.03 1.05 1.01 0.92 0.89 0.90 0.87 0.77 0.66 0.56 0.49 0.44 0.42
0.52 0.48 0.43 0.35 0.37 0.51 0.55 0.59 0.68 0.69 0.60 0.54 0.55 0.65 0.73 0.86 0.96 1.01 1.15 1.38 1.58 1.86 1.90 1.86 1.90 1.88 1.91 2.04 2.04 1.93 1.79 1.72 1.57 1.39 1.28 1.18 1.09 1.10 1.15 1.09 1.06 1.09 1.05 0.98 0.94 0.86 0.73 0.59 0.56
0.57 0.54 0.48 0.40 0.39 0.51 0.55 0.61 0.61 0.61 0.58 0.53 0.53 0.61 0.61 0.70 0.87 0.97 1.10 1.27 1.36 1.60 1.80 1.80 1.86 1.90 1.81 1.83 2.05 2.14 2.07 1.91 1.77 1.61 1.44 1.34 1.21 1.15 1.18 1.22 1.18 1.12 1.15 1.13 1.09 1.01 0.89 0.78 0.73
0.58 0.45 0.45 0.54 0.55 0.59 0.61 0.65 0.56 0.51 0.51 0.49 0.47 0.52 0.52 0.58 0.76 0.90 1.00 1.23 1.32 1.50 1.73 1.79 1.84 1.93 1.85 1.91 2.24 2.43 2.42 2.16 1.95 1.78 1.56 1.41 1.34 1.28 1.20 1.14 1.15 1.12 1.13 1.15 1.16 1.17 1.16 1.05 0.95
0.64 0.39 0.42 0.56 0.75 0.82 0.63 0.77 0.56 0.51 0.49 0.48 0.45 0.46 0.51 0.55 0.65 0.74 0.83 1.10 1.24 1.38 1.57 1.66 1.81 1.93 1.93 1.98 2.18 2.21 2.08 1.93 1.76 1.77 1.71 1.60 1.50 1.37 1.30 1.24 1.18 1.14 1.12 1.09 1.16 1.21 1.22 1.24 1.14
0.61 0.48 0.53 0.63 0.81 0.82 0.51 0.65 0.57 0.50 0.53 0.56 0.52 0.53 0.58 0.58 0.64 0.72 0.76 0.86 1.03 1.24 1.46 1.51 1.62 1.76 1.85 1.83 1.96 2.17 2.03 1.85 1.74 1.73 1.70 1.64 1.60 1.50 1.38 1.30 1.29 1.25 1.21 1.18 1.19 1.24 1.25 1.26 1.24
0.66 0.79 0.80 0.80 1.06 1.05 0.50 0.53 0.55 0.55 0.56 0.57 0.57 0.57 0.57 0.57 0.63 0.69 0.70 0.75 0.87 1.04 1.31 1.43 1.55 1.65 1.77 1.75 1.78 1.98 1.93 1.75 1.60 1.55 1.56 1.51 1.49 1.44 1.34 1.27 1.23 1.22 1.19 1.17 1.14 1.17 1.20 1.20 1.18
0.99 1.32 1.51 1.40 1.28 0.84 0.40 0.48 0.59 0.53 0.50 0.55 0.62 0.61 0.59 0.57 0.59 0.64 0.68 0.78 0.84 0.96 1.09 1.15 1.25 1.36 1.52 1.59 1.58 1.69 1.75 1.72 1.60 1.47 1.45 1.40 1.34 1.27 1.23 1.20 1.16 1.18 1.16 1.16 1.16 1.14 1.11 1.16 1.16
0.92 1.08 1.22 1.04 0.70 0.45 0.37 0.50 0.54 0.46 0.47 0.54 0.61 0.62 0.56 0.57 0.61 0.60 0.65 0.77 0.85 0.93 0.94 0.90 0.95 1.10 1.19 1.24 1.26 1.36 1.39 1.46 1.48 1.40 1.31 1.29 1.23 1.16 1.15 1.21 1.22 1.23 1.22 1.16 1.15 1.12 1.09 1.11 1.10
0.86 0.85 0.70 0.86 0.63 0.52 0.44 0.44 0.46 0.44 0.48 0.49 0.52 0.56 0.56 0.57 0.57 0.61 0.68 0.74 0.76 0.80 0.83 0.81 0.82 0.88 0.93 1.03 1.06 1.15 1.15 1.17 1.25 1.25 1.21 1.22 1.18 1.11 1.08 1.13 1.15 1.14 1.13 1.08 1.08 1.06 1.00 0.97 0.97
0.72 0.67 0.81 1.15 1.00 0.72 0.44 0.42 0.59 0.51 0.49 0.53 0.52 0.53 0.57 0.55 0.58 0.65 0.74 0.78 0.77 0.77 0.76 0.73 0.74 0.77 0.82 0.89 0.97 1.02 1.03 1.07 1.11 1.11 1.05 1.02 1.02 1.00 0.99 1.02 1.03 1.01 1.00 0.99 0.98 0.94 0.87 0.85 0.81
0.66 0.75 0.84 0.87 0.72 0.75 0.57 0.55 0.54 0.45 0.42 0.45 0.45 0.48 0.51 0.50 0.54 0.63 0.74 0.80 0.78 0.70 0.66 0.66 0.65 0.67 0.72 0.77 0.81 0.84 0.84 0.89 0.98 0.98 0.95 0.92 0.86 0.80 0.80 0.86 0.89 0.85 0.82 0.82 0.83 0.81 0.80 0.78 0.75
0.52 0.54 0.67 0.95 0.68 0.56 0.59 0.58 0.44 0.35 0.32 0.33 0.35 0.38 0.41 0.43 0.48 0.55 0.60 0.63 0.64 0.63 0.63 0.66 0.65 0.65 0.65 0.70 0.74 0.76 0.74 0.72 0.79 0.83 0.85 0.82 0.79 0.74 0.72 0.74 0.77 0.75 0.71 0.70 0.71 0.71 0.72 0.75 0.76

GEFSSGP_prec_meanprecacc_186.txt.gz
Total_Precipitation_Accumulation
0.23 0.28 0.37 0.50 0.44 0.30 0.18 0.07 0.04 0.06 0.07 0.05 0.05 0.05 0.07 0.10 0.15 0.23 0.21 0.18 0.14 0.16 0.26 0.38 0.44 0.47 0.48 0.43 0.31 0.22 0.22 0.26 0.31 0.36 0.35 0.35 0.33 0.27 0.26 0.30 0.34 0.38 0.43 0.41 0.37 0.26 0.20 0.16 0.12
0.23 0.36 0.57 0.66 0.45 0.25 0.12 0.07 0.06 0.07 0.08 0.08 0.07 0.08 0.10 0.14 0.15 0.17 0.24 0.28 0.22 0.23 0.35 0.39 0.48 0.51 0.50 0.48 0.38 0.30 0.27 0.30 0.35 0.38 0.40 0.40 0.37 0.29 0.30 0.34 0.35 0.37 0.36 0.28 0.23 0.18 0.16 0.11 0.08
0.30 0.51 0.78 0.68 0.42 0.25 0.12 0.07 0.07 0.07 0.08 0.10 0.14 0.14 0.19 0.23 0.19 0.23 0.29 0.36 0.38 0.35 0.44 0.51 0.57 0.59 0.58 0.53 0.48 0.41 0.36 0.38 0.43 0.43 0.46 0.44 0.43 0.39 0.38 0.36 0.33 0.30 0.26 0.21 0.18 0.14 0.12 0.10 0.08
0.46 0.77 0.89 0.67 0.36 0.17 0.12 0.09 0.08 0.10 0.10 0.11 0.18 0.26 0.32 0.29 0.24 0.28 0.37 0.41 0.49 0.52 0.60 0.72 0.76 0.77 0.69 0.62 0.57 0.52 0.47 0.45 0.47 0.48 0.50 0.49 0.50 0.49 0.46 0.37 0.28 0.22 0.18 0.16 0.15 0.11 0.10 0.10 0.09
0.72 1.00 0.89 0.58 0.29 0.15 0.10 0.10 0.11 0.12 0.12 0.13 0.21 0.35 0.46 0.39 0.36 0.43 0.46 0.51 0.61 0.62 0.73 0.91 0.97 0.95 0.80 0.71 0.65 0.63 0.63 0.62 0.57 0.52 0.55 0.60 0.57 0.54 0.49 0.36 0.25 0.19 0.15 0.14 0.13 0.12 0.10 0.10 0.10
1.02 1.03 0.83 0.52 0.25 0.15 0.11 0.12 0.14 0.16 0.16 0.18 0.26 0.42 0.57 0.58 0.61 0.67 0.67 0.65 0.75 0.72 0.81 0.99 1.07 0.99 0.90 0.85 0.77 0.72 0.75 0.72 0.67 0.61 0.65 0.72 0.67 0.55 0.47 0.37 0.26 0.21 0.17 0.15 0.14 0.15 0.13 0.13 0.13
1.08 0.89 0.64 0.40 0.24 0.19 0.14 0.12 0.16 0.18 0.21 0.23 0.27 0.51 0.69 0.84 0.93 0.98 0.99 0.96 0.94 0.95 1.02 1.15 1.12 1.02 0.92 0.83 0.80 0.75 0.79 0.81 0.73 0.67 0.67 0.69 0.67 0.55 0.48 0.34 0.28 0.24 0.22 0.20 0.17 0.16 0.15 0.14 0.14
1.08 1.03 0.62 0.38 0.28 0.22 0.19 0.18 0.17 0.20 0.25 0.27 0.34 0.58 0.77 0.94 1.16 1.35 1.32 1.41 1.33 1.29 1.27 1.28 1.28 1.17 1.02 0.88 0.86 0.81 0.76 0.75 0.74 0.69 0.57 0.52 0.49 0.46 0.45 0.32 0.29 0.26 0.25 0.22 0.19 0.17 0.17 0.14 0.10
1.14 1.20 0.70 0.36 0.30 0.26 0.25 0.27 0.22 0.20 0.30 0.40 0.42 0.54 0.79 1.07 1.41 1.73 1.70 1.76 1.73 1.60 1.56 1.42 1.42 1.35 1.26 1.12 0.99 0.95 0.87 0.78 0.75 0.69 0.58 0.52 0.55 0.51 0.42 0.26 0.24 0.25 0.24 0.22 0.19 0.18 0.17 0.13 0.08
1.23 1.04 0.55 0.29 0.27 0.30 0.32 0.35 0.33 0.31 0.38 0.47 0.58 0.65 0.98 1.40 1.71 1.90 1.88 1.76 1.81 1.75 1.72 1.58 1.46 1.44 1.44 1.22 1.10 1.11 1.00 0.87 0.78 0.69 0.67 0.60 0.57 0.55 0.45 0.35 0.26 0.28 0.24 0.21 0.21 0.20 0.18 0.14 0.10
0.99 0.68 0.45 0.35 0.34 0.38 0.41 0.43 0.43 0.45 0.47 0.48 0.55 0.66 1.03 1.53 1.96 2.02 2.10 1.96 1.88 1.96 1.93 1.79 1.59 1.48 1.50 1.44 1.21 1.15 1.04 0.96 0.89 0.78 0.75 0.71 0.67 0.62 0.56 0.50 0.39 0.36 0.29 0.27 0.26 0.25 0.19 0.17 0.16
0.82 0.55 0.51 0.50 0.45 0.50 0.50 0.49 0.48 0.48 0.48 0.48 0.58 0.69 0.99 1.39 1.80 2.09 2.19 2.18 1.91 1.94 2.04 1.93 1.74 1.56 1.50 1.47 1.40 1.22 1.10 0.98 0.89 0.80 0.71 0.75 0.74 0.65 0.55 0.49 0.42 0.38 0.32 0.29 0.28 0.26 0.20 0.17 0.15
0.72 0.57 0.57 0.59 0.58 0.60 0.61 0.57 0.54 0.49 0.47 0.55 0.76 0.96 1.12 1.33 1.59 1.98 2.25 2.26 2.04 1.87 2.03 2.05 1.92 1.69 1.50 1.46 1.46 1.35 1.11 0.95 0.93 0.91 0.81 0.71 0.67 0.59 0.54 0.46 0.44 0.40 0.37 0.35 0.32 0.28 0.23 0.21 0.18
0.61 0.57 0.64 0.70 0.72 0.70 0.76 0.65 0.64 0.58 0.56 0.73 0.91 1.06 1.26 1.42 1.58 1.89 2.12 2.22 2.03 1.82 1.90 2.03 2.10 1.97 1.70 1.47 1.38 1.37 1.25 1.06 1.00 0.97 0.88 0.86 0.76 0.64 0.55 0.47 0.43 0.40 0.36 0.32 0.32 0.30 0.27 0.25 0.20
0.68 0.74 0.80 0.84 0.81 0.78 0.86 0.85 0.65 0.62 0.71 0.79 0.87 1.02 1.21 1.44 1.72 1.92 1.96 2.11 2.16 1.94 1.85 1.93 2.08 2.15 1.99 1.73 1.52 1.45 1.33 1.17 1.05 1.00 1.03 1.01 0.92 0.78 0.66 0.56 0.45 0.40 0.40 0.37 0.35 0.36 0.31 0.24 0.21
1.08 1.02 0.97 0.84 0.79 0.79 1.00 0.98 0.66 0.62 0.74 0.79 0.84 0.98 1.15 1.34 1.62 1.84 1.91 2.03 2.22 2.20 2.05 1.99 1.97 2.10 2.12 1.96 1.75 1.59 1.47 1.29 1.11 0.98 1.02 1.09 1.04 0.94 0.84 0.76 0.65 0.56 0.53 0.52 0.44 0.37 0.37 0.28 0.23
1.16 0.94 0.76 0.72 0.73 0.80 0.91 0.83 0.69 0.62 0.64 0.73 0.80 0.91 1.11 1.22 1.38 1.58 1.74 1.95 2.13 2.25 2.27 2.20 2.04 1.98 2.05 2.09 2.00 1.81 1.61 1.42 1.25 1.04 0.95 1.03 1.09 1.03 0.93 0.84 0.84 0.82 0.71 0.60 0.54 0.43 0.41 0.37 0.30
0.69 0.55 0.49 0.55 0.58 0.64 0.69 0.64 0.68 0.68 0.65 0.63 0.69 0.75 0.95 1.08 1.14 1.28 1.49 1.80 2.04 2.22 2.20 2.19 2.13 2.08 2.11 2.18 2.18 2.04 1.83 1.60 1.42 1.24 1.07 1.04 1.09 1.13 1.08 0.96 0.93 0.95 0.90 0.79 0.67 0.57 0.49 0.45 0.43
0.52 0.48 0.43 0.35 0.38 0.52 0.57 0.61 0.70 0.72 0.64 0.59 0.61 0.69 0.77 0.90 1.00 1.10 1.28 1.54 1.77 2.07 2.11 2.03 2.03 1.99 2.04 2.15 2.13 2.01 1.84 1.76 1.62 1.46 1.34 1.23 1.15 1.16 1.22 1.14 1.10 1.12 1.09 1.01 0.95 0.87 0.73 0.60 0.58
0.57 0.55 0.49 0.41 0.41 0.55 0.59 0.65 0.64 0.64 0.62 0.56 0.56 0.63 0.65 0.75 0.91 1.02 1.18 1.39 1.50 1.76 1.99 1.98 2.00 2.00 1.89 1.90 2.10 2.20 2.13 1.96 1.81 1.64 1.47 1.37 1.25 1.20 1.24 1.28 1.25 1.17 1.19 1.17 1.11 1.02 0.90 0.79 0.74
0.59 0.46 0.46 0.55 0.58 0.63 0.65 0.69 0.59 0.53 0.55 0.51 0.49 0.54 0.56 0.62 0.80 0.95 1.06 1.32 1.42 1.62 1.88 1.98 2.02 2.07 1.95 1.99 2.29 2.46 2.46 2.20 1.99 1.80 1.59 1.44 1.37 1.32 1.24 1.20 1.22 1.20 1.21 1.22 1.19 1.19 1.18 1.08 0.97
0.65 0.39 0.43 0.58 0.78 0.85 0.66 0.79 0.58 0.53 0.51 0.50 0.46 0.48 0.53 0.58 0.70 0.78 0.89 1.17 1.32 1.46 1.68 1.80 1.98 2.10 2.08 2.09 2.26 2.26 2.13 1.97 1.79 1.80 1.74 1.63 1.53 1.41 1.34 1.28 1.22 1.20 1.19 1.17 1.22 1.24 1.25 1.27 1.18
0.61 0.48 0.54 0.64 0.84 0.85 0.53 0.67 0.58 0.51 0.55 0.57 0.55 0.56 0.61 0.61 0.69 0.77 0.81 0.93 1.10 1.31 1.53 1.60 1.73 1.89 1.97 1.94 2.05 2.25 2.09 1.89 1.78 1.75 1.72 1.66 1.62 1.52 1.41 1.32 1.31 1.28 1.24 1.21 1.23 1.28 1.28 1.28 1.27
0.66 0.80 0.81 0.80 1.07 1.07 0.52 0.55 0.56 0.56 0.57 0.58 0.59 0.61 0.61 0.61 0.68 0.74 0.75 0.82 0.94 1.09 1.36 1.49 1.61 1.73 1.85 1.84 1.87 2.06 1.99 1.80 1.63 1.57 1.57 1.52 1.51 1.45 1.35 1.28 1.25 1.23 1.21 1.19 1.15 1.19 1.22 1.22 1.19
1.00 1.33 1.52 1.41 1.29 0.85 0.40 0.48 0.59 0.53 0.50 0.56 0.64 0.63 0.61 0.59 0.62 0.68 0.73 0.83 0.89 1.00 1.12 1.19 1.28 1.39 1.56 1.64 1.64 1.78 1.81 1.76 1.62 1.49 1.47 1.41 1.36 1.29 1.24 1.22 1.17 1.18 1.17 1.17 1.17 1.15 1.12 1.17 1.18
0.92 1.09 1.24 1.05 0.70 0.46 0.37 0.50 0.54 0.46 0.48 0.54 0.61 0.63 0.57 0.58 0.63 0.63 0.68 0.80 0.89 0.98 0.97 0.92 0.96 1.11 1.21 1.28 1.31 1.42 1.46 1.51 1.51 1.42 1.33 1.31 1.25 1.17 1.16 1.22 1.23 1.23 1.23 1.17 1.17 1.14 1.10 1.11 1.10
0.86 0.86 0.71 0.88 0.65 0.52 0.44 0.44 0.47 0.44 0.48 0.49 0.52 0.56 0.57 0.57 0.58 0.62 0.70 0.76 0.79 0.85 0.85 0.83 0.83 0.89 0.94 1.05 1.09 1.19 1.20 1.22 1.29 1.28 1.23 1.24 1.21 1.13 1.10 1.15 1.16 1.14 1.14 1.09 1.10 1.09 1.03 0.99 0.99
0.72 0.68 0.83 1.16 1.01 0.73 0.44 0.42 0.59 0.51 0.49 0.53 0.52 0.53 0.57 0.55 0.58 0.66 0.75 0.79 0.78 0.80 0.79 0.74 0.75 0.78 0.83 0.90 0.98 1.03 1.06 1.09 1.14 1.14 1.06 1.04 1.04 1.02 1.01 1.05 1.05 1.03 1.01 1.00 0.99 0.96 0.91 0.89 0.85
0.66 0.76 0.84 0.87 0.72 0.76 0.57 0.55 0.54 0.45 0.42 0.45 0.45 0.48 0.51 0.50 0.54 0.63 0.74 0.81 0.79 0.72 0.68 0.68 0.66 0.68 0.72 0.77 0.82 0.85 0.85 0.91 1.00 1.00 0.98 0.93 0.87 0.82 0.82 0.90 0.92 0.88 0.84 0.83 0.85 0.83 0.82 0.82 0.80
0.52 0.54 0.67 0.95 0.68 0.56 0.60 0.58 0.44 0.35 0.32 0.34 0.35 0.38 0.41 0.43 0.48 0.55 0.60 0.63 0.64 0.64 0.64 0.67 0.65 0.65 0.65 0.70 0.74 0.77 0.75 0.73 0.80 0.85 0.88 0.85 0.81 0.76 0.74 0.76 0.81 0.79 0.74 0.72 0.73 0.74 0.75 0.79 0.79

GEFSSGP_prec_meanprecacc_192.txt.gz
Total_Precipitation_Accumulation
0.24 0.28 0.37 0.51 0.44 0.31 0.18 0.07 0.04 0.06 0.07 0.05 0.05 0.05 0.07 0.10 0.16 0.23 0.22 0.19 0.14 0.16 0.26 0.40 0.47 0.50 0.52 0.48 0.38 0.27 0.26 0.30 0.35 0.38 0.38 0.38 0.35 0.28 0.27 0.31 0.35 0.39 0.45 0.44 0.40 0.28 0.21 0.18 0.13
0.24 0.37 0.58 0.67 0.46 0.25 0.12 0.07 0.06 0.07 0.08 0.08 0.07 0.08 0.10 0.14 0.15 0.17 0.24 0.29 0.23 0.23 0.35 0.41 0.50 0.53 0.54 0.53 0.45 0.37 0.32 0.35 0.39 0.41 0.43 0.43 0.39 0.31 0.32 0.35 0.35 0.38 0.39 0.31 0.26 0.21 0.18 0.13 0.10
0.31 0.52 0.79 0.69 0.43 0.25 0.12 0.07 0.07 0.07 0.08 0.10 0.14 0.14 0.19 0.23 0.19 0.23 0.30 0.36 0.38 0.36 0.44 0.54 0.60 0.61 0.61 0.57 0.52 0.46 0.42 0.44 0.47 0.47 0.48 0.45 0.45 0.41 0.40 0.37 0.33 0.31 0.28 0.25 0.21 0.17 0.14 0.11 0.10
0.47 0.78 0.90 0.67 0.36 0.17 0.12 0.09 0.08 0.10 0.10 0.11 0.18 0.27 0.32 0.29 0.24 0.29 0.37 0.41 0.49 0.52 0.60 0.76 0.81 0.80 0.72 0.66 0.62 0.57 0.52 0.52 0.53 0.53 0.54 0.52 0.52 0.51 0.47 0.39 0.30 0.23 0.20 0.20 0.18 0.13 0.11 0.12 0.10
0.73 1.01 0.90 0.59 0.30 0.15 0.10 0.10 0.11 0.13 0.12 0.14 0.21 0.35 0.46 0.39 0.36 0.44 0.47 0.51 0.61 0.62 0.74 0.94 1.03 1.00 0.84 0.74 0.70 0.69 0.68 0.67 0.63 0.60 0.62 0.65 0.60 0.56 0.50 0.38 0.26 0.20 0.16 0.17 0.17 0.14 0.12 0.12 0.11
1.04 1.06 0.85 0.53 0.25 0.15 0.11 0.12 0.14 0.16 0.16 0.18 0.26 0.42 0.57 0.58 0.61 0.68 0.67 0.66 0.76 0.73 0.82 1.02 1.14 1.06 0.94 0.89 0.81 0.81 0.83 0.78 0.73 0.71 0.77 0.80 0.72 0.57 0.49 0.39 0.28 0.22 0.18 0.18 0.18 0.16 0.15 0.14 0.14
1.10 0.92 0.66 0.41 0.24 0.19 0.14 0.13 0.16 0.18 0.21 0.24 0.27 0.52 0.69 0.84 0.95 1.00 1.00 0.98 0.95 0.96 1.04 1.17 1.19 1.11 0.98 0.87 0.83 0.83 0.89 0.90 0.80 0.74 0.77 0.80 0.76 0.61 0.50 0.37 0.30 0.25 0.23 0.22 0.19 0.18 0.16 0.15 0.15
1.10 1.05 0.65 0.40 0.29 0.23 0.19 0.19 0.17 0.21 0.25 0.28 0.35 0.58 0.78 0.96 1.18 1.37 1.34 1.43 1.36 1.33 1.31 1.31 1.33 1.25 1.09 0.92 0.90 0.85 0.83 0.82 0.82 0.77 0.65 0.61 0.60 0.54 0.49 0.34 0.30 0.28 0.26 0.23 0.20 0.19 0.17 0.15 0.12
1.16 1.22 0.72 0.39 0.32 0.27 0.26 0.28 0.23 0.21 0.30 0.41 0.43 0.55 0.81 1.10 1.44 1.76 1.74 1.80 1.78 1.66 1.62 1.48 1.48 1.42 1.33 1.17 1.03 0.99 0.90 0.82 0.80 0.76 0.65 0.62 0.64 0.59 0.47 0.28 0.25 0.27 0.26 0.23 0.20 0.19 0.18 0.14 0.09
1.26 1.06 0.56 0.31 0.29 0.32 0.33 0.36 0.34 0.32 0.38 0.48 0.60 0.66 1.00 1.43 1.75 1.94 1.93 1.80 1.85 1.81 1.78 1.64 1.53 1.51 1.51 1.27 1.14 1.15 1.03 0.89 0.82 0.75 0.73 0.69 0.66 0.63 0.51 0.38 0.28 0.29 0.26 0.23 0.23 0.22 0.20 0.15 0.11
1.01 0.70 0.46 0.37 0.36 0.40 0.42 0.44 0.45 0.47 0.48 0.50 0.57 0.68 1.05 1.56 2.00 2.06 2.15 2.03 1.94 2.04 2.01 1.87 1.68 1.57 1.57 1.51 1.24 1.18 1.07 0.99 0.93 0.82 0.80 0.76 0.75 0.69 0.62 0.56 0.42 0.38 0.31 0.29 0.28 0.27 0.21 0.18 0.16
0.83 0.56 0.53 0.52 0.47 0.52 0.53 0.51 0.50 0.51 0.49 0.49 0.60 0.71 1.01 1.42 1.85 2.13 2.25 2.27 1.99 2.04 2.14 2.02 1.85 1.67 1.60 1.55 1.44 1.25 1.13 1.01 0.94 0.84 0.74 0.78 0.79 0.72 0.62 0.55 0.47 0.41 0.34 0.31 0.30 0.27 0.22 0.18 0.16
0.73 0.57 0.57 0.61 0.60 0.63 0.65 0.60 0.56 0.51 0.49 0.57 0.78 0.98 1.14 1.36 1.64 2.05 2.32 2.37 2.15 1.98 2.14 2.16 2.02 1.81 1.62 1.57 1.53 1.38 1.14 0.98 0.97 0.96 0.85 0.74 0.70 0.65 0.60 0.52 0.50 0.46 0.41 0.39 0.35 0.30 0.25 0.22 0.18
0.61 0.58 0.64 0.71 0.74 0.73 0.82 0.69 0.66 0.61 0.59 0.74 0.93 1.08 1.28 1.45 1.62 1.98 2.22 2.34 2.16 1.96 2.04 2.16 2.23 2.09 1.82 1.59 1.48 1.43 1.29 1.10 1.04 1.01 0.92 0.89 0.79 0.68 0.60 0.51 0.48 0.45 0.41 0.37 0.36 0.33 0.29 0.26 0.21
0.69 0.75 0.81 0.84 0.82 0.80 0.89 0.89 0.68 0.65 0.74 0.82 0.89 1.05 1.25 1.47 1.75 2.01 2.09 2.25 2.32 2.09 2.01 2.09 2.22 2.28 2.11 1.85 1.61 1.53 1.38 1.22 1.10 1.04 1.07 1.04 0.95 0.81 0.71 0.60 0.49 0.45 0.45 0.43 0.42 0.41 0.33 0.26 0.21
1.09 1.03 0.98 0.85 0.80 0.80 1.02 1.00 0.68 0.64 0.78 0.82 0.89 1.03 1.18 1.37 1.65 1.91 2.07 2.22 2.43 2.39 2.22 2.21 2.17 2.24 2.25 2.11 1.86 1.68 1.53 1.33 1.15 1.04 1.08 1.14 1.08 0.97 0.87 0.81 0.69 0.60 0.58 0.57 0.51 0.45 0.42 0.30 0.24
1.17 0.95 0.77 0.73 0.74 0.81 0.94 0.87 0.73 0.67 0.70 0.79 0.87 0.96 1.16 1.27 1.43 1.65 1.91 2.19 2.42 2.51 2.47 2.45 2.35 2.19 2.18 2.23 2.12 1.89 1.67 1.47 1.29 1.09 1.02 1.09 1.14 1.08 0.97 0.87 0.87 0.85 0.76 0.65 0.59 0.48 0.48 0.42 0.32
0.70 0.56 0.51 0.56 0.59 0.65 0.72 0.69 0.72 0.75 0.72 0.69 0.78 0.82 1.00 1.12 1.19 1.35 1.62 2.01 2.33 2.52 2.47 2.43 2.46 2.43 2.37 2.34 2.31 2.13 1.88 1.64 1.45 1.28 1.13 1.10 1.16 1.19 1.13 1.00 0.96 0.98 0.94 0.84 0.72 0.62 0.54 0.50 0.47
0.54 0.49 0.44 0.36 0.38 0.53 0.58 0.64 0.74 0.78 0.72 0.67 0.73 0.75 0.80 0.93 1.05 1.15 1.36 1.67 1.97 2.32 2.36 2.30 2.30 2.33 2.39 2.42 2.29 2.11 1.90 1.80 1.64 1.48 1.37 1.27 1.20 1.21 1.26 1.18 1.14 1.16 1.12 1.05 1.00 0.92 0.78 0.64 0.62
0.59 0.56 0.49 0.41 0.41 0.55 0.59 0.67 0.66 0.68 0.69 0.66 0.65 0.68 0.68 0.79 0.94 1.07 1.24 1.47 1.61 1.94 2.19 2.18 2.23 2.24 2.18 2.15 2.26 2.28 2.17 1.99 1.84 1.67 1.51 1.40 1.28 1.23 1.26 1.31 1.28 1.21 1.23 1.21 1.16 1.07 0.93 0.82 0.77
0.59 0.47 0.46 0.56 0.59 0.64 0.65 0.70 0.61 0.56 0.59 0.57 0.53 0.58 0.59 0.65 0.82 0.98 1.11 1.36 1.49 1.74 2.02 2.11 2.17 2.23 2.15 2.21 2.46 2.57 2.51 2.23 2.01 1.83 1.62 1.48 1.40 1.35 1.27 1.22 1.25 1.24 1.25 1.26 1.25 1.25 1.23 1.11 1.00
0.65 0.39 0.43 0.59 0.80 0.86 0.67 0.81 0.59 0.55 0.54 0.52 0.48 0.51 0.55 0.60 0.72 0.81 0.91 1.20 1.36 1.53 1.78 1.89 2.08 2.21 2.23 2.29 2.44 2.38 2.19 2.00 1.81 1.81 1.76 1.66 1.56 1.44 1.37 1.30 1.25 1.24 1.24 1.23 1.28 1.31 1.31 1.32 1.22
0.61 0.48 0.54 0.65 0.85 0.87 0.54 0.68 0.59 0.52 0.56 0.59 0.56 0.58 0.62 0.62 0.71 0.81 0.84 0.95 1.12 1.36 1.61 1.67 1.80 1.98 2.09 2.09 2.24 2.38 2.16 1.93 1.80 1.76 1.73 1.67 1.63 1.53 1.42 1.34 1.32 1.30 1.28 1.26 1.29 1.34 1.34 1.34 1.32
0.66 0.80 0.81 0.80 1.08 1.09 0.53 0.56 0.57 0.57 0.59 0.60 0.61 0.62 0.63 0.63 0.69 0.77 0.77 0.84 0.96 1.12 1.41 1.55 1.67 1.80 1.94 1.95 2.03 2.21 2.09 1.85 1.66 1.58 1.58 1.53 1.51 1.45 1.36 1.29 1.26 1.24 1.23 1.22 1.20 1.24 1.28 1.28 1.24
1.00 1.33 1.53 1.42 1.29 0.85 0.40 0.49 0.60 0.55 0.52 0.57 0.64 0.64 0.62 0.62 0.64 0.70 0.74 0.85 0.91 1.02 1.15 1.23 1.34 1.46 1.64 1.74 1.77 1.91 1.90 1.82 1.68 1.52 1.48 1.42 1.36 1.29 1.25 1.22 1.18 1.20 1.19 1.20 1.21 1.18 1.16 1.21 1.22
0.93 1.09 1.25 1.06 0.71 0.46 0.38 0.51 0.55 0.47 0.49 0.55 0.62 0.63 0.58 0.60 0.64 0.64 0.70 0.81 0.90 1.00 0.99 0.95 1.00 1.16 1.27 1.35 1.40 1.53 1.54 1.57 1.55 1.46 1.36 1.33 1.25 1.18 1.17 1.23 1.24 1.26 1.25 1.19 1.20 1.17 1.12 1.13 1.13
0.86 0.86 0.71 0.89 0.65 0.53 0.45 0.45 0.47 0.46 0.50 0.51 0.53 0.57 0.58 0.58 0.58 0.63 0.71 0.77 0.80 0.86 0.87 0.84 0.85 0.92 0.98 1.10 1.17 1.28 1.27 1.28 1.34 1.31 1.26 1.26 1.22 1.14 1.11 1.16 1.17 1.16 1.16 1.11 1.12 1.12 1.06 1.00 1.00
0.72 0.69 0.84 1.18 1.02 0.73 0.44 0.42 0.59 0.52 0.51 0.55 0.54 0.55 0.58 0.56 0.58 0.67 0.76 0.80 0.79 0.81 0.81 0.76 0.76 0.80 0.85 0.93 1.04 1.10 1.12 1.15 1.19 1.17 1.09 1.05 1.05 1.03 1.02 1.06 1.06 1.04 1.03 1.02 1.01 0.98 0.94 0.92 0.87
0.67 0.77 0.85 0.88 0.73 0.76 0.58 0.56 0.54 0.45 0.43 0.46 0.46 0.49 0.52 0.51 0.55 0.66 0.76 0.82 0.80 0.74 0.71 0.70 0.67 0.69 0.74 0.79 0.85 0.90 0.90 0.94 1.04 1.03 1.00 0.95 0.88 0.83 0.84 0.91 0.94 0.90 0.85 0.85 0.87 0.85 0.84 0.84 0.82
0.52 0.54 0.67 0.96 0.69 0.57 0.60 0.58 0.44 0.35 0.33 0.34 0.36 0.39 0.41 0.44 0.49 0.56 0.61 0.65 0.66 0.66 0.67 0.71 0.67 0.66 0.67 0.72 0.76 0.79 0.78 0.76 0.82 0.88 0.90 0.86 0.83 0.78 0.75 0.78 0.82 0.81 0.76 0.74 0.75 0.75 0.76 0.80 0.81

GEFSSGP_prec_meanprecacc_198.txt.gz
Total_Precipitation_Accumulation
0.24 0.28 0.37 0.52 0.45 0.31 0.18 0.07 0.04 0.06 0.07 0.06 0.05 0.05 0.07 0.10 0.16 0.25 0.22 0.19 0.14 0.16 0.26 0.40 0.47 0.51 0.54 0.50 0.40 0.31 0.29 0.32 0.38 0.42 0.43 0.43 0.40 0.33 0.32 0.34 0.37 0.41 0.47 0.46 0.42 0.30 0.23 0.20 0.16
0.24 0.37 0.58 0.67 0.46 0.25 0.12 0.07 0.06 0.07 0.08 0.08 0.07 0.08 0.10 0.14 0.15 0.17 0.24 0.29 0.23 0.23 0.36 0.41 0.51 0.54 0.56 0.55 0.48 0.40 0.35 0.38 0.42 0.46 0.49 0.50 0.45 0.36 0.37 0.38 0.37 0.40 0.41 0.34 0.28 0.23 0.19 0.14 0.12
0.31 0.52 0.80 0.70 0.43 0.25 0.12 0.07 0.07 0.07 0.08 0.10 0.14 0.14 0.19 0.23 0.19 0.23 0.30 0.36 0.39 0.36 0.45 0.54 0.60 0.62 0.62 0.59 0.56 0.50 0.45 0.47 0.50 0.50 0.53 0.51 0.49 0.45 0.44 0.40 0.35 0.33 0.30 0.27 0.24 0.20 0.16 0.13 0.11
0.48 0.79 0.91 0.69 0.36 0.17 0.12 0.09 0.08 0.10 0.10 0.11 0.18 0.27 0.32 0.29 0.24 0.29 0.37 0.41 0.50 0.53 0.61 0.77 0.82 0.81 0.74 0.68 0.65 0.60 0.56 0.55 0.56 0.57 0.58 0.56 0.56 0.54 0.50 0.42 0.32 0.25 0.22 0.22 0.22 0.18 0.15 0.14 0.12
0.75 1.03 0.92 0.60 0.30 0.15 0.10 0.10 0.11 0.13 0.13 0.14 0.21 0.35 0.46 0.39 0.37 0.44 0.47 0.51 0.61 0.64 0.76 0.95 1.05 1.02 0.86 0.76 0.73 0.72 0.71 0.71 0.68 0.64 0.66 0.69 0.64 0.60 0.54 0.41 0.29 0.21 0.17 0.18 0.19 0.17 0.17 0.17 0.14
1.06 1.08 0.86 0.54 0.26 0.16 0.11 0.12 0.14 0.16 0.17 0.19 0.27 0.43 0.58 0.59 0.62 0.68 0.67 0.66 0.76 0.74 0.85 1.05 1.16 1.09 0.97 0.93 0.84 0.84 0.87 0.83 0.78 0.74 0.81 0.83 0.77 0.62 0.53 0.43 0.31 0.23 0.19 0.19 0.19 0.19 0.20 0.18 0.17
1.12 0.94 0.68 0.42 0.25 0.19 0.15 0.13 0.16 0.18 0.21 0.24 0.28 0.52 0.70 0.86 0.95 1.00 1.00 0.98 0.96 0.98 1.08 1.22 1.22 1.14 1.02 0.91 0.89 0.88 0.94 0.96 0.86 0.78 0.81 0.83 0.79 0.64 0.54 0.41 0.33 0.27 0.24 0.23 0.21 0.21 0.20 0.19 0.18
1.11 1.07 0.66 0.41 0.29 0.23 0.20 0.19 0.18 0.21 0.26 0.28 0.36 0.59 0.81 0.98 1.20 1.38 1.35 1.46 1.40 1.37 1.36 1.38 1.38 1.30 1.15 0.97 0.96 0.91 0.87 0.87 0.88 0.83 0.70 0.64 0.62 0.56 0.52 0.37 0.33 0.29 0.27 0.24 0.22 0.21 0.21 0.18 0.14
1.17 1.23 0.73 0.40 0.32 0.27 0.26 0.29 0.24 0.22 0.31 0.41 0.44 0.57 0.83 1.13 1.46 1.79 1.78 1.85 1.83 1.72 1.69 1.55 1.55 1.47 1.39 1.24 1.10 1.07 0.96 0.87 0.84 0.79 0.69 0.64 0.67 0.61 0.48 0.30 0.27 0.27 0.26 0.24 0.21 0.20 0.20 0.17 0.11
1.27 1.07 0.57 0.31 0.30 0.33 0.33 0.37 0.35 0.33 0.40 0.50 0.61 0.67 1.04 1.47 1.78 1.97 1.97 1.84 1.91 1.86 1.85 1.72 1.63 1.60 1.58 1.35 1.22 1.25 1.10 0.94 0.85 0.77 0.75 0.71 0.69 0.65 0.52 0.40 0.29 0.30 0.26 0.24 0.24 0.23 0.21 0.18 0.13
1.01 0.70 0.47 0.38 0.37 0.40 0.43 0.44 0.46 0.49 0.50 0.52 0.59 0.71 1.06 1.58 2.03 2.10 2.18 2.06 1.99 2.10 2.08 1.97 1.80 1.69 1.67 1.60 1.33 1.27 1.15 1.04 0.96 0.86 0.83 0.80 0.79 0.72 0.64 0.58 0.44 0.39 0.32 0.29 0.29 0.29 0.22 0.19 0.18
0.83 0.56 0.53 0.53 0.47 0.53 0.54 0.52 0.51 0.52 0.51 0.50 0.60 0.71 1.02 1.43 1.87 2.18 2.30 2.31 2.02 2.09 2.21 2.10 1.97 1.82 1.73 1.67 1.54 1.34 1.21 1.07 0.98 0.88 0.79 0.82 0.83 0.75 0.65 0.57 0.49 0.44 0.36 0.33 0.32 0.29 0.24 0.20 0.18
0.74 0.57 0.58 0.61 0.60 0.65 0.67 0.60 0.57 0.52 0.50 0.58 0.79 0.99 1.15 1.38 1.66 2.09 2.39 2.43 2.22 2.03 2.20 2.25 2.13 1.94 1.77 1.71 1.65 1.49 1.23 1.05 1.03 1.01 0.88 0.77 0.74 0.68 0.62 0.53 0.52 0.48 0.43 0.41 0.37 0.32 0.27 0.24 0.20
0.62 0.58 0.65 0.71 0.74 0.74 0.83 0.69 0.67 0.61 0.59 0.76 0.95 1.09 1.29 1.47 1.65 2.02 2.30 2.43 2.24 2.03 2.13 2.27 2.35 2.19 1.94 1.73 1.60 1.54 1.41 1.21 1.13 1.08 0.97 0.90 0.81 0.71 0.63 0.53 0.49 0.47 0.43 0.39 0.38 0.35 0.32 0.29 0.24
0.70 0.76 0.81 0.85 0.83 0.80 0.92 0.91 0.68 0.65 0.75 0.83 0.91 1.07 1.27 1.49 1.77 2.04 2.16 2.35 2.41 2.17 2.13 2.24 2.37 2.41 2.22 1.98 1.74 1.63 1.47 1.34 1.23 1.16 1.17 1.08 0.97 0.83 0.73 0.62 0.51 0.46 0.47 0.45 0.44 0.44 0.37 0.29 0.25
1.10 1.04 0.99 0.85 0.81 0.81 1.04 1.03 0.69 0.65 0.79 0.84 0.91 1.05 1.20 1.39 1.68 1.95 2.14 2.32 2.55 2.49 2.36 2.38 2.34 2.42 2.41 2.22 1.97 1.78 1.62 1.42 1.23 1.11 1.14 1.19 1.11 0.99 0.88 0.82 0.71 0.62 0.60 0.59 0.53 0.48 0.46 0.34 0.27
1.18 0.96 0.78 0.74 0.74 0.82 0.95 0.90 0.75 0.69 0.72 0.82 0.90 0.98 1.19 1.29 1.45 1.68 1.96 2.26 2.52 2.62 2.63 2.65 2.55 2.35 2.36 2.38 2.23 2.00 1.77 1.56 1.37 1.14 1.06 1.12 1.17 1.10 0.98 0.88 0.89 0.88 0.78 0.67 0.61 0.50 0.50 0.45 0.36
0.71 0.56 0.51 0.57 0.59 0.66 0.74 0.72 0.76 0.79 0.76 0.73 0.82 0.85 1.04 1.15 1.20 1.36 1.65 2.05 2.41 2.62 2.62 2.64 2.67 2.61 2.51 2.51 2.48 2.28 2.01 1.74 1.53 1.32 1.17 1.13 1.19 1.22 1.15 1.02 0.99 1.00 0.97 0.87 0.75 0.64 0.56 0.52 0.49
0.54 0.50 0.44 0.36 0.39 0.54 0.61 0.68 0.78 0.83 0.76 0.73 0.80 0.80 0.83 0.96 1.06 1.17 1.37 1.69 2.03 2.43 2.51 2.49 2.49 2.53 2.55 2.56 2.47 2.30 2.06 1.92 1.73 1.53 1.40 1.30 1.22 1.23 1.28 1.20 1.16 1.18 1.15 1.08 1.03 0.95 0.81 0.67 0.64
0.59 0.56 0.50 0.42 0.41 0.56 0.61 0.70 0.69 0.73 0.76 0.73 0.73 0.73 0.71 0.82 0.97 1.10 1.27 1.49 1.64 2.02 2.31 2.35 2.42 2.41 2.34 2.28 2.40 2.47 2.36 2.16 1.97 1.74 1.54 1.43 1.31 1.26 1.29 1.33 1.29 1.22 1.25 1.23 1.19 1.10 0.97 0.86 0.80
0.60 0.47 0.47 0.56 0.59 0.64 0.66 0.72 0.63 0.60 0.67 0.64 0.60 0.63 0.62 0.69 0.88 1.01 1.13 1.39 1.51 1.78 2.11 2.25 2.35 2.42 2.32 2.35 2.59 2.71 2.67 2.40 2.16 1.92 1.66 1.50 1.42 1.38 1.30 1.25 1.28 1.26 1.27 1.28 1.27 1.28 1.26 1.14 1.03
0.66 0.40 0.44 0.59 0.80 0.87 0.68 0.82 0.61 0.57 0.57 0.57 0.55 0.56 0.59 0.63 0.77 0.86 0.95 1.23 1.38 1.57 1.84 2.00 2.23 2.39 2.42 2.45 2.55 2.50 2.32 2.13 1.94 1.91 1.81 1.68 1.58 1.46 1.40 1.34 1.29 1.27 1.27 1.25 1.31 1.34 1.35 1.36 1.25
0.62 0.49 0.55 0.66 0.86 0.88 0.55 0.70 0.59 0.53 0.57 0.61 0.59 0.61 0.65 0.64 0.73 0.85 0.87 0.99 1.15 1.39 1.66 1.76 1.91 2.11 2.24 2.26 2.35 2.47 2.28 2.05 1.90 1.84 1.78 1.70 1.65 1.54 1.44 1.36 1.36 1.34 1.32 1.30 1.32 1.37 1.38 1.39 1.37
0.67 0.81 0.82 0.81 1.10 1.11 0.53 0.56 0.58 0.57 0.59 0.60 0.61 0.63 0.64 0.64 0.71 0.80 0.79 0.88 1.00 1.16 1.46 1.62 1.77 1.91 2.06 2.09 2.15 2.29 2.18 1.96 1.76 1.65 1.63 1.57 1.53 1.46 1.36 1.30 1.27 1.26 1.25 1.25 1.23 1.27 1.32 1.33 1.29
1.00 1.35 1.55 1.43 1.31 0.86 0.40 0.49 0.61 0.55 0.52 0.57 0.65 0.64 0.64 0.63 0.65 0.73 0.77 0.89 0.95 1.05 1.19 1.27 1.41 1.54 1.74 1.85 1.88 1.99 1.99 1.92 1.77 1.59 1.52 1.45 1.38 1.31 1.26 1.23 1.18 1.21 1.20 1.20 1.21 1.19 1.18 1.24 1.26
0.93 1.10 1.26 1.07 0.71 0.46 0.38 0.51 0.56 0.48 0.50 0.56 0.62 0.64 0.59 0.61 0.65 0.66 0.72 0.84 0.94 1.02 1.02 0.99 1.05 1.22 1.34 1.43 1.49 1.60 1.61 1.65 1.63 1.54 1.42 1.36 1.27 1.19 1.18 1.24 1.25 1.26 1.26 1.20 1.20 1.18 1.13 1.15 1.15
0.87 0.87 0.72 0.90 0.66 0.53 0.45 0.45 0.48 0.46 0.50 0.51 0.54 0.57 0.58 0.59 0.60 0.65 0.73 0.79 0.82 0.89 0.89 0.87 0.90 0.97 1.03 1.17 1.24 1.33 1.33 1.34 1.39 1.37 1.33 1.32 1.25 1.15 1.12 1.17 1.19 1.17 1.16 1.12 1.13 1.13 1.07 1.01 1.01
0.73 0.70 0.85 1.20 1.03 0.74 0.44 0.43 0.59 0.52 0.52 0.56 0.54 0.56 0.59 0.58 0.60 0.69 0.79 0.82 0.82 0.84 0.83 0.78 0.79 0.85 0.91 0.99 1.11 1.17 1.17 1.21 1.24 1.22 1.13 1.09 1.09 1.05 1.04 1.07 1.08 1.06 1.04 1.03 1.03 0.99 0.95 0.93 0.88
0.68 0.78 0.87 0.90 0.74 0.77 0.58 0.56 0.54 0.45 0.43 0.48 0.47 0.50 0.53 0.52 0.57 0.68 0.78 0.85 0.84 0.77 0.74 0.72 0.70 0.73 0.79 0.84 0.92 0.98 0.97 1.01 1.09 1.07 1.03 0.98 0.91 0.86 0.85 0.92 0.95 0.91 0.86 0.86 0.88 0.86 0.86 0.86 0.84
0.53 0.55 0.68 0.97 0.69 0.57 0.60 0.58 0.44 0.35 0.33 0.35 0.37 0.40 0.42 0.45 0.51 0.58 0.63 0.68 0.69 0.69 0.70 0.73 0.69 0.68 0.69 0.76 0.82 0.86 0.85 0.83 0.90 0.93 0.93 0.89 0.85 0.80 0.78 0.80 0.84 0.82 0.77 0.74 0.76 0.77 0.78 0.82 0.83

GEFSSGP_prec_meanprecacc_204.txt.gz
Total_Precipitation_Accumulation
0.24 0.28 0.37 0.52 0.45 0.31 0.18 0.07 0.04 0.06 0.07 0.06 0.05 0.05 0.07 0.10 0.16 0.25 0.23 0.19 0.15 0.17 0.26 0.41 0.48 0.52 0.55 0.52 0.42 0.32 0.31 0.35 0.40 0.43 0.44 0.44 0.41 0.34 0.34 0.35 0.39 0.43 0.49 0.49 0.44 0.31 0.23 0.20 0.16
0.24 0.37 0.58 0.67 0.46 0.25 0.12 0.07 0.06 0.07 0.08 0.08 0.08 0.08 0.10 0.15 0.16 0.18 0.25 0.30 0.24 0.24 0.36 0.42 0.52 0.56 0.58 0.57 0.49 0.41 0.36 0.39 0.44 0.48 0.51 0.53 0.47 0.39 0.41 0.40 0.39 0.42 0.42 0.35 0.30 0.25 0.20 0.15 0.12
0.31 0.52 0.80 0.70 0.43 0.25 0.12 0.07 0.07 0.07 0.08 0.11 0.14 0.15 0.19 0.24 0.20 0.24 0.30 0.37 0.39 0.37 0.46 0.56 0.62 0.64 0.65 0.61 0.57 0.52 0.46 0.49 0.52 0.52 0.56 0.55 0.54 0.49 0.50 0.43 0.37 0.34 0.32 0.28 0.25 0.22 0.18 0.14 0.12
0.48 0.79 0.92 0.69 0.37 0.17 0.12 0.09 0.08 0.10 0.10 0.12 0.19 0.28 0.34 0.30 0.25 0.30 0.38 0.41 0.50 0.54 0.62 0.78 0.85 0.84 0.76 0.70 0.67 0.63 0.57 0.57 0.58 0.59 0.60 0.60 0.61 0.59 0.55 0.45 0.34 0.26 0.22 0.22 0.22 0.19 0.17 0.16 0.13
0.75 1.03 0.92 0.61 0.31 0.15 0.10 0.10 0.11 0.13 0.13 0.14 0.22 0.36 0.48 0.41 0.38 0.45 0.48 0.51 0.62 0.64 0.77 0.97 1.07 1.04 0.88 0.78 0.75 0.75 0.73 0.74 0.71 0.67 0.70 0.74 0.69 0.63 0.56 0.43 0.30 0.22 0.18 0.18 0.19 0.18 0.18 0.19 0.15
1.06 1.08 0.86 0.54 0.26 0.16 0.11 0.12 0.14 0.16 0.17 0.19 0.27 0.43 0.60 0.62 0.65 0.72 0.70 0.67 0.77 0.75 0.86 1.08 1.19 1.12 1.01 0.96 0.88 0.88 0.91 0.86 0.82 0.79 0.85 0.87 0.80 0.65 0.55 0.44 0.32 0.24 0.20 0.20 0.20 0.20 0.21 0.20 0.19
1.12 0.94 0.68 0.42 0.25 0.20 0.15 0.13 0.16 0.19 0.21 0.25 0.28 0.53 0.73 0.91 1.01 1.05 1.04 1.01 0.98 0.99 1.09 1.24 1.25 1.17 1.05 0.96 0.94 0.93 0.99 1.00 0.90 0.83 0.87 0.88 0.82 0.67 0.56 0.42 0.35 0.28 0.25 0.24 0.22 0.22 0.21 0.20 0.21
1.11 1.08 0.66 0.41 0.30 0.24 0.20 0.20 0.18 0.21 0.26 0.29 0.36 0.61 0.83 1.02 1.26 1.46 1.43 1.51 1.43 1.39 1.39 1.39 1.41 1.32 1.17 1.00 1.01 0.98 0.93 0.90 0.91 0.86 0.75 0.69 0.66 0.59 0.55 0.39 0.35 0.30 0.28 0.25 0.23 0.22 0.22 0.19 0.16
1.18 1.23 0.73 0.40 0.33 0.28 0.27 0.29 0.24 0.22 0.31 0.41 0.44 0.59 0.87 1.17 1.53 1.90 1.89 1.92 1.89 1.75 1.72 1.58 1.59 1.50 1.43 1.28 1.17 1.16 1.03 0.90 0.87 0.83 0.72 0.67 0.69 0.64 0.51 0.32 0.29 0.28 0.27 0.24 0.22 0.21 0.21 0.18 0.13
1.27 1.07 0.57 0.32 0.30 0.33 0.34 0.38 0.36 0.34 0.40 0.50 0.62 0.68 1.06 1.52 1.86 2.08 2.12 1.97 1.99 1.90 1.88 1.77 1.68 1.65 1.63 1.40 1.29 1.31 1.16 0.98 0.88 0.80 0.77 0.72 0.70 0.66 0.53 0.41 0.30 0.31 0.27 0.24 0.25 0.24 0.22 0.18 0.14
1.02 0.70 0.47 0.38 0.37 0.40 0.43 0.45 0.46 0.49 0.50 0.52 0.60 0.72 1.08 1.61 2.09 2.18 2.32 2.23 2.14 2.17 2.12 2.01 1.88 1.77 1.73 1.66 1.39 1.32 1.21 1.10 1.02 0.89 0.85 0.82 0.80 0.73 0.65 0.59 0.45 0.40 0.33 0.30 0.29 0.30 0.23 0.20 0.19
0.84 0.56 0.53 0.53 0.47 0.53 0.54 0.53 0.52 0.52 0.51 0.50 0.60 0.72 1.04 1.45 1.90 2.23 2.38 2.44 2.22 2.24 2.27 2.14 2.02 1.91 1.81 1.74 1.62 1.42 1.28 1.14 1.04 0.93 0.82 0.86 0.86 0.76 0.65 0.58 0.50 0.45 0.37 0.34 0.33 0.30 0.24 0.20 0.19
0.74 0.58 0.58 0.61 0.60 0.65 0.67 0.61 0.58 0.53 0.51 0.58 0.79 0.99 1.16 1.39 1.68 2.13 2.44 2.52 2.37 2.23 2.33 2.30 2.18 2.03 1.88 1.79 1.73 1.59 1.32 1.12 1.09 1.07 0.94 0.83 0.77 0.69 0.63 0.54 0.52 0.48 0.44 0.42 0.38 0.33 0.27 0.24 0.21
0.62 0.58 0.65 0.71 0.75 0.74 0.83 0.69 0.68 0.62 0.60 0.76 0.95 1.09 1.30 1.48 1.66 2.03 2.33 2.49 2.34 2.18 2.29 2.35 2.42 2.28 2.06 1.82 1.69 1.65 1.50 1.30 1.23 1.20 1.07 0.99 0.87 0.74 0.64 0.54 0.49 0.47 0.43 0.40 0.40 0.37 0.33 0.30 0.25
0.70 0.76 0.82 0.85 0.83 0.81 0.92 0.91 0.69 0.66 0.76 0.83 0.91 1.08 1.27 1.49 1.78 2.06 2.17 2.38 2.49 2.28 2.28 2.35 2.44 2.50 2.36 2.11 1.86 1.75 1.61 1.46 1.32 1.26 1.27 1.20 1.07 0.90 0.78 0.65 0.52 0.47 0.47 0.45 0.45 0.47 0.40 0.31 0.26
1.11 1.05 0.99 0.85 0.81 0.81 1.04 1.04 0.70 0.66 0.80 0.84 0.91 1.06 1.21 1.40 1.68 1.97 2.16 2.34 2.60 2.58 2.49 2.51 2.43 2.50 2.53 2.39 2.14 1.93 1.75 1.54 1.33 1.18 1.21 1.26 1.18 1.06 0.96 0.87 0.74 0.64 0.61 0.60 0.53 0.49 0.48 0.37 0.30
1.19 0.97 0.78 0.74 0.74 0.82 0.96 0.91 0.76 0.70 0.73 0.82 0.90 0.99 1.19 1.30 1.47 1.70 1.99 2.28 2.57 2.69 2.72 2.76 2.65 2.46 2.50 2.56 2.42 2.16 1.89 1.65 1.46 1.25 1.13 1.17 1.20 1.12 1.01 0.91 0.91 0.90 0.80 0.68 0.62 0.51 0.51 0.47 0.38
0.72 0.57 0.52 0.57 0.59 0.67 0.75 0.73 0.76 0.79 0.77 0.73 0.82 0.86 1.04 1.15 1.21 1.38 1.67 2.09 2.48 2.69 2.70 2.73 2.76 2.73 2.68 2.71 2.70 2.45 2.12 1.84 1.63 1.47 1.32 1.23 1.24 1.24 1.17 1.04 0.99 1.01 0.98 0.88 0.76 0.65 0.57 0.53 0.51
0.54 0.50 0.45 0.37 0.39 0.54 0.62 0.69 0.79 0.84 0.77 0.74 0.81 0.80 0.84 0.96 1.07 1.18 1.39 1.72 2.09 2.53 2.59 2.54 2.56 2.63 2.69 2.74 2.67 2.49 2.20 2.03 1.82 1.64 1.54 1.43 1.31 1.29 1.31 1.22 1.18 1.19 1.15 1.09 1.05 0.96 0.82 0.68 0.65
0.60 0.57 0.51 0.42 0.42 0.56 0.62 0.71 0.71 0.74 0.78 0.75 0.75 0.75 0.72 0.82 0.98 1.11 1.28 1.51 1.68 2.11 2.43 2.44 2.47 2.47 2.46 2.45 2.59 2.64 2.48 2.24 2.04 1.85 1.66 1.53 1.39 1.31 1.32 1.35 1.32 1.25 1.27 1.25 1.21 1.12 0.99 0.87 0.81
0.61 0.48 0.48 0.57 0.60 0.65 0.67 0.73 0.65 0.62 0.69 0.66 0.63 0.67 0.64 0.71 0.90 1.03 1.15 1.41 1.53 1.83 2.21 2.38 2.45 2.47 2.39 2.47 2.76 2.91 2.83 2.50 2.23 2.01 1.79 1.63 1.53 1.45 1.34 1.27 1.30 1.29 1.30 1.31 1.30 1.31 1.29 1.17 1.05
0.67 0.41 0.45 0.60 0.82 0.88 0.69 0.84 0.63 0.59 0.59 0.61 0.59 0.62 0.63 0.67 0.81 0.89 0.97 1.25 1.40 1.59 1.88 2.08 2.34 2.48 2.50 2.55 2.70 2.68 2.50 2.26 2.03 1.99 1.91 1.78 1.68 1.56 1.48 1.39 1.32 1.30 1.30 1.29 1.35 1.39 1.40 1.41 1.29
0.63 0.49 0.55 0.67 0.88 0.90 0.56 0.70 0.60 0.55 0.58 0.62 0.63 0.68 0.70 0.68 0.77 0.89 0.93 1.05 1.18 1.41 1.68 1.79 1.97 2.19 2.33 2.38 2.52 2.62 2.43 2.18 2.01 1.95 1.89 1.80 1.74 1.62 1.51 1.41 1.38 1.35 1.33 1.32 1.35 1.41 1.42 1.43 1.42
0.67 0.82 0.83 0.83 1.12 1.13 0.54 0.57 0.58 0.57 0.59 0.61 0.62 0.67 0.69 0.67 0.75 0.83 0.82 0.91 1.02 1.18 1.48 1.64 1.80 1.96 2.13 2.18 2.30 2.47 2.31 2.09 1.87 1.77 1.73 1.67 1.63 1.54 1.43 1.35 1.30 1.27 1.26 1.26 1.24 1.29 1.34 1.36 1.33
1.02 1.38 1.59 1.46 1.34 0.87 0.41 0.50 0.61 0.55 0.52 0.57 0.65 0.66 0.66 0.66 0.68 0.75 0.78 0.90 0.97 1.07 1.20 1.29 1.43 1.57 1.78 1.91 1.99 2.16 2.13 2.03 1.89 1.70 1.64 1.55 1.47 1.38 1.30 1.26 1.21 1.22 1.20 1.21 1.22 1.20 1.19 1.26 1.28
0.94 1.12 1.29 1.09 0.72 0.46 0.38 0.51 0.56 0.48 0.50 0.56 0.62 0.64 0.59 0.62 0.67 0.67 0.73 0.85 0.95 1.05 1.04 1.00 1.07 1.24 1.37 1.48 1.57 1.73 1.74 1.75 1.73 1.64 1.52 1.46 1.36 1.27 1.24 1.26 1.27 1.27 1.26 1.20 1.21 1.18 1.13 1.15 1.16
0.88 0.87 0.73 0.91 0.66 0.53 0.45 0.45 0.48 0.46 0.50 0.52 0.54 0.58 0.58 0.60 0.61 0.66 0.75 0.80 0.84 0.91 0.91 0.88 0.91 1.00 1.07 1.21 1.30 1.43 1.44 1.43 1.46 1.44 1.41 1.40 1.32 1.23 1.19 1.21 1.21 1.18 1.17 1.12 1.13 1.13 1.07 1.02 1.02
0.74 0.70 0.86 1.22 1.05 0.74 0.45 0.43 0.59 0.52 0.52 0.56 0.55 0.56 0.59 0.58 0.61 0.71 0.80 0.84 0.83 0.86 0.85 0.79 0.81 0.88 0.95 1.03 1.16 1.25 1.26 1.29 1.31 1.28 1.19 1.15 1.15 1.11 1.09 1.11 1.11 1.07 1.05 1.04 1.03 1.00 0.95 0.93 0.88
0.70 0.80 0.89 0.92 0.75 0.77 0.58 0.56 0.54 0.45 0.43 0.48 0.47 0.50 0.53 0.53 0.58 0.70 0.79 0.87 0.87 0.81 0.77 0.75 0.72 0.76 0.83 0.89 0.96 1.04 1.04 1.07 1.16 1.14 1.09 1.03 0.95 0.89 0.89 0.96 0.98 0.93 0.87 0.87 0.89 0.87 0.86 0.86 0.85
0.54 0.57 0.71 1.00 0.71 0.58 0.61 0.58 0.44 0.35 0.33 0.35 0.37 0.40 0.42 0.45 0.51 0.60 0.67 0.71 0.73 0.72 0.73 0.76 0.72 0.72 0.74 0.81 0.87 0.91 0.91 0.89 0.95 0.99 1.00 0.95 0.89 0.82 0.80 0.83 0.87 0.85 0.79 0.76 0.77 0.77 0.78 0.82 0.84

GEFSSGP_prec_meanprecacc_210.txt.gz
Total_Precipitation_Accumulation
0.24 0.28 0.37 0.52 0.45 0.31 0.18 0.07 0.04 0.06 0.07 0.06 0.05 0.06 0.08 0.11 0.17 0.25 0.23 0.19 0.15 0.17 0.27 0.43 0.51 0.55 0.57 0.53 0.43 0.33 0.32 0.36 0.41 0.45 0.45 0.46 0.44 0.37 0.36 0.36 0.40 0.44 0.51 0.50 0.45 0.33 0.24 0.22 0.17
0.24 0.37 0.58 0.67 0.46 0.25 0.12 0.07 0.06 0.07 0.08 0.09 0.08 0.08 0.11 0.15 0.16 0.18 0.25 0.30 0.24 0.24 0.37 0.44 0.55 0.59 0.61 0.59 0.50 0.42 0.37 0.40 0.45 0.50 0.53 0.54 0.50 0.43 0.45 0.43 0.42 0.44 0.44 0.37 0.32 0.26 0.21 0.16 0.13
0.31 0.52 0.80 0.70 0.43 0.25 0.12 0.07 0.07 0.07 0.08 0.11 0.14 0.15 0.20 0.25 0.21 0.25 0.31 0.37 0.40 0.38 0.47 0.58 0.65 0.68 0.68 0.63 0.59 0.53 0.47 0.49 0.53 0.54 0.58 0.57 0.57 0.52 0.55 0.48 0.41 0.37 0.33 0.30 0.27 0.23 0.19 0.15 0.13
0.48 0.79 0.92 0.69 0.37 0.17 0.12 0.09 0.08 0.10 0.10 0.12 0.19 0.28 0.34 0.31 0.26 0.32 0.39 0.43 0.51 0.55 0.63 0.80 0.87 0.87 0.80 0.73 0.69 0.65 0.59 0.58 0.59 0.60 0.63 0.64 0.66 0.64 0.61 0.50 0.37 0.28 0.24 0.24 0.23 0.19 0.17 0.16 0.14
0.75 1.03 0.92 0.61 0.31 0.15 0.10 0.10 0.11 0.13 0.13 0.14 0.22 0.36 0.49 0.42 0.40 0.48 0.51 0.54 0.63 0.65 0.78 0.98 1.10 1.08 0.93 0.83 0.78 0.77 0.76 0.76 0.73 0.69 0.72 0.79 0.74 0.69 0.63 0.48 0.33 0.24 0.20 0.20 0.20 0.19 0.19 0.20 0.16
1.06 1.08 0.87 0.54 0.26 0.16 0.11 0.12 0.14 0.16 0.17 0.19 0.27 0.44 0.61 0.63 0.66 0.74 0.75 0.72 0.80 0.76 0.87 1.09 1.22 1.15 1.05 1.01 0.94 0.92 0.95 0.90 0.86 0.82 0.89 0.91 0.84 0.71 0.61 0.49 0.35 0.26 0.22 0.21 0.21 0.21 0.22 0.21 0.21
1.12 0.94 0.68 0.42 0.25 0.20 0.15 0.13 0.17 0.19 0.21 0.25 0.28 0.53 0.74 0.91 1.02 1.07 1.11 1.09 1.04 1.02 1.11 1.26 1.27 1.19 1.08 1.00 0.99 0.98 1.04 1.07 0.96 0.88 0.90 0.92 0.86 0.72 0.61 0.46 0.39 0.30 0.26 0.25 0.23 0.23 0.23 0.22 0.22
1.11 1.08 0.66 0.41 0.30 0.24 0.20 0.20 0.18 0.21 0.26 0.29 0.36 0.61 0.84 1.02 1.27 1.48 1.48 1.60 1.51 1.45 1.42 1.42 1.43 1.34 1.19 1.03 1.05 1.04 1.00 0.98 0.97 0.91 0.80 0.73 0.70 0.62 0.58 0.42 0.38 0.33 0.29 0.26 0.24 0.23 0.23 0.21 0.17
1.18 1.23 0.74 0.40 0.33 0.28 0.27 0.29 0.25 0.22 0.31 0.42 0.44 0.59 0.87 1.18 1.54 1.92 1.93 2.00 2.00 1.84 1.78 1.63 1.63 1.53 1.45 1.31 1.21 1.20 1.08 0.97 0.94 0.89 0.77 0.70 0.72 0.65 0.53 0.34 0.31 0.31 0.28 0.25 0.23 0.23 0.22 0.18 0.14
1.27 1.07 0.57 0.32 0.30 0.33 0.34 0.38 0.36 0.34 0.41 0.50 0.62 0.68 1.06 1.52 1.86 2.09 2.14 2.03 2.13 2.02 1.96 1.83 1.74 1.69 1.67 1.45 1.34 1.37 1.22 1.04 0.94 0.86 0.84 0.76 0.72 0.67 0.54 0.41 0.31 0.32 0.28 0.25 0.25 0.25 0.23 0.19 0.15
1.02 0.70 0.47 0.38 0.37 0.40 0.43 0.45 0.47 0.50 0.51 0.52 0.60 0.72 1.08 1.61 2.09 2.18 2.34 2.27 2.26 2.33 2.24 2.09 1.96 1.83 1.79 1.71 1.44 1.37 1.26 1.15 1.07 0.94 0.91 0.86 0.84 0.75 0.65 0.59 0.45 0.40 0.33 0.30 0.30 0.30 0.24 0.21 0.20
0.84 0.56 0.53 0.53 0.48 0.53 0.54 0.53 0.52 0.53 0.51 0.50 0.61 0.72 1.04 1.45 1.90 2.23 2.38 2.45 2.28 2.40 2.44 2.26 2.11 2.00 1.89 1.79 1.66 1.47 1.34 1.20 1.09 0.98 0.87 0.90 0.91 0.80 0.66 0.58 0.50 0.45 0.38 0.34 0.33 0.30 0.25 0.21 0.19
0.74 0.58 0.58 0.61 0.60 0.65 0.67 0.61 0.58 0.53 0.51 0.58 0.79 1.00 1.16 1.39 1.68 2.13 2.44 2.52 2.39 2.32 2.50 2.47 2.31 2.13 1.97 1.87 1.79 1.63 1.38 1.18 1.16 1.15 1.02 0.88 0.81 0.73 0.65 0.54 0.52 0.48 0.44 0.42 0.38 0.33 0.28 0.25 0.22
0.62 0.58 0.65 0.71 0.75 0.74 0.83 0.69 0.68 0.62 0.61 0.77 0.95 1.10 1.30 1.48 1.66 2.03 2.33 2.49 2.35 2.22 2.40 2.51 2.56 2.40 2.16 1.90 1.76 1.70 1.55 1.35 1.29 1.28 1.19 1.07 0.92 0.79 0.68 0.56 0.50 0.47 0.43 0.40 0.40 0.38 0.34 0.31 0.26
0.71 0.76 0.82 0.85 0.83 0.81 0.92 0.91 0.69 0.66 0.76 0.84 0.92 1.08 1.28 1.50 1.78 2.06 2.18 2.39 2.50 2.30 2.35 2.48 2.59 2.65 2.46 2.19 1.93 1.81 1.66 1.52 1.42 1.36 1.38 1.28 1.13 0.96 0.84 0.70 0.55 0.48 0.48 0.46 0.45 0.47 0.41 0.32 0.28
1.12 1.06 0.99 0.85 0.81 0.81 1.04 1.04 0.70 0.66 0.80 0.85 0.92 1.06 1.22 1.40 1.68 1.97 2.17 2.35 2.62 2.60 2.53 2.60 2.57 2.68 2.67 2.49 2.22 1.98 1.81 1.62 1.43 1.28 1.31 1.34 1.23 1.11 1.01 0.93 0.79 0.68 0.63 0.61 0.54 0.49 0.49 0.37 0.30
1.19 0.97 0.78 0.74 0.74 0.82 0.96 0.91 0.76 0.70 0.73 0.83 0.90 0.99 1.20 1.30 1.47 1.71 1.99 2.29 2.60 2.72 2.76 2.82 2.78 2.63 2.67 2.68 2.52 2.23 1.94 1.71 1.54 1.33 1.24 1.28 1.29 1.18 1.05 0.95 0.95 0.93 0.82 0.70 0.63 0.52 0.52 0.47 0.38
0.72 0.57 0.52 0.57 0.59 0.67 0.75 0.73 0.77 0.80 0.77 0.74 0.82 0.86 1.05 1.16 1.22 1.39 1.67 2.10 2.51 2.73 2.73 2.77 2.85 2.88 2.86 2.85 2.83 2.55 2.18 1.89 1.68 1.53 1.40 1.34 1.35 1.32 1.22 1.07 1.02 1.03 1.01 0.90 0.78 0.67 0.58 0.54 0.52
0.55 0.51 0.46 0.37 0.39 0.54 0.62 0.69 0.79 0.85 0.78 0.74 0.81 0.81 0.85 0.97 1.08 1.19 1.40 1.74 2.12 2.56 2.62 2.59 2.63 2.75 2.86 2.90 2.81 2.61 2.28 2.09 1.88 1.70 1.61 1.52 1.43 1.40 1.40 1.28 1.21 1.21 1.17 1.11 1.07 0.99 0.84 0.70 0.67
0.61 0.58 0.51 0.43 0.42 0.57 0.62 0.72 0.71 0.75 0.78 0.75 0.76 0.76 0.74 0.84 1.00 1.12 1.29 1.52 1.70 2.13 2.46 2.48 2.53 2.55 2.60 2.60 2.71 2.74 2.58 2.32 2.11 1.91 1.74 1.61 1.47 1.41 1.42 1.44 1.38 1.28 1.29 1.26 1.23 1.14 1.01 0.89 0.83
0.62 0.49 0.48 0.57 0.60 0.66 0.68 0.74 0.66 0.63 0.70 0.67 0.64 0.69 0.66 0.73 0.92 1.05 1.16 1.41 1.56 1.86 2.25 2.43 2.50 2.56 2.50 2.59 2.89 3.00 2.91 2.59 2.32 2.09 1.85 1.69 1.59 1.52 1.41 1.34 1.36 1.34 1.33 1.33 1.32 1.32 1.32 1.20 1.08
0.68 0.41 0.46 0.61 0.83 0.89 0.70 0.85 0.63 0.60 0.60 0.61 0.60 0.65 0.66 0.69 0.83 0.90 0.99 1.27 1.43 1.62 1.90 2.12 2.41 2.57 2.60 2.66 2.81 2.79 2.57 2.33 2.11 2.07 1.97 1.83 1.72 1.60 1.53 1.46 1.39 1.36 1.35 1.33 1.38 1.42 1.42 1.44 1.33
0.63 0.50 0.56 0.68 0.90 0.92 0.57 0.71 0.61 0.56 0.59 0.63 0.64 0.72 0.75 0.72 0.78 0.90 0.95 1.08 1.19 1.41 1.68 1.80 2.01 2.25 2.40 2.47 2.62 2.70 2.50 2.25 2.08 2.02 1.97 1.87 1.79 1.66 1.55 1.47 1.47 1.44 1.40 1.37 1.39 1.45 1.46 1.47 1.46
0.68 0.83 0.85 0.85 1.16 1.18 0.55 0.57 0.58 0.59 0.61 0.61 0.63 0.70 0.73 0.73 0.79 0.86 0.85 0.93 1.03 1.19 1.48 1.65 1.81 1.98 2.17 2.23 2.39 2.56 2.38 2.15 1.93 1.83 1.81 1.74 1.68 1.57 1.45 1.38 1.36 1.36 1.35 1.32 1.28 1.33 1.39 1.40 1.37
1.03 1.41 1.63 1.50 1.37 0.89 0.42 0.51 0.62 0.56 0.53 0.58 0.66 0.67 0.68 0.69 0.71 0.77 0.80 0.92 0.98 1.08 1.21 1.30 1.44 1.58 1.80 1.95 2.03 2.22 2.22 2.11 1.95 1.76 1.70 1.62 1.54 1.43 1.34 1.30 1.25 1.27 1.28 1.28 1.27 1.23 1.21 1.28 1.31
0.95 1.14 1.32 1.12 0.74 0.47 0.39 0.53 0.57 0.48 0.50 0.56 0.62 0.64 0.61 0.65 0.70 0.70 0.75 0.86 0.96 1.06 1.05 1.01 1.08 1.25 1.38 1.50 1.60 1.77 1.79 1.83 1.83 1.72 1.59 1.52 1.42 1.34 1.30 1.32 1.32 1.32 1.31 1.26 1.26 1.22 1.16 1.17 1.18
0.89 0.89 0.75 0.95 0.68 0.54 0.46 0.46 0.48 0.46 0.50 0.52 0.54 0.58 0.59 0.60 0.62 0.67 0.76 0.82 0.85 0.92 0.92 0.89 0.92 1.01 1.07 1.22 1.32 1.45 1.47 1.48 1.54 1.54 1.49 1.47 1.40 1.31 1.28 1.31 1.29 1.24 1.22 1.16 1.17 1.16 1.10 1.04 1.03
0.76 0.72 0.88 1.26 1.07 0.75 0.45 0.43 0.59 0.52 0.52 0.56 0.55 0.56 0.59 0.58 0.62 0.71 0.81 0.85 0.85 0.88 0.87 0.81 0.83 0.89 0.96 1.04 1.17 1.26 1.28 1.33 1.36 1.35 1.28 1.24 1.22 1.18 1.17 1.20 1.20 1.15 1.11 1.09 1.07 1.03 0.98 0.95 0.90
0.72 0.83 0.93 0.95 0.76 0.78 0.58 0.56 0.54 0.45 0.44 0.48 0.47 0.50 0.53 0.53 0.58 0.70 0.80 0.88 0.88 0.83 0.79 0.78 0.74 0.78 0.85 0.91 0.98 1.06 1.07 1.10 1.19 1.18 1.16 1.11 1.03 0.96 0.95 1.03 1.05 1.00 0.95 0.94 0.94 0.91 0.89 0.88 0.86
0.56 0.61 0.75 1.05 0.75 0.59 0.61 0.59 0.44 0.35 0.33 0.35 0.37 0.40 0.42 0.45 0.51 0.60 0.67 0.71 0.74 0.75 0.77 0.79 0.75 0.75 0.77 0.84 0.90 0.94 0.94 0.92 0.98 1.02 1.04 1.01 0.97 0.90 0.86 0.89 0.92 0.90 0.85 0.82 0.83 0.82 0.81 0.84 0.85

GEFSSGP_prec_meanprecacc_216.txt.gz
Total_Precipitation_Accumulation
0.24 0.28 0.37 0.52 0.45 0.31 0.18 0.07 0.04 0.06 0.07 0.06 0.05 0.06 0.08 0.11 0.17 0.25 0.23 0.19 0.15 0.17 0.29 0.45 0.53 0.57 0.59 0.55 0.44 0.34 0.33 0.36 0.42 0.46 0.47 0.49 0.47 0.41 0.40 0.40 0.43 0.46 0.54 0.53 0.46 0.34 0.26 0.23 0.18
0.24 0.37 0.58 0.67 0.46 0.25 0.12 0.07 0.06 0.07 0.08 0.09 0.08 0.08 0.11 0.16 0.16 0.18 0.25 0.30 0.25 0.25 0.39 0.46 0.57 0.61 0.62 0.60 0.51 0.44 0.38 0.41 0.46 0.51 0.54 0.57 0.53 0.46 0.50 0.48 0.46 0.47 0.47 0.40 0.33 0.28 0.23 0.17 0.14
0.31 0.52 0.80 0.70 0.43 0.25 0.12 0.07 0.07 0.07 0.08 0.11 0.14 0.15 0.20 0.25 0.21 0.25 0.31 0.38 0.41 0.39 0.49 0.60 0.68 0.70 0.70 0.65 0.60 0.54 0.49 0.51 0.54 0.55 0.60 0.59 0.60 0.55 0.59 0.54 0.46 0.41 0.36 0.32 0.28 0.24 0.20 0.15 0.13
0.48 0.79 0.92 0.69 0.37 0.17 0.12 0.09 0.08 0.10 0.10 0.12 0.19 0.28 0.34 0.31 0.27 0.32 0.39 0.44 0.53 0.56 0.65 0.82 0.91 0.91 0.84 0.75 0.70 0.66 0.61 0.60 0.61 0.62 0.65 0.67 0.68 0.66 0.64 0.55 0.42 0.33 0.28 0.26 0.25 0.20 0.18 0.17 0.14
0.75 1.03 0.92 0.61 0.31 0.15 0.10 0.10 0.11 0.13 0.13 0.14 0.22 0.36 0.49 0.42 0.40 0.48 0.52 0.56 0.66 0.67 0.80 1.01 1.13 1.13 0.98 0.87 0.81 0.80 0.78 0.78 0.76 0.72 0.75 0.81 0.77 0.72 0.67 0.53 0.38 0.30 0.24 0.23 0.22 0.20 0.20 0.20 0.17
1.06 1.08 0.87 0.54 0.26 0.16 0.11 0.12 0.14 0.16 0.17 0.19 0.27 0.44 0.61 0.63 0.67 0.75 0.76 0.74 0.82 0.79 0.90 1.13 1.26 1.21 1.10 1.06 0.98 0.97 0.99 0.94 0.90 0.86 0.93 0.95 0.87 0.76 0.66 0.55 0.43 0.34 0.26 0.24 0.23 0.22 0.23 0.22 0.22
1.12 0.94 0.68 0.42 0.25 0.20 0.15 0.13 0.17 0.19 0.22 0.25 0.28 0.53 0.74 0.91 1.02 1.08 1.12 1.11 1.07 1.07 1.15 1.30 1.32 1.25 1.13 1.04 1.03 1.04 1.10 1.13 1.02 0.92 0.95 0.96 0.90 0.77 0.67 0.52 0.48 0.39 0.33 0.29 0.26 0.25 0.24 0.23 0.23
1.11 1.08 0.66 0.41 0.30 0.24 0.20 0.20 0.18 0.21 0.26 0.29 0.36 0.61 0.84 1.02 1.27 1.49 1.50 1.63 1.55 1.52 1.49 1.50 1.51 1.42 1.25 1.07 1.10 1.08 1.04 1.03 1.04 0.96 0.84 0.78 0.74 0.66 0.62 0.46 0.45 0.42 0.35 0.31 0.27 0.26 0.26 0.23 0.19
1.18 1.23 0.74 0.40 0.33 0.28 0.27 0.29 0.25 0.22 0.31 0.42 0.45 0.59 0.87 1.18 1.54 1.93 1.94 2.03 2.03 1.91 1.88 1.71 1.70 1.61 1.52 1.38 1.27 1.27 1.12 1.01 0.98 0.94 0.80 0.74 0.77 0.69 0.55 0.36 0.34 0.34 0.31 0.27 0.25 0.25 0.25 0.20 0.15
1.27 1.07 0.57 0.32 0.30 0.33 0.34 0.38 0.36 0.34 0.41 0.51 0.63 0.68 1.06 1.52 1.87 2.10 2.15 2.04 2.16 2.07 2.04 1.91 1.82 1.77 1.75 1.52 1.42 1.44 1.27 1.07 0.98 0.90 0.89 0.81 0.78 0.72 0.56 0.43 0.32 0.33 0.29 0.26 0.26 0.26 0.24 0.21 0.16
1.02 0.70 0.47 0.38 0.37 0.40 0.43 0.45 0.47 0.50 0.51 0.53 0.61 0.73 1.09 1.61 2.09 2.19 2.34 2.28 2.29 2.39 2.31 2.16 2.03 1.91 1.87 1.78 1.51 1.45 1.32 1.18 1.09 0.98 0.95 0.90 0.89 0.81 0.69 0.61 0.46 0.41 0.34 0.31 0.31 0.31 0.24 0.21 0.21
0.84 0.56 0.53 0.53 0.48 0.53 0.54 0.53 0.52 0.53 0.52 0.50 0.61 0.73 1.04 1.45 1.90 2.23 2.39 2.46 2.29 2.45 2.51 2.33 2.20 2.09 1.96 1.88 1.73 1.53 1.40 1.23 1.12 1.01 0.92 0.95 0.96 0.86 0.71 0.60 0.51 0.46 0.38 0.35 0.34 0.31 0.25 0.22 0.20
0.74 0.58 0.58 0.61 0.60 0.65 0.67 0.61 0.58 0.53 0.51 0.58 0.80 1.00 1.17 1.39 1.68 2.13 2.45 2.52 2.40 2.34 2.54 2.52 2.37 2.21 2.04 1.95 1.89 1.69 1.43 1.23 1.19 1.19 1.06 0.92 0.86 0.80 0.72 0.59 0.54 0.50 0.44 0.42 0.39 0.34 0.28 0.25 0.22
0.62 0.58 0.65 0.71 0.75 0.74 0.83 0.69 0.68 0.62 0.61 0.77 0.96 1.10 1.31 1.49 1.66 2.04 2.33 2.50 2.36 2.23 2.43 2.55 2.61 2.45 2.21 1.97 1.85 1.79 1.62 1.41 1.34 1.33 1.24 1.11 0.97 0.84 0.74 0.60 0.54 0.50 0.45 0.40 0.41 0.38 0.34 0.31 0.26
0.71 0.76 0.82 0.85 0.83 0.81 0.92 0.91 0.69 0.66 0.76 0.84 0.93 1.09 1.29 1.51 1.79 2.06 2.18 2.39 2.51 2.31 2.36 2.50 2.62 2.68 2.50 2.25 2.00 1.90 1.76 1.58 1.47 1.42 1.44 1.35 1.19 1.03 0.91 0.74 0.58 0.51 0.51 0.48 0.47 0.48 0.41 0.32 0.28
1.12 1.06 0.99 0.85 0.81 0.81 1.04 1.04 0.70 0.66 0.80 0.85 0.92 1.07 1.23 1.41 1.69 1.97 2.17 2.35 2.63 2.61 2.54 2.61 2.59 2.70 2.70 2.53 2.26 2.04 1.89 1.70 1.48 1.33 1.36 1.41 1.32 1.19 1.09 0.99 0.82 0.70 0.65 0.63 0.55 0.50 0.49 0.38 0.31
1.19 0.97 0.78 0.74 0.74 0.82 0.96 0.91 0.76 0.70 0.73 0.83 0.91 1.00 1.21 1.31 1.48 1.71 2.00 2.29 2.61 2.73 2.77 2.83 2.79 2.66 2.70 2.72 2.55 2.26 1.99 1.78 1.60 1.39 1.28 1.32 1.35 1.25 1.14 1.00 0.98 0.95 0.84 0.72 0.64 0.53 0.52 0.48 0.39
0.72 0.57 0.52 0.57 0.59 0.67 0.75 0.73 0.77 0.80 0.77 0.74 0.83 0.86 1.05 1.16 1.22 1.39 1.68 2.11 2.51 2.74 2.74 2.78 2.86 2.90 2.90 2.90 2.85 2.57 2.24 1.94 1.74 1.59 1.45 1.38 1.39 1.36 1.28 1.12 1.05 1.06 1.03 0.92 0.80 0.68 0.59 0.55 0.53
0.56 0.52 0.46 0.37 0.39 0.55 0.62 0.69 0.79 0.85 0.78 0.74 0.81 0.81 0.85 0.98 1.08 1.20 1.41 1.74 2.12 2.56 2.63 2.60 2.63 2.77 2.89 2.94 2.84 2.64 2.34 2.14 1.92 1.74 1.66 1.56 1.47 1.44 1.44 1.31 1.24 1.24 1.20 1.14 1.09 1.00 0.86 0.71 0.68
0.62 0.59 0.52 0.43 0.42 0.57 0.62 0.72 0.72 0.75 0.78 0.75 0.76 0.77 0.74 0.84 1.01 1.14 1.30 1.53 1.71 2.14 2.47 2.49 2.54 2.57 2.62 2.63 2.75 2.79 2.64 2.39 2.17 1.96 1.78 1.64 1.50 1.44 1.45 1.48 1.40 1.31 1.32 1.30 1.26 1.17 1.04 0.91 0.84
0.62 0.50 0.48 0.57 0.61 0.66 0.69 0.75 0.67 0.64 0.71 0.67 0.65 0.69 0.67 0.74 0.94 1.07 1.18 1.42 1.56 1.86 2.26 2.44 2.53 2.60 2.54 2.62 2.95 3.07 2.98 2.64 2.38 2.15 1.91 1.73 1.62 1.55 1.44 1.37 1.39 1.37 1.36 1.36 1.35 1.36 1.35 1.24 1.11
0.68 0.42 0.46 0.61 0.84 0.90 0.71 0.86 0.64 0.61 0.60 0.62 0.60 0.66 0.67 0.70 0.85 0.92 1.01 1.28 1.43 1.62 1.91 2.15 2.44 2.62 2.67 2.71 2.86 2.85 2.65 2.40 2.16 2.12 2.03 1.89 1.78 1.63 1.56 1.49 1.42 1.39 1.38 1.36 1.41 1.44 1.45 1.47 1.36
0.64 0.50 0.57 0.69 0.91 0.94 0.58 0.73 0.62 0.57 0.60 0.63 0.64 0.73 0.76 0.73 0.81 0.93 0.99 1.09 1.20 1.42 1.69 1.82 2.04 2.28 2.43 2.52 2.69 2.78 2.58 2.31 2.12 2.06 2.01 1.92 1.86 1.72 1.59 1.51 1.51 1.48 1.44 1.41 1.42 1.48 1.48 1.49 1.48
0.70 0.84 0.86 0.86 1.18 1.21 0.56 0.59 0.60 0.60 0.61 0.62 0.63 0.70 0.74 0.74 0.81 0.90 0.89 0.96 1.05 1.21 1.50 1.66 1.82 1.99 2.18 2.25 2.42 2.63 2.47 2.22 1.98 1.87 1.84 1.77 1.74 1.64 1.51 1.44 1.40 1.40 1.38 1.36 1.33 1.38 1.43 1.43 1.38
1.05 1.45 1.68 1.54 1.40 0.91 0.42 0.52 0.63 0.57 0.53 0.58 0.66 0.67 0.69 0.70 0.72 0.81 0.85 0.96 1.03 1.13 1.24 1.32 1.45 1.59 1.81 1.96 2.05 2.25 2.28 2.19 2.01 1.81 1.73 1.65 1.57 1.48 1.39 1.34 1.28 1.30 1.30 1.31 1.31 1.30 1.29 1.35 1.36
0.98 1.17 1.35 1.14 0.75 0.48 0.40 0.54 0.58 0.48 0.51 0.57 0.63 0.64 0.61 0.65 0.70 0.72 0.77 0.88 0.99 1.10 1.09 1.05 1.11 1.28 1.40 1.51 1.61 1.79 1.82 1.89 1.91 1.79 1.64 1.55 1.46 1.38 1.34 1.35 1.35 1.34 1.33 1.28 1.29 1.26 1.23 1.25 1.26
0.92 0.92 0.77 0.97 0.70 0.55 0.46 0.46 0.48 0.47 0.51 0.52 0.54 0.58 0.59 0.61 0.62 0.68 0.77 0.83 0.87 0.95 0.96 0.93 0.96 1.03 1.09 1.24 1.34 1.47 1.49 1.51 1.61 1.62 1.57 1.52 1.43 1.34 1.32 1.35 1.32 1.27 1.25 1.19 1.20 1.19 1.13 1.08 1.09
0.78 0.74 0.92 1.31 1.10 0.77 0.46 0.43 0.59 0.52 0.52 0.57 0.55 0.56 0.60 0.58 0.62 0.71 0.82 0.86 0.86 0.89 0.89 0.84 0.86 0.92 0.98 1.06 1.19 1.29 1.30 1.34 1.39 1.41 1.35 1.31 1.27 1.22 1.21 1.24 1.24 1.20 1.16 1.13 1.10 1.07 1.01 0.98 0.93
0.74 0.87 0.97 1.00 0.80 0.80 0.59 0.57 0.54 0.45 0.44 0.48 0.47 0.50 0.53 0.53 0.58 0.70 0.80 0.88 0.89 0.83 0.80 0.79 0.76 0.81 0.88 0.94 1.00 1.08 1.09 1.12 1.22 1.22 1.20 1.17 1.08 1.00 0.99 1.07 1.09 1.05 0.99 0.98 0.99 0.96 0.94 0.94 0.91
0.59 0.63 0.79 1.10 0.78 0.61 0.63 0.60 0.45 0.36 0.33 0.36 0.38 0.40 0.42 0.45 0.51 0.60 0.67 0.71 0.74 0.75 0.77 0.80 0.75 0.77 0.79 0.86 0.94 0.97 0.98 0.96 1.01 1.05 1.07 1.06 1.02 0.95 0.90 0.93 0.97 0.94 0.89 0.86 0.87 0.86 0.86 0.89 0.91

GEFSSGP_prec_meanprecacc_222.txt.gz
Total_Precipitation_Accumulation
0.24 0.28 0.37 0.52 0.45 0.31 0.18 0.07 0.04 0.06 0.07 0.06 0.05 0.06 0.08 0.11 0.17 0.26 0.23 0.19 0.15 0.18 0.30 0.46 0.54 0.58 0.60 0.55 0.45 0.36 0.35 0.38 0.44 0.49 0.51 0.52 0.49 0.43 0.42 0.41 0.44 0.48 0.56 0.56 0.49 0.39 0.30 0.26 0.20
0.24 0.37 0.58 0.67 0.46 0.25 0.12 0.07 0.06 0.07 0.08 0.09 0.08 0.08 0.11 0.16 0.16 0.18 0.25 0.30 0.25 0.26 0.40 0.47 0.58 0.63 0.64 0.62 0.52 0.45 0.39 0.42 0.47 0.52 0.56 0.59 0.55 0.49 0.52 0.50 0.48 0.49 0.50 0.45 0.38 0.33 0.28 0.20 0.16
0.31 0.52 0.80 0.70 0.43 0.25 0.12 0.07 0.07 0.07 0.08 0.11 0.14 0.15 0.20 0.25 0.21 0.25 0.31 0.38 0.41 0.40 0.50 0.63 0.70 0.73 0.74 0.67 0.62 0.56 0.51 0.52 0.56 0.57 0.62 0.61 0.62 0.58 0.63 0.57 0.49 0.43 0.39 0.36 0.32 0.28 0.23 0.17 0.15
0.48 0.79 0.92 0.69 0.37 0.17 0.12 0.09 0.08 0.10 0.10 0.12 0.19 0.28 0.35 0.31 0.27 0.32 0.39 0.44 0.53 0.57 0.66 0.85 0.94 0.94 0.88 0.79 0.73 0.69 0.63 0.62 0.63 0.64 0.68 0.69 0.71 0.70 0.68 0.58 0.44 0.36 0.32 0.32 0.29 0.24 0.21 0.19 0.16
0.75 1.03 0.92 0.61 0.31 0.15 0.10 0.10 0.11 0.13 0.13 0.14 0.22 0.37 0.49 0.42 0.40 0.48 0.52 0.56 0.66 0.68 0.81 1.02 1.16 1.18 1.03 0.92 0.85 0.83 0.81 0.81 0.78 0.74 0.77 0.84 0.80 0.76 0.71 0.56 0.40 0.32 0.31 0.31 0.29 0.27 0.25 0.23 0.19
1.06 1.08 0.87 0.54 0.26 0.16 0.11 0.12 0.14 0.16 0.17 0.19 0.27 0.44 0.61 0.63 0.67 0.75 0.76 0.74 0.83 0.80 0.92 1.15 1.29 1.25 1.16 1.11 1.03 1.02 1.03 0.98 0.92 0.88 0.95 0.99 0.91 0.80 0.69 0.58 0.45 0.36 0.30 0.29 0.28 0.27 0.28 0.26 0.24
1.12 0.94 0.68 0.42 0.25 0.20 0.15 0.13 0.17 0.19 0.22 0.25 0.28 0.54 0.74 0.92 1.02 1.09 1.12 1.11 1.08 1.08 1.17 1.32 1.35 1.28 1.17 1.09 1.09 1.09 1.16 1.19 1.07 0.96 0.97 1.00 0.93 0.79 0.70 0.54 0.50 0.41 0.36 0.33 0.30 0.28 0.27 0.26 0.26
1.11 1.08 0.66 0.41 0.30 0.24 0.20 0.20 0.18 0.21 0.26 0.29 0.36 0.62 0.84 1.02 1.27 1.49 1.50 1.63 1.56 1.53 1.51 1.52 1.54 1.46 1.29 1.11 1.13 1.12 1.10 1.09 1.11 1.03 0.88 0.81 0.77 0.67 0.64 0.47 0.46 0.44 0.37 0.33 0.30 0.29 0.30 0.27 0.22
1.18 1.23 0.74 0.40 0.33 0.28 0.27 0.29 0.25 0.22 0.31 0.42 0.45 0.60 0.88 1.18 1.55 1.93 1.95 2.04 2.04 1.93 1.90 1.74 1.73 1.65 1.58 1.42 1.30 1.30 1.17 1.06 1.05 1.00 0.85 0.78 0.82 0.73 0.57 0.38 0.35 0.35 0.33 0.29 0.27 0.27 0.27 0.23 0.18
1.27 1.07 0.57 0.32 0.30 0.33 0.34 0.38 0.36 0.34 0.41 0.51 0.63 0.69 1.08 1.53 1.87 2.11 2.16 2.05 2.17 2.08 2.06 1.94 1.85 1.81 1.82 1.58 1.45 1.48 1.32 1.13 1.03 0.94 0.93 0.85 0.82 0.78 0.59 0.45 0.34 0.35 0.31 0.28 0.29 0.28 0.26 0.22 0.18
1.02 0.70 0.47 0.38 0.37 0.40 0.43 0.45 0.47 0.50 0.51 0.53 0.61 0.73 1.09 1.61 2.10 2.20 2.36 2.29 2.30 2.40 2.32 2.18 2.06 1.94 1.95 1.87 1.56 1.48 1.36 1.24 1.15 1.02 0.99 0.96 0.96 0.88 0.74 0.65 0.49 0.44 0.36 0.33 0.32 0.33 0.26 0.23 0.23
0.84 0.56 0.53 0.53 0.48 0.53 0.54 0.53 0.52 0.53 0.52 0.50 0.61 0.73 1.06 1.46 1.91 2.25 2.40 2.47 2.31 2.46 2.52 2.35 2.23 2.13 2.03 1.98 1.79 1.56 1.43 1.28 1.17 1.06 0.96 1.02 1.03 0.92 0.78 0.65 0.54 0.49 0.40 0.37 0.35 0.32 0.26 0.23 0.21
0.74 0.58 0.58 0.61 0.60 0.65 0.67 0.61 0.58 0.53 0.51 0.58 0.80 1.00 1.18 1.41 1.69 2.15 2.46 2.53 2.41 2.35 2.55 2.53 2.39 2.25 2.11 2.06 1.96 1.73 1.47 1.28 1.24 1.25 1.12 0.98 0.92 0.85 0.78 0.65 0.59 0.53 0.47 0.44 0.40 0.34 0.29 0.26 0.23
0.62 0.58 0.65 0.71 0.75 0.74 0.83 0.69 0.68 0.62 0.61 0.77 0.96 1.10 1.32 1.51 1.68 2.05 2.34 2.50 2.37 2.24 2.43 2.56 2.62 2.49 2.27 2.06 1.92 1.84 1.66 1.45 1.39 1.38 1.30 1.19 1.04 0.93 0.81 0.67 0.60 0.54 0.48 0.43 0.42 0.39 0.35 0.32 0.28
0.71 0.76 0.82 0.85 0.83 0.81 0.92 0.91 0.69 0.66 0.76 0.84 0.93 1.09 1.30 1.53 1.81 2.08 2.19 2.39 2.52 2.33 2.37 2.51 2.64 2.71 2.54 2.31 2.07 1.95 1.81 1.64 1.53 1.47 1.50 1.42 1.26 1.10 0.99 0.83 0.66 0.57 0.56 0.52 0.49 0.49 0.42 0.33 0.29
1.12 1.06 0.99 0.85 0.81 0.81 1.04 1.04 0.70 0.66 0.80 0.85 0.92 1.07 1.24 1.43 1.71 1.99 2.18 2.36 2.64 2.62 2.56 2.63 2.61 2.72 2.73 2.58 2.32 2.08 1.93 1.75 1.55 1.39 1.43 1.49 1.39 1.25 1.15 1.08 0.91 0.77 0.72 0.68 0.58 0.51 0.50 0.38 0.31
1.20 0.97 0.79 0.74 0.74 0.82 0.96 0.91 0.76 0.70 0.73 0.83 0.91 1.00 1.21 1.32 1.49 1.72 2.01 2.31 2.62 2.75 2.78 2.84 2.80 2.67 2.72 2.76 2.61 2.30 2.01 1.81 1.65 1.45 1.34 1.39 1.44 1.33 1.19 1.06 1.05 1.02 0.92 0.79 0.69 0.55 0.54 0.48 0.39
0.72 0.57 0.52 0.58 0.60 0.67 0.75 0.73 0.77 0.80 0.77 0.74 0.83 0.87 1.06 1.17 1.23 1.40 1.71 2.14 2.53 2.75 2.75 2.79 2.87 2.91 2.92 2.93 2.91 2.62 2.26 1.95 1.76 1.63 1.49 1.43 1.46 1.45 1.36 1.20 1.12 1.11 1.08 0.97 0.84 0.71 0.61 0.56 0.53
0.56 0.52 0.46 0.37 0.39 0.55 0.62 0.69 0.79 0.85 0.78 0.74 0.82 0.82 0.87 0.98 1.09 1.21 1.44 1.79 2.15 2.58 2.64 2.61 2.64 2.78 2.91 2.97 2.88 2.68 2.37 2.16 1.93 1.77 1.69 1.60 1.52 1.50 1.52 1.40 1.32 1.30 1.24 1.16 1.11 1.03 0.88 0.72 0.70
0.62 0.59 0.52 0.43 0.42 0.57 0.62 0.72 0.72 0.75 0.78 0.75 0.76 0.77 0.75 0.85 1.02 1.14 1.32 1.57 1.75 2.15 2.48 2.49 2.54 2.58 2.63 2.65 2.78 2.81 2.66 2.41 2.19 1.98 1.81 1.67 1.53 1.47 1.50 1.54 1.46 1.36 1.35 1.33 1.29 1.20 1.06 0.92 0.86
0.63 0.50 0.49 0.57 0.61 0.66 0.69 0.75 0.67 0.64 0.71 0.67 0.65 0.69 0.67 0.74 0.94 1.07 1.19 1.46 1.60 1.89 2.27 2.44 2.54 2.60 2.55 2.64 2.96 3.09 3.01 2.66 2.40 2.17 1.93 1.76 1.65 1.57 1.47 1.41 1.44 1.40 1.39 1.39 1.38 1.39 1.38 1.26 1.13
0.70 0.42 0.46 0.61 0.84 0.90 0.71 0.86 0.65 0.62 0.61 0.62 0.61 0.66 0.67 0.70 0.85 0.92 1.02 1.31 1.47 1.65 1.92 2.15 2.44 2.62 2.68 2.72 2.87 2.87 2.67 2.41 2.17 2.13 2.04 1.91 1.80 1.66 1.58 1.52 1.45 1.42 1.41 1.38 1.43 1.46 1.48 1.50 1.39
0.65 0.51 0.57 0.70 0.92 0.95 0.59 0.74 0.63 0.57 0.60 0.64 0.65 0.73 0.76 0.73 0.81 0.94 0.99 1.12 1.23 1.44 1.70 1.82 2.04 2.29 2.44 2.53 2.70 2.80 2.60 2.33 2.13 2.07 2.02 1.94 1.88 1.74 1.61 1.53 1.53 1.50 1.45 1.42 1.44 1.49 1.51 1.53 1.52
0.71 0.86 0.88 0.89 1.22 1.25 0.57 0.60 0.61 0.60 0.62 0.62 0.64 0.70 0.74 0.74 0.82 0.90 0.91 0.98 1.08 1.22 1.51 1.66 1.83 2.00 2.19 2.26 2.44 2.65 2.50 2.26 2.00 1.89 1.86 1.79 1.76 1.67 1.54 1.46 1.43 1.42 1.40 1.38 1.35 1.40 1.45 1.46 1.43
1.08 1.50 1.75 1.60 1.46 0.94 0.44 0.54 0.64 0.57 0.54 0.59 0.67 0.67 0.69 0.70 0.73 0.81 0.86 0.98 1.06 1.16 1.26 1.34 1.46 1.60 1.82 1.97 2.07 2.27 2.31 2.23 2.05 1.83 1.76 1.68 1.60 1.50 1.41 1.37 1.32 1.33 1.32 1.33 1.34 1.33 1.31 1.37 1.40
1.02 1.21 1.39 1.18 0.77 0.49 0.41 0.55 0.58 0.50 0.53 0.58 0.64 0.65 0.62 0.65 0.71 0.72 0.78 0.90 1.01 1.11 1.10 1.06 1.13 1.29 1.42 1.53 1.63 1.80 1.84 1.92 1.94 1.82 1.66 1.58 1.48 1.40 1.36 1.38 1.38 1.37 1.36 1.31 1.31 1.29 1.26 1.28 1.29
0.97 0.97 0.80 1.00 0.72 0.57 0.47 0.47 0.49 0.48 0.53 0.54 0.55 0.58 0.60 0.62 0.63 0.69 0.78 0.84 0.88 0.96 0.96 0.94 0.97 1.05 1.11 1.26 1.35 1.49 1.51 1.53 1.62 1.64 1.59 1.55 1.45 1.36 1.34 1.37 1.35 1.31 1.28 1.21 1.22 1.21 1.15 1.10 1.11
0.82 0.79 0.96 1.37 1.15 0.79 0.46 0.44 0.62 0.54 0.54 0.58 0.56 0.57 0.61 0.60 0.63 0.73 0.83 0.87 0.87 0.91 0.90 0.85 0.87 0.93 0.99 1.08 1.21 1.31 1.33 1.37 1.41 1.43 1.38 1.33 1.30 1.25 1.23 1.27 1.27 1.23 1.19 1.16 1.12 1.08 1.03 1.00 0.95
0.80 0.92 1.03 1.06 0.85 0.83 0.62 0.60 0.57 0.47 0.45 0.49 0.48 0.51 0.54 0.54 0.60 0.72 0.82 0.90 0.90 0.85 0.81 0.80 0.78 0.82 0.89 0.96 1.03 1.11 1.12 1.16 1.25 1.25 1.24 1.20 1.11 1.03 1.03 1.10 1.12 1.08 1.02 1.01 1.02 0.98 0.96 0.95 0.92
0.65 0.69 0.84 1.17 0.83 0.64 0.67 0.65 0.47 0.37 0.34 0.36 0.38 0.41 0.44 0.46 0.52 0.62 0.69 0.73 0.76 0.77 0.79 0.82 0.77 0.78 0.80 0.88 0.96 0.99 1.01 0.99 1.05 1.09 1.11 1.10 1.05 0.98 0.94 0.97 1.01 0.98 0.93 0.90 0.90 0.89 0.88 0.92 0.93

GEFSSGP_prec_meanprecacc_228.txt.gz
Total_Precipitation_Accumulation
0.24 0.28 0.37 0.52 0.45 0.31 0.18 0.07 0.04 0.06 0.07 0.06 0.05 0.06 0.08 0.11 0.17 0.26 0.23 0.19 0.15 0.18 0.30 0.47 0.54 0.58 0.61 0.56 0.46 0.36 0.36 0.40 0.45 0.49 0.51 0.53 0.50 0.44 0.43 0.43 0.46 0.50 0.57 0.58 0.52 0.42 0.33 0.28 0.23
0.24 0.37 0.58 0.67 0.46 0.26 0.12 0.07 0.06 0.07 0.08 0.09 0.08 0.08 0.11 0.16 0.16 0.18 0.25 0.30 0.25 0.26 0.40 0.47 0.59 0.64 0.65 0.63 0.54 0.46 0.41 0.44 0.49 0.53 0.57 0.61 0.57 0.51 0.54 0.52 0.50 0.50 0.51 0.47 0.41 0.36 0.31 0.23 0.18
0.31 0.52 0.80 0.70 0.43 0.25 0.12 0.07 0.07 0.07 0.08 0.11 0.14 0.15 0.20 0.25 0.21 0.25 0.31 0.38 0.41 0.40 0.50 0.63 0.70 0.73 0.75 0.69 0.64 0.58 0.52 0.54 0.58 0.59 0.64 0.63 0.64 0.60 0.66 0.59 0.50 0.45 0.41 0.38 0.35 0.30 0.25 0.19 0.18
0.48 0.79 0.92 0.69 0.37 0.17 0.12 0.09 0.08 0.10 0.10 0.12 0.19 0.28 0.35 0.31 0.27 0.32 0.39 0.44 0.53 0.57 0.66 0.85 0.95 0.95 0.89 0.80 0.75 0.71 0.65 0.64 0.66 0.67 0.70 0.72 0.74 0.73 0.71 0.59 0.46 0.37 0.34 0.33 0.31 0.26 0.23 0.21 0.19
0.75 1.03 0.92 0.61 0.31 0.15 0.10 0.10 0.11 0.13 0.13 0.14 0.22 0.37 0.49 0.42 0.40 0.48 0.52 0.56 0.66 0.68 0.81 1.03 1.17 1.19 1.05 0.94 0.87 0.85 0.83 0.82 0.80 0.77 0.80 0.88 0.85 0.80 0.73 0.58 0.41 0.33 0.32 0.33 0.30 0.28 0.27 0.27 0.23
1.06 1.08 0.87 0.54 0.26 0.16 0.11 0.12 0.14 0.16 0.17 0.19 0.27 0.44 0.61 0.63 0.67 0.76 0.77 0.74 0.83 0.80 0.92 1.15 1.30 1.26 1.17 1.13 1.06 1.05 1.06 1.00 0.95 0.91 0.98 1.01 0.95 0.84 0.73 0.60 0.47 0.37 0.31 0.30 0.28 0.28 0.29 0.28 0.27
1.12 0.94 0.68 0.42 0.25 0.20 0.15 0.13 0.17 0.19 0.22 0.25 0.28 0.54 0.75 0.93 1.04 1.10 1.13 1.11 1.08 1.08 1.17 1.33 1.36 1.28 1.17 1.10 1.12 1.12 1.19 1.21 1.10 1.00 1.01 1.03 0.96 0.82 0.74 0.57 0.52 0.43 0.37 0.34 0.30 0.29 0.29 0.28 0.28
1.11 1.08 0.66 0.41 0.30 0.24 0.20 0.20 0.18 0.21 0.26 0.29 0.36 0.62 0.85 1.04 1.30 1.51 1.51 1.64 1.57 1.53 1.52 1.53 1.55 1.47 1.30 1.12 1.15 1.15 1.13 1.11 1.13 1.06 0.91 0.85 0.79 0.70 0.67 0.50 0.48 0.45 0.38 0.34 0.31 0.30 0.32 0.29 0.23
1.18 1.23 0.74 0.40 0.33 0.28 0.27 0.29 0.25 0.22 0.31 0.42 0.45 0.60 0.88 1.20 1.57 1.96 1.97 2.05 2.05 1.94 1.91 1.75 1.74 1.66 1.59 1.43 1.31 1.33 1.21 1.11 1.07 1.03 0.86 0.80 0.86 0.76 0.59 0.40 0.36 0.36 0.33 0.30 0.28 0.28 0.29 0.24 0.18
1.27 1.07 0.57 0.32 0.30 0.33 0.34 0.38 0.36 0.34 0.41 0.51 0.63 0.69 1.08 1.55 1.90 2.13 2.19 2.08 2.18 2.09 2.07 1.95 1.86 1.81 1.83 1.59 1.47 1.51 1.36 1.19 1.07 0.96 0.94 0.86 0.84 0.82 0.62 0.47 0.35 0.36 0.32 0.29 0.30 0.30 0.28 0.23 0.18
1.02 0.70 0.47 0.38 0.37 0.40 0.43 0.45 0.47 0.50 0.51 0.53 0.61 0.73 1.10 1.62 2.12 2.22 2.39 2.33 2.32 2.41 2.33 2.19 2.08 1.96 1.96 1.88 1.57 1.50 1.39 1.29 1.20 1.04 1.00 0.97 0.97 0.91 0.79 0.68 0.51 0.46 0.37 0.34 0.34 0.34 0.27 0.24 0.23
0.84 0.56 0.53 0.53 0.48 0.53 0.54 0.53 0.52 0.53 0.52 0.50 0.61 0.73 1.06 1.46 1.91 2.26 2.43 2.52 2.35 2.49 2.54 2.36 2.24 2.14 2.05 1.99 1.80 1.58 1.45 1.32 1.22 1.08 0.97 1.02 1.05 0.96 0.82 0.70 0.58 0.51 0.41 0.38 0.36 0.32 0.27 0.24 0.22
0.74 0.58 0.58 0.61 0.60 0.65 0.67 0.61 0.58 0.53 0.51 0.58 0.80 1.00 1.18 1.41 1.69 2.16 2.48 2.57 2.45 2.40 2.59 2.56 2.41 2.27 2.13 2.07 1.99 1.75 1.49 1.30 1.26 1.26 1.14 0.99 0.94 0.87 0.82 0.70 0.65 0.57 0.49 0.45 0.41 0.35 0.30 0.28 0.24
0.62 0.58 0.65 0.71 0.75 0.74 0.83 0.69 0.68 0.62 0.61 0.77 0.96 1.10 1.32 1.51 1.69 2.07 2.36 2.53 2.40 2.27 2.47 2.58 2.64 2.51 2.29 2.09 1.97 1.87 1.68 1.47 1.41 1.39 1.32 1.21 1.06 0.95 0.84 0.73 0.68 0.62 0.53 0.46 0.45 0.40 0.37 0.34 0.29
0.71 0.76 0.82 0.85 0.83 0.81 0.92 0.91 0.69 0.66 0.76 0.84 0.93 1.09 1.30 1.53 1.81 2.09 2.20 2.41 2.55 2.36 2.40 2.54 2.68 2.73 2.56 2.34 2.13 2.00 1.85 1.67 1.54 1.49 1.51 1.44 1.28 1.12 1.03 0.88 0.73 0.66 0.65 0.60 0.55 0.52 0.44 0.35 0.30
1.12 1.06 0.99 0.85 0.81 0.81 1.04 1.04 0.70 0.66 0.80 0.85 0.92 1.07 1.24 1.43 1.71 1.99 2.19 2.38 2.67 2.66 2.59 2.67 2.65 2.76 2.75 2.60 2.36 2.12 1.98 1.80 1.57 1.41 1.44 1.50 1.40 1.28 1.20 1.14 0.99 0.86 0.81 0.77 0.65 0.55 0.53 0.41 0.33
1.20 0.98 0.79 0.74 0.74 0.82 0.96 0.91 0.76 0.70 0.73 0.83 0.91 1.00 1.21 1.32 1.49 1.73 2.02 2.32 2.64 2.79 2.83 2.90 2.85 2.71 2.75 2.79 2.63 2.33 2.06 1.86 1.70 1.47 1.35 1.40 1.45 1.35 1.22 1.11 1.12 1.12 1.01 0.88 0.77 0.63 0.60 0.53 0.41
0.73 0.58 0.52 0.58 0.60 0.67 0.75 0.73 0.77 0.80 0.77 0.74 0.83 0.87 1.06 1.17 1.23 1.41 1.71 2.15 2.56 2.78 2.80 2.84 2.92 2.95 2.94 2.96 2.94 2.65 2.31 1.99 1.80 1.67 1.51 1.45 1.47 1.47 1.38 1.23 1.16 1.19 1.18 1.09 0.96 0.81 0.69 0.61 0.57
0.57 0.53 0.47 0.38 0.39 0.55 0.62 0.69 0.79 0.85 0.78 0.75 0.82 0.82 0.87 0.99 1.09 1.21 1.44 1.79 2.17 2.61 2.68 2.65 2.68 2.81 2.93 2.98 2.90 2.72 2.41 2.20 1.97 1.80 1.72 1.63 1.55 1.53 1.55 1.43 1.35 1.35 1.31 1.26 1.22 1.13 0.96 0.77 0.72
0.64 0.61 0.53 0.43 0.42 0.57 0.62 0.72 0.72 0.75 0.79 0.76 0.76 0.77 0.75 0.85 1.02 1.15 1.33 1.57 1.76 2.18 2.51 2.53 2.57 2.61 2.65 2.66 2.79 2.84 2.70 2.45 2.22 2.01 1.83 1.69 1.55 1.50 1.53 1.56 1.50 1.40 1.40 1.38 1.35 1.27 1.13 0.98 0.89
0.65 0.52 0.50 0.58 0.61 0.67 0.69 0.75 0.67 0.64 0.71 0.68 0.66 0.70 0.67 0.74 0.94 1.08 1.19 1.46 1.61 1.90 2.29 2.46 2.55 2.62 2.56 2.65 2.97 3.11 3.04 2.71 2.44 2.20 1.96 1.77 1.66 1.59 1.49 1.44 1.47 1.43 1.42 1.42 1.41 1.42 1.42 1.31 1.17
0.72 0.43 0.47 0.62 0.86 0.91 0.71 0.87 0.65 0.62 0.61 0.62 0.62 0.66 0.67 0.70 0.85 0.92 1.02 1.31 1.47 1.65 1.93 2.16 2.45 2.63 2.69 2.73 2.88 2.88 2.68 2.45 2.21 2.15 2.06 1.93 1.82 1.68 1.60 1.54 1.48 1.46 1.44 1.40 1.44 1.48 1.50 1.53 1.43
0.67 0.52 0.59 0.71 0.94 0.97 0.60 0.75 0.63 0.57 0.61 0.64 0.66 0.74 0.76 0.73 0.81 0.94 0.99 1.12 1.23 1.44 1.71 1.83 2.04 2.29 2.44 2.53 2.71 2.80 2.61 2.35 2.17 2.10 2.04 1.96 1.90 1.77 1.64 1.55 1.55 1.53 1.48 1.44 1.45 1.50 1.53 1.56 1.55
0.72 0.89 0.91 0.91 1.25 1.29 0.58 0.61 0.61 0.61 0.62 0.63 0.64 0.71 0.74 0.74 0.82 0.90 0.91 0.99 1.08 1.22 1.52 1.67 1.83 2.00 2.19 2.26 2.44 2.66 2.51 2.27 2.02 1.92 1.88 1.81 1.77 1.69 1.57 1.50 1.46 1.44 1.42 1.39 1.37 1.41 1.46 1.48 1.46
1.10 1.54 1.82 1.67 1.53 0.98 0.44 0.55 0.66 0.59 0.56 0.61 0.68 0.68 0.69 0.70 0.73 0.81 0.86 0.99 1.06 1.16 1.27 1.34 1.47 1.60 1.82 1.97 2.07 2.28 2.32 2.24 2.06 1.85 1.78 1.70 1.62 1.52 1.43 1.40 1.36 1.36 1.34 1.34 1.35 1.34 1.32 1.39 1.41
1.05 1.25 1.45 1.24 0.81 0.51 0.42 0.57 0.62 0.52 0.55 0.59 0.65 0.66 0.62 0.65 0.71 0.72 0.78 0.90 1.02 1.12 1.11 1.07 1.14 1.30 1.42 1.53 1.63 1.81 1.84 1.93 1.95 1.83 1.67 1.59 1.50 1.42 1.39 1.40 1.40 1.40 1.39 1.33 1.33 1.31 1.27 1.30 1.31
1.01 1.01 0.84 1.06 0.75 0.59 0.49 0.49 0.52 0.50 0.54 0.55 0.56 0.60 0.61 0.63 0.64 0.69 0.78 0.84 0.89 0.97 0.97 0.95 0.98 1.06 1.12 1.27 1.36 1.50 1.52 1.54 1.63 1.65 1.60 1.55 1.46 1.37 1.36 1.40 1.38 1.33 1.30 1.24 1.24 1.24 1.17 1.13 1.14
0.87 0.84 1.01 1.43 1.21 0.82 0.49 0.47 0.66 0.58 0.56 0.59 0.57 0.59 0.63 0.62 0.65 0.74 0.83 0.88 0.88 0.91 0.90 0.85 0.89 0.95 1.00 1.09 1.22 1.32 1.34 1.38 1.42 1.44 1.39 1.34 1.30 1.25 1.24 1.28 1.30 1.26 1.21 1.18 1.15 1.11 1.06 1.03 0.98
0.84 0.96 1.09 1.12 0.91 0.88 0.66 0.65 0.63 0.52 0.49 0.52 0.50 0.52 0.55 0.56 0.62 0.73 0.83 0.91 0.91 0.86 0.82 0.81 0.79 0.84 0.91 0.97 1.04 1.12 1.13 1.17 1.26 1.26 1.25 1.21 1.12 1.04 1.04 1.11 1.13 1.10 1.05 1.04 1.04 1.01 0.99 0.98 0.95
0.68 0.73 0.90 1.24 0.90 0.70 0.72 0.72 0.53 0.41 0.38 0.40 0.40 0.42 0.45 0.47 0.53 0.63 0.71 0.74 0.77 0.78 0.81 0.83 0.78 0.79 0.82 0.90 0.97 1.01 1.02 1.00 1.06 1.10 1.12 1.10 1.06 0.99 0.94 0.97 1.02 0.99 0.95 0.92 0.93 0.92 0.91 0.95 0.96

GEFSSGP_prec_meanprecacc_234.txt.gz
Total_Precipitation_Accumulation
0.24 0.28 0.37 0.52 0.45 0.31 0.18 0.07 0.04 0.06 0.07 0.06 0.05 0.06 0.08 0.11 0.17 0.26 0.23 0.19 0.15 0.18 0.30 0.48 0.55 0.60 0.63 0.58 0.47 0.37 0.37 0.41 0.47 0.52 0.54 0.56 0.52 0.45 0.44 0.44 0.47 0.51 0.60 0.61 0.54 0.44 0.34 0.30 0.24
0.24 0.37 0.59 0.68 0.46 0.26 0.12 0.07 0.06 0.07 0.08 0.09 0.08 0.08 0.11 0.16 0.16 0.18 0.25 0.30 0.25 0.26 0.40 0.48 0.60 0.64 0.66 0.64 0.54 0.47 0.42 0.46 0.51 0.56 0.59 0.64 0.60 0.52 0.55 0.53 0.51 0.53 0.54 0.50 0.43 0.38 0.32 0.24 0.19
0.31 0.52 0.81 0.70 0.43 0.25 0.12 0.07 0.07 0.07 0.08 0.11 0.14 0.15 0.20 0.25 0.21 0.25 0.31 0.38 0.41 0.40 0.50 0.64 0.71 0.74 0.75 0.70 0.65 0.59 0.53 0.55 0.60 0.62 0.68 0.67 0.67 0.63 0.68 0.60 0.52 0.47 0.43 0.41 0.37 0.32 0.26 0.20 0.19
0.48 0.80 0.92 0.69 0.37 0.17 0.12 0.09 0.08 0.10 0.10 0.12 0.19 0.28 0.35 0.31 0.27 0.32 0.39 0.44 0.53 0.57 0.67 0.86 0.96 0.96 0.90 0.81 0.76 0.72 0.66 0.65 0.67 0.69 0.74 0.76 0.78 0.76 0.73 0.61 0.48 0.39 0.35 0.35 0.33 0.28 0.25 0.23 0.19
0.75 1.03 0.92 0.61 0.31 0.15 0.10 0.10 0.11 0.13 0.13 0.14 0.22 0.37 0.49 0.43 0.40 0.49 0.52 0.56 0.66 0.68 0.81 1.03 1.18 1.21 1.07 0.95 0.89 0.87 0.84 0.83 0.82 0.79 0.84 0.92 0.89 0.84 0.76 0.60 0.43 0.35 0.33 0.34 0.32 0.30 0.29 0.27 0.23
1.06 1.08 0.87 0.55 0.26 0.16 0.11 0.12 0.14 0.16 0.17 0.19 0.27 0.44 0.62 0.63 0.68 0.76 0.77 0.75 0.83 0.80 0.92 1.16 1.31 1.28 1.20 1.16 1.08 1.07 1.08 1.01 0.96 0.93 1.02 1.05 0.98 0.87 0.76 0.63 0.50 0.40 0.32 0.31 0.30 0.30 0.31 0.29 0.28
1.12 0.94 0.68 0.42 0.25 0.20 0.15 0.13 0.17 0.19 0.22 0.25 0.28 0.54 0.75 0.93 1.04 1.11 1.14 1.13 1.09 1.09 1.18 1.34 1.37 1.30 1.20 1.13 1.15 1.15 1.21 1.23 1.11 1.01 1.04 1.06 0.98 0.84 0.76 0.60 0.55 0.46 0.40 0.36 0.32 0.30 0.31 0.30 0.29
1.11 1.08 0.66 0.41 0.30 0.24 0.20 0.20 0.18 0.21 0.26 0.29 0.36 0.62 0.85 1.04 1.30 1.52 1.53 1.66 1.59 1.55 1.53 1.54 1.56 1.48 1.31 1.13 1.17 1.18 1.16 1.14 1.16 1.08 0.93 0.87 0.81 0.71 0.69 0.52 0.51 0.48 0.41 0.36 0.33 0.32 0.34 0.31 0.25
1.18 1.24 0.74 0.40 0.33 0.28 0.27 0.29 0.25 0.22 0.31 0.42 0.45 0.60 0.88 1.20 1.58 1.97 2.00 2.09 2.09 1.97 1.92 1.76 1.75 1.67 1.61 1.45 1.33 1.35 1.24 1.14 1.10 1.06 0.89 0.83 0.87 0.77 0.60 0.42 0.40 0.40 0.37 0.33 0.30 0.31 0.31 0.25 0.19
1.28 1.07 0.57 0.32 0.30 0.33 0.34 0.38 0.36 0.34 0.41 0.51 0.63 0.69 1.08 1.55 1.91 2.15 2.21 2.13 2.26 2.17 2.12 1.99 1.88 1.83 1.85 1.61 1.48 1.52 1.38 1.22 1.10 0.98 0.96 0.89 0.86 0.83 0.64 0.50 0.38 0.39 0.36 0.33 0.33 0.33 0.31 0.25 0.19
1.02 0.70 0.47 0.38 0.37 0.40 0.43 0.45 0.47 0.50 0.51 0.53 0.61 0.73 1.10 1.62 2.12 2.23 2.40 2.35 2.39 2.50 2.41 2.26 2.12 1.98 1.97 1.90 1.59 1.52 1.41 1.32 1.23 1.07 1.02 0.98 0.99 0.93 0.82 0.71 0.54 0.48 0.40 0.37 0.37 0.36 0.29 0.25 0.24
0.84 0.56 0.53 0.53 0.48 0.53 0.54 0.53 0.52 0.53 0.52 0.50 0.61 0.73 1.06 1.47 1.92 2.27 2.44 2.53 2.38 2.55 2.61 2.44 2.31 2.19 2.07 2.01 1.82 1.60 1.47 1.34 1.25 1.11 1.00 1.05 1.07 0.97 0.84 0.73 0.61 0.53 0.44 0.40 0.39 0.35 0.29 0.25 0.23
0.74 0.58 0.58 0.61 0.60 0.65 0.67 0.61 0.58 0.53 0.51 0.58 0.80 1.00 1.18 1.41 1.70 2.16 2.49 2.58 2.47 2.43 2.64 2.61 2.48 2.33 2.16 2.09 2.01 1.77 1.51 1.33 1.31 1.30 1.18 1.02 0.96 0.89 0.83 0.71 0.68 0.59 0.51 0.47 0.44 0.38 0.33 0.30 0.27
0.63 0.59 0.65 0.72 0.75 0.74 0.83 0.69 0.68 0.62 0.61 0.77 0.96 1.10 1.32 1.51 1.69 2.07 2.37 2.53 2.41 2.29 2.51 2.64 2.70 2.56 2.33 2.11 1.99 1.89 1.70 1.51 1.46 1.43 1.35 1.23 1.09 0.97 0.85 0.73 0.70 0.65 0.56 0.49 0.48 0.44 0.41 0.38 0.32
0.72 0.77 0.82 0.85 0.83 0.81 0.92 0.91 0.69 0.66 0.76 0.84 0.93 1.09 1.30 1.53 1.82 2.09 2.21 2.42 2.56 2.37 2.43 2.59 2.72 2.77 2.59 2.37 2.15 2.02 1.87 1.69 1.57 1.51 1.54 1.45 1.30 1.14 1.05 0.89 0.75 0.68 0.68 0.64 0.58 0.56 0.47 0.38 0.33
1.13 1.07 1.00 0.86 0.81 0.81 1.05 1.04 0.70 0.66 0.80 0.85 0.92 1.07 1.24 1.43 1.71 2.00 2.19 2.38 2.67 2.67 2.62 2.70 2.69 2.79 2.78 2.63 2.38 2.14 2.01 1.83 1.60 1.43 1.46 1.52 1.42 1.29 1.22 1.15 1.00 0.87 0.83 0.80 0.68 0.58 0.55 0.43 0.35
1.21 0.99 0.79 0.74 0.75 0.83 0.96 0.91 0.76 0.70 0.73 0.83 0.91 1.00 1.21 1.32 1.49 1.73 2.02 2.33 2.65 2.80 2.85 2.94 2.90 2.74 2.77 2.83 2.67 2.36 2.08 1.88 1.72 1.50 1.38 1.43 1.48 1.37 1.24 1.13 1.13 1.13 1.03 0.90 0.79 0.65 0.64 0.57 0.44
0.74 0.59 0.53 0.58 0.60 0.67 0.76 0.73 0.77 0.80 0.77 0.74 0.83 0.87 1.06 1.17 1.23 1.41 1.72 2.16 2.57 2.80 2.82 2.87 2.96 2.99 2.98 2.99 2.98 2.70 2.34 2.02 1.83 1.69 1.54 1.48 1.51 1.49 1.40 1.25 1.18 1.20 1.19 1.10 0.98 0.84 0.73 0.67 0.62
0.59 0.54 0.48 0.38 0.40 0.55 0.63 0.69 0.79 0.85 0.78 0.75 0.82 0.82 0.87 0.99 1.09 1.22 1.45 1.81 2.19 2.63 2.70 2.67 2.71 2.86 2.98 3.01 2.93 2.74 2.43 2.23 1.99 1.82 1.74 1.65 1.58 1.57 1.58 1.45 1.37 1.36 1.33 1.28 1.24 1.16 1.01 0.83 0.79
0.65 0.63 0.54 0.44 0.42 0.58 0.63 0.72 0.72 0.75 0.79 0.76 0.76 0.77 0.75 0.85 1.02 1.15 1.33 1.59 1.77 2.20 2.54 2.56 2.60 2.64 2.69 2.70 2.82 2.86 2.73 2.48 2.25 2.04 1.86 1.73 1.60 1.55 1.58 1.60 1.52 1.42 1.41 1.40 1.36 1.28 1.16 1.03 0.95
0.67 0.53 0.51 0.59 0.62 0.67 0.69 0.75 0.67 0.64 0.71 0.68 0.66 0.70 0.67 0.74 0.94 1.08 1.19 1.47 1.62 1.92 2.31 2.48 2.57 2.64 2.59 2.69 3.00 3.14 3.08 2.75 2.48 2.23 1.98 1.80 1.71 1.65 1.55 1.49 1.51 1.47 1.46 1.44 1.42 1.43 1.44 1.33 1.20
0.74 0.44 0.48 0.64 0.88 0.93 0.72 0.88 0.65 0.62 0.62 0.62 0.62 0.67 0.67 0.71 0.85 0.92 1.02 1.31 1.48 1.66 1.95 2.18 2.47 2.65 2.71 2.76 2.90 2.89 2.70 2.47 2.23 2.16 2.07 1.95 1.84 1.71 1.65 1.59 1.52 1.50 1.48 1.44 1.47 1.50 1.51 1.55 1.44
0.68 0.53 0.60 0.73 0.97 0.99 0.61 0.76 0.64 0.58 0.61 0.65 0.66 0.75 0.77 0.74 0.81 0.94 1.00 1.12 1.23 1.45 1.72 1.84 2.06 2.31 2.46 2.55 2.73 2.82 2.62 2.36 2.19 2.13 2.06 1.97 1.92 1.79 1.67 1.60 1.58 1.55 1.51 1.48 1.48 1.53 1.54 1.57 1.57
0.74 0.90 0.93 0.93 1.29 1.33 0.59 0.62 0.63 0.63 0.64 0.64 0.65 0.71 0.75 0.75 0.82 0.90 0.91 0.99 1.09 1.23 1.53 1.68 1.84 2.01 2.20 2.27 2.46 2.67 2.53 2.28 2.03 1.94 1.91 1.83 1.79 1.71 1.58 1.53 1.50 1.47 1.43 1.41 1.38 1.43 1.48 1.50 1.48
1.12 1.58 1.87 1.72 1.60 1.01 0.45 0.57 0.69 0.62 0.58 0.62 0.69 0.69 0.70 0.71 0.73 0.82 0.87 0.99 1.07 1.17 1.28 1.35 1.47 1.60 1.82 1.98 2.08 2.29 2.33 2.25 2.07 1.85 1.79 1.71 1.63 1.53 1.45 1.41 1.39 1.41 1.38 1.36 1.36 1.36 1.34 1.40 1.43
1.08 1.28 1.49 1.28 0.84 0.53 0.43 0.59 0.64 0.55 0.57 0.61 0.67 0.68 0.63 0.67 0.72 0.73 0.79 0.91 1.02 1.12 1.11 1.08 1.14 1.30 1.42 1.54 1.63 1.81 1.85 1.94 1.97 1.84 1.68 1.61 1.52 1.43 1.40 1.41 1.42 1.43 1.44 1.37 1.36 1.33 1.29 1.31 1.33
1.04 1.05 0.88 1.11 0.78 0.61 0.52 0.52 0.55 0.51 0.56 0.57 0.58 0.62 0.63 0.65 0.65 0.70 0.79 0.85 0.90 0.97 0.98 0.96 0.99 1.06 1.12 1.27 1.36 1.50 1.52 1.54 1.64 1.66 1.61 1.56 1.47 1.38 1.37 1.41 1.39 1.35 1.33 1.28 1.28 1.27 1.21 1.15 1.16
0.89 0.87 1.05 1.49 1.26 0.86 0.53 0.52 0.71 0.61 0.59 0.62 0.60 0.61 0.65 0.64 0.66 0.74 0.84 0.89 0.89 0.92 0.91 0.86 0.89 0.95 1.00 1.09 1.23 1.32 1.34 1.39 1.43 1.45 1.40 1.34 1.31 1.26 1.24 1.29 1.31 1.27 1.23 1.20 1.18 1.14 1.09 1.06 1.00
0.86 0.99 1.13 1.18 0.97 0.93 0.71 0.71 0.70 0.58 0.53 0.55 0.53 0.56 0.58 0.58 0.63 0.74 0.83 0.92 0.92 0.87 0.83 0.81 0.79 0.84 0.91 0.97 1.04 1.12 1.14 1.17 1.27 1.27 1.26 1.22 1.13 1.04 1.04 1.11 1.14 1.10 1.06 1.05 1.06 1.02 1.01 1.01 0.98
0.71 0.76 0.93 1.29 0.94 0.74 0.76 0.77 0.60 0.47 0.43 0.44 0.45 0.46 0.48 0.50 0.55 0.64 0.71 0.75 0.78 0.79 0.82 0.84 0.78 0.79 0.82 0.90 0.98 1.01 1.03 1.01 1.07 1.10 1.13 1.11 1.06 0.99 0.94 0.97 1.02 1.00 0.95 0.93 0.94 0.93 0.92 0.97 0.98

GEFSSGP_prec_meanprecacc_240.txt.gz
Total_Precipitation_Accumulation
0.24 0.29 0.37 0.52 0.45 0.31 0.18 0.07 0.04 0.06 0.07 0.06 0.05 0.06 0.08 0.11 0.17 0.26 0.23 0.20 0.16 0.18 0.31 0.49 0.57 0.61 0.64 0.59 0.47 0.38 0.38 0.43 0.49 0.53 0.55 0.58 0.54 0.47 0.46 0.45 0.50 0.54 0.63 0.64 0.57 0.49 0.37 0.32 0.26
0.24 0.37 0.59 0.68 0.46 0.26 0.12 0.07 0.06 0.07 0.08 0.09 0.08 0.08 0.11 0.16 0.17 0.18 0.26 0.30 0.25 0.26 0.41 0.49 0.61 0.65 0.67 0.65 0.55 0.48 0.43 0.47 0.53 0.58 0.62 0.66 0.62 0.54 0.57 0.55 0.53 0.55 0.56 0.52 0.45 0.42 0.35 0.26 0.21
0.32 0.52 0.81 0.70 0.43 0.25 0.12 0.07 0.07 0.07 0.08 0.11 0.14 0.15 0.20 0.25 0.21 0.25 0.31 0.38 0.41 0.40 0.51 0.65 0.72 0.75 0.76 0.71 0.66 0.60 0.54 0.56 0.61 0.64 0.71 0.70 0.71 0.68 0.71 0.63 0.55 0.50 0.45 0.42 0.39 0.34 0.29 0.22 0.20
0.48 0.80 0.92 0.69 0.37 0.17 0.12 0.09 0.08 0.10 0.10 0.12 0.19 0.28 0.35 0.31 0.27 0.32 0.39 0.44 0.54 0.58 0.67 0.87 0.97 0.97 0.91 0.83 0.77 0.73 0.67 0.66 0.68 0.71 0.77 0.80 0.82 0.81 0.78 0.64 0.50 0.41 0.37 0.37 0.35 0.29 0.26 0.24 0.20
0.75 1.04 0.92 0.61 0.31 0.15 0.10 0.10 0.11 0.13 0.13 0.14 0.22 0.37 0.49 0.43 0.40 0.49 0.53 0.57 0.67 0.69 0.82 1.05 1.20 1.23 1.09 0.97 0.90 0.88 0.86 0.85 0.83 0.80 0.86 0.95 0.93 0.88 0.81 0.63 0.45 0.36 0.34 0.36 0.34 0.31 0.30 0.29 0.24
1.07 1.08 0.87 0.55 0.26 0.16 0.11 0.12 0.14 0.16 0.17 0.19 0.27 0.44 0.62 0.64 0.68 0.76 0.78 0.75 0.84 0.82 0.94 1.18 1.34 1.30 1.22 1.18 1.10 1.08 1.09 1.03 0.98 0.95 1.04 1.08 1.02 0.90 0.80 0.67 0.52 0.41 0.34 0.33 0.32 0.32 0.32 0.30 0.29
1.12 0.95 0.68 0.42 0.25 0.20 0.15 0.13 0.17 0.19 0.22 0.25 0.28 0.54 0.75 0.93 1.05 1.11 1.15 1.13 1.10 1.10 1.20 1.36 1.40 1.32 1.22 1.16 1.18 1.18 1.23 1.25 1.13 1.03 1.06 1.07 1.00 0.87 0.80 0.63 0.58 0.50 0.43 0.38 0.34 0.32 0.32 0.31 0.30
1.12 1.08 0.66 0.41 0.30 0.24 0.20 0.20 0.18 0.21 0.26 0.29 0.36 0.62 0.85 1.05 1.31 1.53 1.54 1.67 1.60 1.56 1.55 1.57 1.59 1.51 1.34 1.17 1.21 1.21 1.18 1.15 1.17 1.09 0.94 0.88 0.82 0.72 0.71 0.54 0.53 0.51 0.45 0.40 0.36 0.34 0.36 0.32 0.26
1.18 1.24 0.74 0.40 0.33 0.28 0.27 0.29 0.25 0.22 0.31 0.42 0.45 0.60 0.89 1.20 1.58 1.99 2.02 2.11 2.11 1.99 1.95 1.79 1.79 1.71 1.64 1.48 1.35 1.37 1.26 1.15 1.11 1.07 0.90 0.83 0.88 0.78 0.61 0.42 0.41 0.42 0.40 0.37 0.34 0.33 0.33 0.27 0.21
1.28 1.07 0.57 0.32 0.30 0.33 0.34 0.38 0.36 0.34 0.41 0.51 0.63 0.69 1.08 1.57 1.92 2.16 2.23 2.15 2.28 2.19 2.15 2.01 1.92 1.88 1.89 1.65 1.52 1.55 1.41 1.25 1.11 0.99 0.98 0.90 0.88 0.84 0.65 0.51 0.40 0.42 0.39 0.37 0.38 0.39 0.35 0.27 0.21
1.03 0.71 0.47 0.38 0.37 0.40 0.44 0.45 0.47 0.50 0.51 0.53 0.61 0.73 1.10 1.64 2.14 2.25 2.42 2.37 2.40 2.51 2.43 2.28 2.15 2.03 2.03 1.96 1.65 1.57 1.44 1.36 1.26 1.08 1.03 1.00 1.01 0.94 0.83 0.73 0.56 0.51 0.42 0.41 0.41 0.42 0.35 0.30 0.27
0.84 0.56 0.53 0.53 0.48 0.53 0.54 0.53 0.52 0.53 0.52 0.50 0.61 0.73 1.06 1.48 1.94 2.30 2.47 2.55 2.41 2.57 2.63 2.46 2.34 2.25 2.16 2.09 1.88 1.66 1.52 1.37 1.28 1.14 1.01 1.05 1.08 0.98 0.86 0.74 0.63 0.56 0.46 0.43 0.42 0.38 0.33 0.28 0.26
0.75 0.58 0.58 0.61 0.60 0.65 0.67 0.61 0.58 0.53 0.51 0.58 0.80 1.00 1.18 1.41 1.70 2.19 2.53 2.61 2.49 2.45 2.66 2.64 2.51 2.38 2.23 2.16 2.05 1.81 1.56 1.36 1.34 1.33 1.19 1.03 0.97 0.90 0.84 0.73 0.70 0.61 0.53 0.49 0.46 0.41 0.38 0.34 0.30
0.63 0.59 0.66 0.72 0.75 0.75 0.83 0.70 0.68 0.62 0.61 0.77 0.96 1.10 1.32 1.51 1.69 2.08 2.39 2.57 2.43 2.31 2.52 2.66 2.73 2.60 2.37 2.15 2.03 1.92 1.73 1.54 1.49 1.45 1.36 1.24 1.10 0.99 0.88 0.75 0.72 0.67 0.57 0.50 0.49 0.46 0.44 0.41 0.35
0.73 0.78 0.83 0.86 0.84 0.81 0.93 0.92 0.69 0.66 0.76 0.84 0.93 1.09 1.30 1.53 1.82 2.09 2.21 2.43 2.57 2.39 2.45 2.60 2.74 2.80 2.62 2.39 2.18 2.04 1.90 1.73 1.61 1.54 1.56 1.47 1.31 1.16 1.07 0.90 0.76 0.69 0.70 0.66 0.60 0.57 0.49 0.40 0.35
1.14 1.08 1.01 0.86 0.81 0.81 1.05 1.04 0.70 0.66 0.80 0.85 0.92 1.07 1.24 1.43 1.72 2.00 2.19 2.39 2.69 2.70 2.65 2.73 2.71 2.81 2.81 2.65 2.40 2.16 2.03 1.86 1.64 1.46 1.49 1.54 1.43 1.31 1.24 1.17 1.01 0.88 0.85 0.83 0.70 0.60 0.57 0.45 0.36
1.22 0.99 0.80 0.75 0.75 0.83 0.97 0.92 0.76 0.70 0.73 0.83 0.91 1.00 1.22 1.33 1.49 1.74 2.03 2.34 2.67 2.82 2.89 2.98 2.93 2.77 2.80 2.85 2.69 2.38 2.10 1.90 1.74 1.53 1.40 1.45 1.49 1.38 1.25 1.15 1.15 1.14 1.04 0.92 0.82 0.67 0.66 0.59 0.46
0.75 0.59 0.54 0.58 0.60 0.67 0.76 0.74 0.77 0.80 0.78 0.75 0.84 0.87 1.07 1.18 1.24 1.42 1.73 2.17 2.59 2.82 2.86 2.93 3.01 3.04 3.02 3.03 3.01 2.72 2.37 2.04 1.85 1.71 1.56 1.50 1.53 1.52 1.42 1.27 1.21 1.23 1.21 1.12 1.00 0.87 0.76 0.69 0.64
0.59 0.54 0.48 0.38 0.40 0.55 0.63 0.70 0.80 0.85 0.78 0.75 0.83 0.83 0.88 0.99 1.10 1.22 1.46 1.82 2.20 2.65 2.73 2.72 2.76 2.90 3.01 3.04 2.95 2.77 2.46 2.24 2.00 1.83 1.75 1.67 1.61 1.60 1.61 1.47 1.40 1.40 1.36 1.30 1.26 1.19 1.04 0.86 0.81
0.67 0.64 0.55 0.44 0.43 0.58 0.63 0.73 0.72 0.76 0.79 0.76 0.77 0.78 0.76 0.86 1.03 1.16 1.34 1.59 1.78 2.21 2.55 2.58 2.63 2.68 2.73 2.73 2.84 2.88 2.75 2.50 2.27 2.05 1.87 1.74 1.61 1.57 1.60 1.63 1.56 1.45 1.44 1.42 1.38 1.30 1.18 1.06 0.99
0.69 0.55 0.52 0.60 0.62 0.67 0.70 0.76 0.67 0.65 0.71 0.68 0.66 0.71 0.68 0.75 0.95 1.08 1.20 1.48 1.63 1.93 2.32 2.50 2.59 2.66 2.63 2.73 3.03 3.16 3.10 2.79 2.51 2.25 2.00 1.81 1.72 1.67 1.57 1.53 1.56 1.53 1.50 1.47 1.44 1.45 1.45 1.34 1.21
0.75 0.45 0.49 0.65 0.89 0.94 0.73 0.89 0.66 0.63 0.62 0.63 0.63 0.68 0.68 0.71 0.85 0.93 1.03 1.32 1.49 1.68 1.96 2.19 2.49 2.67 2.74 2.80 2.94 2.92 2.72 2.49 2.25 2.19 2.09 1.97 1.86 1.73 1.67 1.62 1.58 1.56 1.53 1.48 1.50 1.52 1.53 1.56 1.45
0.70 0.53 0.61 0.74 0.99 1.02 0.63 0.78 0.65 0.59 0.63 0.66 0.67 0.75 0.77 0.74 0.82 0.94 1.00 1.13 1.24 1.47 1.74 1.85 2.07 2.33 2.48 2.58 2.75 2.84 2.64 2.39 2.21 2.15 2.08 2.00 1.95 1.81 1.69 1.63 1.63 1.60 1.55 1.52 1.53 1.56 1.56 1.58 1.58
0.75 0.92 0.94 0.95 1.33 1.36 0.60 0.64 0.64 0.64 0.66 0.65 0.66 0.72 0.76 0.76 0.83 0.91 0.92 1.00 1.10 1.24 1.54 1.69 1.85 2.02 2.22 2.29 2.47 2.70 2.56 2.30 2.05 1.96 1.93 1.85 1.81 1.73 1.60 1.55 1.54 1.52 1.48 1.45 1.42 1.46 1.50 1.51 1.48
1.14 1.61 1.91 1.77 1.65 1.04 0.46 0.59 0.72 0.64 0.59 0.64 0.71 0.70 0.71 0.72 0.74 0.82 0.87 0.99 1.07 1.18 1.29 1.37 1.49 1.63 1.85 2.00 2.09 2.30 2.35 2.28 2.09 1.87 1.81 1.74 1.65 1.55 1.46 1.43 1.41 1.44 1.41 1.41 1.41 1.39 1.36 1.42 1.44
1.11 1.31 1.53 1.30 0.86 0.54 0.45 0.62 0.68 0.58 0.59 0.63 0.68 0.69 0.64 0.68 0.72 0.73 0.79 0.91 1.03 1.13 1.13 1.09 1.16 1.33 1.46 1.58 1.66 1.83 1.87 1.96 1.99 1.87 1.70 1.62 1.53 1.45 1.41 1.43 1.43 1.45 1.46 1.39 1.39 1.37 1.32 1.33 1.34
1.07 1.08 0.91 1.14 0.80 0.63 0.56 0.57 0.59 0.53 0.57 0.58 0.59 0.63 0.65 0.66 0.66 0.71 0.80 0.86 0.91 0.98 0.99 0.97 1.01 1.09 1.15 1.30 1.39 1.52 1.54 1.56 1.66 1.68 1.63 1.58 1.49 1.40 1.39 1.43 1.41 1.36 1.35 1.30 1.31 1.31 1.24 1.17 1.17
0.92 0.90 1.08 1.54 1.30 0.89 0.57 0.55 0.74 0.64 0.61 0.64 0.61 0.63 0.67 0.65 0.67 0.75 0.85 0.90 0.90 0.93 0.93 0.87 0.90 0.97 1.02 1.11 1.24 1.33 1.35 1.39 1.44 1.46 1.41 1.35 1.32 1.27 1.26 1.30 1.33 1.29 1.24 1.22 1.20 1.17 1.13 1.10 1.02
0.89 1.02 1.16 1.21 1.01 0.97 0.74 0.74 0.75 0.63 0.58 0.58 0.56 0.58 0.60 0.60 0.65 0.76 0.85 0.94 0.94 0.89 0.85 0.83 0.80 0.86 0.92 0.98 1.05 1.14 1.15 1.18 1.27 1.28 1.26 1.22 1.13 1.05 1.04 1.12 1.15 1.12 1.08 1.07 1.07 1.04 1.03 1.03 1.01
0.73 0.79 0.97 1.33 0.98 0.77 0.80 0.81 0.65 0.55 0.49 0.48 0.48 0.50 0.51 0.51 0.57 0.67 0.73 0.77 0.80 0.81 0.84 0.86 0.81 0.81 0.83 0.91 0.98 1.02 1.04 1.02 1.08 1.11 1.14 1.12 1.07 1.00 0.95 0.98 1.03 1.01 0.97 0.94 0.95 0.94 0.94 0.98 1.00